<?xml version="1.0" encoding="UTF-8" standalone="no" ?>
<gpx xmlns="http://www.topografix.com/GPX/1/1" xmlns:xsi="http://www.w3.org/2001/XMLSchema-instance" xsi:schemaLocation="http://www.topografix.com/GPX/1/1 http://www.topografix.com/GPX/1/1/gpx.xsd" version="1.1" creator="VisuGPX - https://www.visugpx.com">
  <metadata>
    <name>lundi 2016 05</name>
    <desc><![CDATA[cumul des lundi du mois de mai 2016]]></desc>
  </metadata>
  <trk>
    <name><![CDATA[lundi 2016 05 02]]></name>
    <trkseg>
      <trkpt lat="48.85741" lon="2.34721">
        <ele>40.400001525879</ele>
        <time>2016-05-02T18:20:50.000Z</time>
      </trkpt>
      <trkpt lat="48.85744" lon="2.3472">
        <ele>40.400001525879</ele>
        <time>2016-05-02T18:20:51.000Z</time>
      </trkpt>
      <trkpt lat="48.85744" lon="2.34719">
        <ele>40.400001525879</ele>
        <time>2016-05-02T18:20:55.000Z</time>
      </trkpt>
      <trkpt lat="48.8576" lon="2.34722">
        <ele>39.799999237061</ele>
        <time>2016-05-02T18:21:14.000Z</time>
      </trkpt>
      <trkpt lat="48.85777" lon="2.34725">
        <ele>39.599998474121</ele>
        <time>2016-05-02T18:21:22.000Z</time>
      </trkpt>
      <trkpt lat="48.85794" lon="2.34707">
        <ele>40.400001525879</ele>
        <time>2016-05-02T18:21:29.000Z</time>
      </trkpt>
      <trkpt lat="48.85808" lon="2.34686">
        <ele>41.599998474121</ele>
        <time>2016-05-02T18:21:34.000Z</time>
      </trkpt>
      <trkpt lat="48.85821" lon="2.34662">
        <ele>44.200000762939</ele>
        <time>2016-05-02T18:21:40.000Z</time>
      </trkpt>
      <trkpt lat="48.85828" lon="2.34633">
        <ele>47.799999237061</ele>
        <time>2016-05-02T18:21:46.000Z</time>
      </trkpt>
      <trkpt lat="48.85836" lon="2.34608">
        <ele>49</ele>
        <time>2016-05-02T18:21:52.000Z</time>
      </trkpt>
      <trkpt lat="48.85839" lon="2.34606">
        <ele>49.200000762939</ele>
        <time>2016-05-02T18:21:53.000Z</time>
      </trkpt>
      <trkpt lat="48.85847" lon="2.34605">
        <ele>49.799999237061</ele>
        <time>2016-05-02T18:21:58.000Z</time>
      </trkpt>
      <trkpt lat="48.85865" lon="2.34612">
        <ele>50</ele>
        <time>2016-05-02T18:22:05.000Z</time>
      </trkpt>
      <trkpt lat="48.85882" lon="2.34598">
        <ele>50.200000762939</ele>
        <time>2016-05-02T18:22:14.000Z</time>
      </trkpt>
      <trkpt lat="48.85888" lon="2.34569">
        <ele>50.599998474121</ele>
        <time>2016-05-02T18:22:22.000Z</time>
      </trkpt>
      <trkpt lat="48.85894" lon="2.34543">
        <ele>49.599998474121</ele>
        <time>2016-05-02T18:22:30.000Z</time>
      </trkpt>
      <trkpt lat="48.85914" lon="2.34533">
        <ele>50</ele>
        <time>2016-05-02T18:22:39.000Z</time>
      </trkpt>
      <trkpt lat="48.85933" lon="2.34539">
        <ele>50.799999237061</ele>
        <time>2016-05-02T18:22:48.000Z</time>
      </trkpt>
      <trkpt lat="48.85936" lon="2.34536">
        <ele>50.799999237061</ele>
        <time>2016-05-02T18:22:51.000Z</time>
      </trkpt>
      <trkpt lat="48.85944" lon="2.34537">
        <ele>50.799999237061</ele>
        <time>2016-05-02T18:22:56.000Z</time>
      </trkpt>
      <trkpt lat="48.85953" lon="2.34527">
        <ele>50.599998474121</ele>
        <time>2016-05-02T18:23:02.000Z</time>
      </trkpt>
      <trkpt lat="48.85959" lon="2.345">
        <ele>51.400001525879</ele>
        <time>2016-05-02T18:23:09.000Z</time>
      </trkpt>
      <trkpt lat="48.85973" lon="2.34475">
        <ele>52</ele>
        <time>2016-05-02T18:23:16.000Z</time>
      </trkpt>
      <trkpt lat="48.85982" lon="2.34445">
        <ele>52.599998474121</ele>
        <time>2016-05-02T18:23:22.000Z</time>
      </trkpt>
      <trkpt lat="48.85985" lon="2.34417">
        <ele>53</ele>
        <time>2016-05-02T18:23:27.000Z</time>
      </trkpt>
      <trkpt lat="48.8599" lon="2.34411">
        <ele>53.200000762939</ele>
        <time>2016-05-02T18:23:29.000Z</time>
      </trkpt>
      <trkpt lat="48.85999" lon="2.34385">
        <ele>53.599998474121</ele>
        <time>2016-05-02T18:23:34.000Z</time>
      </trkpt>
      <trkpt lat="48.8601" lon="2.34362">
        <ele>53.400001525879</ele>
        <time>2016-05-02T18:23:38.000Z</time>
      </trkpt>
      <trkpt lat="48.86019" lon="2.34337">
        <ele>53</ele>
        <time>2016-05-02T18:23:42.000Z</time>
      </trkpt>
      <trkpt lat="48.86028" lon="2.3431">
        <ele>51.599998474121</ele>
        <time>2016-05-02T18:23:46.000Z</time>
      </trkpt>
      <trkpt lat="48.86039" lon="2.34279">
        <ele>49.599998474121</ele>
        <time>2016-05-02T18:23:50.000Z</time>
      </trkpt>
      <trkpt lat="48.86047" lon="2.34252">
        <ele>48.400001525879</ele>
        <time>2016-05-02T18:23:53.000Z</time>
      </trkpt>
      <trkpt lat="48.86056" lon="2.34221">
        <ele>48.400001525879</ele>
        <time>2016-05-02T18:23:57.000Z</time>
      </trkpt>
      <trkpt lat="48.86065" lon="2.34193">
        <ele>48.400001525879</ele>
        <time>2016-05-02T18:24:01.000Z</time>
      </trkpt>
      <trkpt lat="48.86074" lon="2.34176">
        <ele>48.200000762939</ele>
        <time>2016-05-02T18:24:04.000Z</time>
      </trkpt>
      <trkpt lat="48.86092" lon="2.34155">
        <ele>48</ele>
        <time>2016-05-02T18:24:09.000Z</time>
      </trkpt>
      <trkpt lat="48.86096" lon="2.34127">
        <ele>47.400001525879</ele>
        <time>2016-05-02T18:24:13.000Z</time>
      </trkpt>
      <trkpt lat="48.86099" lon="2.34111">
        <ele>46.799999237061</ele>
        <time>2016-05-02T18:24:16.000Z</time>
      </trkpt>
      <trkpt lat="48.8611" lon="2.34082">
        <ele>46.200000762939</ele>
        <time>2016-05-02T18:24:22.000Z</time>
      </trkpt>
      <trkpt lat="48.86114" lon="2.3407">
        <ele>46.400001525879</ele>
        <time>2016-05-02T18:24:24.000Z</time>
      </trkpt>
      <trkpt lat="48.86126" lon="2.34043">
        <ele>47.200000762939</ele>
        <time>2016-05-02T18:24:29.000Z</time>
      </trkpt>
      <trkpt lat="48.86141" lon="2.34021">
        <ele>47.799999237061</ele>
        <time>2016-05-02T18:24:34.000Z</time>
      </trkpt>
      <trkpt lat="48.86153" lon="2.34">
        <ele>48.200000762939</ele>
        <time>2016-05-02T18:24:39.000Z</time>
      </trkpt>
      <trkpt lat="48.86157" lon="2.33987">
        <ele>48.799999237061</ele>
        <time>2016-05-02T18:24:42.000Z</time>
      </trkpt>
      <trkpt lat="48.86167" lon="2.33961">
        <ele>49</ele>
        <time>2016-05-02T18:24:49.000Z</time>
      </trkpt>
      <trkpt lat="48.8617" lon="2.33934">
        <ele>47.400001525879</ele>
        <time>2016-05-02T18:24:56.000Z</time>
      </trkpt>
      <trkpt lat="48.8618" lon="2.3391">
        <ele>45.799999237061</ele>
        <time>2016-05-02T18:25:01.000Z</time>
      </trkpt>
      <trkpt lat="48.86191" lon="2.33882">
        <ele>44.400001525879</ele>
        <time>2016-05-02T18:25:06.000Z</time>
      </trkpt>
      <trkpt lat="48.862" lon="2.33857">
        <ele>44</ele>
        <time>2016-05-02T18:25:10.000Z</time>
      </trkpt>
      <trkpt lat="48.86209" lon="2.3383">
        <ele>43.599998474121</ele>
        <time>2016-05-02T18:25:14.000Z</time>
      </trkpt>
      <trkpt lat="48.86218" lon="2.33801">
        <ele>45.200000762939</ele>
        <time>2016-05-02T18:25:18.000Z</time>
      </trkpt>
      <trkpt lat="48.86229" lon="2.33774">
        <ele>46.200000762939</ele>
        <time>2016-05-02T18:25:22.000Z</time>
      </trkpt>
      <trkpt lat="48.8624" lon="2.33746">
        <ele>46.400001525879</ele>
        <time>2016-05-02T18:25:26.000Z</time>
      </trkpt>
      <trkpt lat="48.86255" lon="2.33724">
        <ele>47.200000762939</ele>
        <time>2016-05-02T18:25:30.000Z</time>
      </trkpt>
      <trkpt lat="48.86265" lon="2.33697">
        <ele>47</ele>
        <time>2016-05-02T18:25:34.000Z</time>
      </trkpt>
      <trkpt lat="48.86269" lon="2.33685">
        <ele>47</ele>
        <time>2016-05-02T18:25:36.000Z</time>
      </trkpt>
      <trkpt lat="48.86272" lon="2.33673">
        <ele>47</ele>
        <time>2016-05-02T18:25:38.000Z</time>
      </trkpt>
      <trkpt lat="48.86265" lon="2.33644">
        <ele>47.400001525879</ele>
        <time>2016-05-02T18:25:42.000Z</time>
      </trkpt>
      <trkpt lat="48.86264" lon="2.33637">
        <ele>47.599998474121</ele>
        <time>2016-05-02T18:25:43.000Z</time>
      </trkpt>
      <trkpt lat="48.86263" lon="2.33623">
        <ele>47.799999237061</ele>
        <time>2016-05-02T18:25:45.000Z</time>
      </trkpt>
      <trkpt lat="48.86268" lon="2.33598">
        <ele>47.799999237061</ele>
        <time>2016-05-02T18:25:49.000Z</time>
      </trkpt>
      <trkpt lat="48.86277" lon="2.33568">
        <ele>47.400001525879</ele>
        <time>2016-05-02T18:25:54.000Z</time>
      </trkpt>
      <trkpt lat="48.86284" lon="2.33535">
        <ele>45.599998474121</ele>
        <time>2016-05-02T18:25:59.000Z</time>
      </trkpt>
      <trkpt lat="48.8629" lon="2.33509">
        <ele>44.599998474121</ele>
        <time>2016-05-02T18:26:03.000Z</time>
      </trkpt>
      <trkpt lat="48.86297" lon="2.33491">
        <ele>45</ele>
        <time>2016-05-02T18:26:06.000Z</time>
      </trkpt>
      <trkpt lat="48.86301" lon="2.33478">
        <ele>45.200000762939</ele>
        <time>2016-05-02T18:26:08.000Z</time>
      </trkpt>
      <trkpt lat="48.86306" lon="2.33457">
        <ele>45.200000762939</ele>
        <time>2016-05-02T18:26:11.000Z</time>
      </trkpt>
      <trkpt lat="48.86318" lon="2.33428">
        <ele>46.799999237061</ele>
        <time>2016-05-02T18:26:16.000Z</time>
      </trkpt>
      <trkpt lat="48.86321" lon="2.33422">
        <ele>47.400001525879</ele>
        <time>2016-05-02T18:26:17.000Z</time>
      </trkpt>
      <trkpt lat="48.86334" lon="2.334">
        <ele>49.200000762939</ele>
        <time>2016-05-02T18:26:22.000Z</time>
      </trkpt>
      <trkpt lat="48.86334" lon="2.33394">
        <ele>49.400001525879</ele>
        <time>2016-05-02T18:26:23.000Z</time>
      </trkpt>
      <trkpt lat="48.8634" lon="2.3336">
        <ele>48.400001525879</ele>
        <time>2016-05-02T18:26:29.000Z</time>
      </trkpt>
      <trkpt lat="48.86344" lon="2.33326">
        <ele>47.599998474121</ele>
        <time>2016-05-02T18:26:34.000Z</time>
      </trkpt>
      <trkpt lat="48.8635" lon="2.33299">
        <ele>46.599998474121</ele>
        <time>2016-05-02T18:26:38.000Z</time>
      </trkpt>
      <trkpt lat="48.86356" lon="2.33272">
        <ele>45.200000762939</ele>
        <time>2016-05-02T18:26:42.000Z</time>
      </trkpt>
      <trkpt lat="48.86368" lon="2.33243">
        <ele>44.200000762939</ele>
        <time>2016-05-02T18:26:47.000Z</time>
      </trkpt>
      <trkpt lat="48.86382" lon="2.33223">
        <ele>43.400001525879</ele>
        <time>2016-05-02T18:26:52.000Z</time>
      </trkpt>
      <trkpt lat="48.86392" lon="2.33195">
        <ele>42.200000762939</ele>
        <time>2016-05-02T18:26:57.000Z</time>
      </trkpt>
      <trkpt lat="48.86399" lon="2.33177">
        <ele>42</ele>
        <time>2016-05-02T18:27:00.000Z</time>
      </trkpt>
      <trkpt lat="48.86407" lon="2.33151">
        <ele>42.400001525879</ele>
        <time>2016-05-02T18:27:04.000Z</time>
      </trkpt>
      <trkpt lat="48.86414" lon="2.33124">
        <ele>43.200000762939</ele>
        <time>2016-05-02T18:27:08.000Z</time>
      </trkpt>
      <trkpt lat="48.86424" lon="2.33095">
        <ele>44</ele>
        <time>2016-05-02T18:27:12.000Z</time>
      </trkpt>
      <trkpt lat="48.86434" lon="2.33066">
        <ele>44.599998474121</ele>
        <time>2016-05-02T18:27:16.000Z</time>
      </trkpt>
      <trkpt lat="48.86445" lon="2.33036">
        <ele>44.200000762939</ele>
        <time>2016-05-02T18:27:20.000Z</time>
      </trkpt>
      <trkpt lat="48.86453" lon="2.3301">
        <ele>43.799999237061</ele>
        <time>2016-05-02T18:27:23.000Z</time>
      </trkpt>
      <trkpt lat="48.86461" lon="2.32982">
        <ele>44</ele>
        <time>2016-05-02T18:27:26.000Z</time>
      </trkpt>
      <trkpt lat="48.86469" lon="2.32953">
        <ele>44.400001525879</ele>
        <time>2016-05-02T18:27:29.000Z</time>
      </trkpt>
      <trkpt lat="48.86477" lon="2.32926">
        <ele>44.400001525879</ele>
        <time>2016-05-02T18:27:32.000Z</time>
      </trkpt>
      <trkpt lat="48.86485" lon="2.32899">
        <ele>44.799999237061</ele>
        <time>2016-05-02T18:27:35.000Z</time>
      </trkpt>
      <trkpt lat="48.86494" lon="2.32872">
        <ele>45.400001525879</ele>
        <time>2016-05-02T18:27:38.000Z</time>
      </trkpt>
      <trkpt lat="48.86502" lon="2.32845">
        <ele>45.400001525879</ele>
        <time>2016-05-02T18:27:41.000Z</time>
      </trkpt>
      <trkpt lat="48.86509" lon="2.32819">
        <ele>45.200000762939</ele>
        <time>2016-05-02T18:27:44.000Z</time>
      </trkpt>
      <trkpt lat="48.86516" lon="2.32792">
        <ele>45.200000762939</ele>
        <time>2016-05-02T18:27:47.000Z</time>
      </trkpt>
      <trkpt lat="48.86526" lon="2.3276">
        <ele>45.200000762939</ele>
        <time>2016-05-02T18:27:51.000Z</time>
      </trkpt>
      <trkpt lat="48.86535" lon="2.32732">
        <ele>44.799999237061</ele>
        <time>2016-05-02T18:27:55.000Z</time>
      </trkpt>
      <trkpt lat="48.86539" lon="2.32727">
        <ele>44.599998474121</ele>
        <time>2016-05-02T18:27:58.000Z</time>
      </trkpt>
      <trkpt lat="48.86544" lon="2.32707">
        <ele>43.799999237061</ele>
        <time>2016-05-02T18:28:17.000Z</time>
      </trkpt>
      <trkpt lat="48.86548" lon="2.32692">
        <ele>43.200000762939</ele>
        <time>2016-05-02T18:28:19.000Z</time>
      </trkpt>
      <trkpt lat="48.86553" lon="2.32678">
        <ele>43.200000762939</ele>
        <time>2016-05-02T18:28:21.000Z</time>
      </trkpt>
      <trkpt lat="48.86562" lon="2.32647">
        <ele>42.799999237061</ele>
        <time>2016-05-02T18:28:25.000Z</time>
      </trkpt>
      <trkpt lat="48.86571" lon="2.32616">
        <ele>42.400001525879</ele>
        <time>2016-05-02T18:28:29.000Z</time>
      </trkpt>
      <trkpt lat="48.86578" lon="2.32586">
        <ele>42.200000762939</ele>
        <time>2016-05-02T18:28:33.000Z</time>
      </trkpt>
      <trkpt lat="48.86587" lon="2.32559">
        <ele>42.599998474121</ele>
        <time>2016-05-02T18:28:37.000Z</time>
      </trkpt>
      <trkpt lat="48.86598" lon="2.32533">
        <ele>42.400001525879</ele>
        <time>2016-05-02T18:28:41.000Z</time>
      </trkpt>
      <trkpt lat="48.86607" lon="2.32503">
        <ele>42.200000762939</ele>
        <time>2016-05-02T18:28:45.000Z</time>
      </trkpt>
      <trkpt lat="48.86614" lon="2.32474">
        <ele>41.200000762939</ele>
        <time>2016-05-02T18:28:49.000Z</time>
      </trkpt>
      <trkpt lat="48.86621" lon="2.32448">
        <ele>40.200000762939</ele>
        <time>2016-05-02T18:28:53.000Z</time>
      </trkpt>
      <trkpt lat="48.86626" lon="2.32434">
        <ele>39.799999237061</ele>
        <time>2016-05-02T18:28:56.000Z</time>
      </trkpt>
      <trkpt lat="48.8663" lon="2.32427">
        <ele>39.799999237061</ele>
        <time>2016-05-02T18:28:58.000Z</time>
      </trkpt>
      <trkpt lat="48.86641" lon="2.3242">
        <ele>40.599998474121</ele>
        <time>2016-05-02T18:29:05.000Z</time>
      </trkpt>
      <trkpt lat="48.86657" lon="2.32434">
        <ele>42</ele>
        <time>2016-05-02T18:29:11.000Z</time>
      </trkpt>
      <trkpt lat="48.86673" lon="2.32448">
        <ele>43.200000762939</ele>
        <time>2016-05-02T18:29:16.000Z</time>
      </trkpt>
      <trkpt lat="48.86678" lon="2.32457">
        <ele>43.799999237061</ele>
        <time>2016-05-02T18:29:21.000Z</time>
      </trkpt>
      <trkpt lat="48.86678" lon="2.3247">
        <ele>43.799999237061</ele>
        <time>2016-05-02T18:29:25.000Z</time>
      </trkpt>
      <trkpt lat="48.86676" lon="2.32499">
        <ele>44.599998474121</ele>
        <time>2016-05-02T18:29:30.000Z</time>
      </trkpt>
      <trkpt lat="48.86667" lon="2.32528">
        <ele>44.599998474121</ele>
        <time>2016-05-02T18:29:36.000Z</time>
      </trkpt>
      <trkpt lat="48.86675" lon="2.32562">
        <ele>45.200000762939</ele>
        <time>2016-05-02T18:29:44.000Z</time>
      </trkpt>
      <trkpt lat="48.86664" lon="2.32586">
        <ele>45.599998474121</ele>
        <time>2016-05-02T18:29:52.000Z</time>
      </trkpt>
      <trkpt lat="48.8665" lon="2.32611">
        <ele>45.799999237061</ele>
        <time>2016-05-02T18:29:58.000Z</time>
      </trkpt>
      <trkpt lat="48.86635" lon="2.32633">
        <ele>46</ele>
        <time>2016-05-02T18:30:03.000Z</time>
      </trkpt>
      <trkpt lat="48.86626" lon="2.32661">
        <ele>46.400001525879</ele>
        <time>2016-05-02T18:30:08.000Z</time>
      </trkpt>
      <trkpt lat="48.86617" lon="2.32685">
        <ele>46.799999237061</ele>
        <time>2016-05-02T18:30:12.000Z</time>
      </trkpt>
      <trkpt lat="48.86609" lon="2.32713">
        <ele>47.200000762939</ele>
        <time>2016-05-02T18:30:17.000Z</time>
      </trkpt>
      <trkpt lat="48.86603" lon="2.32743">
        <ele>47.599998474121</ele>
        <time>2016-05-02T18:30:23.000Z</time>
      </trkpt>
      <trkpt lat="48.86598" lon="2.32775">
        <ele>47.400001525879</ele>
        <time>2016-05-02T18:30:28.000Z</time>
      </trkpt>
      <trkpt lat="48.86608" lon="2.3279">
        <ele>47.400001525879</ele>
        <time>2016-05-02T18:30:30.000Z</time>
      </trkpt>
      <trkpt lat="48.86621" lon="2.32813">
        <ele>47.200000762939</ele>
        <time>2016-05-02T18:30:36.000Z</time>
      </trkpt>
      <trkpt lat="48.86638" lon="2.32828">
        <ele>47</ele>
        <time>2016-05-02T18:30:42.000Z</time>
      </trkpt>
      <trkpt lat="48.86657" lon="2.32841">
        <ele>47</ele>
        <time>2016-05-02T18:30:46.000Z</time>
      </trkpt>
      <trkpt lat="48.86671" lon="2.32859">
        <ele>47</ele>
        <time>2016-05-02T18:30:50.000Z</time>
      </trkpt>
      <trkpt lat="48.86687" lon="2.32878">
        <ele>47</ele>
        <time>2016-05-02T18:30:55.000Z</time>
      </trkpt>
      <trkpt lat="48.867" lon="2.32897">
        <ele>46.400001525879</ele>
        <time>2016-05-02T18:31:01.000Z</time>
      </trkpt>
      <trkpt lat="48.86717" lon="2.32918">
        <ele>45.400001525879</ele>
        <time>2016-05-02T18:31:06.000Z</time>
      </trkpt>
      <trkpt lat="48.8673" lon="2.32937">
        <ele>44.799999237061</ele>
        <time>2016-05-02T18:31:10.000Z</time>
      </trkpt>
      <trkpt lat="48.86751" lon="2.32953">
        <ele>43.799999237061</ele>
        <time>2016-05-02T18:31:14.000Z</time>
      </trkpt>
      <trkpt lat="48.8677" lon="2.32965">
        <ele>42.799999237061</ele>
        <time>2016-05-02T18:31:18.000Z</time>
      </trkpt>
      <trkpt lat="48.86789" lon="2.32979">
        <ele>43.400001525879</ele>
        <time>2016-05-02T18:31:23.000Z</time>
      </trkpt>
      <trkpt lat="48.86801" lon="2.32991">
        <ele>44</ele>
        <time>2016-05-02T18:31:27.000Z</time>
      </trkpt>
      <trkpt lat="48.86811" lon="2.33001">
        <ele>44.599998474121</ele>
        <time>2016-05-02T18:31:31.000Z</time>
      </trkpt>
      <trkpt lat="48.86827" lon="2.33017">
        <ele>46.200000762939</ele>
        <time>2016-05-02T18:31:38.000Z</time>
      </trkpt>
      <trkpt lat="48.86845" lon="2.33016">
        <ele>46.799999237061</ele>
        <time>2016-05-02T18:31:44.000Z</time>
      </trkpt>
      <trkpt lat="48.86865" lon="2.33004">
        <ele>46.599998474121</ele>
        <time>2016-05-02T18:31:50.000Z</time>
      </trkpt>
      <trkpt lat="48.86881" lon="2.32984">
        <ele>47.599998474121</ele>
        <time>2016-05-02T18:31:55.000Z</time>
      </trkpt>
      <trkpt lat="48.86898" lon="2.32964">
        <ele>48.599998474121</ele>
        <time>2016-05-02T18:32:00.000Z</time>
      </trkpt>
      <trkpt lat="48.86913" lon="2.32941">
        <ele>49</ele>
        <time>2016-05-02T18:32:05.000Z</time>
      </trkpt>
      <trkpt lat="48.86927" lon="2.32916">
        <ele>49.400001525879</ele>
        <time>2016-05-02T18:32:10.000Z</time>
      </trkpt>
      <trkpt lat="48.86944" lon="2.329">
        <ele>50</ele>
        <time>2016-05-02T18:32:14.000Z</time>
      </trkpt>
      <trkpt lat="48.86961" lon="2.32882">
        <ele>50</ele>
        <time>2016-05-02T18:32:18.000Z</time>
      </trkpt>
      <trkpt lat="48.86978" lon="2.32863">
        <ele>49.799999237061</ele>
        <time>2016-05-02T18:32:23.000Z</time>
      </trkpt>
      <trkpt lat="48.86996" lon="2.32854">
        <ele>48.799999237061</ele>
        <time>2016-05-02T18:32:29.000Z</time>
      </trkpt>
      <trkpt lat="48.87003" lon="2.32847">
        <ele>48.400001525879</ele>
        <time>2016-05-02T18:32:33.000Z</time>
      </trkpt>
      <trkpt lat="48.86994" lon="2.32834">
        <ele>48.200000762939</ele>
        <time>2016-05-02T18:32:42.000Z</time>
      </trkpt>
      <trkpt lat="48.86995" lon="2.32834">
        <ele>48.200000762939</ele>
        <time>2016-05-02T18:32:43.000Z</time>
      </trkpt>
      <trkpt lat="48.87001" lon="2.32804">
        <ele>47.799999237061</ele>
        <time>2016-05-02T18:32:55.000Z</time>
      </trkpt>
      <trkpt lat="48.87016" lon="2.3278">
        <ele>47.200000762939</ele>
        <time>2016-05-02T18:33:00.000Z</time>
      </trkpt>
      <trkpt lat="48.87028" lon="2.32756">
        <ele>47.200000762939</ele>
        <time>2016-05-02T18:33:04.000Z</time>
      </trkpt>
      <trkpt lat="48.87038" lon="2.32731">
        <ele>47.599998474121</ele>
        <time>2016-05-02T18:33:08.000Z</time>
      </trkpt>
      <trkpt lat="48.87047" lon="2.32706">
        <ele>48</ele>
        <time>2016-05-02T18:33:12.000Z</time>
      </trkpt>
      <trkpt lat="48.87052" lon="2.32678">
        <ele>48.599998474121</ele>
        <time>2016-05-02T18:33:16.000Z</time>
      </trkpt>
      <trkpt lat="48.87061" lon="2.32654">
        <ele>48.599998474121</ele>
        <time>2016-05-02T18:33:20.000Z</time>
      </trkpt>
      <trkpt lat="48.87069" lon="2.32633">
        <ele>48.400001525879</ele>
        <time>2016-05-02T18:33:24.000Z</time>
      </trkpt>
      <trkpt lat="48.87071" lon="2.32611">
        <ele>47.599998474121</ele>
        <time>2016-05-02T18:33:27.000Z</time>
      </trkpt>
      <trkpt lat="48.8707" lon="2.32584">
        <ele>46.799999237061</ele>
        <time>2016-05-02T18:33:31.000Z</time>
      </trkpt>
      <trkpt lat="48.87073" lon="2.32567">
        <ele>45.400001525879</ele>
        <time>2016-05-02T18:33:34.000Z</time>
      </trkpt>
      <trkpt lat="48.8708" lon="2.32546">
        <ele>44.400001525879</ele>
        <time>2016-05-02T18:33:38.000Z</time>
      </trkpt>
      <trkpt lat="48.87086" lon="2.32534">
        <ele>44.799999237061</ele>
        <time>2016-05-02T18:33:41.000Z</time>
      </trkpt>
      <trkpt lat="48.87104" lon="2.32536">
        <ele>46.400001525879</ele>
        <time>2016-05-02T18:33:47.000Z</time>
      </trkpt>
      <trkpt lat="48.87125" lon="2.32546">
        <ele>47.200000762939</ele>
        <time>2016-05-02T18:33:53.000Z</time>
      </trkpt>
      <trkpt lat="48.87143" lon="2.32553">
        <ele>48</ele>
        <time>2016-05-02T18:33:57.000Z</time>
      </trkpt>
      <trkpt lat="48.87162" lon="2.32564">
        <ele>48.799999237061</ele>
        <time>2016-05-02T18:34:03.000Z</time>
      </trkpt>
      <trkpt lat="48.87243" lon="2.32494">
        <ele>50</ele>
        <time>2016-05-02T18:34:59.000Z</time>
      </trkpt>
      <trkpt lat="48.87248" lon="2.32462">
        <ele>49.400001525879</ele>
        <time>2016-05-02T18:35:04.000Z</time>
      </trkpt>
      <trkpt lat="48.87256" lon="2.32436">
        <ele>48.799999237061</ele>
        <time>2016-05-02T18:35:08.000Z</time>
      </trkpt>
      <trkpt lat="48.8727" lon="2.32417">
        <ele>48.200000762939</ele>
        <time>2016-05-02T18:35:13.000Z</time>
      </trkpt>
      <trkpt lat="48.8729" lon="2.3241">
        <ele>47.400001525879</ele>
        <time>2016-05-02T18:35:21.000Z</time>
      </trkpt>
      <trkpt lat="48.87312" lon="2.32408">
        <ele>46.599998474121</ele>
        <time>2016-05-02T18:35:26.000Z</time>
      </trkpt>
      <trkpt lat="48.87331" lon="2.3242">
        <ele>46</ele>
        <time>2016-05-02T18:35:32.000Z</time>
      </trkpt>
      <trkpt lat="48.87351" lon="2.32426">
        <ele>45.400001525879</ele>
        <time>2016-05-02T18:35:37.000Z</time>
      </trkpt>
      <trkpt lat="48.87372" lon="2.32436">
        <ele>44.599998474121</ele>
        <time>2016-05-02T18:35:41.000Z</time>
      </trkpt>
      <trkpt lat="48.87394" lon="2.32443">
        <ele>43.799999237061</ele>
        <time>2016-05-02T18:35:45.000Z</time>
      </trkpt>
      <trkpt lat="48.874" lon="2.32443">
        <ele>43.599998474121</ele>
        <time>2016-05-02T18:35:46.000Z</time>
      </trkpt>
      <trkpt lat="48.87406" lon="2.32452">
        <ele>43.400001525879</ele>
        <time>2016-05-02T18:35:48.000Z</time>
      </trkpt>
      <trkpt lat="48.87422" lon="2.32441">
        <ele>43</ele>
        <time>2016-05-02T18:35:52.000Z</time>
      </trkpt>
      <trkpt lat="48.87431" lon="2.32422">
        <ele>43.200000762939</ele>
        <time>2016-05-02T18:35:55.000Z</time>
      </trkpt>
      <trkpt lat="48.87431" lon="2.3241">
        <ele>43.200000762939</ele>
        <time>2016-05-02T18:35:57.000Z</time>
      </trkpt>
      <trkpt lat="48.87438" lon="2.32383">
        <ele>43</ele>
        <time>2016-05-02T18:36:01.000Z</time>
      </trkpt>
      <trkpt lat="48.87445" lon="2.32358">
        <ele>43</ele>
        <time>2016-05-02T18:36:05.000Z</time>
      </trkpt>
      <trkpt lat="48.87446" lon="2.32352">
        <ele>43</ele>
        <time>2016-05-02T18:36:06.000Z</time>
      </trkpt>
      <trkpt lat="48.87444" lon="2.32318">
        <ele>43.599998474121</ele>
        <time>2016-05-02T18:36:11.000Z</time>
      </trkpt>
      <trkpt lat="48.87446" lon="2.3229">
        <ele>44.599998474121</ele>
        <time>2016-05-02T18:36:15.000Z</time>
      </trkpt>
      <trkpt lat="48.87446" lon="2.32276">
        <ele>45.200000762939</ele>
        <time>2016-05-02T18:36:17.000Z</time>
      </trkpt>
      <trkpt lat="48.87447" lon="2.3225">
        <ele>46</ele>
        <time>2016-05-02T18:36:21.000Z</time>
      </trkpt>
      <trkpt lat="48.8745" lon="2.32226">
        <ele>46.799999237061</ele>
        <time>2016-05-02T18:36:25.000Z</time>
      </trkpt>
      <trkpt lat="48.87461" lon="2.32196">
        <ele>48</ele>
        <time>2016-05-02T18:36:30.000Z</time>
      </trkpt>
      <trkpt lat="48.87467" lon="2.32164">
        <ele>48.400001525879</ele>
        <time>2016-05-02T18:36:35.000Z</time>
      </trkpt>
      <trkpt lat="48.8747" lon="2.32133">
        <ele>48</ele>
        <time>2016-05-02T18:36:40.000Z</time>
      </trkpt>
      <trkpt lat="48.87472" lon="2.32119">
        <ele>47.599998474121</ele>
        <time>2016-05-02T18:36:42.000Z</time>
      </trkpt>
      <trkpt lat="48.87478" lon="2.32087">
        <ele>46.799999237061</ele>
        <time>2016-05-02T18:36:47.000Z</time>
      </trkpt>
      <trkpt lat="48.87482" lon="2.32059">
        <ele>46</ele>
        <time>2016-05-02T18:36:52.000Z</time>
      </trkpt>
      <trkpt lat="48.87482" lon="2.32047">
        <ele>45.599998474121</ele>
        <time>2016-05-02T18:36:55.000Z</time>
      </trkpt>
      <trkpt lat="48.8749" lon="2.32031">
        <ele>45.599998474121</ele>
        <time>2016-05-02T18:36:59.000Z</time>
      </trkpt>
      <trkpt lat="48.87496" lon="2.32018">
        <ele>45.799999237061</ele>
        <time>2016-05-02T18:37:14.000Z</time>
      </trkpt>
      <trkpt lat="48.87511" lon="2.32">
        <ele>46</ele>
        <time>2016-05-02T18:37:25.000Z</time>
      </trkpt>
      <trkpt lat="48.87526" lon="2.31979">
        <ele>45.599998474121</ele>
        <time>2016-05-02T18:37:30.000Z</time>
      </trkpt>
      <trkpt lat="48.87537" lon="2.31958">
        <ele>44.799999237061</ele>
        <time>2016-05-02T18:37:34.000Z</time>
      </trkpt>
      <trkpt lat="48.87552" lon="2.31941">
        <ele>44</ele>
        <time>2016-05-02T18:37:38.000Z</time>
      </trkpt>
      <trkpt lat="48.87568" lon="2.3192">
        <ele>43.599998474121</ele>
        <time>2016-05-02T18:37:43.000Z</time>
      </trkpt>
      <trkpt lat="48.87584" lon="2.31906">
        <ele>43.599998474121</ele>
        <time>2016-05-02T18:37:47.000Z</time>
      </trkpt>
      <trkpt lat="48.87599" lon="2.3189">
        <ele>44.400001525879</ele>
        <time>2016-05-02T18:37:51.000Z</time>
      </trkpt>
      <trkpt lat="48.87617" lon="2.31872">
        <ele>46.200000762939</ele>
        <time>2016-05-02T18:37:57.000Z</time>
      </trkpt>
      <trkpt lat="48.87624" lon="2.31861">
        <ele>47.400001525879</ele>
        <time>2016-05-02T18:38:00.000Z</time>
      </trkpt>
      <trkpt lat="48.87636" lon="2.31837">
        <ele>48.400001525879</ele>
        <time>2016-05-02T18:38:05.000Z</time>
      </trkpt>
      <trkpt lat="48.87653" lon="2.31817">
        <ele>49</ele>
        <time>2016-05-02T18:38:09.000Z</time>
      </trkpt>
      <trkpt lat="48.87667" lon="2.31797">
        <ele>50</ele>
        <time>2016-05-02T18:38:14.000Z</time>
      </trkpt>
      <trkpt lat="48.87668" lon="2.31794">
        <ele>50</ele>
        <time>2016-05-02T18:38:15.000Z</time>
      </trkpt>
      <trkpt lat="48.87675" lon="2.31784">
        <ele>50.400001525879</ele>
        <time>2016-05-02T18:38:18.000Z</time>
      </trkpt>
      <trkpt lat="48.87689" lon="2.31765">
        <ele>51.400001525879</ele>
        <time>2016-05-02T18:38:24.000Z</time>
      </trkpt>
      <trkpt lat="48.87703" lon="2.31748">
        <ele>52.200000762939</ele>
        <time>2016-05-02T18:38:28.000Z</time>
      </trkpt>
      <trkpt lat="48.87717" lon="2.31728">
        <ele>52.200000762939</ele>
        <time>2016-05-02T18:38:33.000Z</time>
      </trkpt>
      <trkpt lat="48.87734" lon="2.31711">
        <ele>52.200000762939</ele>
        <time>2016-05-02T18:38:39.000Z</time>
      </trkpt>
      <trkpt lat="48.87745" lon="2.31686">
        <ele>52</ele>
        <time>2016-05-02T18:38:46.000Z</time>
      </trkpt>
      <trkpt lat="48.87753" lon="2.31669">
        <ele>51.799999237061</ele>
        <time>2016-05-02T18:38:51.000Z</time>
      </trkpt>
      <trkpt lat="48.8777" lon="2.31664">
        <ele>52</ele>
        <time>2016-05-02T18:39:07.000Z</time>
      </trkpt>
      <trkpt lat="48.8778" lon="2.3166">
        <ele>52.200000762939</ele>
        <time>2016-05-02T18:39:55.000Z</time>
      </trkpt>
      <trkpt lat="48.87792" lon="2.31639">
        <ele>52.599998474121</ele>
        <time>2016-05-02T18:40:04.000Z</time>
      </trkpt>
      <trkpt lat="48.87808" lon="2.31622">
        <ele>53.200000762939</ele>
        <time>2016-05-02T18:40:10.000Z</time>
      </trkpt>
      <trkpt lat="48.87823" lon="2.316">
        <ele>53.200000762939</ele>
        <time>2016-05-02T18:40:17.000Z</time>
      </trkpt>
      <trkpt lat="48.87838" lon="2.31583">
        <ele>53.400001525879</ele>
        <time>2016-05-02T18:40:22.000Z</time>
      </trkpt>
      <trkpt lat="48.8785" lon="2.31555">
        <ele>54.400001525879</ele>
        <time>2016-05-02T18:40:29.000Z</time>
      </trkpt>
      <trkpt lat="48.87865" lon="2.3153">
        <ele>54.400001525879</ele>
        <time>2016-05-02T18:40:38.000Z</time>
      </trkpt>
      <trkpt lat="48.87877" lon="2.31507">
        <ele>54.799999237061</ele>
        <time>2016-05-02T18:40:45.000Z</time>
      </trkpt>
      <trkpt lat="48.87876" lon="2.31498">
        <ele>55.200000762939</ele>
        <time>2016-05-02T18:40:48.000Z</time>
      </trkpt>
      <trkpt lat="48.87881" lon="2.31488">
        <ele>55.200000762939</ele>
        <time>2016-05-02T18:40:52.000Z</time>
      </trkpt>
      <trkpt lat="48.87889" lon="2.31479">
        <ele>55.400001525879</ele>
        <time>2016-05-02T18:40:56.000Z</time>
      </trkpt>
      <trkpt lat="48.879" lon="2.31456">
        <ele>55.599998474121</ele>
        <time>2016-05-02T18:41:02.000Z</time>
      </trkpt>
      <trkpt lat="48.87915" lon="2.31441">
        <ele>55.799999237061</ele>
        <time>2016-05-02T18:41:08.000Z</time>
      </trkpt>
      <trkpt lat="48.8794" lon="2.31447">
        <ele>56</ele>
        <time>2016-05-02T18:41:14.000Z</time>
      </trkpt>
      <trkpt lat="48.87959" lon="2.31429">
        <ele>57</ele>
        <time>2016-05-02T18:41:18.000Z</time>
      </trkpt>
      <trkpt lat="48.87973" lon="2.31408">
        <ele>57.400001525879</ele>
        <time>2016-05-02T18:41:23.000Z</time>
      </trkpt>
      <trkpt lat="48.87989" lon="2.31393">
        <ele>57.799999237061</ele>
        <time>2016-05-02T18:41:27.000Z</time>
      </trkpt>
      <trkpt lat="48.88005" lon="2.31372">
        <ele>57.799999237061</ele>
        <time>2016-05-02T18:41:33.000Z</time>
      </trkpt>
      <trkpt lat="48.88021" lon="2.31351">
        <ele>57.599998474121</ele>
        <time>2016-05-02T18:41:38.000Z</time>
      </trkpt>
      <trkpt lat="48.88034" lon="2.31325">
        <ele>57</ele>
        <time>2016-05-02T18:41:44.000Z</time>
      </trkpt>
      <trkpt lat="48.88046" lon="2.31304">
        <ele>56.200000762939</ele>
        <time>2016-05-02T18:41:51.000Z</time>
      </trkpt>
      <trkpt lat="48.88062" lon="2.31287">
        <ele>55.799999237061</ele>
        <time>2016-05-02T18:41:59.000Z</time>
      </trkpt>
      <trkpt lat="48.88071" lon="2.31276">
        <ele>55.599998474121</ele>
        <time>2016-05-02T18:42:15.000Z</time>
      </trkpt>
      <trkpt lat="48.88077" lon="2.31275">
        <ele>56</ele>
        <time>2016-05-02T18:42:23.000Z</time>
      </trkpt>
      <trkpt lat="48.88092" lon="2.31268">
        <ele>56.400001525879</ele>
        <time>2016-05-02T18:42:39.000Z</time>
      </trkpt>
      <trkpt lat="48.88106" lon="2.31249">
        <ele>56</ele>
        <time>2016-05-02T18:42:46.000Z</time>
      </trkpt>
      <trkpt lat="48.88123" lon="2.3123">
        <ele>57.599998474121</ele>
        <time>2016-05-02T18:42:54.000Z</time>
      </trkpt>
      <trkpt lat="48.88133" lon="2.31203">
        <ele>59.200000762939</ele>
        <time>2016-05-02T18:43:01.000Z</time>
      </trkpt>
      <trkpt lat="48.88148" lon="2.3118">
        <ele>59.599998474121</ele>
        <time>2016-05-02T18:43:07.000Z</time>
      </trkpt>
      <trkpt lat="48.88166" lon="2.31162">
        <ele>59.799999237061</ele>
        <time>2016-05-02T18:43:12.000Z</time>
      </trkpt>
      <trkpt lat="48.88179" lon="2.31138">
        <ele>59.599998474121</ele>
        <time>2016-05-02T18:43:19.000Z</time>
      </trkpt>
      <trkpt lat="48.88192" lon="2.31109">
        <ele>59.200000762939</ele>
        <time>2016-05-02T18:43:27.000Z</time>
      </trkpt>
      <trkpt lat="48.88207" lon="2.31091">
        <ele>58.400001525879</ele>
        <time>2016-05-02T18:43:31.000Z</time>
      </trkpt>
      <trkpt lat="48.88225" lon="2.31072">
        <ele>57.200000762939</ele>
        <time>2016-05-02T18:43:35.000Z</time>
      </trkpt>
      <trkpt lat="48.88243" lon="2.31053">
        <ele>56.400001525879</ele>
        <time>2016-05-02T18:43:39.000Z</time>
      </trkpt>
      <trkpt lat="48.8826" lon="2.31032">
        <ele>55.599998474121</ele>
        <time>2016-05-02T18:43:43.000Z</time>
      </trkpt>
      <trkpt lat="48.88275" lon="2.31009">
        <ele>55</ele>
        <time>2016-05-02T18:43:47.000Z</time>
      </trkpt>
      <trkpt lat="48.88279" lon="2.31004">
        <ele>55</ele>
        <time>2016-05-02T18:43:48.000Z</time>
      </trkpt>
      <trkpt lat="48.883" lon="2.30988">
        <ele>55.599998474121</ele>
        <time>2016-05-02T18:43:52.000Z</time>
      </trkpt>
      <trkpt lat="48.88318" lon="2.30974">
        <ele>56</ele>
        <time>2016-05-02T18:43:55.000Z</time>
      </trkpt>
      <trkpt lat="48.88328" lon="2.30965">
        <ele>56.400001525879</ele>
        <time>2016-05-02T18:43:57.000Z</time>
      </trkpt>
      <trkpt lat="48.88345" lon="2.30938">
        <ele>56.799999237061</ele>
        <time>2016-05-02T18:44:01.000Z</time>
      </trkpt>
      <trkpt lat="48.88358" lon="2.30921">
        <ele>56.799999237061</ele>
        <time>2016-05-02T18:44:04.000Z</time>
      </trkpt>
      <trkpt lat="48.88376" lon="2.30902">
        <ele>56.799999237061</ele>
        <time>2016-05-02T18:44:08.000Z</time>
      </trkpt>
      <trkpt lat="48.88391" lon="2.30882">
        <ele>56.599998474121</ele>
        <time>2016-05-02T18:44:12.000Z</time>
      </trkpt>
      <trkpt lat="48.88406" lon="2.30868">
        <ele>56.200000762939</ele>
        <time>2016-05-02T18:44:16.000Z</time>
      </trkpt>
      <trkpt lat="48.88421" lon="2.30843">
        <ele>55.599998474121</ele>
        <time>2016-05-02T18:44:21.000Z</time>
      </trkpt>
      <trkpt lat="48.88436" lon="2.30824">
        <ele>54.799999237061</ele>
        <time>2016-05-02T18:44:25.000Z</time>
      </trkpt>
      <trkpt lat="48.88455" lon="2.30806">
        <ele>54.400001525879</ele>
        <time>2016-05-02T18:44:29.000Z</time>
      </trkpt>
      <trkpt lat="48.88475" lon="2.3079">
        <ele>54.400001525879</ele>
        <time>2016-05-02T18:44:33.000Z</time>
      </trkpt>
      <trkpt lat="48.8849" lon="2.30779">
        <ele>54.400001525879</ele>
        <time>2016-05-02T18:44:36.000Z</time>
      </trkpt>
      <trkpt lat="48.88505" lon="2.30761">
        <ele>54</ele>
        <time>2016-05-02T18:44:40.000Z</time>
      </trkpt>
      <trkpt lat="48.8852" lon="2.30743">
        <ele>54</ele>
        <time>2016-05-02T18:44:44.000Z</time>
      </trkpt>
      <trkpt lat="48.88535" lon="2.30723">
        <ele>53.799999237061</ele>
        <time>2016-05-02T18:44:47.000Z</time>
      </trkpt>
      <trkpt lat="48.88549" lon="2.30705">
        <ele>53.400001525879</ele>
        <time>2016-05-02T18:44:50.000Z</time>
      </trkpt>
      <trkpt lat="48.88567" lon="2.30684">
        <ele>53.200000762939</ele>
        <time>2016-05-02T18:44:54.000Z</time>
      </trkpt>
      <trkpt lat="48.88585" lon="2.3067">
        <ele>53.200000762939</ele>
        <time>2016-05-02T18:44:57.000Z</time>
      </trkpt>
      <trkpt lat="48.88601" lon="2.30657">
        <ele>53.200000762939</ele>
        <time>2016-05-02T18:45:00.000Z</time>
      </trkpt>
      <trkpt lat="48.88618" lon="2.30633">
        <ele>54</ele>
        <time>2016-05-02T18:45:04.000Z</time>
      </trkpt>
      <trkpt lat="48.88632" lon="2.30614">
        <ele>54.799999237061</ele>
        <time>2016-05-02T18:45:07.000Z</time>
      </trkpt>
      <trkpt lat="48.88647" lon="2.30598">
        <ele>55</ele>
        <time>2016-05-02T18:45:10.000Z</time>
      </trkpt>
      <trkpt lat="48.88663" lon="2.30582">
        <ele>55.200000762939</ele>
        <time>2016-05-02T18:45:13.000Z</time>
      </trkpt>
      <trkpt lat="48.88679" lon="2.30565">
        <ele>55</ele>
        <time>2016-05-02T18:45:16.000Z</time>
      </trkpt>
      <trkpt lat="48.88697" lon="2.30544">
        <ele>53.200000762939</ele>
        <time>2016-05-02T18:45:20.000Z</time>
      </trkpt>
      <trkpt lat="48.88709" lon="2.30518">
        <ele>51.200000762939</ele>
        <time>2016-05-02T18:45:25.000Z</time>
      </trkpt>
      <trkpt lat="48.88714" lon="2.30513">
        <ele>50.799999237061</ele>
        <time>2016-05-02T18:45:27.000Z</time>
      </trkpt>
      <trkpt lat="48.88722" lon="2.30514">
        <ele>50.200000762939</ele>
        <time>2016-05-02T18:45:31.000Z</time>
      </trkpt>
      <trkpt lat="48.88723" lon="2.30514">
        <ele>50.200000762939</ele>
        <time>2016-05-02T18:45:32.000Z</time>
      </trkpt>
      <trkpt lat="48.88737" lon="2.30512">
        <ele>49.400001525879</ele>
        <time>2016-05-02T18:45:43.000Z</time>
      </trkpt>
      <trkpt lat="48.88756" lon="2.30508">
        <ele>48.200000762939</ele>
        <time>2016-05-02T18:45:49.000Z</time>
      </trkpt>
      <trkpt lat="48.88771" lon="2.30494">
        <ele>47.200000762939</ele>
        <time>2016-05-02T18:46:04.000Z</time>
      </trkpt>
      <trkpt lat="48.88776" lon="2.30467">
        <ele>47.400001525879</ele>
        <time>2016-05-02T18:46:11.000Z</time>
      </trkpt>
      <trkpt lat="48.88777" lon="2.30466">
        <ele>47.599998474121</ele>
        <time>2016-05-02T18:46:12.000Z</time>
      </trkpt>
      <trkpt lat="48.88797" lon="2.30452">
        <ele>48.599998474121</ele>
        <time>2016-05-02T18:46:23.000Z</time>
      </trkpt>
      <trkpt lat="48.88815" lon="2.30437">
        <ele>48.400001525879</ele>
        <time>2016-05-02T18:46:29.000Z</time>
      </trkpt>
      <trkpt lat="48.88836" lon="2.3043">
        <ele>47.400001525879</ele>
        <time>2016-05-02T18:46:35.000Z</time>
      </trkpt>
      <trkpt lat="48.88855" lon="2.30422">
        <ele>46.599998474121</ele>
        <time>2016-05-02T18:46:40.000Z</time>
      </trkpt>
      <trkpt lat="48.88874" lon="2.3042">
        <ele>46.599998474121</ele>
        <time>2016-05-02T18:46:46.000Z</time>
      </trkpt>
      <trkpt lat="48.88892" lon="2.30414">
        <ele>47.200000762939</ele>
        <time>2016-05-02T18:46:51.000Z</time>
      </trkpt>
      <trkpt lat="48.88912" lon="2.3041">
        <ele>48.200000762939</ele>
        <time>2016-05-02T18:46:57.000Z</time>
      </trkpt>
      <trkpt lat="48.8893" lon="2.30405">
        <ele>49</ele>
        <time>2016-05-02T18:47:03.000Z</time>
      </trkpt>
      <trkpt lat="48.8895" lon="2.30404">
        <ele>47.400001525879</ele>
        <time>2016-05-02T18:47:10.000Z</time>
      </trkpt>
      <trkpt lat="48.88957" lon="2.30401">
        <ele>46.400001525879</ele>
        <time>2016-05-02T18:47:16.000Z</time>
      </trkpt>
      <trkpt lat="48.88977" lon="2.30394">
        <ele>43.799999237061</ele>
        <time>2016-05-02T18:47:23.000Z</time>
      </trkpt>
      <trkpt lat="48.88983" lon="2.30388">
        <ele>43</ele>
        <time>2016-05-02T18:47:25.000Z</time>
      </trkpt>
      <trkpt lat="48.89" lon="2.30377">
        <ele>40.799999237061</ele>
        <time>2016-05-02T18:47:30.000Z</time>
      </trkpt>
      <trkpt lat="48.89018" lon="2.30365">
        <ele>38.799999237061</ele>
        <time>2016-05-02T18:47:37.000Z</time>
      </trkpt>
      <trkpt lat="48.89036" lon="2.3035">
        <ele>38</ele>
        <time>2016-05-02T18:47:42.000Z</time>
      </trkpt>
      <trkpt lat="48.89053" lon="2.30335">
        <ele>38.599998474121</ele>
        <time>2016-05-02T18:47:46.000Z</time>
      </trkpt>
      <trkpt lat="48.89072" lon="2.30317">
        <ele>39.200000762939</ele>
        <time>2016-05-02T18:47:50.000Z</time>
      </trkpt>
      <trkpt lat="48.89087" lon="2.30298">
        <ele>39.400001525879</ele>
        <time>2016-05-02T18:47:54.000Z</time>
      </trkpt>
      <trkpt lat="48.89101" lon="2.30275">
        <ele>39.200000762939</ele>
        <time>2016-05-02T18:47:58.000Z</time>
      </trkpt>
      <trkpt lat="48.89118" lon="2.30252">
        <ele>38.799999237061</ele>
        <time>2016-05-02T18:48:02.000Z</time>
      </trkpt>
      <trkpt lat="48.89135" lon="2.30233">
        <ele>37.799999237061</ele>
        <time>2016-05-02T18:48:06.000Z</time>
      </trkpt>
      <trkpt lat="48.89151" lon="2.30213">
        <ele>36.799999237061</ele>
        <time>2016-05-02T18:48:10.000Z</time>
      </trkpt>
      <trkpt lat="48.89154" lon="2.30207">
        <ele>36.400001525879</ele>
        <time>2016-05-02T18:48:11.000Z</time>
      </trkpt>
      <trkpt lat="48.89168" lon="2.30189">
        <ele>35.799999237061</ele>
        <time>2016-05-02T18:48:15.000Z</time>
      </trkpt>
      <trkpt lat="48.89181" lon="2.30172">
        <ele>35.400001525879</ele>
        <time>2016-05-02T18:48:19.000Z</time>
      </trkpt>
      <trkpt lat="48.89197" lon="2.30158">
        <ele>35</ele>
        <time>2016-05-02T18:48:25.000Z</time>
      </trkpt>
      <trkpt lat="48.89214" lon="2.30139">
        <ele>35</ele>
        <time>2016-05-02T18:48:31.000Z</time>
      </trkpt>
      <trkpt lat="48.89227" lon="2.30123">
        <ele>35</ele>
        <time>2016-05-02T18:48:35.000Z</time>
      </trkpt>
      <trkpt lat="48.89244" lon="2.30101">
        <ele>37.200000762939</ele>
        <time>2016-05-02T18:48:40.000Z</time>
      </trkpt>
      <trkpt lat="48.89258" lon="2.30077">
        <ele>39.799999237061</ele>
        <time>2016-05-02T18:48:44.000Z</time>
      </trkpt>
      <trkpt lat="48.89271" lon="2.30056">
        <ele>41</ele>
        <time>2016-05-02T18:48:47.000Z</time>
      </trkpt>
      <trkpt lat="48.89286" lon="2.30038">
        <ele>40.599998474121</ele>
        <time>2016-05-02T18:48:50.000Z</time>
      </trkpt>
      <trkpt lat="48.89302" lon="2.30021">
        <ele>40.400001525879</ele>
        <time>2016-05-02T18:48:53.000Z</time>
      </trkpt>
      <trkpt lat="48.89317" lon="2.30005">
        <ele>40.799999237061</ele>
        <time>2016-05-02T18:48:56.000Z</time>
      </trkpt>
      <trkpt lat="48.89335" lon="2.29987">
        <ele>40.799999237061</ele>
        <time>2016-05-02T18:49:00.000Z</time>
      </trkpt>
      <trkpt lat="48.89344" lon="2.29981">
        <ele>40.599998474121</ele>
        <time>2016-05-02T18:49:02.000Z</time>
      </trkpt>
      <trkpt lat="48.89354" lon="2.29969">
        <ele>40.400001525879</ele>
        <time>2016-05-02T18:49:07.000Z</time>
      </trkpt>
      <trkpt lat="48.89356" lon="2.29967">
        <ele>40.200000762939</ele>
        <time>2016-05-02T18:49:08.000Z</time>
      </trkpt>
      <trkpt lat="48.89365" lon="2.29966">
        <ele>39.799999237061</ele>
        <time>2016-05-02T18:49:13.000Z</time>
      </trkpt>
      <trkpt lat="48.89365" lon="2.29966">
        <ele>39.799999237061</ele>
        <time>2016-05-02T18:49:14.000Z</time>
      </trkpt>
      <trkpt lat="48.89369" lon="2.29953">
        <ele>39.400001525879</ele>
        <time>2016-05-02T18:49:19.000Z</time>
      </trkpt>
      <trkpt lat="48.89368" lon="2.29948">
        <ele>39.200000762939</ele>
        <time>2016-05-02T18:49:20.000Z</time>
      </trkpt>
      <trkpt lat="48.89377" lon="2.29926">
        <ele>38.599998474121</ele>
        <time>2016-05-02T18:49:24.000Z</time>
      </trkpt>
      <trkpt lat="48.89395" lon="2.29911">
        <ele>38.599998474121</ele>
        <time>2016-05-02T18:49:28.000Z</time>
      </trkpt>
      <trkpt lat="48.89413" lon="2.29891">
        <ele>38.599998474121</ele>
        <time>2016-05-02T18:49:32.000Z</time>
      </trkpt>
      <trkpt lat="48.8943" lon="2.2987">
        <ele>38.599998474121</ele>
        <time>2016-05-02T18:49:37.000Z</time>
      </trkpt>
      <trkpt lat="48.8944" lon="2.29857">
        <ele>38.599998474121</ele>
        <time>2016-05-02T18:49:40.000Z</time>
      </trkpt>
      <trkpt lat="48.89454" lon="2.29846">
        <ele>38.200000762939</ele>
        <time>2016-05-02T18:49:43.000Z</time>
      </trkpt>
      <trkpt lat="48.89473" lon="2.29829">
        <ele>39</ele>
        <time>2016-05-02T18:49:47.000Z</time>
      </trkpt>
      <trkpt lat="48.89491" lon="2.29809">
        <ele>39</ele>
        <time>2016-05-02T18:49:51.000Z</time>
      </trkpt>
      <trkpt lat="48.89505" lon="2.29796">
        <ele>39</ele>
        <time>2016-05-02T18:49:54.000Z</time>
      </trkpt>
      <trkpt lat="48.89524" lon="2.29778">
        <ele>39</ele>
        <time>2016-05-02T18:49:58.000Z</time>
      </trkpt>
      <trkpt lat="48.89542" lon="2.29759">
        <ele>38.400001525879</ele>
        <time>2016-05-02T18:50:02.000Z</time>
      </trkpt>
      <trkpt lat="48.89557" lon="2.29742">
        <ele>37.599998474121</ele>
        <time>2016-05-02T18:50:05.000Z</time>
      </trkpt>
      <trkpt lat="48.89574" lon="2.29719">
        <ele>36.200000762939</ele>
        <time>2016-05-02T18:50:09.000Z</time>
      </trkpt>
      <trkpt lat="48.89575" lon="2.29711">
        <ele>36</ele>
        <time>2016-05-02T18:50:10.000Z</time>
      </trkpt>
      <trkpt lat="48.8959" lon="2.29691">
        <ele>36.400001525879</ele>
        <time>2016-05-02T18:50:14.000Z</time>
      </trkpt>
      <trkpt lat="48.89609" lon="2.29677">
        <ele>37</ele>
        <time>2016-05-02T18:50:18.000Z</time>
      </trkpt>
      <trkpt lat="48.8963" lon="2.29662">
        <ele>37.599998474121</ele>
        <time>2016-05-02T18:50:23.000Z</time>
      </trkpt>
      <trkpt lat="48.89646" lon="2.29644">
        <ele>38.200000762939</ele>
        <time>2016-05-02T18:50:27.000Z</time>
      </trkpt>
      <trkpt lat="48.89663" lon="2.29622">
        <ele>38.599998474121</ele>
        <time>2016-05-02T18:50:31.000Z</time>
      </trkpt>
      <trkpt lat="48.89682" lon="2.29606">
        <ele>38.400001525879</ele>
        <time>2016-05-02T18:50:34.000Z</time>
      </trkpt>
      <trkpt lat="48.89705" lon="2.29585">
        <ele>37.200000762939</ele>
        <time>2016-05-02T18:50:38.000Z</time>
      </trkpt>
      <trkpt lat="48.89716" lon="2.29574">
        <ele>36.200000762939</ele>
        <time>2016-05-02T18:50:40.000Z</time>
      </trkpt>
      <trkpt lat="48.89732" lon="2.2955">
        <ele>34.799999237061</ele>
        <time>2016-05-02T18:50:44.000Z</time>
      </trkpt>
      <trkpt lat="48.89746" lon="2.29524">
        <ele>34.400001525879</ele>
        <time>2016-05-02T18:50:49.000Z</time>
      </trkpt>
      <trkpt lat="48.89752" lon="2.29522">
        <ele>34.200000762939</ele>
        <time>2016-05-02T18:50:50.000Z</time>
      </trkpt>
      <trkpt lat="48.89772" lon="2.29506">
        <ele>34</ele>
        <time>2016-05-02T18:50:54.000Z</time>
      </trkpt>
      <trkpt lat="48.89791" lon="2.29489">
        <ele>34.599998474121</ele>
        <time>2016-05-02T18:50:58.000Z</time>
      </trkpt>
      <trkpt lat="48.89805" lon="2.29469">
        <ele>35.599998474121</ele>
        <time>2016-05-02T18:51:02.000Z</time>
      </trkpt>
      <trkpt lat="48.8982" lon="2.29452">
        <ele>36.400001525879</ele>
        <time>2016-05-02T18:51:06.000Z</time>
      </trkpt>
      <trkpt lat="48.8984" lon="2.29437">
        <ele>36.200000762939</ele>
        <time>2016-05-02T18:51:10.000Z</time>
      </trkpt>
      <trkpt lat="48.89858" lon="2.29425">
        <ele>35.799999237061</ele>
        <time>2016-05-02T18:51:14.000Z</time>
      </trkpt>
      <trkpt lat="48.89877" lon="2.29413">
        <ele>36</ele>
        <time>2016-05-02T18:51:17.000Z</time>
      </trkpt>
      <trkpt lat="48.89895" lon="2.29393">
        <ele>36</ele>
        <time>2016-05-02T18:51:20.000Z</time>
      </trkpt>
      <trkpt lat="48.89912" lon="2.29383">
        <ele>36</ele>
        <time>2016-05-02T18:51:23.000Z</time>
      </trkpt>
      <trkpt lat="48.89932" lon="2.29366">
        <ele>35</ele>
        <time>2016-05-02T18:51:27.000Z</time>
      </trkpt>
      <trkpt lat="48.89942" lon="2.29349">
        <ele>34.400001525879</ele>
        <time>2016-05-02T18:51:30.000Z</time>
      </trkpt>
      <trkpt lat="48.89952" lon="2.29309">
        <ele>34.200000762939</ele>
        <time>2016-05-02T18:51:35.000Z</time>
      </trkpt>
      <trkpt lat="48.89969" lon="2.29297">
        <ele>34.400001525879</ele>
        <time>2016-05-02T18:51:38.000Z</time>
      </trkpt>
      <trkpt lat="48.89988" lon="2.29277">
        <ele>34.400001525879</ele>
        <time>2016-05-02T18:51:42.000Z</time>
      </trkpt>
      <trkpt lat="48.9" lon="2.29269">
        <ele>34.200000762939</ele>
        <time>2016-05-02T18:51:44.000Z</time>
      </trkpt>
      <trkpt lat="48.90018" lon="2.29252">
        <ele>34</ele>
        <time>2016-05-02T18:51:48.000Z</time>
      </trkpt>
      <trkpt lat="48.90034" lon="2.2924">
        <ele>33.799999237061</ele>
        <time>2016-05-02T18:51:52.000Z</time>
      </trkpt>
      <trkpt lat="48.90052" lon="2.29226">
        <ele>33.599998474121</ele>
        <time>2016-05-02T18:51:56.000Z</time>
      </trkpt>
      <trkpt lat="48.90079" lon="2.29245">
        <ele>33.400001525879</ele>
        <time>2016-05-02T18:52:00.000Z</time>
      </trkpt>
      <trkpt lat="48.90098" lon="2.29233">
        <ele>33</ele>
        <time>2016-05-02T18:52:04.000Z</time>
      </trkpt>
      <trkpt lat="48.90117" lon="2.29213">
        <ele>32.599998474121</ele>
        <time>2016-05-02T18:52:08.000Z</time>
      </trkpt>
      <trkpt lat="48.90129" lon="2.29187">
        <ele>32.200000762939</ele>
        <time>2016-05-02T18:52:12.000Z</time>
      </trkpt>
      <trkpt lat="48.90142" lon="2.29165">
        <ele>32.400001525879</ele>
        <time>2016-05-02T18:52:16.000Z</time>
      </trkpt>
      <trkpt lat="48.90158" lon="2.29143">
        <ele>32.599998474121</ele>
        <time>2016-05-02T18:52:20.000Z</time>
      </trkpt>
      <trkpt lat="48.90177" lon="2.29126">
        <ele>33.200000762939</ele>
        <time>2016-05-02T18:52:24.000Z</time>
      </trkpt>
      <trkpt lat="48.90194" lon="2.2911">
        <ele>34</ele>
        <time>2016-05-02T18:52:28.000Z</time>
      </trkpt>
      <trkpt lat="48.90211" lon="2.29095">
        <ele>35</ele>
        <time>2016-05-02T18:52:32.000Z</time>
      </trkpt>
      <trkpt lat="48.90227" lon="2.29078">
        <ele>34.799999237061</ele>
        <time>2016-05-02T18:52:36.000Z</time>
      </trkpt>
      <trkpt lat="48.90244" lon="2.29064">
        <ele>35.400001525879</ele>
        <time>2016-05-02T18:52:40.000Z</time>
      </trkpt>
      <trkpt lat="48.90263" lon="2.29046">
        <ele>35.400001525879</ele>
        <time>2016-05-02T18:52:44.000Z</time>
      </trkpt>
      <trkpt lat="48.90282" lon="2.29026">
        <ele>35.200000762939</ele>
        <time>2016-05-02T18:52:48.000Z</time>
      </trkpt>
      <trkpt lat="48.90297" lon="2.29013">
        <ele>34.599998474121</ele>
        <time>2016-05-02T18:52:51.000Z</time>
      </trkpt>
      <trkpt lat="48.90315" lon="2.28998">
        <ele>33</ele>
        <time>2016-05-02T18:52:55.000Z</time>
      </trkpt>
      <trkpt lat="48.90332" lon="2.28982">
        <ele>32.599998474121</ele>
        <time>2016-05-02T18:53:00.000Z</time>
      </trkpt>
      <trkpt lat="48.90347" lon="2.28976">
        <ele>31.799999237061</ele>
        <time>2016-05-02T18:53:05.000Z</time>
      </trkpt>
      <trkpt lat="48.9035" lon="2.28975">
        <ele>31.60000038147</ele>
        <time>2016-05-02T18:53:07.000Z</time>
      </trkpt>
      <trkpt lat="48.90357" lon="2.28953">
        <ele>31</ele>
        <time>2016-05-02T18:53:27.000Z</time>
      </trkpt>
      <trkpt lat="48.90374" lon="2.28934">
        <ele>30.39999961853</ele>
        <time>2016-05-02T18:53:32.000Z</time>
      </trkpt>
      <trkpt lat="48.9039" lon="2.28916">
        <ele>32.400001525879</ele>
        <time>2016-05-02T18:53:37.000Z</time>
      </trkpt>
      <trkpt lat="48.90405" lon="2.28899">
        <ele>32.799999237061</ele>
        <time>2016-05-02T18:53:42.000Z</time>
      </trkpt>
      <trkpt lat="48.90422" lon="2.28879">
        <ele>33</ele>
        <time>2016-05-02T18:53:48.000Z</time>
      </trkpt>
      <trkpt lat="48.90439" lon="2.28861">
        <ele>33</ele>
        <time>2016-05-02T18:53:54.000Z</time>
      </trkpt>
      <trkpt lat="48.90454" lon="2.28844">
        <ele>32.599998474121</ele>
        <time>2016-05-02T18:53:59.000Z</time>
      </trkpt>
      <trkpt lat="48.9047" lon="2.28827">
        <ele>30.39999961853</ele>
        <time>2016-05-02T18:54:04.000Z</time>
      </trkpt>
      <trkpt lat="48.90486" lon="2.28814">
        <ele>29.200000762939</ele>
        <time>2016-05-02T18:54:09.000Z</time>
      </trkpt>
      <trkpt lat="48.90501" lon="2.28798">
        <ele>28.60000038147</ele>
        <time>2016-05-02T18:54:14.000Z</time>
      </trkpt>
      <trkpt lat="48.90517" lon="2.28785">
        <ele>29.39999961853</ele>
        <time>2016-05-02T18:54:18.000Z</time>
      </trkpt>
      <trkpt lat="48.9053" lon="2.28763">
        <ele>30.799999237061</ele>
        <time>2016-05-02T18:54:22.000Z</time>
      </trkpt>
      <trkpt lat="48.90546" lon="2.28741">
        <ele>31.799999237061</ele>
        <time>2016-05-02T18:54:26.000Z</time>
      </trkpt>
      <trkpt lat="48.90561" lon="2.28727">
        <ele>32.599998474121</ele>
        <time>2016-05-02T18:54:29.000Z</time>
      </trkpt>
      <trkpt lat="48.90577" lon="2.28713">
        <ele>33.400001525879</ele>
        <time>2016-05-02T18:54:32.000Z</time>
      </trkpt>
      <trkpt lat="48.90594" lon="2.28698">
        <ele>34.200000762939</ele>
        <time>2016-05-02T18:54:35.000Z</time>
      </trkpt>
      <trkpt lat="48.90611" lon="2.28683">
        <ele>34.799999237061</ele>
        <time>2016-05-02T18:54:38.000Z</time>
      </trkpt>
      <trkpt lat="48.90619" lon="2.28665">
        <ele>35</ele>
        <time>2016-05-02T18:54:41.000Z</time>
      </trkpt>
      <trkpt lat="48.90633" lon="2.28641">
        <ele>35.799999237061</ele>
        <time>2016-05-02T18:54:45.000Z</time>
      </trkpt>
      <trkpt lat="48.9065" lon="2.28618">
        <ele>36.400001525879</ele>
        <time>2016-05-02T18:54:49.000Z</time>
      </trkpt>
      <trkpt lat="48.90669" lon="2.28599">
        <ele>36.200000762939</ele>
        <time>2016-05-02T18:54:53.000Z</time>
      </trkpt>
      <trkpt lat="48.90684" lon="2.28581">
        <ele>36</ele>
        <time>2016-05-02T18:54:57.000Z</time>
      </trkpt>
      <trkpt lat="48.90689" lon="2.28577">
        <ele>36</ele>
        <time>2016-05-02T18:54:59.000Z</time>
      </trkpt>
      <trkpt lat="48.90703" lon="2.2858">
        <ele>35.599998474121</ele>
        <time>2016-05-02T18:55:05.000Z</time>
      </trkpt>
      <trkpt lat="48.90709" lon="2.28587">
        <ele>35.799999237061</ele>
        <time>2016-05-02T18:55:07.000Z</time>
      </trkpt>
      <trkpt lat="48.90713" lon="2.28591">
        <ele>35.799999237061</ele>
        <time>2016-05-02T18:55:09.000Z</time>
      </trkpt>
      <trkpt lat="48.90722" lon="2.28603">
        <ele>35.799999237061</ele>
        <time>2016-05-02T18:55:13.000Z</time>
      </trkpt>
      <trkpt lat="48.90731" lon="2.28612">
        <ele>35.799999237061</ele>
        <time>2016-05-02T18:55:16.000Z</time>
      </trkpt>
      <trkpt lat="48.90745" lon="2.28631">
        <ele>36</ele>
        <time>2016-05-02T18:55:21.000Z</time>
      </trkpt>
      <trkpt lat="48.90759" lon="2.28655">
        <ele>36</ele>
        <time>2016-05-02T18:55:26.000Z</time>
      </trkpt>
      <trkpt lat="48.90774" lon="2.28678">
        <ele>35.799999237061</ele>
        <time>2016-05-02T18:55:30.000Z</time>
      </trkpt>
      <trkpt lat="48.90787" lon="2.28703">
        <ele>35.599998474121</ele>
        <time>2016-05-02T18:55:35.000Z</time>
      </trkpt>
      <trkpt lat="48.90801" lon="2.28724">
        <ele>35.200000762939</ele>
        <time>2016-05-02T18:55:40.000Z</time>
      </trkpt>
      <trkpt lat="48.90819" lon="2.28731">
        <ele>35.200000762939</ele>
        <time>2016-05-02T18:55:45.000Z</time>
      </trkpt>
      <trkpt lat="48.90826" lon="2.28731">
        <ele>35.200000762939</ele>
        <time>2016-05-02T18:55:47.000Z</time>
      </trkpt>
      <trkpt lat="48.90846" lon="2.28725">
        <ele>35</ele>
        <time>2016-05-02T18:55:52.000Z</time>
      </trkpt>
      <trkpt lat="48.90863" lon="2.28716">
        <ele>34.799999237061</ele>
        <time>2016-05-02T18:55:56.000Z</time>
      </trkpt>
      <trkpt lat="48.90885" lon="2.28696">
        <ele>35</ele>
        <time>2016-05-02T18:56:01.000Z</time>
      </trkpt>
      <trkpt lat="48.90911" lon="2.28683">
        <ele>35.599998474121</ele>
        <time>2016-05-02T18:56:04.000Z</time>
      </trkpt>
      <trkpt lat="48.90929" lon="2.28674">
        <ele>35.799999237061</ele>
        <time>2016-05-02T18:56:08.000Z</time>
      </trkpt>
      <trkpt lat="48.90947" lon="2.28663">
        <ele>36.200000762939</ele>
        <time>2016-05-02T18:56:13.000Z</time>
      </trkpt>
      <trkpt lat="48.90951" lon="2.28659">
        <ele>36.400001525879</ele>
        <time>2016-05-02T18:56:15.000Z</time>
      </trkpt>
      <trkpt lat="48.90965" lon="2.28645">
        <ele>36.799999237061</ele>
        <time>2016-05-02T18:56:23.000Z</time>
      </trkpt>
      <trkpt lat="48.90971" lon="2.28642">
        <ele>37</ele>
        <time>2016-05-02T18:56:27.000Z</time>
      </trkpt>
      <trkpt lat="48.90988" lon="2.28631">
        <ele>37.599998474121</ele>
        <time>2016-05-02T18:56:32.000Z</time>
      </trkpt>
      <trkpt lat="48.91005" lon="2.28614">
        <ele>37.400001525879</ele>
        <time>2016-05-02T18:56:37.000Z</time>
      </trkpt>
      <trkpt lat="48.91022" lon="2.28603">
        <ele>37.200000762939</ele>
        <time>2016-05-02T18:56:41.000Z</time>
      </trkpt>
      <trkpt lat="48.91042" lon="2.2859">
        <ele>36.799999237061</ele>
        <time>2016-05-02T18:56:45.000Z</time>
      </trkpt>
      <trkpt lat="48.91062" lon="2.28579">
        <ele>37</ele>
        <time>2016-05-02T18:56:49.000Z</time>
      </trkpt>
      <trkpt lat="48.91083" lon="2.28567">
        <ele>36.799999237061</ele>
        <time>2016-05-02T18:56:53.000Z</time>
      </trkpt>
      <trkpt lat="48.91105" lon="2.28553">
        <ele>36.599998474121</ele>
        <time>2016-05-02T18:56:57.000Z</time>
      </trkpt>
      <trkpt lat="48.91124" lon="2.28537">
        <ele>35.799999237061</ele>
        <time>2016-05-02T18:57:01.000Z</time>
      </trkpt>
      <trkpt lat="48.91146" lon="2.28522">
        <ele>35</ele>
        <time>2016-05-02T18:57:05.000Z</time>
      </trkpt>
      <trkpt lat="48.91167" lon="2.28512">
        <ele>34.599998474121</ele>
        <time>2016-05-02T18:57:09.000Z</time>
      </trkpt>
      <trkpt lat="48.91189" lon="2.28502">
        <ele>34</ele>
        <time>2016-05-02T18:57:13.000Z</time>
      </trkpt>
      <trkpt lat="48.91205" lon="2.28489">
        <ele>33.799999237061</ele>
        <time>2016-05-02T18:57:16.000Z</time>
      </trkpt>
      <trkpt lat="48.91221" lon="2.28475">
        <ele>33.400001525879</ele>
        <time>2016-05-02T18:57:19.000Z</time>
      </trkpt>
      <trkpt lat="48.91232" lon="2.28469">
        <ele>33.200000762939</ele>
        <time>2016-05-02T18:57:21.000Z</time>
      </trkpt>
      <trkpt lat="48.91244" lon="2.28464">
        <ele>33</ele>
        <time>2016-05-02T18:57:23.000Z</time>
      </trkpt>
      <trkpt lat="48.91264" lon="2.28452">
        <ele>33.400001525879</ele>
        <time>2016-05-02T18:57:27.000Z</time>
      </trkpt>
      <trkpt lat="48.9127" lon="2.28449">
        <ele>33.599998474121</ele>
        <time>2016-05-02T18:57:28.000Z</time>
      </trkpt>
      <trkpt lat="48.91289" lon="2.28438">
        <ele>33.799999237061</ele>
        <time>2016-05-02T18:57:32.000Z</time>
      </trkpt>
      <trkpt lat="48.91296" lon="2.28426">
        <ele>34.200000762939</ele>
        <time>2016-05-02T18:57:34.000Z</time>
      </trkpt>
      <trkpt lat="48.91317" lon="2.28413">
        <ele>34.599998474121</ele>
        <time>2016-05-02T18:57:38.000Z</time>
      </trkpt>
      <trkpt lat="48.91336" lon="2.284">
        <ele>34.599998474121</ele>
        <time>2016-05-02T18:57:42.000Z</time>
      </trkpt>
      <trkpt lat="48.91356" lon="2.28388">
        <ele>34.599998474121</ele>
        <time>2016-05-02T18:57:46.000Z</time>
      </trkpt>
      <trkpt lat="48.91377" lon="2.28373">
        <ele>34.200000762939</ele>
        <time>2016-05-02T18:57:50.000Z</time>
      </trkpt>
      <trkpt lat="48.91394" lon="2.28365">
        <ele>34</ele>
        <time>2016-05-02T18:57:53.000Z</time>
      </trkpt>
      <trkpt lat="48.91417" lon="2.28356">
        <ele>34</ele>
        <time>2016-05-02T18:57:57.000Z</time>
      </trkpt>
      <trkpt lat="48.91438" lon="2.28348">
        <ele>34</ele>
        <time>2016-05-02T18:58:01.000Z</time>
      </trkpt>
      <trkpt lat="48.91459" lon="2.28339">
        <ele>33.599998474121</ele>
        <time>2016-05-02T18:58:05.000Z</time>
      </trkpt>
      <trkpt lat="48.91479" lon="2.2833">
        <ele>33.599998474121</ele>
        <time>2016-05-02T18:58:09.000Z</time>
      </trkpt>
      <trkpt lat="48.915" lon="2.28314">
        <ele>33</ele>
        <time>2016-05-02T18:58:14.000Z</time>
      </trkpt>
      <trkpt lat="48.91514" lon="2.28307">
        <ele>33</ele>
        <time>2016-05-02T18:58:17.000Z</time>
      </trkpt>
      <trkpt lat="48.91533" lon="2.28298">
        <ele>33.200000762939</ele>
        <time>2016-05-02T18:58:21.000Z</time>
      </trkpt>
      <trkpt lat="48.91553" lon="2.28293">
        <ele>33</ele>
        <time>2016-05-02T18:58:25.000Z</time>
      </trkpt>
      <trkpt lat="48.91576" lon="2.28292">
        <ele>33</ele>
        <time>2016-05-02T18:58:29.000Z</time>
      </trkpt>
      <trkpt lat="48.91596" lon="2.28287">
        <ele>33</ele>
        <time>2016-05-02T18:58:33.000Z</time>
      </trkpt>
      <trkpt lat="48.91615" lon="2.28276">
        <ele>33.599998474121</ele>
        <time>2016-05-02T18:58:37.000Z</time>
      </trkpt>
      <trkpt lat="48.91632" lon="2.28257">
        <ele>34.200000762939</ele>
        <time>2016-05-02T18:58:41.000Z</time>
      </trkpt>
      <trkpt lat="48.91653" lon="2.28244">
        <ele>34</ele>
        <time>2016-05-02T18:58:45.000Z</time>
      </trkpt>
      <trkpt lat="48.91675" lon="2.28236">
        <ele>33.599998474121</ele>
        <time>2016-05-02T18:58:49.000Z</time>
      </trkpt>
      <trkpt lat="48.91695" lon="2.28226">
        <ele>33.599998474121</ele>
        <time>2016-05-02T18:58:53.000Z</time>
      </trkpt>
      <trkpt lat="48.91715" lon="2.28215">
        <ele>33</ele>
        <time>2016-05-02T18:58:58.000Z</time>
      </trkpt>
      <trkpt lat="48.91733" lon="2.28205">
        <ele>32.599998474121</ele>
        <time>2016-05-02T18:59:03.000Z</time>
      </trkpt>
      <trkpt lat="48.91751" lon="2.28189">
        <ele>32.599998474121</ele>
        <time>2016-05-02T18:59:07.000Z</time>
      </trkpt>
      <trkpt lat="48.91769" lon="2.28168">
        <ele>33</ele>
        <time>2016-05-02T18:59:12.000Z</time>
      </trkpt>
      <trkpt lat="48.9179" lon="2.28159">
        <ele>33.200000762939</ele>
        <time>2016-05-02T18:59:16.000Z</time>
      </trkpt>
      <trkpt lat="48.91808" lon="2.28147">
        <ele>33.200000762939</ele>
        <time>2016-05-02T18:59:20.000Z</time>
      </trkpt>
      <trkpt lat="48.9183" lon="2.28139">
        <ele>33.400001525879</ele>
        <time>2016-05-02T18:59:24.000Z</time>
      </trkpt>
      <trkpt lat="48.91851" lon="2.28129">
        <ele>33.599998474121</ele>
        <time>2016-05-02T18:59:28.000Z</time>
      </trkpt>
      <trkpt lat="48.9187" lon="2.28121">
        <ele>33.400001525879</ele>
        <time>2016-05-02T18:59:32.000Z</time>
      </trkpt>
      <trkpt lat="48.91888" lon="2.2811">
        <ele>33.400001525879</ele>
        <time>2016-05-02T18:59:37.000Z</time>
      </trkpt>
      <trkpt lat="48.91899" lon="2.28084">
        <ele>33</ele>
        <time>2016-05-02T19:00:03.000Z</time>
      </trkpt>
      <trkpt lat="48.91914" lon="2.28064">
        <ele>32.799999237061</ele>
        <time>2016-05-02T19:00:08.000Z</time>
      </trkpt>
      <trkpt lat="48.91931" lon="2.2805">
        <ele>32.799999237061</ele>
        <time>2016-05-02T19:00:13.000Z</time>
      </trkpt>
      <trkpt lat="48.91946" lon="2.28033">
        <ele>33</ele>
        <time>2016-05-02T19:00:18.000Z</time>
      </trkpt>
      <trkpt lat="48.91962" lon="2.28018">
        <ele>32.799999237061</ele>
        <time>2016-05-02T19:00:22.000Z</time>
      </trkpt>
      <trkpt lat="48.9198" lon="2.28002">
        <ele>33.400001525879</ele>
        <time>2016-05-02T19:00:26.000Z</time>
      </trkpt>
      <trkpt lat="48.91992" lon="2.27976">
        <ele>33.200000762939</ele>
        <time>2016-05-02T19:00:31.000Z</time>
      </trkpt>
      <trkpt lat="48.91996" lon="2.27956">
        <ele>32.599998474121</ele>
        <time>2016-05-02T19:00:35.000Z</time>
      </trkpt>
      <trkpt lat="48.92004" lon="2.27943">
        <ele>32</ele>
        <time>2016-05-02T19:00:38.000Z</time>
      </trkpt>
      <trkpt lat="48.92014" lon="2.2793">
        <ele>31.60000038147</ele>
        <time>2016-05-02T19:00:41.000Z</time>
      </trkpt>
      <trkpt lat="48.92025" lon="2.27918">
        <ele>31</ele>
        <time>2016-05-02T19:00:44.000Z</time>
      </trkpt>
      <trkpt lat="48.92043" lon="2.279">
        <ele>30.60000038147</ele>
        <time>2016-05-02T19:00:47.000Z</time>
      </trkpt>
      <trkpt lat="48.92058" lon="2.27875">
        <ele>30.200000762939</ele>
        <time>2016-05-02T19:00:51.000Z</time>
      </trkpt>
      <trkpt lat="48.92075" lon="2.27856">
        <ele>30.39999961853</ele>
        <time>2016-05-02T19:00:55.000Z</time>
      </trkpt>
      <trkpt lat="48.92094" lon="2.27836">
        <ele>30.799999237061</ele>
        <time>2016-05-02T19:01:00.000Z</time>
      </trkpt>
      <trkpt lat="48.92098" lon="2.27832">
        <ele>30.799999237061</ele>
        <time>2016-05-02T19:01:01.000Z</time>
      </trkpt>
      <trkpt lat="48.92116" lon="2.27812">
        <ele>31.200000762939</ele>
        <time>2016-05-02T19:01:05.000Z</time>
      </trkpt>
      <trkpt lat="48.92134" lon="2.27795">
        <ele>31.60000038147</ele>
        <time>2016-05-02T19:01:08.000Z</time>
      </trkpt>
      <trkpt lat="48.92151" lon="2.27777">
        <ele>31.799999237061</ele>
        <time>2016-05-02T19:01:11.000Z</time>
      </trkpt>
      <trkpt lat="48.9217" lon="2.27755">
        <ele>31.200000762939</ele>
        <time>2016-05-02T19:01:15.000Z</time>
      </trkpt>
      <trkpt lat="48.92175" lon="2.27751">
        <ele>31.200000762939</ele>
        <time>2016-05-02T19:01:16.000Z</time>
      </trkpt>
      <trkpt lat="48.92193" lon="2.27737">
        <ele>31</ele>
        <time>2016-05-02T19:01:20.000Z</time>
      </trkpt>
      <trkpt lat="48.92212" lon="2.27732">
        <ele>31</ele>
        <time>2016-05-02T19:01:22.000Z</time>
      </trkpt>
      <trkpt lat="48.9222" lon="2.27717">
        <ele>31</ele>
        <time>2016-05-02T19:01:26.000Z</time>
      </trkpt>
      <trkpt lat="48.92223" lon="2.27715">
        <ele>31</ele>
        <time>2016-05-02T19:01:27.000Z</time>
      </trkpt>
      <trkpt lat="48.92229" lon="2.27709">
        <ele>31</ele>
        <time>2016-05-02T19:01:29.000Z</time>
      </trkpt>
      <trkpt lat="48.92236" lon="2.27694">
        <ele>31</ele>
        <time>2016-05-02T19:01:34.000Z</time>
      </trkpt>
      <trkpt lat="48.92241" lon="2.27686">
        <ele>31</ele>
        <time>2016-05-02T19:01:36.000Z</time>
      </trkpt>
      <trkpt lat="48.92257" lon="2.27671">
        <ele>31</ele>
        <time>2016-05-02T19:01:40.000Z</time>
      </trkpt>
      <trkpt lat="48.92268" lon="2.27662">
        <ele>31</ele>
        <time>2016-05-02T19:01:43.000Z</time>
      </trkpt>
      <trkpt lat="48.92276" lon="2.2765">
        <ele>31</ele>
        <time>2016-05-02T19:01:46.000Z</time>
      </trkpt>
      <trkpt lat="48.9229" lon="2.27637">
        <ele>31.200000762939</ele>
        <time>2016-05-02T19:01:50.000Z</time>
      </trkpt>
      <trkpt lat="48.92307" lon="2.27615">
        <ele>31.39999961853</ele>
        <time>2016-05-02T19:01:55.000Z</time>
      </trkpt>
      <trkpt lat="48.92319" lon="2.27601">
        <ele>31.60000038147</ele>
        <time>2016-05-02T19:01:58.000Z</time>
      </trkpt>
      <trkpt lat="48.92338" lon="2.27585">
        <ele>31.799999237061</ele>
        <time>2016-05-02T19:02:02.000Z</time>
      </trkpt>
      <trkpt lat="48.92356" lon="2.27572">
        <ele>31.799999237061</ele>
        <time>2016-05-02T19:02:05.000Z</time>
      </trkpt>
      <trkpt lat="48.92377" lon="2.27557">
        <ele>31.39999961853</ele>
        <time>2016-05-02T19:02:08.000Z</time>
      </trkpt>
      <trkpt lat="48.92396" lon="2.27542">
        <ele>31</ele>
        <time>2016-05-02T19:02:11.000Z</time>
      </trkpt>
      <trkpt lat="48.92415" lon="2.27529">
        <ele>31</ele>
        <time>2016-05-02T19:02:14.000Z</time>
      </trkpt>
      <trkpt lat="48.92432" lon="2.27516">
        <ele>31.200000762939</ele>
        <time>2016-05-02T19:02:17.000Z</time>
      </trkpt>
      <trkpt lat="48.9245" lon="2.27507">
        <ele>30.799999237061</ele>
        <time>2016-05-02T19:02:20.000Z</time>
      </trkpt>
      <trkpt lat="48.9247" lon="2.27495">
        <ele>30</ele>
        <time>2016-05-02T19:02:23.000Z</time>
      </trkpt>
      <trkpt lat="48.92487" lon="2.27484">
        <ele>29.39999961853</ele>
        <time>2016-05-02T19:02:26.000Z</time>
      </trkpt>
      <trkpt lat="48.92505" lon="2.27473">
        <ele>28.799999237061</ele>
        <time>2016-05-02T19:02:29.000Z</time>
      </trkpt>
      <trkpt lat="48.92528" lon="2.2746">
        <ele>29</ele>
        <time>2016-05-02T19:02:33.000Z</time>
      </trkpt>
      <trkpt lat="48.92549" lon="2.27444">
        <ele>29.799999237061</ele>
        <time>2016-05-02T19:02:37.000Z</time>
      </trkpt>
      <trkpt lat="48.92568" lon="2.27425">
        <ele>30</ele>
        <time>2016-05-02T19:02:41.000Z</time>
      </trkpt>
      <trkpt lat="48.92588" lon="2.27409">
        <ele>30</ele>
        <time>2016-05-02T19:02:45.000Z</time>
      </trkpt>
      <trkpt lat="48.92607" lon="2.27393">
        <ele>29.799999237061</ele>
        <time>2016-05-02T19:02:49.000Z</time>
      </trkpt>
      <trkpt lat="48.92611" lon="2.27388">
        <ele>29.799999237061</ele>
        <time>2016-05-02T19:02:50.000Z</time>
      </trkpt>
      <trkpt lat="48.92629" lon="2.27376">
        <ele>30</ele>
        <time>2016-05-02T19:02:54.000Z</time>
      </trkpt>
      <trkpt lat="48.92641" lon="2.27365">
        <ele>30.200000762939</ele>
        <time>2016-05-02T19:02:57.000Z</time>
      </trkpt>
      <trkpt lat="48.9266" lon="2.27352">
        <ele>30.200000762939</ele>
        <time>2016-05-02T19:03:02.000Z</time>
      </trkpt>
      <trkpt lat="48.92664" lon="2.27351">
        <ele>30.200000762939</ele>
        <time>2016-05-02T19:03:03.000Z</time>
      </trkpt>
      <trkpt lat="48.92669" lon="2.27349">
        <ele>30.200000762939</ele>
        <time>2016-05-02T19:03:05.000Z</time>
      </trkpt>
      <trkpt lat="48.92678" lon="2.27349">
        <ele>30.39999961853</ele>
        <time>2016-05-02T19:03:08.000Z</time>
      </trkpt>
      <trkpt lat="48.9268" lon="2.27345">
        <ele>30.200000762939</ele>
        <time>2016-05-02T19:03:10.000Z</time>
      </trkpt>
      <trkpt lat="48.92697" lon="2.27335">
        <ele>30.60000038147</ele>
        <time>2016-05-02T19:03:54.000Z</time>
      </trkpt>
      <trkpt lat="48.92713" lon="2.2732">
        <ele>32.200000762939</ele>
        <time>2016-05-02T19:03:59.000Z</time>
      </trkpt>
      <trkpt lat="48.92732" lon="2.27308">
        <ele>34.200000762939</ele>
        <time>2016-05-02T19:04:04.000Z</time>
      </trkpt>
      <trkpt lat="48.9275" lon="2.27299">
        <ele>35.599998474121</ele>
        <time>2016-05-02T19:04:08.000Z</time>
      </trkpt>
      <trkpt lat="48.92767" lon="2.27283">
        <ele>35</ele>
        <time>2016-05-02T19:04:12.000Z</time>
      </trkpt>
      <trkpt lat="48.92776" lon="2.27252">
        <ele>33</ele>
        <time>2016-05-02T19:04:16.000Z</time>
      </trkpt>
      <trkpt lat="48.92783" lon="2.27218">
        <ele>31.39999961853</ele>
        <time>2016-05-02T19:04:20.000Z</time>
      </trkpt>
      <trkpt lat="48.92788" lon="2.27182">
        <ele>29.60000038147</ele>
        <time>2016-05-02T19:04:24.000Z</time>
      </trkpt>
      <trkpt lat="48.9279" lon="2.27173">
        <ele>29.799999237061</ele>
        <time>2016-05-02T19:04:25.000Z</time>
      </trkpt>
      <trkpt lat="48.92802" lon="2.27157">
        <ele>31.60000038147</ele>
        <time>2016-05-02T19:04:27.000Z</time>
      </trkpt>
      <trkpt lat="48.92808" lon="2.27137">
        <ele>32.200000762939</ele>
        <time>2016-05-02T19:04:29.000Z</time>
      </trkpt>
      <trkpt lat="48.92815" lon="2.27103">
        <ele>32.400001525879</ele>
        <time>2016-05-02T19:04:32.000Z</time>
      </trkpt>
      <trkpt lat="48.92825" lon="2.27071">
        <ele>32</ele>
        <time>2016-05-02T19:04:35.000Z</time>
      </trkpt>
      <trkpt lat="48.92837" lon="2.27039">
        <ele>31.200000762939</ele>
        <time>2016-05-02T19:04:38.000Z</time>
      </trkpt>
      <trkpt lat="48.92848" lon="2.27009">
        <ele>29</ele>
        <time>2016-05-02T19:04:41.000Z</time>
      </trkpt>
      <trkpt lat="48.92858" lon="2.26982">
        <ele>27.799999237061</ele>
        <time>2016-05-02T19:04:44.000Z</time>
      </trkpt>
      <trkpt lat="48.92868" lon="2.26958">
        <ele>27.60000038147</ele>
        <time>2016-05-02T19:04:47.000Z</time>
      </trkpt>
      <trkpt lat="48.92878" lon="2.26927">
        <ele>27.200000762939</ele>
        <time>2016-05-02T19:04:51.000Z</time>
      </trkpt>
      <trkpt lat="48.92885" lon="2.26901">
        <ele>27.200000762939</ele>
        <time>2016-05-02T19:04:55.000Z</time>
      </trkpt>
      <trkpt lat="48.92895" lon="2.2688">
        <ele>27.799999237061</ele>
        <time>2016-05-02T19:04:59.000Z</time>
      </trkpt>
      <trkpt lat="48.92909" lon="2.26861">
        <ele>28.200000762939</ele>
        <time>2016-05-02T19:05:03.000Z</time>
      </trkpt>
      <trkpt lat="48.92926" lon="2.2684">
        <ele>28.799999237061</ele>
        <time>2016-05-02T19:05:07.000Z</time>
      </trkpt>
      <trkpt lat="48.92941" lon="2.26825">
        <ele>29</ele>
        <time>2016-05-02T19:05:10.000Z</time>
      </trkpt>
      <trkpt lat="48.92957" lon="2.26811">
        <ele>29.200000762939</ele>
        <time>2016-05-02T19:05:13.000Z</time>
      </trkpt>
      <trkpt lat="48.92963" lon="2.26808">
        <ele>29.200000762939</ele>
        <time>2016-05-02T19:05:14.000Z</time>
      </trkpt>
      <trkpt lat="48.9298" lon="2.26797">
        <ele>29.200000762939</ele>
        <time>2016-05-02T19:05:17.000Z</time>
      </trkpt>
      <trkpt lat="48.93001" lon="2.26786">
        <ele>28.799999237061</ele>
        <time>2016-05-02T19:05:21.000Z</time>
      </trkpt>
      <trkpt lat="48.93023" lon="2.26771">
        <ele>28</ele>
        <time>2016-05-02T19:05:25.000Z</time>
      </trkpt>
      <trkpt lat="48.93044" lon="2.26756">
        <ele>27.60000038147</ele>
        <time>2016-05-02T19:05:29.000Z</time>
      </trkpt>
      <trkpt lat="48.93061" lon="2.26745">
        <ele>27.200000762939</ele>
        <time>2016-05-02T19:05:32.000Z</time>
      </trkpt>
      <trkpt lat="48.93082" lon="2.26733">
        <ele>27</ele>
        <time>2016-05-02T19:05:36.000Z</time>
      </trkpt>
      <trkpt lat="48.93099" lon="2.26725">
        <ele>26.799999237061</ele>
        <time>2016-05-02T19:05:39.000Z</time>
      </trkpt>
      <trkpt lat="48.9312" lon="2.26712">
        <ele>27.200000762939</ele>
        <time>2016-05-02T19:05:43.000Z</time>
      </trkpt>
      <trkpt lat="48.9314" lon="2.26698">
        <ele>28</ele>
        <time>2016-05-02T19:05:47.000Z</time>
      </trkpt>
      <trkpt lat="48.93162" lon="2.26685">
        <ele>27.60000038147</ele>
        <time>2016-05-02T19:05:51.000Z</time>
      </trkpt>
      <trkpt lat="48.93172" lon="2.26679">
        <ele>27.39999961853</ele>
        <time>2016-05-02T19:05:53.000Z</time>
      </trkpt>
      <trkpt lat="48.9319" lon="2.2666">
        <ele>27</ele>
        <time>2016-05-02T19:05:57.000Z</time>
      </trkpt>
      <trkpt lat="48.93206" lon="2.26639">
        <ele>27.60000038147</ele>
        <time>2016-05-02T19:06:01.000Z</time>
      </trkpt>
      <trkpt lat="48.93224" lon="2.26618">
        <ele>28</ele>
        <time>2016-05-02T19:06:05.000Z</time>
      </trkpt>
      <trkpt lat="48.9324" lon="2.26596">
        <ele>28.200000762939</ele>
        <time>2016-05-02T19:06:09.000Z</time>
      </trkpt>
      <trkpt lat="48.93255" lon="2.26575">
        <ele>28</ele>
        <time>2016-05-02T19:06:13.000Z</time>
      </trkpt>
      <trkpt lat="48.9327" lon="2.26555">
        <ele>28.200000762939</ele>
        <time>2016-05-02T19:06:17.000Z</time>
      </trkpt>
      <trkpt lat="48.93285" lon="2.26534">
        <ele>29.39999961853</ele>
        <time>2016-05-02T19:06:21.000Z</time>
      </trkpt>
      <trkpt lat="48.93301" lon="2.26514">
        <ele>30.60000038147</ele>
        <time>2016-05-02T19:06:25.000Z</time>
      </trkpt>
      <trkpt lat="48.93309" lon="2.26506">
        <ele>30.60000038147</ele>
        <time>2016-05-02T19:06:27.000Z</time>
      </trkpt>
      <trkpt lat="48.93325" lon="2.26491">
        <ele>30.799999237061</ele>
        <time>2016-05-02T19:06:31.000Z</time>
      </trkpt>
      <trkpt lat="48.93343" lon="2.26477">
        <ele>31</ele>
        <time>2016-05-02T19:06:37.000Z</time>
      </trkpt>
      <trkpt lat="48.93346" lon="2.26475">
        <ele>31</ele>
        <time>2016-05-02T19:06:38.000Z</time>
      </trkpt>
      <trkpt lat="48.93348" lon="2.26458">
        <ele>30.39999961853</ele>
        <time>2016-05-02T19:06:44.000Z</time>
      </trkpt>
      <trkpt lat="48.93348" lon="2.26452">
        <ele>30.200000762939</ele>
        <time>2016-05-02T19:06:48.000Z</time>
      </trkpt>
      <trkpt lat="48.93347" lon="2.26471">
        <ele>30.799999237061</ele>
        <time>2016-05-02T19:07:38.000Z</time>
      </trkpt>
      <trkpt lat="48.93358" lon="2.26445">
        <ele>30.200000762939</ele>
        <time>2016-05-02T19:07:46.000Z</time>
      </trkpt>
      <trkpt lat="48.93372" lon="2.26422">
        <ele>29</ele>
        <time>2016-05-02T19:07:50.000Z</time>
      </trkpt>
      <trkpt lat="48.93386" lon="2.26405">
        <ele>28.799999237061</ele>
        <time>2016-05-02T19:07:54.000Z</time>
      </trkpt>
      <trkpt lat="48.93399" lon="2.2638">
        <ele>28.799999237061</ele>
        <time>2016-05-02T19:07:58.000Z</time>
      </trkpt>
      <trkpt lat="48.93415" lon="2.26355">
        <ele>29</ele>
        <time>2016-05-02T19:08:02.000Z</time>
      </trkpt>
      <trkpt lat="48.93428" lon="2.26332">
        <ele>29.200000762939</ele>
        <time>2016-05-02T19:08:06.000Z</time>
      </trkpt>
      <trkpt lat="48.93444" lon="2.26307">
        <ele>28.60000038147</ele>
        <time>2016-05-02T19:08:10.000Z</time>
      </trkpt>
      <trkpt lat="48.93459" lon="2.26281">
        <ele>28.200000762939</ele>
        <time>2016-05-02T19:08:14.000Z</time>
      </trkpt>
      <trkpt lat="48.93473" lon="2.26262">
        <ele>27.799999237061</ele>
        <time>2016-05-02T19:08:18.000Z</time>
      </trkpt>
      <trkpt lat="48.93488" lon="2.26245">
        <ele>27.39999961853</ele>
        <time>2016-05-02T19:08:21.000Z</time>
      </trkpt>
      <trkpt lat="48.93501" lon="2.26225">
        <ele>27.799999237061</ele>
        <time>2016-05-02T19:08:24.000Z</time>
      </trkpt>
      <trkpt lat="48.93518" lon="2.26204">
        <ele>27.200000762939</ele>
        <time>2016-05-02T19:08:27.000Z</time>
      </trkpt>
      <trkpt lat="48.93529" lon="2.26189">
        <ele>27.200000762939</ele>
        <time>2016-05-02T19:08:30.000Z</time>
      </trkpt>
      <trkpt lat="48.93538" lon="2.26172">
        <ele>27</ele>
        <time>2016-05-02T19:08:34.000Z</time>
      </trkpt>
      <trkpt lat="48.93543" lon="2.2616">
        <ele>26.39999961853</ele>
        <time>2016-05-02T19:08:37.000Z</time>
      </trkpt>
      <trkpt lat="48.93553" lon="2.26146">
        <ele>26.60000038147</ele>
        <time>2016-05-02T19:08:41.000Z</time>
      </trkpt>
      <trkpt lat="48.93564" lon="2.26129">
        <ele>26.799999237061</ele>
        <time>2016-05-02T19:08:47.000Z</time>
      </trkpt>
      <trkpt lat="48.93568" lon="2.2612">
        <ele>26.799999237061</ele>
        <time>2016-05-02T19:08:51.000Z</time>
      </trkpt>
      <trkpt lat="48.9357" lon="2.26117">
        <ele>26.799999237061</ele>
        <time>2016-05-02T19:08:55.000Z</time>
      </trkpt>
      <trkpt lat="48.93581" lon="2.26093">
        <ele>26.39999961853</ele>
        <time>2016-05-02T19:09:07.000Z</time>
      </trkpt>
      <trkpt lat="48.93593" lon="2.26072">
        <ele>25.60000038147</ele>
        <time>2016-05-02T19:09:11.000Z</time>
      </trkpt>
      <trkpt lat="48.93607" lon="2.26044">
        <ele>25</ele>
        <time>2016-05-02T19:09:15.000Z</time>
      </trkpt>
      <trkpt lat="48.9362" lon="2.26022">
        <ele>25.60000038147</ele>
        <time>2016-05-02T19:09:18.000Z</time>
      </trkpt>
      <trkpt lat="48.93634" lon="2.26002">
        <ele>25.799999237061</ele>
        <time>2016-05-02T19:09:21.000Z</time>
      </trkpt>
      <trkpt lat="48.93649" lon="2.25984">
        <ele>27</ele>
        <time>2016-05-02T19:09:24.000Z</time>
      </trkpt>
      <trkpt lat="48.93665" lon="2.25961">
        <ele>29.39999961853</ele>
        <time>2016-05-02T19:09:28.000Z</time>
      </trkpt>
      <trkpt lat="48.93681" lon="2.25935">
        <ele>30.799999237061</ele>
        <time>2016-05-02T19:09:32.000Z</time>
      </trkpt>
      <trkpt lat="48.93695" lon="2.25914">
        <ele>31.799999237061</ele>
        <time>2016-05-02T19:09:35.000Z</time>
      </trkpt>
      <trkpt lat="48.93709" lon="2.25894">
        <ele>31.39999961853</ele>
        <time>2016-05-02T19:09:38.000Z</time>
      </trkpt>
      <trkpt lat="48.93724" lon="2.25875">
        <ele>30.799999237061</ele>
        <time>2016-05-02T19:09:41.000Z</time>
      </trkpt>
      <trkpt lat="48.93739" lon="2.25856">
        <ele>30.39999961853</ele>
        <time>2016-05-02T19:09:44.000Z</time>
      </trkpt>
      <trkpt lat="48.93755" lon="2.25839">
        <ele>29.799999237061</ele>
        <time>2016-05-02T19:09:47.000Z</time>
      </trkpt>
      <trkpt lat="48.93774" lon="2.25817">
        <ele>29.200000762939</ele>
        <time>2016-05-02T19:09:51.000Z</time>
      </trkpt>
      <trkpt lat="48.93789" lon="2.25796">
        <ele>29.60000038147</ele>
        <time>2016-05-02T19:09:54.000Z</time>
      </trkpt>
      <trkpt lat="48.93804" lon="2.25779">
        <ele>30</ele>
        <time>2016-05-02T19:09:57.000Z</time>
      </trkpt>
      <trkpt lat="48.93821" lon="2.25757">
        <ele>30.39999961853</ele>
        <time>2016-05-02T19:10:01.000Z</time>
      </trkpt>
      <trkpt lat="48.93831" lon="2.25746">
        <ele>30.799999237061</ele>
        <time>2016-05-02T19:10:03.000Z</time>
      </trkpt>
      <trkpt lat="48.93848" lon="2.25724">
        <ele>31.60000038147</ele>
        <time>2016-05-02T19:10:07.000Z</time>
      </trkpt>
      <trkpt lat="48.93865" lon="2.25704">
        <ele>31</ele>
        <time>2016-05-02T19:10:11.000Z</time>
      </trkpt>
      <trkpt lat="48.93879" lon="2.25684">
        <ele>30.799999237061</ele>
        <time>2016-05-02T19:10:15.000Z</time>
      </trkpt>
      <trkpt lat="48.93883" lon="2.2568">
        <ele>30.60000038147</ele>
        <time>2016-05-02T19:10:16.000Z</time>
      </trkpt>
      <trkpt lat="48.939" lon="2.2566">
        <ele>30.39999961853</ele>
        <time>2016-05-02T19:10:20.000Z</time>
      </trkpt>
      <trkpt lat="48.93915" lon="2.25643">
        <ele>30</ele>
        <time>2016-05-02T19:10:24.000Z</time>
      </trkpt>
      <trkpt lat="48.93925" lon="2.25631">
        <ele>29.60000038147</ele>
        <time>2016-05-02T19:10:27.000Z</time>
      </trkpt>
      <trkpt lat="48.93942" lon="2.25614">
        <ele>28.799999237061</ele>
        <time>2016-05-02T19:10:32.000Z</time>
      </trkpt>
      <trkpt lat="48.93946" lon="2.25611">
        <ele>28.60000038147</ele>
        <time>2016-05-02T19:10:33.000Z</time>
      </trkpt>
      <trkpt lat="48.93962" lon="2.25593">
        <ele>27.200000762939</ele>
        <time>2016-05-02T19:10:38.000Z</time>
      </trkpt>
      <trkpt lat="48.9398" lon="2.25573">
        <ele>25</ele>
        <time>2016-05-02T19:10:43.000Z</time>
      </trkpt>
      <trkpt lat="48.93988" lon="2.25565">
        <ele>24.200000762939</ele>
        <time>2016-05-02T19:10:45.000Z</time>
      </trkpt>
      <trkpt lat="48.94004" lon="2.25548">
        <ele>23</ele>
        <time>2016-05-02T19:10:49.000Z</time>
      </trkpt>
      <trkpt lat="48.94019" lon="2.25532">
        <ele>22.799999237061</ele>
        <time>2016-05-02T19:10:53.000Z</time>
      </trkpt>
      <trkpt lat="48.94035" lon="2.25516">
        <ele>21.799999237061</ele>
        <time>2016-05-02T19:10:57.000Z</time>
      </trkpt>
      <trkpt lat="48.94049" lon="2.255">
        <ele>22.200000762939</ele>
        <time>2016-05-02T19:11:01.000Z</time>
      </trkpt>
      <trkpt lat="48.94065" lon="2.25484">
        <ele>22.200000762939</ele>
        <time>2016-05-02T19:11:05.000Z</time>
      </trkpt>
      <trkpt lat="48.94081" lon="2.25466">
        <ele>22.200000762939</ele>
        <time>2016-05-02T19:11:09.000Z</time>
      </trkpt>
      <trkpt lat="48.94098" lon="2.25446">
        <ele>23.799999237061</ele>
        <time>2016-05-02T19:11:13.000Z</time>
      </trkpt>
      <trkpt lat="48.94116" lon="2.25426">
        <ele>25.60000038147</ele>
        <time>2016-05-02T19:11:17.000Z</time>
      </trkpt>
      <trkpt lat="48.94132" lon="2.25411">
        <ele>26.39999961853</ele>
        <time>2016-05-02T19:11:20.000Z</time>
      </trkpt>
      <trkpt lat="48.94151" lon="2.25396">
        <ele>27.200000762939</ele>
        <time>2016-05-02T19:11:23.000Z</time>
      </trkpt>
      <trkpt lat="48.9417" lon="2.25381">
        <ele>27.60000038147</ele>
        <time>2016-05-02T19:11:26.000Z</time>
      </trkpt>
      <trkpt lat="48.94187" lon="2.25368">
        <ele>27.60000038147</ele>
        <time>2016-05-02T19:11:29.000Z</time>
      </trkpt>
      <trkpt lat="48.94199" lon="2.25355">
        <ele>27.799999237061</ele>
        <time>2016-05-02T19:11:32.000Z</time>
      </trkpt>
      <trkpt lat="48.94212" lon="2.25338">
        <ele>28.39999961853</ele>
        <time>2016-05-02T19:11:37.000Z</time>
      </trkpt>
      <trkpt lat="48.94215" lon="2.25332">
        <ele>28.799999237061</ele>
        <time>2016-05-02T19:11:40.000Z</time>
      </trkpt>
      <trkpt lat="48.94218" lon="2.25327">
        <ele>29</ele>
        <time>2016-05-02T19:13:07.000Z</time>
      </trkpt>
      <trkpt lat="48.94232" lon="2.2531">
        <ele>29.39999961853</ele>
        <time>2016-05-02T19:13:14.000Z</time>
      </trkpt>
      <trkpt lat="48.94248" lon="2.25292">
        <ele>30.39999961853</ele>
        <time>2016-05-02T19:13:20.000Z</time>
      </trkpt>
      <trkpt lat="48.94264" lon="2.25275">
        <ele>32.200000762939</ele>
        <time>2016-05-02T19:13:25.000Z</time>
      </trkpt>
      <trkpt lat="48.9428" lon="2.25259">
        <ele>33.599998474121</ele>
        <time>2016-05-02T19:13:30.000Z</time>
      </trkpt>
      <trkpt lat="48.94298" lon="2.25246">
        <ele>34</ele>
        <time>2016-05-02T19:13:35.000Z</time>
      </trkpt>
      <trkpt lat="48.94313" lon="2.25229">
        <ele>34.599998474121</ele>
        <time>2016-05-02T19:13:40.000Z</time>
      </trkpt>
      <trkpt lat="48.9433" lon="2.25213">
        <ele>35.200000762939</ele>
        <time>2016-05-02T19:13:45.000Z</time>
      </trkpt>
      <trkpt lat="48.94345" lon="2.25191">
        <ele>36</ele>
        <time>2016-05-02T19:13:50.000Z</time>
      </trkpt>
      <trkpt lat="48.9436" lon="2.25175">
        <ele>36.599998474121</ele>
        <time>2016-05-02T19:13:54.000Z</time>
      </trkpt>
      <trkpt lat="48.94379" lon="2.25159">
        <ele>37</ele>
        <time>2016-05-02T19:13:59.000Z</time>
      </trkpt>
      <trkpt lat="48.94394" lon="2.25142">
        <ele>37</ele>
        <time>2016-05-02T19:14:03.000Z</time>
      </trkpt>
      <trkpt lat="48.94409" lon="2.25125">
        <ele>37.200000762939</ele>
        <time>2016-05-02T19:14:07.000Z</time>
      </trkpt>
      <trkpt lat="48.94416" lon="2.25117">
        <ele>38</ele>
        <time>2016-05-02T19:14:09.000Z</time>
      </trkpt>
      <trkpt lat="48.94431" lon="2.25101">
        <ele>39.599998474121</ele>
        <time>2016-05-02T19:14:13.000Z</time>
      </trkpt>
      <trkpt lat="48.94449" lon="2.25081">
        <ele>40.599998474121</ele>
        <time>2016-05-02T19:14:18.000Z</time>
      </trkpt>
      <trkpt lat="48.94454" lon="2.25078">
        <ele>40.599998474121</ele>
        <time>2016-05-02T19:14:19.000Z</time>
      </trkpt>
      <trkpt lat="48.94464" lon="2.25067">
        <ele>40</ele>
        <time>2016-05-02T19:14:22.000Z</time>
      </trkpt>
      <trkpt lat="48.94479" lon="2.25046">
        <ele>39.200000762939</ele>
        <time>2016-05-02T19:14:27.000Z</time>
      </trkpt>
      <trkpt lat="48.94494" lon="2.25026">
        <ele>39.599998474121</ele>
        <time>2016-05-02T19:14:32.000Z</time>
      </trkpt>
      <trkpt lat="48.94512" lon="2.25011">
        <ele>40.400001525879</ele>
        <time>2016-05-02T19:14:37.000Z</time>
      </trkpt>
      <trkpt lat="48.94518" lon="2.25002">
        <ele>40.599998474121</ele>
        <time>2016-05-02T19:14:39.000Z</time>
      </trkpt>
      <trkpt lat="48.94535" lon="2.24985">
        <ele>40.200000762939</ele>
        <time>2016-05-02T19:14:44.000Z</time>
      </trkpt>
      <trkpt lat="48.94554" lon="2.24974">
        <ele>39.200000762939</ele>
        <time>2016-05-02T19:14:49.000Z</time>
      </trkpt>
      <trkpt lat="48.94572" lon="2.2496">
        <ele>38</ele>
        <time>2016-05-02T19:14:54.000Z</time>
      </trkpt>
      <trkpt lat="48.9458" lon="2.24954">
        <ele>38.200000762939</ele>
        <time>2016-05-02T19:14:56.000Z</time>
      </trkpt>
      <trkpt lat="48.94599" lon="2.24941">
        <ele>38.599998474121</ele>
        <time>2016-05-02T19:15:01.000Z</time>
      </trkpt>
      <trkpt lat="48.94616" lon="2.24931">
        <ele>38.599998474121</ele>
        <time>2016-05-02T19:15:06.000Z</time>
      </trkpt>
      <trkpt lat="48.94633" lon="2.24918">
        <ele>38</ele>
        <time>2016-05-02T19:15:11.000Z</time>
      </trkpt>
      <trkpt lat="48.9465" lon="2.24909">
        <ele>37.400001525879</ele>
        <time>2016-05-02T19:15:19.000Z</time>
      </trkpt>
      <trkpt lat="48.94667" lon="2.24919">
        <ele>36.799999237061</ele>
        <time>2016-05-02T19:15:29.000Z</time>
      </trkpt>
      <trkpt lat="48.94682" lon="2.24943">
        <ele>36.400001525879</ele>
        <time>2016-05-02T19:15:35.000Z</time>
      </trkpt>
      <trkpt lat="48.94697" lon="2.24964">
        <ele>36</ele>
        <time>2016-05-02T19:15:40.000Z</time>
      </trkpt>
      <trkpt lat="48.94709" lon="2.24984">
        <ele>35.799999237061</ele>
        <time>2016-05-02T19:15:44.000Z</time>
      </trkpt>
      <trkpt lat="48.94724" lon="2.25004">
        <ele>35.599998474121</ele>
        <time>2016-05-02T19:15:48.000Z</time>
      </trkpt>
      <trkpt lat="48.94736" lon="2.25024">
        <ele>35.200000762939</ele>
        <time>2016-05-02T19:15:52.000Z</time>
      </trkpt>
      <trkpt lat="48.94749" lon="2.25046">
        <ele>34.799999237061</ele>
        <time>2016-05-02T19:15:56.000Z</time>
      </trkpt>
      <trkpt lat="48.94757" lon="2.25071">
        <ele>34.200000762939</ele>
        <time>2016-05-02T19:16:00.000Z</time>
      </trkpt>
      <trkpt lat="48.94768" lon="2.25095">
        <ele>34.200000762939</ele>
        <time>2016-05-02T19:16:04.000Z</time>
      </trkpt>
      <trkpt lat="48.94781" lon="2.2512">
        <ele>34.200000762939</ele>
        <time>2016-05-02T19:16:08.000Z</time>
      </trkpt>
      <trkpt lat="48.94795" lon="2.25147">
        <ele>34</ele>
        <time>2016-05-02T19:16:12.000Z</time>
      </trkpt>
      <trkpt lat="48.94809" lon="2.25174">
        <ele>33.799999237061</ele>
        <time>2016-05-02T19:16:16.000Z</time>
      </trkpt>
      <trkpt lat="48.94821" lon="2.25198">
        <ele>33.799999237061</ele>
        <time>2016-05-02T19:16:20.000Z</time>
      </trkpt>
      <trkpt lat="48.94826" lon="2.25203">
        <ele>33.599998474121</ele>
        <time>2016-05-02T19:16:21.000Z</time>
      </trkpt>
      <trkpt lat="48.94836" lon="2.25227">
        <ele>33.599998474121</ele>
        <time>2016-05-02T19:16:25.000Z</time>
      </trkpt>
      <trkpt lat="48.94848" lon="2.25248">
        <ele>33.400001525879</ele>
        <time>2016-05-02T19:16:29.000Z</time>
      </trkpt>
      <trkpt lat="48.94857" lon="2.25265">
        <ele>34</ele>
        <time>2016-05-02T19:16:32.000Z</time>
      </trkpt>
      <trkpt lat="48.94862" lon="2.25276">
        <ele>34.400001525879</ele>
        <time>2016-05-02T19:16:34.000Z</time>
      </trkpt>
      <trkpt lat="48.94868" lon="2.25293">
        <ele>35</ele>
        <time>2016-05-02T19:16:37.000Z</time>
      </trkpt>
      <trkpt lat="48.94877" lon="2.25309">
        <ele>35.599998474121</ele>
        <time>2016-05-02T19:16:41.000Z</time>
      </trkpt>
      <trkpt lat="48.94882" lon="2.2532">
        <ele>36</ele>
        <time>2016-05-02T19:16:44.000Z</time>
      </trkpt>
      <trkpt lat="48.94885" lon="2.25332">
        <ele>36.400001525879</ele>
        <time>2016-05-02T19:16:47.000Z</time>
      </trkpt>
      <trkpt lat="48.94886" lon="2.2534">
        <ele>36.799999237061</ele>
        <time>2016-05-02T19:16:50.000Z</time>
      </trkpt>
      <trkpt lat="48.94886" lon="2.25348">
        <ele>37</ele>
        <time>2016-05-02T19:16:54.000Z</time>
      </trkpt>
      <trkpt lat="48.94877" lon="2.25343">
        <ele>37</ele>
        <time>2016-05-02T19:16:59.000Z</time>
      </trkpt>
      <trkpt lat="48.94862" lon="2.25326">
        <ele>36.799999237061</ele>
        <time>2016-05-02T19:17:04.000Z</time>
      </trkpt>
      <trkpt lat="48.94842" lon="2.25316">
        <ele>36.799999237061</ele>
        <time>2016-05-02T19:17:09.000Z</time>
      </trkpt>
      <trkpt lat="48.9482" lon="2.25311">
        <ele>36.400001525879</ele>
        <time>2016-05-02T19:17:14.000Z</time>
      </trkpt>
      <trkpt lat="48.948" lon="2.2531">
        <ele>35.799999237061</ele>
        <time>2016-05-02T19:17:19.000Z</time>
      </trkpt>
      <trkpt lat="48.9478" lon="2.25314">
        <ele>35.400001525879</ele>
        <time>2016-05-02T19:17:26.000Z</time>
      </trkpt>
      <trkpt lat="48.94761" lon="2.2532">
        <ele>34.599998474121</ele>
        <time>2016-05-02T19:17:31.000Z</time>
      </trkpt>
      <trkpt lat="48.94743" lon="2.2533">
        <ele>33.799999237061</ele>
        <time>2016-05-02T19:17:35.000Z</time>
      </trkpt>
      <trkpt lat="48.94724" lon="2.2534">
        <ele>33.200000762939</ele>
        <time>2016-05-02T19:17:40.000Z</time>
      </trkpt>
      <trkpt lat="48.94707" lon="2.25357">
        <ele>32.599998474121</ele>
        <time>2016-05-02T19:17:45.000Z</time>
      </trkpt>
      <trkpt lat="48.94691" lon="2.25363">
        <ele>32</ele>
        <time>2016-05-02T19:17:50.000Z</time>
      </trkpt>
      <trkpt lat="48.94685" lon="2.25388">
        <ele>32</ele>
        <time>2016-05-02T19:17:56.000Z</time>
      </trkpt>
      <trkpt lat="48.94679" lon="2.25402">
        <ele>32</ele>
        <time>2016-05-02T19:18:00.000Z</time>
      </trkpt>
      <trkpt lat="48.94659" lon="2.2541">
        <ele>31.60000038147</ele>
        <time>2016-05-02T19:18:06.000Z</time>
      </trkpt>
      <trkpt lat="48.94638" lon="2.25414">
        <ele>31.39999961853</ele>
        <time>2016-05-02T19:18:12.000Z</time>
      </trkpt>
      <trkpt lat="48.9462" lon="2.25419">
        <ele>31.200000762939</ele>
        <time>2016-05-02T19:18:16.000Z</time>
      </trkpt>
      <trkpt lat="48.94601" lon="2.25424">
        <ele>30.799999237061</ele>
        <time>2016-05-02T19:18:20.000Z</time>
      </trkpt>
      <trkpt lat="48.9458" lon="2.25431">
        <ele>30.39999961853</ele>
        <time>2016-05-02T19:18:24.000Z</time>
      </trkpt>
      <trkpt lat="48.94558" lon="2.25439">
        <ele>29.799999237061</ele>
        <time>2016-05-02T19:18:28.000Z</time>
      </trkpt>
      <trkpt lat="48.94537" lon="2.25446">
        <ele>29.39999961853</ele>
        <time>2016-05-02T19:18:32.000Z</time>
      </trkpt>
      <trkpt lat="48.94518" lon="2.25449">
        <ele>28.799999237061</ele>
        <time>2016-05-02T19:18:36.000Z</time>
      </trkpt>
      <trkpt lat="48.94513" lon="2.25451">
        <ele>28.60000038147</ele>
        <time>2016-05-02T19:18:37.000Z</time>
      </trkpt>
      <trkpt lat="48.94495" lon="2.25459">
        <ele>28</ele>
        <time>2016-05-02T19:18:41.000Z</time>
      </trkpt>
      <trkpt lat="48.94486" lon="2.25463">
        <ele>27.60000038147</ele>
        <time>2016-05-02T19:18:43.000Z</time>
      </trkpt>
      <trkpt lat="48.9448" lon="2.25489">
        <ele>27.39999961853</ele>
        <time>2016-05-02T19:18:49.000Z</time>
      </trkpt>
      <trkpt lat="48.94488" lon="2.255">
        <ele>27.799999237061</ele>
        <time>2016-05-02T19:18:52.000Z</time>
      </trkpt>
      <trkpt lat="48.94502" lon="2.25521">
        <ele>29.39999961853</ele>
        <time>2016-05-02T19:18:57.000Z</time>
      </trkpt>
      <trkpt lat="48.94518" lon="2.25534">
        <ele>30.60000038147</ele>
        <time>2016-05-02T19:19:01.000Z</time>
      </trkpt>
      <trkpt lat="48.94529" lon="2.25544">
        <ele>31.39999961853</ele>
        <time>2016-05-02T19:19:04.000Z</time>
      </trkpt>
      <trkpt lat="48.94545" lon="2.25563">
        <ele>32.200000762939</ele>
        <time>2016-05-02T19:19:09.000Z</time>
      </trkpt>
      <trkpt lat="48.94549" lon="2.25567">
        <ele>32.400001525879</ele>
        <time>2016-05-02T19:19:10.000Z</time>
      </trkpt>
      <trkpt lat="48.94566" lon="2.25582">
        <ele>33</ele>
        <time>2016-05-02T19:19:14.000Z</time>
      </trkpt>
      <trkpt lat="48.9457" lon="2.25584">
        <ele>33</ele>
        <time>2016-05-02T19:19:15.000Z</time>
      </trkpt>
      <trkpt lat="48.94586" lon="2.25599">
        <ele>33</ele>
        <time>2016-05-02T19:19:19.000Z</time>
      </trkpt>
      <trkpt lat="48.94596" lon="2.25611">
        <ele>33</ele>
        <time>2016-05-02T19:19:22.000Z</time>
      </trkpt>
      <trkpt lat="48.94611" lon="2.25627">
        <ele>33</ele>
        <time>2016-05-02T19:19:26.000Z</time>
      </trkpt>
      <trkpt lat="48.94626" lon="2.25646">
        <ele>33.400001525879</ele>
        <time>2016-05-02T19:19:31.000Z</time>
      </trkpt>
      <trkpt lat="48.94643" lon="2.25665">
        <ele>33.799999237061</ele>
        <time>2016-05-02T19:19:37.000Z</time>
      </trkpt>
      <trkpt lat="48.94656" lon="2.25682">
        <ele>34.400001525879</ele>
        <time>2016-05-02T19:19:43.000Z</time>
      </trkpt>
      <trkpt lat="48.94667" lon="2.25688">
        <ele>34.799999237061</ele>
        <time>2016-05-02T19:20:23.000Z</time>
      </trkpt>
      <trkpt lat="48.94685" lon="2.25683">
        <ele>35.200000762939</ele>
        <time>2016-05-02T19:20:41.000Z</time>
      </trkpt>
      <trkpt lat="48.94703" lon="2.25671">
        <ele>35.200000762939</ele>
        <time>2016-05-02T19:20:48.000Z</time>
      </trkpt>
      <trkpt lat="48.94721" lon="2.25659">
        <ele>35.799999237061</ele>
        <time>2016-05-02T19:20:55.000Z</time>
      </trkpt>
      <trkpt lat="48.94739" lon="2.25647">
        <ele>36.200000762939</ele>
        <time>2016-05-02T19:21:01.000Z</time>
      </trkpt>
      <trkpt lat="48.94757" lon="2.25633">
        <ele>36.400001525879</ele>
        <time>2016-05-02T19:21:08.000Z</time>
      </trkpt>
      <trkpt lat="48.94769" lon="2.25608">
        <ele>36.200000762939</ele>
        <time>2016-05-02T19:21:16.000Z</time>
      </trkpt>
      <trkpt lat="48.94776" lon="2.25602">
        <ele>36.400001525879</ele>
        <time>2016-05-02T19:21:19.000Z</time>
      </trkpt>
      <trkpt lat="48.94786" lon="2.25596">
        <ele>36.400001525879</ele>
        <time>2016-05-02T19:21:25.000Z</time>
      </trkpt>
      <trkpt lat="48.94804" lon="2.2558">
        <ele>37.400001525879</ele>
        <time>2016-05-02T19:21:35.000Z</time>
      </trkpt>
      <trkpt lat="48.94822" lon="2.25566">
        <ele>38.200000762939</ele>
        <time>2016-05-02T19:21:41.000Z</time>
      </trkpt>
      <trkpt lat="48.9484" lon="2.25565">
        <ele>39</ele>
        <time>2016-05-02T19:21:46.000Z</time>
      </trkpt>
      <trkpt lat="48.9486" lon="2.25576">
        <ele>40</ele>
        <time>2016-05-02T19:21:53.000Z</time>
      </trkpt>
      <trkpt lat="48.94877" lon="2.2559">
        <ele>40.200000762939</ele>
        <time>2016-05-02T19:21:58.000Z</time>
      </trkpt>
      <trkpt lat="48.94888" lon="2.25613">
        <ele>40.400001525879</ele>
        <time>2016-05-02T19:22:04.000Z</time>
      </trkpt>
      <trkpt lat="48.94896" lon="2.25639">
        <ele>40</ele>
        <time>2016-05-02T19:22:11.000Z</time>
      </trkpt>
      <trkpt lat="48.94897" lon="2.25668">
        <ele>39.400001525879</ele>
        <time>2016-05-02T19:22:21.000Z</time>
      </trkpt>
      <trkpt lat="48.94897" lon="2.25671">
        <ele>39.400001525879</ele>
        <time>2016-05-02T19:22:23.000Z</time>
      </trkpt>
      <trkpt lat="48.94895" lon="2.25673">
        <ele>39.200000762939</ele>
        <time>2016-05-02T19:23:05.000Z</time>
      </trkpt>
      <trkpt lat="48.94891" lon="2.25701">
        <ele>38.799999237061</ele>
        <time>2016-05-02T19:23:21.000Z</time>
      </trkpt>
      <trkpt lat="48.94877" lon="2.2572">
        <ele>38.400001525879</ele>
        <time>2016-05-02T19:23:29.000Z</time>
      </trkpt>
      <trkpt lat="48.94865" lon="2.25744">
        <ele>38.200000762939</ele>
        <time>2016-05-02T19:23:35.000Z</time>
      </trkpt>
      <trkpt lat="48.94857" lon="2.25768">
        <ele>38.599998474121</ele>
        <time>2016-05-02T19:23:40.000Z</time>
      </trkpt>
      <trkpt lat="48.94853" lon="2.258">
        <ele>39.200000762939</ele>
        <time>2016-05-02T19:23:45.000Z</time>
      </trkpt>
      <trkpt lat="48.94853" lon="2.25807">
        <ele>39.400001525879</ele>
        <time>2016-05-02T19:23:46.000Z</time>
      </trkpt>
      <trkpt lat="48.94856" lon="2.25839">
        <ele>40</ele>
        <time>2016-05-02T19:23:50.000Z</time>
      </trkpt>
      <trkpt lat="48.94861" lon="2.25872">
        <ele>40.200000762939</ele>
        <time>2016-05-02T19:23:54.000Z</time>
      </trkpt>
      <trkpt lat="48.94868" lon="2.25901">
        <ele>40.400001525879</ele>
        <time>2016-05-02T19:23:57.000Z</time>
      </trkpt>
      <trkpt lat="48.94884" lon="2.25925">
        <ele>41.200000762939</ele>
        <time>2016-05-02T19:24:02.000Z</time>
      </trkpt>
      <trkpt lat="48.94892" lon="2.25938">
        <ele>41.599998474121</ele>
        <time>2016-05-02T19:24:05.000Z</time>
      </trkpt>
      <trkpt lat="48.94908" lon="2.25958">
        <ele>42.400001525879</ele>
        <time>2016-05-02T19:24:11.000Z</time>
      </trkpt>
      <trkpt lat="48.94918" lon="2.25986">
        <ele>43</ele>
        <time>2016-05-02T19:24:18.000Z</time>
      </trkpt>
      <trkpt lat="48.94928" lon="2.26015">
        <ele>43</ele>
        <time>2016-05-02T19:24:25.000Z</time>
      </trkpt>
      <trkpt lat="48.94938" lon="2.26039">
        <ele>42.799999237061</ele>
        <time>2016-05-02T19:24:30.000Z</time>
      </trkpt>
      <trkpt lat="48.94949" lon="2.26066">
        <ele>42.799999237061</ele>
        <time>2016-05-02T19:24:35.000Z</time>
      </trkpt>
      <trkpt lat="48.9496" lon="2.26093">
        <ele>43.200000762939</ele>
        <time>2016-05-02T19:24:40.000Z</time>
      </trkpt>
      <trkpt lat="48.94968" lon="2.26122">
        <ele>43.799999237061</ele>
        <time>2016-05-02T19:24:45.000Z</time>
      </trkpt>
      <trkpt lat="48.94978" lon="2.26148">
        <ele>44.599998474121</ele>
        <time>2016-05-02T19:24:50.000Z</time>
      </trkpt>
      <trkpt lat="48.94988" lon="2.26173">
        <ele>45.400001525879</ele>
        <time>2016-05-02T19:24:55.000Z</time>
      </trkpt>
      <trkpt lat="48.94999" lon="2.26197">
        <ele>46.200000762939</ele>
        <time>2016-05-02T19:25:00.000Z</time>
      </trkpt>
      <trkpt lat="48.95011" lon="2.26225">
        <ele>47</ele>
        <time>2016-05-02T19:25:06.000Z</time>
      </trkpt>
      <trkpt lat="48.95022" lon="2.26251">
        <ele>48</ele>
        <time>2016-05-02T19:25:12.000Z</time>
      </trkpt>
      <trkpt lat="48.95034" lon="2.26278">
        <ele>48.400001525879</ele>
        <time>2016-05-02T19:25:19.000Z</time>
      </trkpt>
      <trkpt lat="48.95044" lon="2.26301">
        <ele>48.799999237061</ele>
        <time>2016-05-02T19:25:25.000Z</time>
      </trkpt>
      <trkpt lat="48.95055" lon="2.26327">
        <ele>49</ele>
        <time>2016-05-02T19:25:31.000Z</time>
      </trkpt>
      <trkpt lat="48.95067" lon="2.26352">
        <ele>50.200000762939</ele>
        <time>2016-05-02T19:25:36.000Z</time>
      </trkpt>
      <trkpt lat="48.95078" lon="2.26378">
        <ele>51</ele>
        <time>2016-05-02T19:25:40.000Z</time>
      </trkpt>
      <trkpt lat="48.95086" lon="2.26402">
        <ele>51.799999237061</ele>
        <time>2016-05-02T19:25:44.000Z</time>
      </trkpt>
      <trkpt lat="48.95097" lon="2.26431">
        <ele>52.200000762939</ele>
        <time>2016-05-02T19:25:49.000Z</time>
      </trkpt>
      <trkpt lat="48.95108" lon="2.26455">
        <ele>52.400001525879</ele>
        <time>2016-05-02T19:25:53.000Z</time>
      </trkpt>
      <trkpt lat="48.95122" lon="2.26481">
        <ele>52.799999237061</ele>
        <time>2016-05-02T19:25:58.000Z</time>
      </trkpt>
      <trkpt lat="48.95128" lon="2.26495">
        <ele>52.799999237061</ele>
        <time>2016-05-02T19:26:01.000Z</time>
      </trkpt>
      <trkpt lat="48.95133" lon="2.26513">
        <ele>53</ele>
        <time>2016-05-02T19:26:05.000Z</time>
      </trkpt>
      <trkpt lat="48.95134" lon="2.26517">
        <ele>53</ele>
        <time>2016-05-02T19:26:06.000Z</time>
      </trkpt>
      <trkpt lat="48.95145" lon="2.26542">
        <ele>53.400001525879</ele>
        <time>2016-05-02T19:26:12.000Z</time>
      </trkpt>
      <trkpt lat="48.95155" lon="2.26564">
        <ele>54</ele>
        <time>2016-05-02T19:26:17.000Z</time>
      </trkpt>
      <trkpt lat="48.95165" lon="2.26589">
        <ele>54.400001525879</ele>
        <time>2016-05-02T19:26:22.000Z</time>
      </trkpt>
      <trkpt lat="48.95175" lon="2.26612">
        <ele>54.599998474121</ele>
        <time>2016-05-02T19:26:27.000Z</time>
      </trkpt>
      <trkpt lat="48.95185" lon="2.2664">
        <ele>54.799999237061</ele>
        <time>2016-05-02T19:26:33.000Z</time>
      </trkpt>
      <trkpt lat="48.95195" lon="2.26664">
        <ele>55.200000762939</ele>
        <time>2016-05-02T19:26:39.000Z</time>
      </trkpt>
      <trkpt lat="48.95203" lon="2.26693">
        <ele>55.799999237061</ele>
        <time>2016-05-02T19:26:45.000Z</time>
      </trkpt>
      <trkpt lat="48.95215" lon="2.26716">
        <ele>56.599998474121</ele>
        <time>2016-05-02T19:26:51.000Z</time>
      </trkpt>
      <trkpt lat="48.95225" lon="2.26742">
        <ele>57.200000762939</ele>
        <time>2016-05-02T19:26:56.000Z</time>
      </trkpt>
      <trkpt lat="48.95233" lon="2.26768">
        <ele>57.200000762939</ele>
        <time>2016-05-02T19:27:00.000Z</time>
      </trkpt>
      <trkpt lat="48.95241" lon="2.26794">
        <ele>57.200000762939</ele>
        <time>2016-05-02T19:27:04.000Z</time>
      </trkpt>
      <trkpt lat="48.95252" lon="2.26822">
        <ele>57.599998474121</ele>
        <time>2016-05-02T19:27:09.000Z</time>
      </trkpt>
      <trkpt lat="48.95264" lon="2.26849">
        <ele>58.200000762939</ele>
        <time>2016-05-02T19:27:13.000Z</time>
      </trkpt>
      <trkpt lat="48.95276" lon="2.26876">
        <ele>58.599998474121</ele>
        <time>2016-05-02T19:27:17.000Z</time>
      </trkpt>
      <trkpt lat="48.95287" lon="2.26902">
        <ele>59.400001525879</ele>
        <time>2016-05-02T19:27:21.000Z</time>
      </trkpt>
      <trkpt lat="48.95298" lon="2.26927">
        <ele>60.599998474121</ele>
        <time>2016-05-02T19:27:25.000Z</time>
      </trkpt>
      <trkpt lat="48.95308" lon="2.26953">
        <ele>61.599998474121</ele>
        <time>2016-05-02T19:27:29.000Z</time>
      </trkpt>
      <trkpt lat="48.95318" lon="2.26977">
        <ele>62.599998474121</ele>
        <time>2016-05-02T19:27:33.000Z</time>
      </trkpt>
      <trkpt lat="48.95323" lon="2.2699">
        <ele>63.200000762939</ele>
        <time>2016-05-02T19:27:35.000Z</time>
      </trkpt>
      <trkpt lat="48.95331" lon="2.27009">
        <ele>63.799999237061</ele>
        <time>2016-05-02T19:27:38.000Z</time>
      </trkpt>
      <trkpt lat="48.95342" lon="2.27035">
        <ele>64.800003051758</ele>
        <time>2016-05-02T19:27:42.000Z</time>
      </trkpt>
      <trkpt lat="48.95345" lon="2.27041">
        <ele>65</ele>
        <time>2016-05-02T19:27:43.000Z</time>
      </trkpt>
      <trkpt lat="48.95355" lon="2.27067">
        <ele>65.800003051758</ele>
        <time>2016-05-02T19:27:47.000Z</time>
      </trkpt>
      <trkpt lat="48.95365" lon="2.27091">
        <ele>66.599998474121</ele>
        <time>2016-05-02T19:27:51.000Z</time>
      </trkpt>
      <trkpt lat="48.95375" lon="2.27114">
        <ele>67.599998474121</ele>
        <time>2016-05-02T19:27:55.000Z</time>
      </trkpt>
      <trkpt lat="48.95385" lon="2.27139">
        <ele>68.800003051758</ele>
        <time>2016-05-02T19:27:59.000Z</time>
      </trkpt>
      <trkpt lat="48.95391" lon="2.27151">
        <ele>69.400001525879</ele>
        <time>2016-05-02T19:28:01.000Z</time>
      </trkpt>
      <trkpt lat="48.95401" lon="2.27177">
        <ele>70.199996948242</ele>
        <time>2016-05-02T19:28:05.000Z</time>
      </trkpt>
      <trkpt lat="48.95409" lon="2.27196">
        <ele>70.800003051758</ele>
        <time>2016-05-02T19:28:08.000Z</time>
      </trkpt>
      <trkpt lat="48.95419" lon="2.27225">
        <ele>71.599998474121</ele>
        <time>2016-05-02T19:28:12.000Z</time>
      </trkpt>
      <trkpt lat="48.95431" lon="2.27252">
        <ele>72.599998474121</ele>
        <time>2016-05-02T19:28:16.000Z</time>
      </trkpt>
      <trkpt lat="48.95436" lon="2.27265">
        <ele>72.800003051758</ele>
        <time>2016-05-02T19:28:18.000Z</time>
      </trkpt>
      <trkpt lat="48.95446" lon="2.27294">
        <ele>73.199996948242</ele>
        <time>2016-05-02T19:28:22.000Z</time>
      </trkpt>
      <trkpt lat="48.95456" lon="2.27321">
        <ele>73.400001525879</ele>
        <time>2016-05-02T19:28:26.000Z</time>
      </trkpt>
      <trkpt lat="48.95467" lon="2.27349">
        <ele>73.599998474121</ele>
        <time>2016-05-02T19:28:30.000Z</time>
      </trkpt>
      <trkpt lat="48.95478" lon="2.27376">
        <ele>74.400001525879</ele>
        <time>2016-05-02T19:28:34.000Z</time>
      </trkpt>
      <trkpt lat="48.95488" lon="2.27402">
        <ele>75.400001525879</ele>
        <time>2016-05-02T19:28:38.000Z</time>
      </trkpt>
      <trkpt lat="48.95498" lon="2.27427">
        <ele>76.199996948242</ele>
        <time>2016-05-02T19:28:42.000Z</time>
      </trkpt>
      <trkpt lat="48.95508" lon="2.27453">
        <ele>76.800003051758</ele>
        <time>2016-05-02T19:28:46.000Z</time>
      </trkpt>
      <trkpt lat="48.95518" lon="2.27477">
        <ele>77.400001525879</ele>
        <time>2016-05-02T19:28:50.000Z</time>
      </trkpt>
      <trkpt lat="48.95529" lon="2.27505">
        <ele>77.599998474121</ele>
        <time>2016-05-02T19:28:55.000Z</time>
      </trkpt>
      <trkpt lat="48.95535" lon="2.27524">
        <ele>76.800003051758</ele>
        <time>2016-05-02T19:28:59.000Z</time>
      </trkpt>
      <trkpt lat="48.95539" lon="2.27538">
        <ele>76.199996948242</ele>
        <time>2016-05-02T19:29:03.000Z</time>
      </trkpt>
      <trkpt lat="48.9554" lon="2.27541">
        <ele>76</ele>
        <time>2016-05-02T19:29:04.000Z</time>
      </trkpt>
      <trkpt lat="48.95541" lon="2.2755">
        <ele>75.599998474121</ele>
        <time>2016-05-02T19:29:08.000Z</time>
      </trkpt>
      <trkpt lat="48.95542" lon="2.27551">
        <ele>75.599998474121</ele>
        <time>2016-05-02T19:29:09.000Z</time>
      </trkpt>
      <trkpt lat="48.95542" lon="2.27553">
        <ele>75.599998474121</ele>
        <time>2016-05-02T19:29:11.000Z</time>
      </trkpt>
      <trkpt lat="48.95541" lon="2.2755">
        <ele>75.599998474121</ele>
        <time>2016-05-02T19:31:19.000Z</time>
      </trkpt>
      <trkpt lat="48.95548" lon="2.27567">
        <ele>74.800003051758</ele>
        <time>2016-05-02T19:32:01.000Z</time>
      </trkpt>
      <trkpt lat="48.95554" lon="2.27596">
        <ele>74.199996948242</ele>
        <time>2016-05-02T19:32:08.000Z</time>
      </trkpt>
      <trkpt lat="48.95559" lon="2.27624">
        <ele>74</ele>
        <time>2016-05-02T19:32:14.000Z</time>
      </trkpt>
      <trkpt lat="48.95565" lon="2.27652">
        <ele>73.599998474121</ele>
        <time>2016-05-02T19:32:20.000Z</time>
      </trkpt>
      <trkpt lat="48.9557" lon="2.27682">
        <ele>73</ele>
        <time>2016-05-02T19:32:26.000Z</time>
      </trkpt>
      <trkpt lat="48.95572" lon="2.27711">
        <ele>72.199996948242</ele>
        <time>2016-05-02T19:32:31.000Z</time>
      </trkpt>
      <trkpt lat="48.95577" lon="2.27742">
        <ele>71.400001525879</ele>
        <time>2016-05-02T19:32:36.000Z</time>
      </trkpt>
      <trkpt lat="48.95583" lon="2.27774">
        <ele>71.199996948242</ele>
        <time>2016-05-02T19:32:41.000Z</time>
      </trkpt>
      <trkpt lat="48.95587" lon="2.27801">
        <ele>71.199996948242</ele>
        <time>2016-05-02T19:32:45.000Z</time>
      </trkpt>
      <trkpt lat="48.95592" lon="2.27832">
        <ele>71</ele>
        <time>2016-05-02T19:32:51.000Z</time>
      </trkpt>
      <trkpt lat="48.95597" lon="2.27863">
        <ele>70.199996948242</ele>
        <time>2016-05-02T19:32:56.000Z</time>
      </trkpt>
      <trkpt lat="48.95602" lon="2.27892">
        <ele>69.599998474121</ele>
        <time>2016-05-02T19:33:00.000Z</time>
      </trkpt>
      <trkpt lat="48.95606" lon="2.27923">
        <ele>68.800003051758</ele>
        <time>2016-05-02T19:33:04.000Z</time>
      </trkpt>
      <trkpt lat="48.95611" lon="2.27953">
        <ele>68.599998474121</ele>
        <time>2016-05-02T19:33:08.000Z</time>
      </trkpt>
      <trkpt lat="48.95615" lon="2.27981">
        <ele>68.199996948242</ele>
        <time>2016-05-02T19:33:12.000Z</time>
      </trkpt>
      <trkpt lat="48.9562" lon="2.28013">
        <ele>67.800003051758</ele>
        <time>2016-05-02T19:33:17.000Z</time>
      </trkpt>
      <trkpt lat="48.95626" lon="2.28046">
        <ele>67.800003051758</ele>
        <time>2016-05-02T19:33:22.000Z</time>
      </trkpt>
      <trkpt lat="48.95631" lon="2.28077">
        <ele>67.800003051758</ele>
        <time>2016-05-02T19:33:27.000Z</time>
      </trkpt>
      <trkpt lat="48.95634" lon="2.28098">
        <ele>67</ele>
        <time>2016-05-02T19:33:30.000Z</time>
      </trkpt>
      <trkpt lat="48.9564" lon="2.28127">
        <ele>66</ele>
        <time>2016-05-02T19:33:34.000Z</time>
      </trkpt>
      <trkpt lat="48.95645" lon="2.28158">
        <ele>64.800003051758</ele>
        <time>2016-05-02T19:33:38.000Z</time>
      </trkpt>
      <trkpt lat="48.95649" lon="2.2819">
        <ele>64.199996948242</ele>
        <time>2016-05-02T19:33:42.000Z</time>
      </trkpt>
      <trkpt lat="48.95654" lon="2.28223">
        <ele>63.799999237061</ele>
        <time>2016-05-02T19:33:46.000Z</time>
      </trkpt>
      <trkpt lat="48.9566" lon="2.28257">
        <ele>63</ele>
        <time>2016-05-02T19:33:50.000Z</time>
      </trkpt>
      <trkpt lat="48.95664" lon="2.28284">
        <ele>62</ele>
        <time>2016-05-02T19:33:53.000Z</time>
      </trkpt>
      <trkpt lat="48.95667" lon="2.28312">
        <ele>61</ele>
        <time>2016-05-02T19:33:56.000Z</time>
      </trkpt>
      <trkpt lat="48.95672" lon="2.28345">
        <ele>60.200000762939</ele>
        <time>2016-05-02T19:34:00.000Z</time>
      </trkpt>
      <trkpt lat="48.95677" lon="2.28377">
        <ele>60.200000762939</ele>
        <time>2016-05-02T19:34:04.000Z</time>
      </trkpt>
      <trkpt lat="48.95682" lon="2.2841">
        <ele>60</ele>
        <time>2016-05-02T19:34:08.000Z</time>
      </trkpt>
      <trkpt lat="48.95686" lon="2.28442">
        <ele>59.599998474121</ele>
        <time>2016-05-02T19:34:12.000Z</time>
      </trkpt>
      <trkpt lat="48.95692" lon="2.28475">
        <ele>59.200000762939</ele>
        <time>2016-05-02T19:34:16.000Z</time>
      </trkpt>
      <trkpt lat="48.95697" lon="2.28509">
        <ele>58.799999237061</ele>
        <time>2016-05-02T19:34:20.000Z</time>
      </trkpt>
      <trkpt lat="48.957" lon="2.28541">
        <ele>58</ele>
        <time>2016-05-02T19:34:24.000Z</time>
      </trkpt>
      <trkpt lat="48.95703" lon="2.28575">
        <ele>57.200000762939</ele>
        <time>2016-05-02T19:34:28.000Z</time>
      </trkpt>
      <trkpt lat="48.95708" lon="2.28607">
        <ele>56.799999237061</ele>
        <time>2016-05-02T19:34:32.000Z</time>
      </trkpt>
      <trkpt lat="48.95713" lon="2.28639">
        <ele>56.599998474121</ele>
        <time>2016-05-02T19:34:36.000Z</time>
      </trkpt>
      <trkpt lat="48.95716" lon="2.28663">
        <ele>56.400001525879</ele>
        <time>2016-05-02T19:34:39.000Z</time>
      </trkpt>
      <trkpt lat="48.95722" lon="2.28692">
        <ele>56.400001525879</ele>
        <time>2016-05-02T19:34:43.000Z</time>
      </trkpt>
      <trkpt lat="48.95728" lon="2.28719">
        <ele>56.400001525879</ele>
        <time>2016-05-02T19:34:47.000Z</time>
      </trkpt>
      <trkpt lat="48.95729" lon="2.28726">
        <ele>56.400001525879</ele>
        <time>2016-05-02T19:34:48.000Z</time>
      </trkpt>
      <trkpt lat="48.95733" lon="2.28738">
        <ele>56.400001525879</ele>
        <time>2016-05-02T19:34:50.000Z</time>
      </trkpt>
      <trkpt lat="48.95736" lon="2.28756">
        <ele>56.599998474121</ele>
        <time>2016-05-02T19:34:53.000Z</time>
      </trkpt>
      <trkpt lat="48.95743" lon="2.28785">
        <ele>56.599998474121</ele>
        <time>2016-05-02T19:34:59.000Z</time>
      </trkpt>
      <trkpt lat="48.95752" lon="2.28811">
        <ele>56.799999237061</ele>
        <time>2016-05-02T19:35:04.000Z</time>
      </trkpt>
      <trkpt lat="48.95754" lon="2.28816">
        <ele>56.799999237061</ele>
        <time>2016-05-02T19:35:05.000Z</time>
      </trkpt>
      <trkpt lat="48.95766" lon="2.28833">
        <ele>56.799999237061</ele>
        <time>2016-05-02T19:35:09.000Z</time>
      </trkpt>
      <trkpt lat="48.95769" lon="2.2884">
        <ele>56.599998474121</ele>
        <time>2016-05-02T19:35:10.000Z</time>
      </trkpt>
      <trkpt lat="48.95784" lon="2.28863">
        <ele>56</ele>
        <time>2016-05-02T19:35:15.000Z</time>
      </trkpt>
      <trkpt lat="48.95798" lon="2.28888">
        <ele>55.200000762939</ele>
        <time>2016-05-02T19:35:20.000Z</time>
      </trkpt>
      <trkpt lat="48.95811" lon="2.28909">
        <ele>54.599998474121</ele>
        <time>2016-05-02T19:35:24.000Z</time>
      </trkpt>
      <trkpt lat="48.95825" lon="2.28933">
        <ele>54.599998474121</ele>
        <time>2016-05-02T19:35:28.000Z</time>
      </trkpt>
      <trkpt lat="48.95839" lon="2.28959">
        <ele>54.799999237061</ele>
        <time>2016-05-02T19:35:32.000Z</time>
      </trkpt>
      <trkpt lat="48.95854" lon="2.28985">
        <ele>55</ele>
        <time>2016-05-02T19:35:36.000Z</time>
      </trkpt>
      <trkpt lat="48.95871" lon="2.2901">
        <ele>54.599998474121</ele>
        <time>2016-05-02T19:35:40.000Z</time>
      </trkpt>
      <trkpt lat="48.95886" lon="2.29035">
        <ele>54.200000762939</ele>
        <time>2016-05-02T19:35:44.000Z</time>
      </trkpt>
      <trkpt lat="48.959" lon="2.29061">
        <ele>53.799999237061</ele>
        <time>2016-05-02T19:35:48.000Z</time>
      </trkpt>
      <trkpt lat="48.95916" lon="2.29085">
        <ele>53.200000762939</ele>
        <time>2016-05-02T19:35:52.000Z</time>
      </trkpt>
      <trkpt lat="48.9593" lon="2.29104">
        <ele>52.599998474121</ele>
        <time>2016-05-02T19:35:55.000Z</time>
      </trkpt>
      <trkpt lat="48.95947" lon="2.29124">
        <ele>52</ele>
        <time>2016-05-02T19:35:58.000Z</time>
      </trkpt>
      <trkpt lat="48.95961" lon="2.29142">
        <ele>51.799999237061</ele>
        <time>2016-05-02T19:36:01.000Z</time>
      </trkpt>
      <trkpt lat="48.95975" lon="2.29161">
        <ele>51.400001525879</ele>
        <time>2016-05-02T19:36:04.000Z</time>
      </trkpt>
      <trkpt lat="48.95992" lon="2.29188">
        <ele>51.400001525879</ele>
        <time>2016-05-02T19:36:08.000Z</time>
      </trkpt>
      <trkpt lat="48.96007" lon="2.29208">
        <ele>51.200000762939</ele>
        <time>2016-05-02T19:36:11.000Z</time>
      </trkpt>
      <trkpt lat="48.96022" lon="2.2923">
        <ele>51.200000762939</ele>
        <time>2016-05-02T19:36:14.000Z</time>
      </trkpt>
      <trkpt lat="48.96035" lon="2.29251">
        <ele>50.799999237061</ele>
        <time>2016-05-02T19:36:17.000Z</time>
      </trkpt>
      <trkpt lat="48.9605" lon="2.29272">
        <ele>50.400001525879</ele>
        <time>2016-05-02T19:36:20.000Z</time>
      </trkpt>
      <trkpt lat="48.96055" lon="2.29279">
        <ele>50.200000762939</ele>
        <time>2016-05-02T19:36:21.000Z</time>
      </trkpt>
      <trkpt lat="48.96066" lon="2.293">
        <ele>50</ele>
        <time>2016-05-02T19:36:24.000Z</time>
      </trkpt>
      <trkpt lat="48.96077" lon="2.29323">
        <ele>49.799999237061</ele>
        <time>2016-05-02T19:36:27.000Z</time>
      </trkpt>
      <trkpt lat="48.96087" lon="2.29347">
        <ele>49.200000762939</ele>
        <time>2016-05-02T19:36:30.000Z</time>
      </trkpt>
      <trkpt lat="48.96101" lon="2.29375">
        <ele>48.599998474121</ele>
        <time>2016-05-02T19:36:34.000Z</time>
      </trkpt>
      <trkpt lat="48.96114" lon="2.294">
        <ele>48.200000762939</ele>
        <time>2016-05-02T19:36:38.000Z</time>
      </trkpt>
      <trkpt lat="48.96127" lon="2.29427">
        <ele>47.799999237061</ele>
        <time>2016-05-02T19:36:43.000Z</time>
      </trkpt>
      <trkpt lat="48.96134" lon="2.29448">
        <ele>47.599998474121</ele>
        <time>2016-05-02T19:36:47.000Z</time>
      </trkpt>
      <trkpt lat="48.96142" lon="2.29467">
        <ele>47.400001525879</ele>
        <time>2016-05-02T19:36:51.000Z</time>
      </trkpt>
      <trkpt lat="48.96149" lon="2.29476">
        <ele>47.200000762939</ele>
        <time>2016-05-02T19:36:54.000Z</time>
      </trkpt>
      <trkpt lat="48.96156" lon="2.29491">
        <ele>47</ele>
        <time>2016-05-02T19:36:57.000Z</time>
      </trkpt>
      <trkpt lat="48.96158" lon="2.29499">
        <ele>47</ele>
        <time>2016-05-02T19:36:59.000Z</time>
      </trkpt>
      <trkpt lat="48.96159" lon="2.29526">
        <ele>47.799999237061</ele>
        <time>2016-05-02T19:37:14.000Z</time>
      </trkpt>
      <trkpt lat="48.96152" lon="2.29553">
        <ele>48</ele>
        <time>2016-05-02T19:37:20.000Z</time>
      </trkpt>
      <trkpt lat="48.96142" lon="2.29578">
        <ele>47.200000762939</ele>
        <time>2016-05-02T19:37:25.000Z</time>
      </trkpt>
      <trkpt lat="48.96138" lon="2.29591">
        <ele>47</ele>
        <time>2016-05-02T19:37:27.000Z</time>
      </trkpt>
      <trkpt lat="48.96127" lon="2.29617">
        <ele>47</ele>
        <time>2016-05-02T19:37:31.000Z</time>
      </trkpt>
      <trkpt lat="48.96115" lon="2.29643">
        <ele>47</ele>
        <time>2016-05-02T19:37:35.000Z</time>
      </trkpt>
      <trkpt lat="48.96103" lon="2.29671">
        <ele>46.599998474121</ele>
        <time>2016-05-02T19:37:39.000Z</time>
      </trkpt>
      <trkpt lat="48.96089" lon="2.29699">
        <ele>45.400001525879</ele>
        <time>2016-05-02T19:37:43.000Z</time>
      </trkpt>
      <trkpt lat="48.96077" lon="2.29721">
        <ele>44.599998474121</ele>
        <time>2016-05-02T19:37:46.000Z</time>
      </trkpt>
      <trkpt lat="48.96065" lon="2.29745">
        <ele>44</ele>
        <time>2016-05-02T19:37:49.000Z</time>
      </trkpt>
      <trkpt lat="48.96051" lon="2.29768">
        <ele>43.400001525879</ele>
        <time>2016-05-02T19:37:52.000Z</time>
      </trkpt>
      <trkpt lat="48.96038" lon="2.29792">
        <ele>43.200000762939</ele>
        <time>2016-05-02T19:37:55.000Z</time>
      </trkpt>
      <trkpt lat="48.96026" lon="2.29814">
        <ele>43</ele>
        <time>2016-05-02T19:37:58.000Z</time>
      </trkpt>
      <trkpt lat="48.96015" lon="2.29837">
        <ele>43</ele>
        <time>2016-05-02T19:38:01.000Z</time>
      </trkpt>
      <trkpt lat="48.96002" lon="2.29861">
        <ele>42.599998474121</ele>
        <time>2016-05-02T19:38:04.000Z</time>
      </trkpt>
      <trkpt lat="48.95989" lon="2.29883">
        <ele>42.200000762939</ele>
        <time>2016-05-02T19:38:07.000Z</time>
      </trkpt>
      <trkpt lat="48.95975" lon="2.29906">
        <ele>41.599998474121</ele>
        <time>2016-05-02T19:38:10.000Z</time>
      </trkpt>
      <trkpt lat="48.95961" lon="2.29927">
        <ele>41.400001525879</ele>
        <time>2016-05-02T19:38:13.000Z</time>
      </trkpt>
      <trkpt lat="48.95947" lon="2.29949">
        <ele>41.599998474121</ele>
        <time>2016-05-02T19:38:16.000Z</time>
      </trkpt>
      <trkpt lat="48.95934" lon="2.29969">
        <ele>41.599998474121</ele>
        <time>2016-05-02T19:38:19.000Z</time>
      </trkpt>
      <trkpt lat="48.95921" lon="2.29992">
        <ele>41.799999237061</ele>
        <time>2016-05-02T19:38:22.000Z</time>
      </trkpt>
      <trkpt lat="48.95909" lon="2.30013">
        <ele>41.599998474121</ele>
        <time>2016-05-02T19:38:25.000Z</time>
      </trkpt>
      <trkpt lat="48.95896" lon="2.30037">
        <ele>41.400001525879</ele>
        <time>2016-05-02T19:38:28.000Z</time>
      </trkpt>
      <trkpt lat="48.95883" lon="2.30059">
        <ele>40.799999237061</ele>
        <time>2016-05-02T19:38:31.000Z</time>
      </trkpt>
      <trkpt lat="48.95869" lon="2.30082">
        <ele>40.200000762939</ele>
        <time>2016-05-02T19:38:34.000Z</time>
      </trkpt>
      <trkpt lat="48.95855" lon="2.30107">
        <ele>40</ele>
        <time>2016-05-02T19:38:37.000Z</time>
      </trkpt>
      <trkpt lat="48.95841" lon="2.30133">
        <ele>40</ele>
        <time>2016-05-02T19:38:40.000Z</time>
      </trkpt>
      <trkpt lat="48.95827" lon="2.30159">
        <ele>39.599998474121</ele>
        <time>2016-05-02T19:38:43.000Z</time>
      </trkpt>
      <trkpt lat="48.95814" lon="2.30183">
        <ele>39.200000762939</ele>
        <time>2016-05-02T19:38:46.000Z</time>
      </trkpt>
      <trkpt lat="48.95801" lon="2.30204">
        <ele>38.799999237061</ele>
        <time>2016-05-02T19:38:49.000Z</time>
      </trkpt>
      <trkpt lat="48.95786" lon="2.3023">
        <ele>38.400001525879</ele>
        <time>2016-05-02T19:38:53.000Z</time>
      </trkpt>
      <trkpt lat="48.9577" lon="2.30256">
        <ele>38.200000762939</ele>
        <time>2016-05-02T19:38:57.000Z</time>
      </trkpt>
      <trkpt lat="48.95755" lon="2.30283">
        <ele>38.599998474121</ele>
        <time>2016-05-02T19:39:01.000Z</time>
      </trkpt>
      <trkpt lat="48.95739" lon="2.30308">
        <ele>39</ele>
        <time>2016-05-02T19:39:05.000Z</time>
      </trkpt>
      <trkpt lat="48.95723" lon="2.30334">
        <ele>38.799999237061</ele>
        <time>2016-05-02T19:39:09.000Z</time>
      </trkpt>
      <trkpt lat="48.95716" lon="2.30346">
        <ele>38.400001525879</ele>
        <time>2016-05-02T19:39:11.000Z</time>
      </trkpt>
      <trkpt lat="48.957" lon="2.30374">
        <ele>37.799999237061</ele>
        <time>2016-05-02T19:39:15.000Z</time>
      </trkpt>
      <trkpt lat="48.95688" lon="2.30399">
        <ele>37.400001525879</ele>
        <time>2016-05-02T19:39:19.000Z</time>
      </trkpt>
      <trkpt lat="48.95677" lon="2.30424">
        <ele>37.599998474121</ele>
        <time>2016-05-02T19:39:23.000Z</time>
      </trkpt>
      <trkpt lat="48.95665" lon="2.30451">
        <ele>38.200000762939</ele>
        <time>2016-05-02T19:39:27.000Z</time>
      </trkpt>
      <trkpt lat="48.95651" lon="2.30477">
        <ele>39</ele>
        <time>2016-05-02T19:39:31.000Z</time>
      </trkpt>
      <trkpt lat="48.95637" lon="2.30505">
        <ele>39.599998474121</ele>
        <time>2016-05-02T19:39:35.000Z</time>
      </trkpt>
      <trkpt lat="48.95628" lon="2.30522">
        <ele>40.200000762939</ele>
        <time>2016-05-02T19:39:38.000Z</time>
      </trkpt>
      <trkpt lat="48.95616" lon="2.30543">
        <ele>40.799999237061</ele>
        <time>2016-05-02T19:39:42.000Z</time>
      </trkpt>
      <trkpt lat="48.95602" lon="2.30565">
        <ele>41.200000762939</ele>
        <time>2016-05-02T19:39:46.000Z</time>
      </trkpt>
      <trkpt lat="48.95595" lon="2.30577">
        <ele>41.400001525879</ele>
        <time>2016-05-02T19:39:48.000Z</time>
      </trkpt>
      <trkpt lat="48.95582" lon="2.30597">
        <ele>41.599998474121</ele>
        <time>2016-05-02T19:39:52.000Z</time>
      </trkpt>
      <trkpt lat="48.95567" lon="2.30618">
        <ele>42</ele>
        <time>2016-05-02T19:39:56.000Z</time>
      </trkpt>
      <trkpt lat="48.95556" lon="2.30633">
        <ele>42.200000762939</ele>
        <time>2016-05-02T19:39:59.000Z</time>
      </trkpt>
      <trkpt lat="48.95542" lon="2.30656">
        <ele>42.599998474121</ele>
        <time>2016-05-02T19:40:03.000Z</time>
      </trkpt>
      <trkpt lat="48.95529" lon="2.30679">
        <ele>42.799999237061</ele>
        <time>2016-05-02T19:40:07.000Z</time>
      </trkpt>
      <trkpt lat="48.95517" lon="2.30701">
        <ele>42.400001525879</ele>
        <time>2016-05-02T19:40:11.000Z</time>
      </trkpt>
      <trkpt lat="48.95503" lon="2.30723">
        <ele>42</ele>
        <time>2016-05-02T19:40:16.000Z</time>
      </trkpt>
      <trkpt lat="48.95501" lon="2.30726">
        <ele>42</ele>
        <time>2016-05-02T19:40:17.000Z</time>
      </trkpt>
      <trkpt lat="48.95492" lon="2.30737">
        <ele>42.200000762939</ele>
        <time>2016-05-02T19:40:20.000Z</time>
      </trkpt>
      <trkpt lat="48.95483" lon="2.30753">
        <ele>42.400001525879</ele>
        <time>2016-05-02T19:40:24.000Z</time>
      </trkpt>
      <trkpt lat="48.95471" lon="2.30776">
        <ele>42.599998474121</ele>
        <time>2016-05-02T19:40:33.000Z</time>
      </trkpt>
      <trkpt lat="48.95457" lon="2.30783">
        <ele>42.799999237061</ele>
        <time>2016-05-02T19:40:43.000Z</time>
      </trkpt>
      <trkpt lat="48.95437" lon="2.3078">
        <ele>42.799999237061</ele>
        <time>2016-05-02T19:40:49.000Z</time>
      </trkpt>
      <trkpt lat="48.95417" lon="2.30773">
        <ele>42.400001525879</ele>
        <time>2016-05-02T19:40:54.000Z</time>
      </trkpt>
      <trkpt lat="48.95395" lon="2.30767">
        <ele>41.799999237061</ele>
        <time>2016-05-02T19:40:59.000Z</time>
      </trkpt>
      <trkpt lat="48.95375" lon="2.30762">
        <ele>41.400001525879</ele>
        <time>2016-05-02T19:41:03.000Z</time>
      </trkpt>
      <trkpt lat="48.95352" lon="2.30756">
        <ele>40.599998474121</ele>
        <time>2016-05-02T19:41:07.000Z</time>
      </trkpt>
      <trkpt lat="48.95334" lon="2.30751">
        <ele>39.799999237061</ele>
        <time>2016-05-02T19:41:10.000Z</time>
      </trkpt>
      <trkpt lat="48.95312" lon="2.30746">
        <ele>38.799999237061</ele>
        <time>2016-05-02T19:41:14.000Z</time>
      </trkpt>
      <trkpt lat="48.95291" lon="2.30739">
        <ele>37.799999237061</ele>
        <time>2016-05-02T19:41:18.000Z</time>
      </trkpt>
      <trkpt lat="48.9527" lon="2.30733">
        <ele>36.599998474121</ele>
        <time>2016-05-02T19:41:22.000Z</time>
      </trkpt>
      <trkpt lat="48.95247" lon="2.30725">
        <ele>34.599998474121</ele>
        <time>2016-05-02T19:41:26.000Z</time>
      </trkpt>
      <trkpt lat="48.95229" lon="2.3072">
        <ele>33.200000762939</ele>
        <time>2016-05-02T19:41:29.000Z</time>
      </trkpt>
      <trkpt lat="48.95206" lon="2.30715">
        <ele>31.200000762939</ele>
        <time>2016-05-02T19:41:33.000Z</time>
      </trkpt>
      <trkpt lat="48.95183" lon="2.30711">
        <ele>30.200000762939</ele>
        <time>2016-05-02T19:41:37.000Z</time>
      </trkpt>
      <trkpt lat="48.95161" lon="2.30705">
        <ele>30.799999237061</ele>
        <time>2016-05-02T19:41:41.000Z</time>
      </trkpt>
      <trkpt lat="48.95139" lon="2.30699">
        <ele>31.200000762939</ele>
        <time>2016-05-02T19:41:45.000Z</time>
      </trkpt>
      <trkpt lat="48.95118" lon="2.30692">
        <ele>31.60000038147</ele>
        <time>2016-05-02T19:41:49.000Z</time>
      </trkpt>
      <trkpt lat="48.95108" lon="2.30688">
        <ele>31.799999237061</ele>
        <time>2016-05-02T19:41:51.000Z</time>
      </trkpt>
      <trkpt lat="48.95086" lon="2.3068">
        <ele>31.200000762939</ele>
        <time>2016-05-02T19:41:55.000Z</time>
      </trkpt>
      <trkpt lat="48.95065" lon="2.30674">
        <ele>30.799999237061</ele>
        <time>2016-05-02T19:41:59.000Z</time>
      </trkpt>
      <trkpt lat="48.95045" lon="2.30666">
        <ele>30.39999961853</ele>
        <time>2016-05-02T19:42:03.000Z</time>
      </trkpt>
      <trkpt lat="48.95025" lon="2.30659">
        <ele>30</ele>
        <time>2016-05-02T19:42:07.000Z</time>
      </trkpt>
      <trkpt lat="48.95005" lon="2.30653">
        <ele>29</ele>
        <time>2016-05-02T19:42:11.000Z</time>
      </trkpt>
      <trkpt lat="48.94983" lon="2.30646">
        <ele>27.799999237061</ele>
        <time>2016-05-02T19:42:15.000Z</time>
      </trkpt>
      <trkpt lat="48.94961" lon="2.30638">
        <ele>26.60000038147</ele>
        <time>2016-05-02T19:42:19.000Z</time>
      </trkpt>
      <trkpt lat="48.9494" lon="2.30625">
        <ele>25.60000038147</ele>
        <time>2016-05-02T19:42:23.000Z</time>
      </trkpt>
      <trkpt lat="48.9492" lon="2.30613">
        <ele>26.60000038147</ele>
        <time>2016-05-02T19:42:27.000Z</time>
      </trkpt>
      <trkpt lat="48.94899" lon="2.306">
        <ele>27.799999237061</ele>
        <time>2016-05-02T19:42:31.000Z</time>
      </trkpt>
      <trkpt lat="48.94877" lon="2.30588">
        <ele>29</ele>
        <time>2016-05-02T19:42:35.000Z</time>
      </trkpt>
      <trkpt lat="48.94856" lon="2.30575">
        <ele>30</ele>
        <time>2016-05-02T19:42:39.000Z</time>
      </trkpt>
      <trkpt lat="48.94835" lon="2.3056">
        <ele>30</ele>
        <time>2016-05-02T19:42:43.000Z</time>
      </trkpt>
      <trkpt lat="48.94819" lon="2.30547">
        <ele>30</ele>
        <time>2016-05-02T19:42:46.000Z</time>
      </trkpt>
      <trkpt lat="48.94808" lon="2.30539">
        <ele>29.799999237061</ele>
        <time>2016-05-02T19:42:48.000Z</time>
      </trkpt>
      <trkpt lat="48.9479" lon="2.30527">
        <ele>29.799999237061</ele>
        <time>2016-05-02T19:42:51.000Z</time>
      </trkpt>
      <trkpt lat="48.94773" lon="2.30517">
        <ele>29.799999237061</ele>
        <time>2016-05-02T19:42:54.000Z</time>
      </trkpt>
      <trkpt lat="48.94754" lon="2.30506">
        <ele>29.60000038147</ele>
        <time>2016-05-02T19:42:57.000Z</time>
      </trkpt>
      <trkpt lat="48.94735" lon="2.30493">
        <ele>29.39999961853</ele>
        <time>2016-05-02T19:43:00.000Z</time>
      </trkpt>
      <trkpt lat="48.94716" lon="2.3048">
        <ele>29.200000762939</ele>
        <time>2016-05-02T19:43:03.000Z</time>
      </trkpt>
      <trkpt lat="48.94697" lon="2.30466">
        <ele>28.799999237061</ele>
        <time>2016-05-02T19:43:06.000Z</time>
      </trkpt>
      <trkpt lat="48.94677" lon="2.30454">
        <ele>28.60000038147</ele>
        <time>2016-05-02T19:43:09.000Z</time>
      </trkpt>
      <trkpt lat="48.94657" lon="2.30446">
        <ele>28.799999237061</ele>
        <time>2016-05-02T19:43:12.000Z</time>
      </trkpt>
      <trkpt lat="48.94636" lon="2.30436">
        <ele>29</ele>
        <time>2016-05-02T19:43:16.000Z</time>
      </trkpt>
      <trkpt lat="48.94617" lon="2.30426">
        <ele>29</ele>
        <time>2016-05-02T19:43:20.000Z</time>
      </trkpt>
      <trkpt lat="48.94599" lon="2.30419">
        <ele>29</ele>
        <time>2016-05-02T19:43:24.000Z</time>
      </trkpt>
      <trkpt lat="48.9458" lon="2.30412">
        <ele>29</ele>
        <time>2016-05-02T19:43:28.000Z</time>
      </trkpt>
      <trkpt lat="48.9456" lon="2.30405">
        <ele>29</ele>
        <time>2016-05-02T19:43:32.000Z</time>
      </trkpt>
      <trkpt lat="48.94541" lon="2.30398">
        <ele>29</ele>
        <time>2016-05-02T19:43:36.000Z</time>
      </trkpt>
      <trkpt lat="48.94523" lon="2.30391">
        <ele>29</ele>
        <time>2016-05-02T19:43:40.000Z</time>
      </trkpt>
      <trkpt lat="48.94506" lon="2.30382">
        <ele>29.39999961853</ele>
        <time>2016-05-02T19:43:44.000Z</time>
      </trkpt>
      <trkpt lat="48.94484" lon="2.30375">
        <ele>30</ele>
        <time>2016-05-02T19:43:48.000Z</time>
      </trkpt>
      <trkpt lat="48.94461" lon="2.30366">
        <ele>30.39999961853</ele>
        <time>2016-05-02T19:43:52.000Z</time>
      </trkpt>
      <trkpt lat="48.94439" lon="2.3036">
        <ele>30.60000038147</ele>
        <time>2016-05-02T19:43:56.000Z</time>
      </trkpt>
      <trkpt lat="48.9442" lon="2.30355">
        <ele>30.39999961853</ele>
        <time>2016-05-02T19:44:00.000Z</time>
      </trkpt>
      <trkpt lat="48.94399" lon="2.30348">
        <ele>30.200000762939</ele>
        <time>2016-05-02T19:44:04.000Z</time>
      </trkpt>
      <trkpt lat="48.94376" lon="2.3034">
        <ele>30.200000762939</ele>
        <time>2016-05-02T19:44:08.000Z</time>
      </trkpt>
      <trkpt lat="48.94359" lon="2.30333">
        <ele>30</ele>
        <time>2016-05-02T19:44:11.000Z</time>
      </trkpt>
      <trkpt lat="48.94342" lon="2.30324">
        <ele>29.799999237061</ele>
        <time>2016-05-02T19:44:14.000Z</time>
      </trkpt>
      <trkpt lat="48.94324" lon="2.30315">
        <ele>29.60000038147</ele>
        <time>2016-05-02T19:44:17.000Z</time>
      </trkpt>
      <trkpt lat="48.94318" lon="2.30314">
        <ele>29.60000038147</ele>
        <time>2016-05-02T19:44:18.000Z</time>
      </trkpt>
      <trkpt lat="48.94295" lon="2.30307">
        <ele>29.39999961853</ele>
        <time>2016-05-02T19:44:22.000Z</time>
      </trkpt>
      <trkpt lat="48.94274" lon="2.30299">
        <ele>29.200000762939</ele>
        <time>2016-05-02T19:44:26.000Z</time>
      </trkpt>
      <trkpt lat="48.94268" lon="2.30299">
        <ele>29.200000762939</ele>
        <time>2016-05-02T19:44:27.000Z</time>
      </trkpt>
      <trkpt lat="48.94259" lon="2.30295">
        <ele>29</ele>
        <time>2016-05-02T19:44:29.000Z</time>
      </trkpt>
      <trkpt lat="48.9425" lon="2.30295">
        <ele>28.799999237061</ele>
        <time>2016-05-02T19:44:31.000Z</time>
      </trkpt>
      <trkpt lat="48.9423" lon="2.3029">
        <ele>28.60000038147</ele>
        <time>2016-05-02T19:44:35.000Z</time>
      </trkpt>
      <trkpt lat="48.94207" lon="2.30285">
        <ele>28.200000762939</ele>
        <time>2016-05-02T19:44:39.000Z</time>
      </trkpt>
      <trkpt lat="48.94186" lon="2.30286">
        <ele>27.799999237061</ele>
        <time>2016-05-02T19:44:43.000Z</time>
      </trkpt>
      <trkpt lat="48.94162" lon="2.30292">
        <ele>27.799999237061</ele>
        <time>2016-05-02T19:44:47.000Z</time>
      </trkpt>
      <trkpt lat="48.94144" lon="2.30299">
        <ele>27.60000038147</ele>
        <time>2016-05-02T19:44:50.000Z</time>
      </trkpt>
      <trkpt lat="48.94126" lon="2.30309">
        <ele>27.200000762939</ele>
        <time>2016-05-02T19:44:53.000Z</time>
      </trkpt>
      <trkpt lat="48.94109" lon="2.30319">
        <ele>27</ele>
        <time>2016-05-02T19:44:56.000Z</time>
      </trkpt>
      <trkpt lat="48.94089" lon="2.30332">
        <ele>27.799999237061</ele>
        <time>2016-05-02T19:45:00.000Z</time>
      </trkpt>
      <trkpt lat="48.94068" lon="2.30345">
        <ele>29</ele>
        <time>2016-05-02T19:45:05.000Z</time>
      </trkpt>
      <trkpt lat="48.94051" lon="2.30356">
        <ele>30</ele>
        <time>2016-05-02T19:45:10.000Z</time>
      </trkpt>
      <trkpt lat="48.94031" lon="2.30367">
        <ele>30.39999961853</ele>
        <time>2016-05-02T19:45:17.000Z</time>
      </trkpt>
      <trkpt lat="48.94013" lon="2.30378">
        <ele>30.39999961853</ele>
        <time>2016-05-02T19:45:23.000Z</time>
      </trkpt>
      <trkpt lat="48.9401" lon="2.3038">
        <ele>30.200000762939</ele>
        <time>2016-05-02T19:45:24.000Z</time>
      </trkpt>
      <trkpt lat="48.94003" lon="2.30384">
        <ele>30.200000762939</ele>
        <time>2016-05-02T19:45:27.000Z</time>
      </trkpt>
      <trkpt lat="48.93995" lon="2.30388">
        <ele>30</ele>
        <time>2016-05-02T19:45:30.000Z</time>
      </trkpt>
      <trkpt lat="48.93977" lon="2.30396">
        <ele>29.200000762939</ele>
        <time>2016-05-02T19:45:37.000Z</time>
      </trkpt>
      <trkpt lat="48.93974" lon="2.30397">
        <ele>29.200000762939</ele>
        <time>2016-05-02T19:45:38.000Z</time>
      </trkpt>
      <trkpt lat="48.93962" lon="2.30401">
        <ele>28.799999237061</ele>
        <time>2016-05-02T19:45:42.000Z</time>
      </trkpt>
      <trkpt lat="48.93944" lon="2.30404">
        <ele>28.200000762939</ele>
        <time>2016-05-02T19:45:47.000Z</time>
      </trkpt>
      <trkpt lat="48.93923" lon="2.30404">
        <ele>28.799999237061</ele>
        <time>2016-05-02T19:45:52.000Z</time>
      </trkpt>
      <trkpt lat="48.93901" lon="2.30408">
        <ele>29.39999961853</ele>
        <time>2016-05-02T19:45:57.000Z</time>
      </trkpt>
      <trkpt lat="48.93879" lon="2.3041">
        <ele>30.200000762939</ele>
        <time>2016-05-02T19:46:02.000Z</time>
      </trkpt>
      <trkpt lat="48.93857" lon="2.30412">
        <ele>31</ele>
        <time>2016-05-02T19:46:07.000Z</time>
      </trkpt>
      <trkpt lat="48.93839" lon="2.30413">
        <ele>31.39999961853</ele>
        <time>2016-05-02T19:46:11.000Z</time>
      </trkpt>
      <trkpt lat="48.93818" lon="2.30416">
        <ele>31.799999237061</ele>
        <time>2016-05-02T19:46:15.000Z</time>
      </trkpt>
      <trkpt lat="48.93813" lon="2.30416">
        <ele>32</ele>
        <time>2016-05-02T19:46:16.000Z</time>
      </trkpt>
      <trkpt lat="48.93792" lon="2.30413">
        <ele>32.599998474121</ele>
        <time>2016-05-02T19:46:20.000Z</time>
      </trkpt>
      <trkpt lat="48.93771" lon="2.30409">
        <ele>32.799999237061</ele>
        <time>2016-05-02T19:46:24.000Z</time>
      </trkpt>
      <trkpt lat="48.93749" lon="2.30405">
        <ele>32.400001525879</ele>
        <time>2016-05-02T19:46:28.000Z</time>
      </trkpt>
      <trkpt lat="48.93728" lon="2.30399">
        <ele>32</ele>
        <time>2016-05-02T19:46:32.000Z</time>
      </trkpt>
      <trkpt lat="48.93708" lon="2.30393">
        <ele>31.39999961853</ele>
        <time>2016-05-02T19:46:36.000Z</time>
      </trkpt>
      <trkpt lat="48.93687" lon="2.30385">
        <ele>31</ele>
        <time>2016-05-02T19:46:40.000Z</time>
      </trkpt>
      <trkpt lat="48.93665" lon="2.30377">
        <ele>30.39999961853</ele>
        <time>2016-05-02T19:46:44.000Z</time>
      </trkpt>
      <trkpt lat="48.93643" lon="2.30368">
        <ele>29.799999237061</ele>
        <time>2016-05-02T19:46:48.000Z</time>
      </trkpt>
      <trkpt lat="48.93621" lon="2.30359">
        <ele>29.60000038147</ele>
        <time>2016-05-02T19:46:52.000Z</time>
      </trkpt>
      <trkpt lat="48.936" lon="2.30351">
        <ele>29.60000038147</ele>
        <time>2016-05-02T19:46:56.000Z</time>
      </trkpt>
      <trkpt lat="48.93582" lon="2.30343">
        <ele>30</ele>
        <time>2016-05-02T19:46:59.000Z</time>
      </trkpt>
      <trkpt lat="48.93563" lon="2.30337">
        <ele>30.60000038147</ele>
        <time>2016-05-02T19:47:02.000Z</time>
      </trkpt>
      <trkpt lat="48.93543" lon="2.30326">
        <ele>30.799999237061</ele>
        <time>2016-05-02T19:47:05.000Z</time>
      </trkpt>
      <trkpt lat="48.93524" lon="2.30321">
        <ele>31.39999961853</ele>
        <time>2016-05-02T19:47:08.000Z</time>
      </trkpt>
      <trkpt lat="48.93501" lon="2.30314">
        <ele>31.39999961853</ele>
        <time>2016-05-02T19:47:12.000Z</time>
      </trkpt>
      <trkpt lat="48.93479" lon="2.30303">
        <ele>30.799999237061</ele>
        <time>2016-05-02T19:47:16.000Z</time>
      </trkpt>
      <trkpt lat="48.93457" lon="2.30293">
        <ele>30.39999961853</ele>
        <time>2016-05-02T19:47:20.000Z</time>
      </trkpt>
      <trkpt lat="48.93436" lon="2.30285">
        <ele>30</ele>
        <time>2016-05-02T19:47:24.000Z</time>
      </trkpt>
      <trkpt lat="48.93417" lon="2.30277">
        <ele>30</ele>
        <time>2016-05-02T19:47:28.000Z</time>
      </trkpt>
      <trkpt lat="48.93396" lon="2.30267">
        <ele>30</ele>
        <time>2016-05-02T19:47:33.000Z</time>
      </trkpt>
      <trkpt lat="48.93375" lon="2.30256">
        <ele>30</ele>
        <time>2016-05-02T19:47:38.000Z</time>
      </trkpt>
      <trkpt lat="48.93361" lon="2.30244">
        <ele>30</ele>
        <time>2016-05-02T19:47:43.000Z</time>
      </trkpt>
      <trkpt lat="48.93359" lon="2.30217">
        <ele>30.60000038147</ele>
        <time>2016-05-02T19:47:48.000Z</time>
      </trkpt>
      <trkpt lat="48.93355" lon="2.30188">
        <ele>31.39999961853</ele>
        <time>2016-05-02T19:47:52.000Z</time>
      </trkpt>
      <trkpt lat="48.93353" lon="2.30178">
        <ele>31.60000038147</ele>
        <time>2016-05-02T19:47:53.000Z</time>
      </trkpt>
      <trkpt lat="48.93341" lon="2.30156">
        <ele>32.200000762939</ele>
        <time>2016-05-02T19:47:56.000Z</time>
      </trkpt>
      <trkpt lat="48.93319" lon="2.30166">
        <ele>32</ele>
        <time>2016-05-02T19:48:01.000Z</time>
      </trkpt>
      <trkpt lat="48.93307" lon="2.30174">
        <ele>31.799999237061</ele>
        <time>2016-05-02T19:48:04.000Z</time>
      </trkpt>
      <trkpt lat="48.93299" lon="2.3018">
        <ele>31.60000038147</ele>
        <time>2016-05-02T19:48:06.000Z</time>
      </trkpt>
      <trkpt lat="48.93293" lon="2.30187">
        <ele>31.39999961853</ele>
        <time>2016-05-02T19:48:08.000Z</time>
      </trkpt>
      <trkpt lat="48.93276" lon="2.3019">
        <ele>30.799999237061</ele>
        <time>2016-05-02T19:48:12.000Z</time>
      </trkpt>
      <trkpt lat="48.93256" lon="2.30189">
        <ele>30.200000762939</ele>
        <time>2016-05-02T19:48:17.000Z</time>
      </trkpt>
      <trkpt lat="48.93242" lon="2.30189">
        <ele>29.60000038147</ele>
        <time>2016-05-02T19:48:20.000Z</time>
      </trkpt>
      <trkpt lat="48.93224" lon="2.30186">
        <ele>29.200000762939</ele>
        <time>2016-05-02T19:48:24.000Z</time>
      </trkpt>
      <trkpt lat="48.9321" lon="2.30184">
        <ele>28.799999237061</ele>
        <time>2016-05-02T19:48:27.000Z</time>
      </trkpt>
      <trkpt lat="48.9319" lon="2.30182">
        <ele>29</ele>
        <time>2016-05-02T19:48:31.000Z</time>
      </trkpt>
      <trkpt lat="48.93171" lon="2.3018">
        <ele>29</ele>
        <time>2016-05-02T19:48:35.000Z</time>
      </trkpt>
      <trkpt lat="48.93152" lon="2.30178">
        <ele>29</ele>
        <time>2016-05-02T19:48:39.000Z</time>
      </trkpt>
      <trkpt lat="48.93132" lon="2.30177">
        <ele>29</ele>
        <time>2016-05-02T19:48:43.000Z</time>
      </trkpt>
      <trkpt lat="48.93114" lon="2.30177">
        <ele>29</ele>
        <time>2016-05-02T19:48:47.000Z</time>
      </trkpt>
      <trkpt lat="48.93105" lon="2.30174">
        <ele>28.799999237061</ele>
        <time>2016-05-02T19:48:49.000Z</time>
      </trkpt>
      <trkpt lat="48.93089" lon="2.30172">
        <ele>29.200000762939</ele>
        <time>2016-05-02T19:48:53.000Z</time>
      </trkpt>
      <trkpt lat="48.93068" lon="2.30175">
        <ele>29.39999961853</ele>
        <time>2016-05-02T19:48:58.000Z</time>
      </trkpt>
      <trkpt lat="48.93056" lon="2.30177">
        <ele>29.39999961853</ele>
        <time>2016-05-02T19:49:01.000Z</time>
      </trkpt>
      <trkpt lat="48.93037" lon="2.3018">
        <ele>29.799999237061</ele>
        <time>2016-05-02T19:49:06.000Z</time>
      </trkpt>
      <trkpt lat="48.93028" lon="2.30181">
        <ele>30.200000762939</ele>
        <time>2016-05-02T19:49:08.000Z</time>
      </trkpt>
      <trkpt lat="48.93007" lon="2.30184">
        <ele>32</ele>
        <time>2016-05-02T19:49:13.000Z</time>
      </trkpt>
      <trkpt lat="48.92988" lon="2.30187">
        <ele>33.599998474121</ele>
        <time>2016-05-02T19:49:17.000Z</time>
      </trkpt>
      <trkpt lat="48.92969" lon="2.3019">
        <ele>35.200000762939</ele>
        <time>2016-05-02T19:49:21.000Z</time>
      </trkpt>
      <trkpt lat="48.92949" lon="2.30197">
        <ele>35</ele>
        <time>2016-05-02T19:49:25.000Z</time>
      </trkpt>
      <trkpt lat="48.92932" lon="2.30202">
        <ele>34</ele>
        <time>2016-05-02T19:49:28.000Z</time>
      </trkpt>
      <trkpt lat="48.92912" lon="2.3021">
        <ele>32.200000762939</ele>
        <time>2016-05-02T19:49:32.000Z</time>
      </trkpt>
      <trkpt lat="48.92893" lon="2.30219">
        <ele>31.200000762939</ele>
        <time>2016-05-02T19:49:36.000Z</time>
      </trkpt>
      <trkpt lat="48.92874" lon="2.30228">
        <ele>30.60000038147</ele>
        <time>2016-05-02T19:49:40.000Z</time>
      </trkpt>
      <trkpt lat="48.92855" lon="2.30239">
        <ele>30.200000762939</ele>
        <time>2016-05-02T19:49:44.000Z</time>
      </trkpt>
      <trkpt lat="48.92835" lon="2.30247">
        <ele>30.200000762939</ele>
        <time>2016-05-02T19:49:48.000Z</time>
      </trkpt>
      <trkpt lat="48.9282" lon="2.30254">
        <ele>30.200000762939</ele>
        <time>2016-05-02T19:49:51.000Z</time>
      </trkpt>
      <trkpt lat="48.928" lon="2.30262">
        <ele>30.39999961853</ele>
        <time>2016-05-02T19:49:55.000Z</time>
      </trkpt>
      <trkpt lat="48.9278" lon="2.30272">
        <ele>30.60000038147</ele>
        <time>2016-05-02T19:49:59.000Z</time>
      </trkpt>
      <trkpt lat="48.9276" lon="2.30279">
        <ele>31</ele>
        <time>2016-05-02T19:50:04.000Z</time>
      </trkpt>
      <trkpt lat="48.9274" lon="2.30288">
        <ele>31.799999237061</ele>
        <time>2016-05-02T19:50:10.000Z</time>
      </trkpt>
      <trkpt lat="48.92736" lon="2.3029">
        <ele>31.799999237061</ele>
        <time>2016-05-02T19:50:11.000Z</time>
      </trkpt>
      <trkpt lat="48.92721" lon="2.30293">
        <ele>31.39999961853</ele>
        <time>2016-05-02T19:50:15.000Z</time>
      </trkpt>
      <trkpt lat="48.92712" lon="2.30297">
        <ele>30.799999237061</ele>
        <time>2016-05-02T19:50:17.000Z</time>
      </trkpt>
      <trkpt lat="48.92697" lon="2.30313">
        <ele>29.39999961853</ele>
        <time>2016-05-02T19:50:21.000Z</time>
      </trkpt>
      <trkpt lat="48.92681" lon="2.30325">
        <ele>28.200000762939</ele>
        <time>2016-05-02T19:50:25.000Z</time>
      </trkpt>
      <trkpt lat="48.92664" lon="2.30336">
        <ele>28.39999961853</ele>
        <time>2016-05-02T19:50:29.000Z</time>
      </trkpt>
      <trkpt lat="48.92651" lon="2.30343">
        <ele>28.799999237061</ele>
        <time>2016-05-02T19:50:32.000Z</time>
      </trkpt>
      <trkpt lat="48.92633" lon="2.30352">
        <ele>29.200000762939</ele>
        <time>2016-05-02T19:50:36.000Z</time>
      </trkpt>
      <trkpt lat="48.92614" lon="2.3036">
        <ele>29</ele>
        <time>2016-05-02T19:50:40.000Z</time>
      </trkpt>
      <trkpt lat="48.92595" lon="2.30368">
        <ele>28.799999237061</ele>
        <time>2016-05-02T19:50:44.000Z</time>
      </trkpt>
      <trkpt lat="48.92576" lon="2.30378">
        <ele>28.60000038147</ele>
        <time>2016-05-02T19:50:48.000Z</time>
      </trkpt>
      <trkpt lat="48.92558" lon="2.30386">
        <ele>28.200000762939</ele>
        <time>2016-05-02T19:50:52.000Z</time>
      </trkpt>
      <trkpt lat="48.92545" lon="2.30393">
        <ele>27.799999237061</ele>
        <time>2016-05-02T19:50:55.000Z</time>
      </trkpt>
      <trkpt lat="48.92524" lon="2.30404">
        <ele>27.200000762939</ele>
        <time>2016-05-02T19:50:59.000Z</time>
      </trkpt>
      <trkpt lat="48.92505" lon="2.30415">
        <ele>27.200000762939</ele>
        <time>2016-05-02T19:51:03.000Z</time>
      </trkpt>
      <trkpt lat="48.92485" lon="2.30426">
        <ele>27.39999961853</ele>
        <time>2016-05-02T19:51:07.000Z</time>
      </trkpt>
      <trkpt lat="48.92463" lon="2.30437">
        <ele>27.799999237061</ele>
        <time>2016-05-02T19:51:11.000Z</time>
      </trkpt>
      <trkpt lat="48.92441" lon="2.30447">
        <ele>28.39999961853</ele>
        <time>2016-05-02T19:51:15.000Z</time>
      </trkpt>
      <trkpt lat="48.9242" lon="2.30457">
        <ele>29.200000762939</ele>
        <time>2016-05-02T19:51:19.000Z</time>
      </trkpt>
      <trkpt lat="48.924" lon="2.30466">
        <ele>30</ele>
        <time>2016-05-02T19:51:23.000Z</time>
      </trkpt>
      <trkpt lat="48.92379" lon="2.30475">
        <ele>31</ele>
        <time>2016-05-02T19:51:27.000Z</time>
      </trkpt>
      <trkpt lat="48.9236" lon="2.30476">
        <ele>31.60000038147</ele>
        <time>2016-05-02T19:51:31.000Z</time>
      </trkpt>
      <trkpt lat="48.92339" lon="2.30484">
        <ele>31.799999237061</ele>
        <time>2016-05-02T19:51:35.000Z</time>
      </trkpt>
      <trkpt lat="48.92317" lon="2.30496">
        <ele>32.400001525879</ele>
        <time>2016-05-02T19:51:39.000Z</time>
      </trkpt>
      <trkpt lat="48.92305" lon="2.30505">
        <ele>32.599998474121</ele>
        <time>2016-05-02T19:51:41.000Z</time>
      </trkpt>
      <trkpt lat="48.92285" lon="2.30516">
        <ele>32.599998474121</ele>
        <time>2016-05-02T19:51:45.000Z</time>
      </trkpt>
      <trkpt lat="48.92265" lon="2.30528">
        <ele>32.400001525879</ele>
        <time>2016-05-02T19:51:49.000Z</time>
      </trkpt>
      <trkpt lat="48.9226" lon="2.30531">
        <ele>32.200000762939</ele>
        <time>2016-05-02T19:51:50.000Z</time>
      </trkpt>
      <trkpt lat="48.9224" lon="2.30546">
        <ele>31.60000038147</ele>
        <time>2016-05-02T19:51:54.000Z</time>
      </trkpt>
      <trkpt lat="48.92235" lon="2.3055">
        <ele>31.200000762939</ele>
        <time>2016-05-02T19:51:55.000Z</time>
      </trkpt>
      <trkpt lat="48.92217" lon="2.30561">
        <ele>30</ele>
        <time>2016-05-02T19:51:59.000Z</time>
      </trkpt>
      <trkpt lat="48.92199" lon="2.3057">
        <ele>28.799999237061</ele>
        <time>2016-05-02T19:52:03.000Z</time>
      </trkpt>
      <trkpt lat="48.92186" lon="2.30576">
        <ele>28</ele>
        <time>2016-05-02T19:52:06.000Z</time>
      </trkpt>
      <trkpt lat="48.92168" lon="2.30584">
        <ele>28.200000762939</ele>
        <time>2016-05-02T19:52:10.000Z</time>
      </trkpt>
      <trkpt lat="48.92148" lon="2.30592">
        <ele>28.200000762939</ele>
        <time>2016-05-02T19:52:14.000Z</time>
      </trkpt>
      <trkpt lat="48.92129" lon="2.306">
        <ele>28.39999961853</ele>
        <time>2016-05-02T19:52:18.000Z</time>
      </trkpt>
      <trkpt lat="48.9211" lon="2.30606">
        <ele>28.39999961853</ele>
        <time>2016-05-02T19:52:22.000Z</time>
      </trkpt>
      <trkpt lat="48.9209" lon="2.30615">
        <ele>29.200000762939</ele>
        <time>2016-05-02T19:52:26.000Z</time>
      </trkpt>
      <trkpt lat="48.9207" lon="2.30622">
        <ele>30.200000762939</ele>
        <time>2016-05-02T19:52:30.000Z</time>
      </trkpt>
      <trkpt lat="48.92049" lon="2.30631">
        <ele>30.799999237061</ele>
        <time>2016-05-02T19:52:34.000Z</time>
      </trkpt>
      <trkpt lat="48.92031" lon="2.30638">
        <ele>31.200000762939</ele>
        <time>2016-05-02T19:52:37.000Z</time>
      </trkpt>
      <trkpt lat="48.92009" lon="2.30648">
        <ele>31.60000038147</ele>
        <time>2016-05-02T19:52:41.000Z</time>
      </trkpt>
      <trkpt lat="48.91987" lon="2.30655">
        <ele>31.200000762939</ele>
        <time>2016-05-02T19:52:45.000Z</time>
      </trkpt>
      <trkpt lat="48.91966" lon="2.30664">
        <ele>31</ele>
        <time>2016-05-02T19:52:49.000Z</time>
      </trkpt>
      <trkpt lat="48.91945" lon="2.3067">
        <ele>31</ele>
        <time>2016-05-02T19:52:53.000Z</time>
      </trkpt>
      <trkpt lat="48.91924" lon="2.30679">
        <ele>31.39999961853</ele>
        <time>2016-05-02T19:52:57.000Z</time>
      </trkpt>
      <trkpt lat="48.91904" lon="2.30688">
        <ele>32</ele>
        <time>2016-05-02T19:53:01.000Z</time>
      </trkpt>
      <trkpt lat="48.91884" lon="2.30695">
        <ele>32.599998474121</ele>
        <time>2016-05-02T19:53:05.000Z</time>
      </trkpt>
      <trkpt lat="48.91864" lon="2.307">
        <ele>33.400001525879</ele>
        <time>2016-05-02T19:53:09.000Z</time>
      </trkpt>
      <trkpt lat="48.91843" lon="2.30705">
        <ele>33.200000762939</ele>
        <time>2016-05-02T19:53:13.000Z</time>
      </trkpt>
      <trkpt lat="48.91823" lon="2.30708">
        <ele>32.599998474121</ele>
        <time>2016-05-02T19:53:17.000Z</time>
      </trkpt>
      <trkpt lat="48.91802" lon="2.30709">
        <ele>32.400001525879</ele>
        <time>2016-05-02T19:53:22.000Z</time>
      </trkpt>
      <trkpt lat="48.91781" lon="2.30714">
        <ele>32</ele>
        <time>2016-05-02T19:53:27.000Z</time>
      </trkpt>
      <trkpt lat="48.9176" lon="2.30732">
        <ele>31.60000038147</ele>
        <time>2016-05-02T19:53:31.000Z</time>
      </trkpt>
      <trkpt lat="48.9174" lon="2.30738">
        <ele>31</ele>
        <time>2016-05-02T19:53:36.000Z</time>
      </trkpt>
      <trkpt lat="48.91725" lon="2.3074">
        <ele>30.39999961853</ele>
        <time>2016-05-02T19:53:41.000Z</time>
      </trkpt>
      <trkpt lat="48.9172" lon="2.30745">
        <ele>30</ele>
        <time>2016-05-02T19:53:45.000Z</time>
      </trkpt>
      <trkpt lat="48.9172" lon="2.30746">
        <ele>30</ele>
        <time>2016-05-02T19:53:46.000Z</time>
      </trkpt>
      <trkpt lat="48.91703" lon="2.30761">
        <ele>29.39999961853</ele>
        <time>2016-05-02T19:53:59.000Z</time>
      </trkpt>
      <trkpt lat="48.91683" lon="2.3077">
        <ele>29.200000762939</ele>
        <time>2016-05-02T19:54:06.000Z</time>
      </trkpt>
      <trkpt lat="48.91665" lon="2.30782">
        <ele>30</ele>
        <time>2016-05-02T19:54:11.000Z</time>
      </trkpt>
      <trkpt lat="48.91645" lon="2.30796">
        <ele>30</ele>
        <time>2016-05-02T19:54:16.000Z</time>
      </trkpt>
      <trkpt lat="48.91629" lon="2.30809">
        <ele>28.799999237061</ele>
        <time>2016-05-02T19:54:20.000Z</time>
      </trkpt>
      <trkpt lat="48.91612" lon="2.30822">
        <ele>27.60000038147</ele>
        <time>2016-05-02T19:54:24.000Z</time>
      </trkpt>
      <trkpt lat="48.91596" lon="2.30835">
        <ele>27.60000038147</ele>
        <time>2016-05-02T19:54:28.000Z</time>
      </trkpt>
      <trkpt lat="48.9158" lon="2.30848">
        <ele>28.799999237061</ele>
        <time>2016-05-02T19:54:33.000Z</time>
      </trkpt>
      <trkpt lat="48.91563" lon="2.30865">
        <ele>30.200000762939</ele>
        <time>2016-05-02T19:54:39.000Z</time>
      </trkpt>
      <trkpt lat="48.91546" lon="2.3088">
        <ele>30</ele>
        <time>2016-05-02T19:54:45.000Z</time>
      </trkpt>
      <trkpt lat="48.91528" lon="2.30895">
        <ele>29.39999961853</ele>
        <time>2016-05-02T19:54:51.000Z</time>
      </trkpt>
      <trkpt lat="48.91511" lon="2.30908">
        <ele>29.39999961853</ele>
        <time>2016-05-02T19:54:57.000Z</time>
      </trkpt>
      <trkpt lat="48.91494" lon="2.30922">
        <ele>29.200000762939</ele>
        <time>2016-05-02T19:55:03.000Z</time>
      </trkpt>
      <trkpt lat="48.91475" lon="2.30934">
        <ele>29.39999961853</ele>
        <time>2016-05-02T19:55:09.000Z</time>
      </trkpt>
      <trkpt lat="48.91457" lon="2.30948">
        <ele>29</ele>
        <time>2016-05-02T19:55:15.000Z</time>
      </trkpt>
      <trkpt lat="48.91439" lon="2.30962">
        <ele>27.799999237061</ele>
        <time>2016-05-02T19:55:21.000Z</time>
      </trkpt>
      <trkpt lat="48.91422" lon="2.30969">
        <ele>26.39999961853</ele>
        <time>2016-05-02T19:55:28.000Z</time>
      </trkpt>
      <trkpt lat="48.91417" lon="2.30968">
        <ele>26</ele>
        <time>2016-05-02T19:55:31.000Z</time>
      </trkpt>
      <trkpt lat="48.91416" lon="2.30992">
        <ele>26.200000762939</ele>
        <time>2016-05-02T19:55:44.000Z</time>
      </trkpt>
      <trkpt lat="48.91416" lon="2.30998">
        <ele>26.39999961853</ele>
        <time>2016-05-02T19:55:46.000Z</time>
      </trkpt>
      <trkpt lat="48.91415" lon="2.31">
        <ele>26.39999961853</ele>
        <time>2016-05-02T19:55:47.000Z</time>
      </trkpt>
      <trkpt lat="48.91401" lon="2.31014">
        <ele>25.799999237061</ele>
        <time>2016-05-02T19:56:06.000Z</time>
      </trkpt>
      <trkpt lat="48.91398" lon="2.31023">
        <ele>25.60000038147</ele>
        <time>2016-05-02T19:56:10.000Z</time>
      </trkpt>
      <trkpt lat="48.91408" lon="2.31025">
        <ele>25.799999237061</ele>
        <time>2016-05-02T19:56:43.000Z</time>
      </trkpt>
      <trkpt lat="48.91392" lon="2.31035">
        <ele>25.200000762939</ele>
        <time>2016-05-02T19:56:53.000Z</time>
      </trkpt>
      <trkpt lat="48.9139" lon="2.31037">
        <ele>25.200000762939</ele>
        <time>2016-05-02T19:56:54.000Z</time>
      </trkpt>
      <trkpt lat="48.91372" lon="2.3105">
        <ele>23.799999237061</ele>
        <time>2016-05-02T19:57:02.000Z</time>
      </trkpt>
      <trkpt lat="48.91355" lon="2.31062">
        <ele>22.60000038147</ele>
        <time>2016-05-02T19:57:08.000Z</time>
      </trkpt>
      <trkpt lat="48.91338" lon="2.31073">
        <ele>24.200000762939</ele>
        <time>2016-05-02T19:57:14.000Z</time>
      </trkpt>
      <trkpt lat="48.91321" lon="2.31087">
        <ele>27.200000762939</ele>
        <time>2016-05-02T19:57:20.000Z</time>
      </trkpt>
      <trkpt lat="48.91302" lon="2.31099">
        <ele>29.39999961853</ele>
        <time>2016-05-02T19:57:27.000Z</time>
      </trkpt>
      <trkpt lat="48.91283" lon="2.31111">
        <ele>32.400001525879</ele>
        <time>2016-05-02T19:57:34.000Z</time>
      </trkpt>
      <trkpt lat="48.91265" lon="2.31122">
        <ele>34</ele>
        <time>2016-05-02T19:57:40.000Z</time>
      </trkpt>
      <trkpt lat="48.91247" lon="2.31133">
        <ele>33.400001525879</ele>
        <time>2016-05-02T19:57:46.000Z</time>
      </trkpt>
      <trkpt lat="48.91228" lon="2.31141">
        <ele>33.599998474121</ele>
        <time>2016-05-02T19:57:52.000Z</time>
      </trkpt>
      <trkpt lat="48.91211" lon="2.31147">
        <ele>33.799999237061</ele>
        <time>2016-05-02T19:57:59.000Z</time>
      </trkpt>
      <trkpt lat="48.91192" lon="2.31155">
        <ele>34</ele>
        <time>2016-05-02T19:58:06.000Z</time>
      </trkpt>
      <trkpt lat="48.91173" lon="2.31165">
        <ele>34.400001525879</ele>
        <time>2016-05-02T19:58:12.000Z</time>
      </trkpt>
      <trkpt lat="48.91156" lon="2.31176">
        <ele>34.599998474121</ele>
        <time>2016-05-02T19:58:16.000Z</time>
      </trkpt>
      <trkpt lat="48.91139" lon="2.31189">
        <ele>34.599998474121</ele>
        <time>2016-05-02T19:58:20.000Z</time>
      </trkpt>
      <trkpt lat="48.91122" lon="2.31202">
        <ele>33.799999237061</ele>
        <time>2016-05-02T19:58:24.000Z</time>
      </trkpt>
      <trkpt lat="48.91103" lon="2.31214">
        <ele>32.599998474121</ele>
        <time>2016-05-02T19:58:29.000Z</time>
      </trkpt>
      <trkpt lat="48.91084" lon="2.31228">
        <ele>30.799999237061</ele>
        <time>2016-05-02T19:58:34.000Z</time>
      </trkpt>
      <trkpt lat="48.9107" lon="2.31234">
        <ele>30.60000038147</ele>
        <time>2016-05-02T19:58:41.000Z</time>
      </trkpt>
      <trkpt lat="48.9106" lon="2.31248">
        <ele>30.39999961853</ele>
        <time>2016-05-02T19:59:01.000Z</time>
      </trkpt>
      <trkpt lat="48.91046" lon="2.31273">
        <ele>30</ele>
        <time>2016-05-02T19:59:07.000Z</time>
      </trkpt>
      <trkpt lat="48.91029" lon="2.31285">
        <ele>30.799999237061</ele>
        <time>2016-05-02T19:59:12.000Z</time>
      </trkpt>
      <trkpt lat="48.91011" lon="2.31288">
        <ele>31</ele>
        <time>2016-05-02T19:59:16.000Z</time>
      </trkpt>
      <trkpt lat="48.90993" lon="2.31287">
        <ele>31</ele>
        <time>2016-05-02T19:59:20.000Z</time>
      </trkpt>
      <trkpt lat="48.90972" lon="2.31288">
        <ele>31</ele>
        <time>2016-05-02T19:59:25.000Z</time>
      </trkpt>
      <trkpt lat="48.90951" lon="2.31283">
        <ele>31.200000762939</ele>
        <time>2016-05-02T19:59:30.000Z</time>
      </trkpt>
      <trkpt lat="48.90928" lon="2.31285">
        <ele>31.39999961853</ele>
        <time>2016-05-02T19:59:35.000Z</time>
      </trkpt>
      <trkpt lat="48.90909" lon="2.31286">
        <ele>31.39999961853</ele>
        <time>2016-05-02T19:59:39.000Z</time>
      </trkpt>
      <trkpt lat="48.90888" lon="2.31285">
        <ele>31.200000762939</ele>
        <time>2016-05-02T19:59:43.000Z</time>
      </trkpt>
      <trkpt lat="48.9087" lon="2.31282">
        <ele>30.799999237061</ele>
        <time>2016-05-02T19:59:47.000Z</time>
      </trkpt>
      <trkpt lat="48.90847" lon="2.31283">
        <ele>30.60000038147</ele>
        <time>2016-05-02T19:59:52.000Z</time>
      </trkpt>
      <trkpt lat="48.90827" lon="2.31281">
        <ele>30.799999237061</ele>
        <time>2016-05-02T19:59:56.000Z</time>
      </trkpt>
      <trkpt lat="48.9081" lon="2.31285">
        <ele>31</ele>
        <time>2016-05-02T19:59:59.000Z</time>
      </trkpt>
      <trkpt lat="48.90788" lon="2.31287">
        <ele>30.39999961853</ele>
        <time>2016-05-02T20:00:03.000Z</time>
      </trkpt>
      <trkpt lat="48.9077" lon="2.31289">
        <ele>30</ele>
        <time>2016-05-02T20:00:06.000Z</time>
      </trkpt>
      <trkpt lat="48.90747" lon="2.31289">
        <ele>30.39999961853</ele>
        <time>2016-05-02T20:00:10.000Z</time>
      </trkpt>
      <trkpt lat="48.90742" lon="2.31288">
        <ele>30.39999961853</ele>
        <time>2016-05-02T20:00:11.000Z</time>
      </trkpt>
      <trkpt lat="48.90721" lon="2.31288">
        <ele>30.799999237061</ele>
        <time>2016-05-02T20:00:15.000Z</time>
      </trkpt>
      <trkpt lat="48.907" lon="2.31292">
        <ele>31.200000762939</ele>
        <time>2016-05-02T20:00:19.000Z</time>
      </trkpt>
      <trkpt lat="48.90695" lon="2.31292">
        <ele>31.39999961853</ele>
        <time>2016-05-02T20:00:20.000Z</time>
      </trkpt>
      <trkpt lat="48.90676" lon="2.3129">
        <ele>32.200000762939</ele>
        <time>2016-05-02T20:00:24.000Z</time>
      </trkpt>
      <trkpt lat="48.90657" lon="2.3129">
        <ele>33</ele>
        <time>2016-05-02T20:00:28.000Z</time>
      </trkpt>
      <trkpt lat="48.90643" lon="2.31294">
        <ele>33.799999237061</ele>
        <time>2016-05-02T20:00:31.000Z</time>
      </trkpt>
      <trkpt lat="48.90622" lon="2.31289">
        <ele>35</ele>
        <time>2016-05-02T20:00:35.000Z</time>
      </trkpt>
      <trkpt lat="48.90607" lon="2.31285">
        <ele>36</ele>
        <time>2016-05-02T20:00:38.000Z</time>
      </trkpt>
      <trkpt lat="48.90588" lon="2.31285">
        <ele>35.799999237061</ele>
        <time>2016-05-02T20:00:42.000Z</time>
      </trkpt>
      <trkpt lat="48.90568" lon="2.31279">
        <ele>35.599998474121</ele>
        <time>2016-05-02T20:00:46.000Z</time>
      </trkpt>
      <trkpt lat="48.90549" lon="2.31276">
        <ele>35.400001525879</ele>
        <time>2016-05-02T20:00:50.000Z</time>
      </trkpt>
      <trkpt lat="48.90531" lon="2.31276">
        <ele>35</ele>
        <time>2016-05-02T20:00:54.000Z</time>
      </trkpt>
      <trkpt lat="48.90512" lon="2.31276">
        <ele>35.200000762939</ele>
        <time>2016-05-02T20:00:58.000Z</time>
      </trkpt>
      <trkpt lat="48.905" lon="2.31279">
        <ele>35.200000762939</ele>
        <time>2016-05-02T20:01:01.000Z</time>
      </trkpt>
      <trkpt lat="48.90489" lon="2.31282">
        <ele>35.400001525879</ele>
        <time>2016-05-02T20:01:03.000Z</time>
      </trkpt>
      <trkpt lat="48.90467" lon="2.31284">
        <ele>35.599998474121</ele>
        <time>2016-05-02T20:01:07.000Z</time>
      </trkpt>
      <trkpt lat="48.90445" lon="2.3128">
        <ele>35.599998474121</ele>
        <time>2016-05-02T20:01:11.000Z</time>
      </trkpt>
      <trkpt lat="48.90423" lon="2.3127">
        <ele>36</ele>
        <time>2016-05-02T20:01:15.000Z</time>
      </trkpt>
      <trkpt lat="48.90415" lon="2.31269">
        <ele>36</ele>
        <time>2016-05-02T20:01:17.000Z</time>
      </trkpt>
      <trkpt lat="48.90397" lon="2.31274">
        <ele>36.200000762939</ele>
        <time>2016-05-02T20:01:22.000Z</time>
      </trkpt>
      <trkpt lat="48.90394" lon="2.31275">
        <ele>36.200000762939</ele>
        <time>2016-05-02T20:01:23.000Z</time>
      </trkpt>
      <trkpt lat="48.90373" lon="2.31276">
        <ele>36.599998474121</ele>
        <time>2016-05-02T20:01:29.000Z</time>
      </trkpt>
      <trkpt lat="48.9035" lon="2.31278">
        <ele>37.400001525879</ele>
        <time>2016-05-02T20:01:41.000Z</time>
      </trkpt>
      <trkpt lat="48.90341" lon="2.31271">
        <ele>37.799999237061</ele>
        <time>2016-05-02T20:01:45.000Z</time>
      </trkpt>
      <trkpt lat="48.90323" lon="2.31264">
        <ele>38.599998474121</ele>
        <time>2016-05-02T20:01:50.000Z</time>
      </trkpt>
      <trkpt lat="48.90311" lon="2.31267">
        <ele>39.200000762939</ele>
        <time>2016-05-02T20:01:53.000Z</time>
      </trkpt>
      <trkpt lat="48.90302" lon="2.31295">
        <ele>39.200000762939</ele>
        <time>2016-05-02T20:01:58.000Z</time>
      </trkpt>
      <trkpt lat="48.90301" lon="2.31302">
        <ele>39</ele>
        <time>2016-05-02T20:01:59.000Z</time>
      </trkpt>
      <trkpt lat="48.90292" lon="2.31326">
        <ele>38.599998474121</ele>
        <time>2016-05-02T20:02:03.000Z</time>
      </trkpt>
      <trkpt lat="48.90275" lon="2.31347">
        <ele>38.799999237061</ele>
        <time>2016-05-02T20:02:08.000Z</time>
      </trkpt>
      <trkpt lat="48.90261" lon="2.31366">
        <ele>38.200000762939</ele>
        <time>2016-05-02T20:02:12.000Z</time>
      </trkpt>
      <trkpt lat="48.90247" lon="2.31386">
        <ele>37.799999237061</ele>
        <time>2016-05-02T20:02:16.000Z</time>
      </trkpt>
      <trkpt lat="48.90232" lon="2.31402">
        <ele>37.799999237061</ele>
        <time>2016-05-02T20:02:20.000Z</time>
      </trkpt>
      <trkpt lat="48.90216" lon="2.31419">
        <ele>38</ele>
        <time>2016-05-02T20:02:25.000Z</time>
      </trkpt>
      <trkpt lat="48.902" lon="2.3144">
        <ele>38.200000762939</ele>
        <time>2016-05-02T20:02:30.000Z</time>
      </trkpt>
      <trkpt lat="48.90187" lon="2.31456">
        <ele>39</ele>
        <time>2016-05-02T20:02:34.000Z</time>
      </trkpt>
      <trkpt lat="48.90172" lon="2.31481">
        <ele>39.799999237061</ele>
        <time>2016-05-02T20:02:37.000Z</time>
      </trkpt>
      <trkpt lat="48.9016" lon="2.31502">
        <ele>39.799999237061</ele>
        <time>2016-05-02T20:02:40.000Z</time>
      </trkpt>
      <trkpt lat="48.90145" lon="2.31517">
        <ele>39.599998474121</ele>
        <time>2016-05-02T20:02:44.000Z</time>
      </trkpt>
      <trkpt lat="48.90129" lon="2.31535">
        <ele>38.799999237061</ele>
        <time>2016-05-02T20:02:49.000Z</time>
      </trkpt>
      <trkpt lat="48.90114" lon="2.31554">
        <ele>38</ele>
        <time>2016-05-02T20:02:53.000Z</time>
      </trkpt>
      <trkpt lat="48.90099" lon="2.31574">
        <ele>37.200000762939</ele>
        <time>2016-05-02T20:02:57.000Z</time>
      </trkpt>
      <trkpt lat="48.90095" lon="2.3158">
        <ele>37.200000762939</ele>
        <time>2016-05-02T20:02:58.000Z</time>
      </trkpt>
      <trkpt lat="48.90089" lon="2.31589">
        <ele>37.400001525879</ele>
        <time>2016-05-02T20:03:00.000Z</time>
      </trkpt>
      <trkpt lat="48.90078" lon="2.31616">
        <ele>37.200000762939</ele>
        <time>2016-05-02T20:03:04.000Z</time>
      </trkpt>
      <trkpt lat="48.90065" lon="2.31646">
        <ele>37</ele>
        <time>2016-05-02T20:03:08.000Z</time>
      </trkpt>
      <trkpt lat="48.90054" lon="2.31672">
        <ele>37</ele>
        <time>2016-05-02T20:03:12.000Z</time>
      </trkpt>
      <trkpt lat="48.90042" lon="2.31698">
        <ele>37.400001525879</ele>
        <time>2016-05-02T20:03:16.000Z</time>
      </trkpt>
      <trkpt lat="48.90032" lon="2.31723">
        <ele>37.200000762939</ele>
        <time>2016-05-02T20:03:20.000Z</time>
      </trkpt>
      <trkpt lat="48.90023" lon="2.31747">
        <ele>37</ele>
        <time>2016-05-02T20:03:24.000Z</time>
      </trkpt>
      <trkpt lat="48.90013" lon="2.31774">
        <ele>36.799999237061</ele>
        <time>2016-05-02T20:03:28.000Z</time>
      </trkpt>
      <trkpt lat="48.90004" lon="2.31801">
        <ele>36.599998474121</ele>
        <time>2016-05-02T20:03:32.000Z</time>
      </trkpt>
      <trkpt lat="48.90001" lon="2.31807">
        <ele>36.400001525879</ele>
        <time>2016-05-02T20:03:33.000Z</time>
      </trkpt>
      <trkpt lat="48.89991" lon="2.31835">
        <ele>36.400001525879</ele>
        <time>2016-05-02T20:03:37.000Z</time>
      </trkpt>
      <trkpt lat="48.89988" lon="2.31849">
        <ele>36.599998474121</ele>
        <time>2016-05-02T20:03:39.000Z</time>
      </trkpt>
      <trkpt lat="48.89981" lon="2.31875">
        <ele>37</ele>
        <time>2016-05-02T20:03:43.000Z</time>
      </trkpt>
      <trkpt lat="48.8998" lon="2.31882">
        <ele>37.200000762939</ele>
        <time>2016-05-02T20:03:44.000Z</time>
      </trkpt>
      <trkpt lat="48.89974" lon="2.31913">
        <ele>37.799999237061</ele>
        <time>2016-05-02T20:03:49.000Z</time>
      </trkpt>
      <trkpt lat="48.89966" lon="2.31939">
        <ele>38</ele>
        <time>2016-05-02T20:03:54.000Z</time>
      </trkpt>
      <trkpt lat="48.89961" lon="2.31954">
        <ele>38.400001525879</ele>
        <time>2016-05-02T20:03:57.000Z</time>
      </trkpt>
      <trkpt lat="48.89955" lon="2.31981">
        <ele>39.400001525879</ele>
        <time>2016-05-02T20:04:04.000Z</time>
      </trkpt>
      <trkpt lat="48.89955" lon="2.31984">
        <ele>39.599998474121</ele>
        <time>2016-05-02T20:04:05.000Z</time>
      </trkpt>
      <trkpt lat="48.89952" lon="2.31996">
        <ele>40</ele>
        <time>2016-05-02T20:04:09.000Z</time>
      </trkpt>
      <trkpt lat="48.89943" lon="2.32019">
        <ele>40.200000762939</ele>
        <time>2016-05-02T20:04:18.000Z</time>
      </trkpt>
      <trkpt lat="48.89943" lon="2.32024">
        <ele>40.400001525879</ele>
        <time>2016-05-02T20:04:20.000Z</time>
      </trkpt>
      <trkpt lat="48.89937" lon="2.3203">
        <ele>40.400001525879</ele>
        <time>2016-05-02T20:04:28.000Z</time>
      </trkpt>
      <trkpt lat="48.89935" lon="2.32046">
        <ele>40.799999237061</ele>
        <time>2016-05-02T20:05:09.000Z</time>
      </trkpt>
      <trkpt lat="48.89931" lon="2.32073">
        <ele>41.200000762939</ele>
        <time>2016-05-02T20:05:15.000Z</time>
      </trkpt>
      <trkpt lat="48.89924" lon="2.321">
        <ele>42</ele>
        <time>2016-05-02T20:05:22.000Z</time>
      </trkpt>
      <trkpt lat="48.89915" lon="2.32128">
        <ele>42.799999237061</ele>
        <time>2016-05-02T20:05:29.000Z</time>
      </trkpt>
      <trkpt lat="48.89911" lon="2.32141">
        <ele>43</ele>
        <time>2016-05-02T20:05:34.000Z</time>
      </trkpt>
      <trkpt lat="48.89907" lon="2.32154">
        <ele>43.200000762939</ele>
        <time>2016-05-02T20:05:45.000Z</time>
      </trkpt>
      <trkpt lat="48.89901" lon="2.32181">
        <ele>43.599998474121</ele>
        <time>2016-05-02T20:05:52.000Z</time>
      </trkpt>
      <trkpt lat="48.89893" lon="2.3221">
        <ele>43.799999237061</ele>
        <time>2016-05-02T20:05:59.000Z</time>
      </trkpt>
      <trkpt lat="48.89888" lon="2.32237">
        <ele>42.799999237061</ele>
        <time>2016-05-02T20:06:05.000Z</time>
      </trkpt>
      <trkpt lat="48.8988" lon="2.32266">
        <ele>42.200000762939</ele>
        <time>2016-05-02T20:06:12.000Z</time>
      </trkpt>
      <trkpt lat="48.89873" lon="2.32294">
        <ele>43</ele>
        <time>2016-05-02T20:06:19.000Z</time>
      </trkpt>
      <trkpt lat="48.89859" lon="2.32315">
        <ele>43.599998474121</ele>
        <time>2016-05-02T20:06:25.000Z</time>
      </trkpt>
      <trkpt lat="48.89841" lon="2.32331">
        <ele>44.599998474121</ele>
        <time>2016-05-02T20:06:31.000Z</time>
      </trkpt>
      <trkpt lat="48.89823" lon="2.32332">
        <ele>45.400001525879</ele>
        <time>2016-05-02T20:06:37.000Z</time>
      </trkpt>
      <trkpt lat="48.89804" lon="2.32337">
        <ele>46.400001525879</ele>
        <time>2016-05-02T20:06:45.000Z</time>
      </trkpt>
      <trkpt lat="48.89784" lon="2.32333">
        <ele>46.799999237061</ele>
        <time>2016-05-02T20:06:52.000Z</time>
      </trkpt>
      <trkpt lat="48.89766" lon="2.32334">
        <ele>47.599998474121</ele>
        <time>2016-05-02T20:06:57.000Z</time>
      </trkpt>
      <trkpt lat="48.89752" lon="2.32357">
        <ele>49.200000762939</ele>
        <time>2016-05-02T20:07:03.000Z</time>
      </trkpt>
      <trkpt lat="48.89751" lon="2.32385">
        <ele>50.599998474121</ele>
        <time>2016-05-02T20:07:09.000Z</time>
      </trkpt>
      <trkpt lat="48.89751" lon="2.32416">
        <ele>50.799999237061</ele>
        <time>2016-05-02T20:07:16.000Z</time>
      </trkpt>
      <trkpt lat="48.89734" lon="2.32429">
        <ele>50.799999237061</ele>
        <time>2016-05-02T20:07:24.000Z</time>
      </trkpt>
      <trkpt lat="48.89715" lon="2.32443">
        <ele>51</ele>
        <time>2016-05-02T20:07:30.000Z</time>
      </trkpt>
      <trkpt lat="48.89698" lon="2.32454">
        <ele>51</ele>
        <time>2016-05-02T20:07:36.000Z</time>
      </trkpt>
      <trkpt lat="48.89681" lon="2.32469">
        <ele>51.400001525879</ele>
        <time>2016-05-02T20:07:42.000Z</time>
      </trkpt>
      <trkpt lat="48.89664" lon="2.32488">
        <ele>51.400001525879</ele>
        <time>2016-05-02T20:07:48.000Z</time>
      </trkpt>
      <trkpt lat="48.8965" lon="2.32502">
        <ele>51.200000762939</ele>
        <time>2016-05-02T20:07:56.000Z</time>
      </trkpt>
      <trkpt lat="48.89642" lon="2.32499">
        <ele>50.799999237061</ele>
        <time>2016-05-02T20:08:05.000Z</time>
      </trkpt>
      <trkpt lat="48.89626" lon="2.32485">
        <ele>50.599998474121</ele>
        <time>2016-05-02T20:08:11.000Z</time>
      </trkpt>
      <trkpt lat="48.8961" lon="2.32471">
        <ele>50.400001525879</ele>
        <time>2016-05-02T20:08:17.000Z</time>
      </trkpt>
      <trkpt lat="48.89592" lon="2.32477">
        <ele>50.200000762939</ele>
        <time>2016-05-02T20:08:23.000Z</time>
      </trkpt>
      <trkpt lat="48.89585" lon="2.32505">
        <ele>50.599998474121</ele>
        <time>2016-05-02T20:08:28.000Z</time>
      </trkpt>
      <trkpt lat="48.89579" lon="2.32535">
        <ele>50.599998474121</ele>
        <time>2016-05-02T20:08:33.000Z</time>
      </trkpt>
      <trkpt lat="48.89573" lon="2.32565">
        <ele>51</ele>
        <time>2016-05-02T20:08:38.000Z</time>
      </trkpt>
      <trkpt lat="48.89569" lon="2.32597">
        <ele>51.799999237061</ele>
        <time>2016-05-02T20:08:43.000Z</time>
      </trkpt>
      <trkpt lat="48.89568" lon="2.32625">
        <ele>52.400001525879</ele>
        <time>2016-05-02T20:08:48.000Z</time>
      </trkpt>
      <trkpt lat="48.89567" lon="2.32653">
        <ele>52.400001525879</ele>
        <time>2016-05-02T20:08:55.000Z</time>
      </trkpt>
      <trkpt lat="48.89549" lon="2.3265">
        <ele>52.599998474121</ele>
        <time>2016-05-02T20:09:02.000Z</time>
      </trkpt>
      <trkpt lat="48.89531" lon="2.32644">
        <ele>53</ele>
        <time>2016-05-02T20:09:07.000Z</time>
      </trkpt>
      <trkpt lat="48.89511" lon="2.3263">
        <ele>53.200000762939</ele>
        <time>2016-05-02T20:09:12.000Z</time>
      </trkpt>
      <trkpt lat="48.89489" lon="2.32617">
        <ele>53.400001525879</ele>
        <time>2016-05-02T20:09:15.000Z</time>
      </trkpt>
      <trkpt lat="48.89471" lon="2.32605">
        <ele>53.599998474121</ele>
        <time>2016-05-02T20:09:18.000Z</time>
      </trkpt>
      <trkpt lat="48.89451" lon="2.32591">
        <ele>53.799999237061</ele>
        <time>2016-05-02T20:09:22.000Z</time>
      </trkpt>
      <trkpt lat="48.89431" lon="2.32579">
        <ele>53.799999237061</ele>
        <time>2016-05-02T20:09:26.000Z</time>
      </trkpt>
      <trkpt lat="48.89421" lon="2.32573">
        <ele>53.599998474121</ele>
        <time>2016-05-02T20:09:28.000Z</time>
      </trkpt>
      <trkpt lat="48.894" lon="2.32564">
        <ele>53.400001525879</ele>
        <time>2016-05-02T20:09:32.000Z</time>
      </trkpt>
      <trkpt lat="48.8938" lon="2.32554">
        <ele>53</ele>
        <time>2016-05-02T20:09:36.000Z</time>
      </trkpt>
      <trkpt lat="48.89376" lon="2.32549">
        <ele>52.799999237061</ele>
        <time>2016-05-02T20:09:37.000Z</time>
      </trkpt>
      <trkpt lat="48.89358" lon="2.3254">
        <ele>52.599998474121</ele>
        <time>2016-05-02T20:09:42.000Z</time>
      </trkpt>
      <trkpt lat="48.89352" lon="2.32539">
        <ele>52.599998474121</ele>
        <time>2016-05-02T20:09:44.000Z</time>
      </trkpt>
      <trkpt lat="48.8935" lon="2.32539">
        <ele>52.599998474121</ele>
        <time>2016-05-02T20:09:45.000Z</time>
      </trkpt>
      <trkpt lat="48.89347" lon="2.32537">
        <ele>52.400001525879</ele>
        <time>2016-05-02T20:09:47.000Z</time>
      </trkpt>
      <trkpt lat="48.89343" lon="2.32536">
        <ele>52.400001525879</ele>
        <time>2016-05-02T20:09:49.000Z</time>
      </trkpt>
      <trkpt lat="48.89336" lon="2.32532">
        <ele>52.400001525879</ele>
        <time>2016-05-02T20:09:52.000Z</time>
      </trkpt>
      <trkpt lat="48.89331" lon="2.32529">
        <ele>52.400001525879</ele>
        <time>2016-05-02T20:09:54.000Z</time>
      </trkpt>
      <trkpt lat="48.89315" lon="2.32521">
        <ele>52.200000762939</ele>
        <time>2016-05-02T20:09:59.000Z</time>
      </trkpt>
      <trkpt lat="48.89295" lon="2.3251">
        <ele>52.200000762939</ele>
        <time>2016-05-02T20:10:04.000Z</time>
      </trkpt>
      <trkpt lat="48.89276" lon="2.32501">
        <ele>52</ele>
        <time>2016-05-02T20:10:09.000Z</time>
      </trkpt>
      <trkpt lat="48.8927" lon="2.32501">
        <ele>52</ele>
        <time>2016-05-02T20:10:12.000Z</time>
      </trkpt>
      <trkpt lat="48.89243" lon="2.32492">
        <ele>52</ele>
        <time>2016-05-02T20:10:43.000Z</time>
      </trkpt>
      <trkpt lat="48.89242" lon="2.32496">
        <ele>52</ele>
        <time>2016-05-02T20:10:45.000Z</time>
      </trkpt>
      <trkpt lat="48.89229" lon="2.32518">
        <ele>52.200000762939</ele>
        <time>2016-05-02T20:10:51.000Z</time>
      </trkpt>
      <trkpt lat="48.8922" lon="2.32544">
        <ele>52.799999237061</ele>
        <time>2016-05-02T20:10:57.000Z</time>
      </trkpt>
      <trkpt lat="48.89212" lon="2.3257">
        <ele>53.400001525879</ele>
        <time>2016-05-02T20:11:03.000Z</time>
      </trkpt>
      <trkpt lat="48.89205" lon="2.32598">
        <ele>53.599998474121</ele>
        <time>2016-05-02T20:11:09.000Z</time>
      </trkpt>
      <trkpt lat="48.89198" lon="2.32624">
        <ele>54.200000762939</ele>
        <time>2016-05-02T20:11:16.000Z</time>
      </trkpt>
      <trkpt lat="48.89186" lon="2.32645">
        <ele>55</ele>
        <time>2016-05-02T20:11:22.000Z</time>
      </trkpt>
      <trkpt lat="48.89176" lon="2.32672">
        <ele>55.599998474121</ele>
        <time>2016-05-02T20:11:29.000Z</time>
      </trkpt>
      <trkpt lat="48.89165" lon="2.32685">
        <ele>56.200000762939</ele>
        <time>2016-05-02T20:11:36.000Z</time>
      </trkpt>
      <trkpt lat="48.89144" lon="2.32683">
        <ele>56.799999237061</ele>
        <time>2016-05-02T20:11:45.000Z</time>
      </trkpt>
      <trkpt lat="48.89124" lon="2.32675">
        <ele>57.400001525879</ele>
        <time>2016-05-02T20:11:52.000Z</time>
      </trkpt>
      <trkpt lat="48.89104" lon="2.32672">
        <ele>58.400001525879</ele>
        <time>2016-05-02T20:11:57.000Z</time>
      </trkpt>
      <trkpt lat="48.89084" lon="2.32668">
        <ele>59.200000762939</ele>
        <time>2016-05-02T20:12:03.000Z</time>
      </trkpt>
      <trkpt lat="48.89064" lon="2.32664">
        <ele>60</ele>
        <time>2016-05-02T20:12:09.000Z</time>
      </trkpt>
      <trkpt lat="48.89046" lon="2.32662">
        <ele>60.799999237061</ele>
        <time>2016-05-02T20:12:15.000Z</time>
      </trkpt>
      <trkpt lat="48.8903" lon="2.32674">
        <ele>61.799999237061</ele>
        <time>2016-05-02T20:12:22.000Z</time>
      </trkpt>
      <trkpt lat="48.89018" lon="2.32695">
        <ele>62</ele>
        <time>2016-05-02T20:12:28.000Z</time>
      </trkpt>
      <trkpt lat="48.89004" lon="2.32714">
        <ele>62.200000762939</ele>
        <time>2016-05-02T20:12:33.000Z</time>
      </trkpt>
      <trkpt lat="48.8899" lon="2.32733">
        <ele>62.599998474121</ele>
        <time>2016-05-02T20:12:38.000Z</time>
      </trkpt>
      <trkpt lat="48.88976" lon="2.32752">
        <ele>63.200000762939</ele>
        <time>2016-05-02T20:12:43.000Z</time>
      </trkpt>
      <trkpt lat="48.88965" lon="2.32773">
        <ele>63.599998474121</ele>
        <time>2016-05-02T20:12:48.000Z</time>
      </trkpt>
      <trkpt lat="48.88956" lon="2.32797">
        <ele>63.400001525879</ele>
        <time>2016-05-02T20:12:54.000Z</time>
      </trkpt>
      <trkpt lat="48.88945" lon="2.32822">
        <ele>63.200000762939</ele>
        <time>2016-05-02T20:13:01.000Z</time>
      </trkpt>
      <trkpt lat="48.88928" lon="2.32825">
        <ele>63.400001525879</ele>
        <time>2016-05-02T20:13:10.000Z</time>
      </trkpt>
      <trkpt lat="48.88912" lon="2.3281">
        <ele>64.400001525879</ele>
        <time>2016-05-02T20:13:15.000Z</time>
      </trkpt>
      <trkpt lat="48.88895" lon="2.32793">
        <ele>65.400001525879</ele>
        <time>2016-05-02T20:13:21.000Z</time>
      </trkpt>
      <trkpt lat="48.88878" lon="2.32781">
        <ele>66.199996948242</ele>
        <time>2016-05-02T20:13:27.000Z</time>
      </trkpt>
      <trkpt lat="48.88861" lon="2.32767">
        <ele>67.199996948242</ele>
        <time>2016-05-02T20:13:33.000Z</time>
      </trkpt>
      <trkpt lat="48.88845" lon="2.32752">
        <ele>68.800003051758</ele>
        <time>2016-05-02T20:13:39.000Z</time>
      </trkpt>
      <trkpt lat="48.88835" lon="2.3275">
        <ele>69.599998474121</ele>
        <time>2016-05-02T20:13:42.000Z</time>
      </trkpt>
      <trkpt lat="48.8882" lon="2.32765">
        <ele>70.400001525879</ele>
        <time>2016-05-02T20:13:48.000Z</time>
      </trkpt>
      <trkpt lat="48.88805" lon="2.32782">
        <ele>71.199996948242</ele>
        <time>2016-05-02T20:13:54.000Z</time>
      </trkpt>
      <trkpt lat="48.88789" lon="2.32796">
        <ele>72.800003051758</ele>
        <time>2016-05-02T20:14:01.000Z</time>
      </trkpt>
      <trkpt lat="48.88774" lon="2.32811">
        <ele>74.199996948242</ele>
        <time>2016-05-02T20:14:08.000Z</time>
      </trkpt>
      <trkpt lat="48.88759" lon="2.3283">
        <ele>74.599998474121</ele>
        <time>2016-05-02T20:14:15.000Z</time>
      </trkpt>
      <trkpt lat="48.88755" lon="2.32835">
        <ele>74.599998474121</ele>
        <time>2016-05-02T20:14:17.000Z</time>
      </trkpt>
      <trkpt lat="48.88749" lon="2.32842">
        <ele>74.400001525879</ele>
        <time>2016-05-02T20:14:21.000Z</time>
      </trkpt>
      <trkpt lat="48.88749" lon="2.32841">
        <ele>74.599998474121</ele>
        <time>2016-05-02T20:14:23.000Z</time>
      </trkpt>
      <trkpt lat="48.88741" lon="2.3284">
        <ele>75</ele>
        <time>2016-05-02T20:14:29.000Z</time>
      </trkpt>
      <trkpt lat="48.88737" lon="2.32843">
        <ele>75</ele>
        <time>2016-05-02T20:14:31.000Z</time>
      </trkpt>
      <trkpt lat="48.88727" lon="2.32838">
        <ele>75.800003051758</ele>
        <time>2016-05-02T20:14:38.000Z</time>
      </trkpt>
      <trkpt lat="48.88724" lon="2.32838">
        <ele>75.800003051758</ele>
        <time>2016-05-02T20:14:41.000Z</time>
      </trkpt>
      <trkpt lat="48.88703" lon="2.32824">
        <ele>77.400001525879</ele>
        <time>2016-05-02T20:14:54.000Z</time>
      </trkpt>
      <trkpt lat="48.88688" lon="2.32807">
        <ele>78</ele>
        <time>2016-05-02T20:15:02.000Z</time>
      </trkpt>
      <trkpt lat="48.88673" lon="2.32789">
        <ele>77.400001525879</ele>
        <time>2016-05-02T20:15:10.000Z</time>
      </trkpt>
      <trkpt lat="48.88672" lon="2.32785">
        <ele>77.400001525879</ele>
        <time>2016-05-02T20:15:13.000Z</time>
      </trkpt>
      <trkpt lat="48.88666" lon="2.32773">
        <ele>77.199996948242</ele>
        <time>2016-05-02T20:15:20.000Z</time>
      </trkpt>
      <trkpt lat="48.88665" lon="2.32772">
        <ele>77.199996948242</ele>
        <time>2016-05-02T20:15:21.000Z</time>
      </trkpt>
      <trkpt lat="48.88667" lon="2.32781">
        <ele>77.199996948242</ele>
        <time>2016-05-02T20:15:55.000Z</time>
      </trkpt>
      <trkpt lat="48.88656" lon="2.32804">
        <ele>77</ele>
        <time>2016-05-02T20:16:01.000Z</time>
      </trkpt>
      <trkpt lat="48.88639" lon="2.32822">
        <ele>77.199996948242</ele>
        <time>2016-05-02T20:16:07.000Z</time>
      </trkpt>
      <trkpt lat="48.88621" lon="2.32839">
        <ele>76.800003051758</ele>
        <time>2016-05-02T20:16:14.000Z</time>
      </trkpt>
      <trkpt lat="48.88602" lon="2.32854">
        <ele>76.400001525879</ele>
        <time>2016-05-02T20:16:21.000Z</time>
      </trkpt>
      <trkpt lat="48.88586" lon="2.32874">
        <ele>75.199996948242</ele>
        <time>2016-05-02T20:16:27.000Z</time>
      </trkpt>
      <trkpt lat="48.88571" lon="2.32895">
        <ele>74.800003051758</ele>
        <time>2016-05-02T20:16:32.000Z</time>
      </trkpt>
      <trkpt lat="48.8856" lon="2.32922">
        <ele>74.599998474121</ele>
        <time>2016-05-02T20:16:38.000Z</time>
      </trkpt>
      <trkpt lat="48.88556" lon="2.32922">
        <ele>74.400001525879</ele>
        <time>2016-05-02T20:16:39.000Z</time>
      </trkpt>
      <trkpt lat="48.88538" lon="2.32924">
        <ele>73.800003051758</ele>
        <time>2016-05-02T20:16:43.000Z</time>
      </trkpt>
      <trkpt lat="48.88533" lon="2.32924">
        <ele>73.800003051758</ele>
        <time>2016-05-02T20:16:44.000Z</time>
      </trkpt>
      <trkpt lat="48.88514" lon="2.32925">
        <ele>73.400001525879</ele>
        <time>2016-05-02T20:16:48.000Z</time>
      </trkpt>
      <trkpt lat="48.88494" lon="2.32931">
        <ele>72.599998474121</ele>
        <time>2016-05-02T20:16:53.000Z</time>
      </trkpt>
      <trkpt lat="48.88483" lon="2.32942">
        <ele>71.800003051758</ele>
        <time>2016-05-02T20:16:59.000Z</time>
      </trkpt>
      <trkpt lat="48.88481" lon="2.32953">
        <ele>71.599998474121</ele>
        <time>2016-05-02T20:17:07.000Z</time>
      </trkpt>
      <trkpt lat="48.8848" lon="2.32955">
        <ele>71.400001525879</ele>
        <time>2016-05-02T20:17:10.000Z</time>
      </trkpt>
      <trkpt lat="48.8847" lon="2.32977">
        <ele>72.199996948242</ele>
        <time>2016-05-02T20:17:30.000Z</time>
      </trkpt>
      <trkpt lat="48.88458" lon="2.32976">
        <ele>72.199996948242</ele>
        <time>2016-05-02T20:18:45.000Z</time>
      </trkpt>
      <trkpt lat="48.88449" lon="2.32987">
        <ele>72.599998474121</ele>
        <time>2016-05-02T20:19:12.000Z</time>
      </trkpt>
      <trkpt lat="48.88444" lon="2.33018">
        <ele>73</ele>
        <time>2016-05-02T20:19:20.000Z</time>
      </trkpt>
      <trkpt lat="48.88439" lon="2.33045">
        <ele>73</ele>
        <time>2016-05-02T20:19:29.000Z</time>
      </trkpt>
      <trkpt lat="48.88437" lon="2.33048">
        <ele>73</ele>
        <time>2016-05-02T20:19:31.000Z</time>
      </trkpt>
      <trkpt lat="48.88432" lon="2.33046">
        <ele>72.800003051758</ele>
        <time>2016-05-02T20:19:43.000Z</time>
      </trkpt>
      <trkpt lat="48.88429" lon="2.33056">
        <ele>72.800003051758</ele>
        <time>2016-05-02T20:20:07.000Z</time>
      </trkpt>
      <trkpt lat="48.88426" lon="2.33072">
        <ele>72.800003051758</ele>
        <time>2016-05-02T20:20:12.000Z</time>
      </trkpt>
      <trkpt lat="48.88413" lon="2.33064">
        <ele>72.400001525879</ele>
        <time>2016-05-02T20:20:17.000Z</time>
      </trkpt>
      <trkpt lat="48.88396" lon="2.33052">
        <ele>72.199996948242</ele>
        <time>2016-05-02T20:20:22.000Z</time>
      </trkpt>
      <trkpt lat="48.88376" lon="2.33044">
        <ele>71.800003051758</ele>
        <time>2016-05-02T20:20:29.000Z</time>
      </trkpt>
      <trkpt lat="48.88358" lon="2.33033">
        <ele>71.400001525879</ele>
        <time>2016-05-02T20:20:34.000Z</time>
      </trkpt>
      <trkpt lat="48.88348" lon="2.3303">
        <ele>71</ele>
        <time>2016-05-02T20:20:38.000Z</time>
      </trkpt>
      <trkpt lat="48.88337" lon="2.33029">
        <ele>70.199996948242</ele>
        <time>2016-05-02T20:20:42.000Z</time>
      </trkpt>
      <trkpt lat="48.88323" lon="2.33009">
        <ele>69.199996948242</ele>
        <time>2016-05-02T20:20:48.000Z</time>
      </trkpt>
      <trkpt lat="48.88307" lon="2.32992">
        <ele>68.199996948242</ele>
        <time>2016-05-02T20:20:53.000Z</time>
      </trkpt>
      <trkpt lat="48.88287" lon="2.32991">
        <ele>67</ele>
        <time>2016-05-02T20:20:59.000Z</time>
      </trkpt>
      <trkpt lat="48.88279" lon="2.33015">
        <ele>66.800003051758</ele>
        <time>2016-05-02T20:21:03.000Z</time>
      </trkpt>
      <trkpt lat="48.8827" lon="2.3304">
        <ele>66.800003051758</ele>
        <time>2016-05-02T20:21:07.000Z</time>
      </trkpt>
      <trkpt lat="48.88259" lon="2.3307">
        <ele>67</ele>
        <time>2016-05-02T20:21:11.000Z</time>
      </trkpt>
      <trkpt lat="48.88249" lon="2.33093">
        <ele>67.400001525879</ele>
        <time>2016-05-02T20:21:14.000Z</time>
      </trkpt>
      <trkpt lat="48.88236" lon="2.33121">
        <ele>67.599998474121</ele>
        <time>2016-05-02T20:21:18.000Z</time>
      </trkpt>
      <trkpt lat="48.88225" lon="2.33147">
        <ele>66.800003051758</ele>
        <time>2016-05-02T20:21:22.000Z</time>
      </trkpt>
      <trkpt lat="48.88217" lon="2.33174">
        <ele>66</ele>
        <time>2016-05-02T20:21:27.000Z</time>
      </trkpt>
      <trkpt lat="48.88215" lon="2.33177">
        <ele>66</ele>
        <time>2016-05-02T20:21:28.000Z</time>
      </trkpt>
      <trkpt lat="48.88197" lon="2.33177">
        <ele>64.800003051758</ele>
        <time>2016-05-02T20:21:35.000Z</time>
      </trkpt>
      <trkpt lat="48.88176" lon="2.33171">
        <ele>63.400001525879</ele>
        <time>2016-05-02T20:21:40.000Z</time>
      </trkpt>
      <trkpt lat="48.88167" lon="2.33172">
        <ele>63</ele>
        <time>2016-05-02T20:21:42.000Z</time>
      </trkpt>
      <trkpt lat="48.88146" lon="2.3317">
        <ele>62</ele>
        <time>2016-05-02T20:21:46.000Z</time>
      </trkpt>
      <trkpt lat="48.8814" lon="2.33168">
        <ele>61.599998474121</ele>
        <time>2016-05-02T20:21:47.000Z</time>
      </trkpt>
      <trkpt lat="48.88119" lon="2.33166">
        <ele>60.599998474121</ele>
        <time>2016-05-02T20:21:51.000Z</time>
      </trkpt>
      <trkpt lat="48.88099" lon="2.33164">
        <ele>60</ele>
        <time>2016-05-02T20:21:54.000Z</time>
      </trkpt>
      <trkpt lat="48.8808" lon="2.33155">
        <ele>59.400001525879</ele>
        <time>2016-05-02T20:21:57.000Z</time>
      </trkpt>
      <trkpt lat="48.8806" lon="2.33151">
        <ele>59.200000762939</ele>
        <time>2016-05-02T20:22:00.000Z</time>
      </trkpt>
      <trkpt lat="48.88038" lon="2.33152">
        <ele>58.799999237061</ele>
        <time>2016-05-02T20:22:04.000Z</time>
      </trkpt>
      <trkpt lat="48.88035" lon="2.33153">
        <ele>58.799999237061</ele>
        <time>2016-05-02T20:22:05.000Z</time>
      </trkpt>
      <trkpt lat="48.88024" lon="2.33149">
        <ele>58.599998474121</ele>
        <time>2016-05-02T20:22:09.000Z</time>
      </trkpt>
      <trkpt lat="48.8801" lon="2.3315">
        <ele>57.799999237061</ele>
        <time>2016-05-02T20:22:15.000Z</time>
      </trkpt>
      <trkpt lat="48.88006" lon="2.33151">
        <ele>57.799999237061</ele>
        <time>2016-05-02T20:22:16.000Z</time>
      </trkpt>
      <trkpt lat="48.87984" lon="2.33152">
        <ele>57</ele>
        <time>2016-05-02T20:22:21.000Z</time>
      </trkpt>
      <trkpt lat="48.87965" lon="2.3315">
        <ele>56.200000762939</ele>
        <time>2016-05-02T20:22:25.000Z</time>
      </trkpt>
      <trkpt lat="48.87943" lon="2.33155">
        <ele>55.799999237061</ele>
        <time>2016-05-02T20:22:29.000Z</time>
      </trkpt>
      <trkpt lat="48.87935" lon="2.33155">
        <ele>55.400001525879</ele>
        <time>2016-05-02T20:22:31.000Z</time>
      </trkpt>
      <trkpt lat="48.8792" lon="2.33155">
        <ele>54.799999237061</ele>
        <time>2016-05-02T20:22:34.000Z</time>
      </trkpt>
      <trkpt lat="48.87901" lon="2.33158">
        <ele>53.599998474121</ele>
        <time>2016-05-02T20:22:37.000Z</time>
      </trkpt>
      <trkpt lat="48.87884" lon="2.33165">
        <ele>52.599998474121</ele>
        <time>2016-05-02T20:22:40.000Z</time>
      </trkpt>
      <trkpt lat="48.87863" lon="2.33167">
        <ele>51.400001525879</ele>
        <time>2016-05-02T20:22:43.000Z</time>
      </trkpt>
      <trkpt lat="48.87843" lon="2.33173">
        <ele>51</ele>
        <time>2016-05-02T20:22:46.000Z</time>
      </trkpt>
      <trkpt lat="48.87825" lon="2.3318">
        <ele>50.599998474121</ele>
        <time>2016-05-02T20:22:49.000Z</time>
      </trkpt>
      <trkpt lat="48.87802" lon="2.3319">
        <ele>50.400001525879</ele>
        <time>2016-05-02T20:22:53.000Z</time>
      </trkpt>
      <trkpt lat="48.8779" lon="2.33198">
        <ele>49.799999237061</ele>
        <time>2016-05-02T20:22:56.000Z</time>
      </trkpt>
      <trkpt lat="48.87773" lon="2.33212">
        <ele>49.200000762939</ele>
        <time>2016-05-02T20:23:00.000Z</time>
      </trkpt>
      <trkpt lat="48.87757" lon="2.33224">
        <ele>48.400001525879</ele>
        <time>2016-05-02T20:23:04.000Z</time>
      </trkpt>
      <trkpt lat="48.87741" lon="2.3323">
        <ele>47.599998474121</ele>
        <time>2016-05-02T20:23:08.000Z</time>
      </trkpt>
      <trkpt lat="48.87721" lon="2.33234">
        <ele>46.599998474121</ele>
        <time>2016-05-02T20:23:13.000Z</time>
      </trkpt>
      <trkpt lat="48.87702" lon="2.33238">
        <ele>45.599998474121</ele>
        <time>2016-05-02T20:23:17.000Z</time>
      </trkpt>
      <trkpt lat="48.87695" lon="2.33238">
        <ele>45.200000762939</ele>
        <time>2016-05-02T20:23:18.000Z</time>
      </trkpt>
      <trkpt lat="48.87681" lon="2.33238">
        <ele>45.200000762939</ele>
        <time>2016-05-02T20:23:21.000Z</time>
      </trkpt>
      <trkpt lat="48.87666" lon="2.33229">
        <ele>45.599998474121</ele>
        <time>2016-05-02T20:23:36.000Z</time>
      </trkpt>
      <trkpt lat="48.87655" lon="2.33206">
        <ele>45.599998474121</ele>
        <time>2016-05-02T20:23:40.000Z</time>
      </trkpt>
      <trkpt lat="48.87645" lon="2.33184">
        <ele>45.599998474121</ele>
        <time>2016-05-02T20:23:45.000Z</time>
      </trkpt>
      <trkpt lat="48.87642" lon="2.33183">
        <ele>45.799999237061</ele>
        <time>2016-05-02T20:23:47.000Z</time>
      </trkpt>
      <trkpt lat="48.87637" lon="2.33185">
        <ele>46</ele>
        <time>2016-05-02T20:23:52.000Z</time>
      </trkpt>
      <trkpt lat="48.87617" lon="2.33194">
        <ele>46.599998474121</ele>
        <time>2016-05-02T20:24:11.000Z</time>
      </trkpt>
      <trkpt lat="48.87597" lon="2.33202">
        <ele>46.599998474121</ele>
        <time>2016-05-02T20:24:16.000Z</time>
      </trkpt>
      <trkpt lat="48.87576" lon="2.33209">
        <ele>46.400001525879</ele>
        <time>2016-05-02T20:24:21.000Z</time>
      </trkpt>
      <trkpt lat="48.87555" lon="2.33215">
        <ele>46.400001525879</ele>
        <time>2016-05-02T20:24:26.000Z</time>
      </trkpt>
      <trkpt lat="48.87535" lon="2.33221">
        <ele>46.400001525879</ele>
        <time>2016-05-02T20:24:31.000Z</time>
      </trkpt>
      <trkpt lat="48.87515" lon="2.33228">
        <ele>46.799999237061</ele>
        <time>2016-05-02T20:24:36.000Z</time>
      </trkpt>
      <trkpt lat="48.87494" lon="2.33233">
        <ele>47.799999237061</ele>
        <time>2016-05-02T20:24:40.000Z</time>
      </trkpt>
      <trkpt lat="48.87476" lon="2.33239">
        <ele>48.400001525879</ele>
        <time>2016-05-02T20:24:44.000Z</time>
      </trkpt>
      <trkpt lat="48.87456" lon="2.33245">
        <ele>49.200000762939</ele>
        <time>2016-05-02T20:24:48.000Z</time>
      </trkpt>
      <trkpt lat="48.87443" lon="2.33249">
        <ele>50</ele>
        <time>2016-05-02T20:24:51.000Z</time>
      </trkpt>
      <trkpt lat="48.87422" lon="2.3326">
        <ele>49.400001525879</ele>
        <time>2016-05-02T20:24:55.000Z</time>
      </trkpt>
      <trkpt lat="48.87402" lon="2.33269">
        <ele>49</ele>
        <time>2016-05-02T20:25:00.000Z</time>
      </trkpt>
      <trkpt lat="48.87374" lon="2.33277">
        <ele>48.200000762939</ele>
        <time>2016-05-02T20:25:04.000Z</time>
      </trkpt>
      <trkpt lat="48.87353" lon="2.33283">
        <ele>47</ele>
        <time>2016-05-02T20:25:08.000Z</time>
      </trkpt>
      <trkpt lat="48.87341" lon="2.33291">
        <ele>46.599998474121</ele>
        <time>2016-05-02T20:25:10.000Z</time>
      </trkpt>
      <trkpt lat="48.87333" lon="2.33298">
        <ele>46</ele>
        <time>2016-05-02T20:25:12.000Z</time>
      </trkpt>
      <trkpt lat="48.87319" lon="2.33303">
        <ele>46.200000762939</ele>
        <time>2016-05-02T20:25:16.000Z</time>
      </trkpt>
      <trkpt lat="48.87309" lon="2.33317">
        <ele>46.400001525879</ele>
        <time>2016-05-02T20:25:33.000Z</time>
      </trkpt>
      <trkpt lat="48.87299" lon="2.33334">
        <ele>46.599998474121</ele>
        <time>2016-05-02T20:25:39.000Z</time>
      </trkpt>
      <trkpt lat="48.8728" lon="2.33339">
        <ele>47.799999237061</ele>
        <time>2016-05-02T20:25:45.000Z</time>
      </trkpt>
      <trkpt lat="48.87262" lon="2.33345">
        <ele>48.799999237061</ele>
        <time>2016-05-02T20:25:50.000Z</time>
      </trkpt>
      <trkpt lat="48.87244" lon="2.33351">
        <ele>49.799999237061</ele>
        <time>2016-05-02T20:25:54.000Z</time>
      </trkpt>
      <trkpt lat="48.87224" lon="2.3336">
        <ele>51</ele>
        <time>2016-05-02T20:25:58.000Z</time>
      </trkpt>
      <trkpt lat="48.87205" lon="2.33367">
        <ele>50.599998474121</ele>
        <time>2016-05-02T20:26:02.000Z</time>
      </trkpt>
      <trkpt lat="48.87185" lon="2.33375">
        <ele>49.799999237061</ele>
        <time>2016-05-02T20:26:07.000Z</time>
      </trkpt>
      <trkpt lat="48.87167" lon="2.33382">
        <ele>48.799999237061</ele>
        <time>2016-05-02T20:26:11.000Z</time>
      </trkpt>
      <trkpt lat="48.87153" lon="2.3338">
        <ele>48.400001525879</ele>
        <time>2016-05-02T20:26:13.000Z</time>
      </trkpt>
      <trkpt lat="48.87133" lon="2.33383">
        <ele>48.400001525879</ele>
        <time>2016-05-02T20:26:16.000Z</time>
      </trkpt>
      <trkpt lat="48.87113" lon="2.33382">
        <ele>48.400001525879</ele>
        <time>2016-05-02T20:26:20.000Z</time>
      </trkpt>
      <trkpt lat="48.87102" lon="2.33395">
        <ele>48.200000762939</ele>
        <time>2016-05-02T20:26:26.000Z</time>
      </trkpt>
      <trkpt lat="48.871" lon="2.33397">
        <ele>48.200000762939</ele>
        <time>2016-05-02T20:26:27.000Z</time>
      </trkpt>
      <trkpt lat="48.87097" lon="2.33402">
        <ele>48</ele>
        <time>2016-05-02T20:26:41.000Z</time>
      </trkpt>
      <trkpt lat="48.87101" lon="2.33418">
        <ele>48.200000762939</ele>
        <time>2016-05-02T20:26:49.000Z</time>
      </trkpt>
      <trkpt lat="48.87101" lon="2.33451">
        <ele>48.599998474121</ele>
        <time>2016-05-02T20:26:56.000Z</time>
      </trkpt>
      <trkpt lat="48.87109" lon="2.3348">
        <ele>48.799999237061</ele>
        <time>2016-05-02T20:27:01.000Z</time>
      </trkpt>
      <trkpt lat="48.87115" lon="2.33506">
        <ele>49.400001525879</ele>
        <time>2016-05-02T20:27:06.000Z</time>
      </trkpt>
      <trkpt lat="48.8712" lon="2.33535">
        <ele>50.400001525879</ele>
        <time>2016-05-02T20:27:11.000Z</time>
      </trkpt>
      <trkpt lat="48.87125" lon="2.33564">
        <ele>51.400001525879</ele>
        <time>2016-05-02T20:27:16.000Z</time>
      </trkpt>
      <trkpt lat="48.8713" lon="2.33594">
        <ele>51.799999237061</ele>
        <time>2016-05-02T20:27:21.000Z</time>
      </trkpt>
      <trkpt lat="48.87136" lon="2.33625">
        <ele>52</ele>
        <time>2016-05-02T20:27:26.000Z</time>
      </trkpt>
      <trkpt lat="48.87142" lon="2.33653">
        <ele>52.400001525879</ele>
        <time>2016-05-02T20:27:31.000Z</time>
      </trkpt>
      <trkpt lat="48.87144" lon="2.33682">
        <ele>52.200000762939</ele>
        <time>2016-05-02T20:27:36.000Z</time>
      </trkpt>
      <trkpt lat="48.8715" lon="2.33711">
        <ele>51.200000762939</ele>
        <time>2016-05-02T20:27:41.000Z</time>
      </trkpt>
      <trkpt lat="48.87157" lon="2.33738">
        <ele>50.400001525879</ele>
        <time>2016-05-02T20:27:46.000Z</time>
      </trkpt>
      <trkpt lat="48.87162" lon="2.33767">
        <ele>50.200000762939</ele>
        <time>2016-05-02T20:27:51.000Z</time>
      </trkpt>
      <trkpt lat="48.8717" lon="2.33796">
        <ele>50.200000762939</ele>
        <time>2016-05-02T20:27:56.000Z</time>
      </trkpt>
      <trkpt lat="48.87173" lon="2.33825">
        <ele>50</ele>
        <time>2016-05-02T20:28:00.000Z</time>
      </trkpt>
      <trkpt lat="48.87179" lon="2.33855">
        <ele>49.799999237061</ele>
        <time>2016-05-02T20:28:04.000Z</time>
      </trkpt>
      <trkpt lat="48.87184" lon="2.33884">
        <ele>50</ele>
        <time>2016-05-02T20:28:08.000Z</time>
      </trkpt>
      <trkpt lat="48.87186" lon="2.33912">
        <ele>50</ele>
        <time>2016-05-02T20:28:12.000Z</time>
      </trkpt>
      <trkpt lat="48.87189" lon="2.33941">
        <ele>49.400001525879</ele>
        <time>2016-05-02T20:28:17.000Z</time>
      </trkpt>
      <trkpt lat="48.87191" lon="2.33961">
        <ele>48.799999237061</ele>
        <time>2016-05-02T20:28:21.000Z</time>
      </trkpt>
      <trkpt lat="48.87194" lon="2.33977">
        <ele>48.400001525879</ele>
        <time>2016-05-02T20:28:24.000Z</time>
      </trkpt>
      <trkpt lat="48.87195" lon="2.3399">
        <ele>48.200000762939</ele>
        <time>2016-05-02T20:28:27.000Z</time>
      </trkpt>
      <trkpt lat="48.87174" lon="2.33989">
        <ele>47.799999237061</ele>
        <time>2016-05-02T20:28:34.000Z</time>
      </trkpt>
      <trkpt lat="48.8717" lon="2.33987">
        <ele>47.799999237061</ele>
        <time>2016-05-02T20:28:35.000Z</time>
      </trkpt>
      <trkpt lat="48.87151" lon="2.33977">
        <ele>47.799999237061</ele>
        <time>2016-05-02T20:28:40.000Z</time>
      </trkpt>
      <trkpt lat="48.87133" lon="2.3397">
        <ele>47.599998474121</ele>
        <time>2016-05-02T20:28:45.000Z</time>
      </trkpt>
      <trkpt lat="48.87113" lon="2.33967">
        <ele>47.599998474121</ele>
        <time>2016-05-02T20:28:50.000Z</time>
      </trkpt>
      <trkpt lat="48.87092" lon="2.33958">
        <ele>48</ele>
        <time>2016-05-02T20:28:55.000Z</time>
      </trkpt>
      <trkpt lat="48.87074" lon="2.33945">
        <ele>48.599998474121</ele>
        <time>2016-05-02T20:28:59.000Z</time>
      </trkpt>
      <trkpt lat="48.87057" lon="2.33932">
        <ele>49</ele>
        <time>2016-05-02T20:29:03.000Z</time>
      </trkpt>
      <trkpt lat="48.87038" lon="2.33925">
        <ele>49.599998474121</ele>
        <time>2016-05-02T20:29:07.000Z</time>
      </trkpt>
      <trkpt lat="48.87019" lon="2.33911">
        <ele>50</ele>
        <time>2016-05-02T20:29:11.000Z</time>
      </trkpt>
      <trkpt lat="48.87007" lon="2.33898">
        <ele>50</ele>
        <time>2016-05-02T20:29:14.000Z</time>
      </trkpt>
      <trkpt lat="48.8699" lon="2.33885">
        <ele>50</ele>
        <time>2016-05-02T20:29:18.000Z</time>
      </trkpt>
      <trkpt lat="48.86976" lon="2.33875">
        <ele>50</ele>
        <time>2016-05-02T20:29:22.000Z</time>
      </trkpt>
      <trkpt lat="48.86962" lon="2.33867">
        <ele>49.799999237061</ele>
        <time>2016-05-02T20:29:26.000Z</time>
      </trkpt>
      <trkpt lat="48.8695" lon="2.33856">
        <ele>49.799999237061</ele>
        <time>2016-05-02T20:29:30.000Z</time>
      </trkpt>
      <trkpt lat="48.86947" lon="2.33853">
        <ele>49.799999237061</ele>
        <time>2016-05-02T20:29:32.000Z</time>
      </trkpt>
      <trkpt lat="48.86943" lon="2.33854">
        <ele>49.799999237061</ele>
        <time>2016-05-02T20:29:34.000Z</time>
      </trkpt>
      <trkpt lat="48.86932" lon="2.33857">
        <ele>49.799999237061</ele>
        <time>2016-05-02T20:29:39.000Z</time>
      </trkpt>
      <trkpt lat="48.8693" lon="2.33857">
        <ele>49.799999237061</ele>
        <time>2016-05-02T20:29:40.000Z</time>
      </trkpt>
      <trkpt lat="48.86912" lon="2.3385">
        <ele>50.200000762939</ele>
        <time>2016-05-02T20:29:46.000Z</time>
      </trkpt>
      <trkpt lat="48.86891" lon="2.3384">
        <ele>50.400001525879</ele>
        <time>2016-05-02T20:29:51.000Z</time>
      </trkpt>
      <trkpt lat="48.86872" lon="2.33834">
        <ele>50.799999237061</ele>
        <time>2016-05-02T20:29:56.000Z</time>
      </trkpt>
      <trkpt lat="48.86851" lon="2.33823">
        <ele>51</ele>
        <time>2016-05-02T20:30:02.000Z</time>
      </trkpt>
      <trkpt lat="48.86833" lon="2.33809">
        <ele>51</ele>
        <time>2016-05-02T20:30:07.000Z</time>
      </trkpt>
      <trkpt lat="48.86813" lon="2.33803">
        <ele>50.599998474121</ele>
        <time>2016-05-02T20:30:12.000Z</time>
      </trkpt>
      <trkpt lat="48.86794" lon="2.33794">
        <ele>50.400001525879</ele>
        <time>2016-05-02T20:30:17.000Z</time>
      </trkpt>
      <trkpt lat="48.86773" lon="2.33788">
        <ele>50</ele>
        <time>2016-05-02T20:30:22.000Z</time>
      </trkpt>
      <trkpt lat="48.86752" lon="2.33782">
        <ele>50.200000762939</ele>
        <time>2016-05-02T20:30:27.000Z</time>
      </trkpt>
      <trkpt lat="48.86734" lon="2.33776">
        <ele>50.400001525879</ele>
        <time>2016-05-02T20:30:32.000Z</time>
      </trkpt>
      <trkpt lat="48.86713" lon="2.33767">
        <ele>50.599998474121</ele>
        <time>2016-05-02T20:30:37.000Z</time>
      </trkpt>
      <trkpt lat="48.86696" lon="2.33754">
        <ele>50.799999237061</ele>
        <time>2016-05-02T20:30:41.000Z</time>
      </trkpt>
      <trkpt lat="48.86681" lon="2.33735">
        <ele>51</ele>
        <time>2016-05-02T20:30:43.000Z</time>
      </trkpt>
      <trkpt lat="48.86665" lon="2.33729">
        <ele>50.400001525879</ele>
        <time>2016-05-02T20:30:47.000Z</time>
      </trkpt>
      <trkpt lat="48.86643" lon="2.33721">
        <ele>49.400001525879</ele>
        <time>2016-05-02T20:30:52.000Z</time>
      </trkpt>
      <trkpt lat="48.86623" lon="2.33712">
        <ele>48.799999237061</ele>
        <time>2016-05-02T20:30:58.000Z</time>
      </trkpt>
      <trkpt lat="48.86605" lon="2.33702">
        <ele>48.200000762939</ele>
        <time>2016-05-02T20:31:03.000Z</time>
      </trkpt>
      <trkpt lat="48.86601" lon="2.33702">
        <ele>48</ele>
        <time>2016-05-02T20:31:04.000Z</time>
      </trkpt>
      <trkpt lat="48.86581" lon="2.33695">
        <ele>48</ele>
        <time>2016-05-02T20:31:09.000Z</time>
      </trkpt>
      <trkpt lat="48.86561" lon="2.33681">
        <ele>48.200000762939</ele>
        <time>2016-05-02T20:31:14.000Z</time>
      </trkpt>
      <trkpt lat="48.86541" lon="2.3367">
        <ele>48.200000762939</ele>
        <time>2016-05-02T20:31:19.000Z</time>
      </trkpt>
      <trkpt lat="48.86524" lon="2.3366">
        <ele>48.200000762939</ele>
        <time>2016-05-02T20:31:23.000Z</time>
      </trkpt>
      <trkpt lat="48.86505" lon="2.33649">
        <ele>47.799999237061</ele>
        <time>2016-05-02T20:31:28.000Z</time>
      </trkpt>
      <trkpt lat="48.86485" lon="2.33638">
        <ele>47.200000762939</ele>
        <time>2016-05-02T20:31:33.000Z</time>
      </trkpt>
      <trkpt lat="48.86465" lon="2.33626">
        <ele>46.799999237061</ele>
        <time>2016-05-02T20:31:38.000Z</time>
      </trkpt>
      <trkpt lat="48.86445" lon="2.33614">
        <ele>46.400001525879</ele>
        <time>2016-05-02T20:31:43.000Z</time>
      </trkpt>
      <trkpt lat="48.86427" lon="2.33604">
        <ele>46.400001525879</ele>
        <time>2016-05-02T20:31:48.000Z</time>
      </trkpt>
      <trkpt lat="48.86407" lon="2.33594">
        <ele>46.599998474121</ele>
        <time>2016-05-02T20:31:52.000Z</time>
      </trkpt>
      <trkpt lat="48.86397" lon="2.33593">
        <ele>46.799999237061</ele>
        <time>2016-05-02T20:31:54.000Z</time>
      </trkpt>
      <trkpt lat="48.86379" lon="2.33585">
        <ele>46.799999237061</ele>
        <time>2016-05-02T20:32:00.000Z</time>
      </trkpt>
      <trkpt lat="48.86379" lon="2.33584">
        <ele>47</ele>
        <time>2016-05-02T20:32:02.000Z</time>
      </trkpt>
      <trkpt lat="48.86366" lon="2.33568">
        <ele>47.200000762939</ele>
        <time>2016-05-02T20:32:08.000Z</time>
      </trkpt>
      <trkpt lat="48.86354" lon="2.33584">
        <ele>46.799999237061</ele>
        <time>2016-05-02T20:32:13.000Z</time>
      </trkpt>
      <trkpt lat="48.86344" lon="2.33595">
        <ele>46.599998474121</ele>
        <time>2016-05-02T20:32:16.000Z</time>
      </trkpt>
      <trkpt lat="48.8632" lon="2.33611">
        <ele>46.400001525879</ele>
        <time>2016-05-02T20:32:23.000Z</time>
      </trkpt>
      <trkpt lat="48.86311" lon="2.33622">
        <ele>46.200000762939</ele>
        <time>2016-05-02T20:32:27.000Z</time>
      </trkpt>
      <trkpt lat="48.8631" lon="2.33625">
        <ele>46.200000762939</ele>
        <time>2016-05-02T20:32:28.000Z</time>
      </trkpt>
      <trkpt lat="48.86306" lon="2.33637">
        <ele>46.200000762939</ele>
        <time>2016-05-02T20:32:32.000Z</time>
      </trkpt>
      <trkpt lat="48.86294" lon="2.33656">
        <ele>46.400001525879</ele>
        <time>2016-05-02T20:32:51.000Z</time>
      </trkpt>
      <trkpt lat="48.86288" lon="2.33684">
        <ele>46.200000762939</ele>
        <time>2016-05-02T20:32:56.000Z</time>
      </trkpt>
      <trkpt lat="48.8628" lon="2.33711">
        <ele>46.200000762939</ele>
        <time>2016-05-02T20:33:01.000Z</time>
      </trkpt>
      <trkpt lat="48.86272" lon="2.3374">
        <ele>46</ele>
        <time>2016-05-02T20:33:06.000Z</time>
      </trkpt>
      <trkpt lat="48.86263" lon="2.3377">
        <ele>45.799999237061</ele>
        <time>2016-05-02T20:33:11.000Z</time>
      </trkpt>
      <trkpt lat="48.86254" lon="2.33796">
        <ele>45.599998474121</ele>
        <time>2016-05-02T20:33:15.000Z</time>
      </trkpt>
      <trkpt lat="48.86246" lon="2.33822">
        <ele>44.799999237061</ele>
        <time>2016-05-02T20:33:19.000Z</time>
      </trkpt>
      <trkpt lat="48.86238" lon="2.33847">
        <ele>44.799999237061</ele>
        <time>2016-05-02T20:33:23.000Z</time>
      </trkpt>
      <trkpt lat="48.86229" lon="2.33874">
        <ele>45.400001525879</ele>
        <time>2016-05-02T20:33:27.000Z</time>
      </trkpt>
      <trkpt lat="48.86224" lon="2.33905">
        <ele>46</ele>
        <time>2016-05-02T20:33:31.000Z</time>
      </trkpt>
      <trkpt lat="48.8622" lon="2.33927">
        <ele>46.400001525879</ele>
        <time>2016-05-02T20:33:34.000Z</time>
      </trkpt>
      <trkpt lat="48.86214" lon="2.33954">
        <ele>47.200000762939</ele>
        <time>2016-05-02T20:33:38.000Z</time>
      </trkpt>
      <trkpt lat="48.86206" lon="2.33981">
        <ele>48.400001525879</ele>
        <time>2016-05-02T20:33:42.000Z</time>
      </trkpt>
      <trkpt lat="48.86197" lon="2.34007">
        <ele>49.200000762939</ele>
        <time>2016-05-02T20:33:46.000Z</time>
      </trkpt>
      <trkpt lat="48.86188" lon="2.34032">
        <ele>49</ele>
        <time>2016-05-02T20:33:50.000Z</time>
      </trkpt>
      <trkpt lat="48.86178" lon="2.34062">
        <ele>48.799999237061</ele>
        <time>2016-05-02T20:33:55.000Z</time>
      </trkpt>
      <trkpt lat="48.86174" lon="2.34092">
        <ele>48.599998474121</ele>
        <time>2016-05-02T20:34:00.000Z</time>
      </trkpt>
      <trkpt lat="48.86171" lon="2.34105">
        <ele>48.599998474121</ele>
        <time>2016-05-02T20:34:04.000Z</time>
      </trkpt>
      <trkpt lat="48.86163" lon="2.34133">
        <ele>48.599998474121</ele>
        <time>2016-05-02T20:34:20.000Z</time>
      </trkpt>
      <trkpt lat="48.86154" lon="2.34157">
        <ele>49</ele>
        <time>2016-05-02T20:34:25.000Z</time>
      </trkpt>
      <trkpt lat="48.86146" lon="2.34182">
        <ele>49</ele>
        <time>2016-05-02T20:34:29.000Z</time>
      </trkpt>
      <trkpt lat="48.86141" lon="2.3421">
        <ele>49</ele>
        <time>2016-05-02T20:34:33.000Z</time>
      </trkpt>
      <trkpt lat="48.86139" lon="2.34239">
        <ele>49.200000762939</ele>
        <time>2016-05-02T20:34:37.000Z</time>
      </trkpt>
      <trkpt lat="48.86135" lon="2.34273">
        <ele>49</ele>
        <time>2016-05-02T20:34:42.000Z</time>
      </trkpt>
      <trkpt lat="48.86131" lon="2.34301">
        <ele>49.599998474121</ele>
        <time>2016-05-02T20:34:46.000Z</time>
      </trkpt>
      <trkpt lat="48.86128" lon="2.34307">
        <ele>49.799999237061</ele>
        <time>2016-05-02T20:34:47.000Z</time>
      </trkpt>
      <trkpt lat="48.86119" lon="2.34333">
        <ele>50.599998474121</ele>
        <time>2016-05-02T20:34:51.000Z</time>
      </trkpt>
      <trkpt lat="48.86115" lon="2.34363">
        <ele>50</ele>
        <time>2016-05-02T20:34:55.000Z</time>
      </trkpt>
      <trkpt lat="48.86114" lon="2.34396">
        <ele>49.799999237061</ele>
        <time>2016-05-02T20:34:59.000Z</time>
      </trkpt>
      <trkpt lat="48.86111" lon="2.34426">
        <ele>49.400001525879</ele>
        <time>2016-05-02T20:35:03.000Z</time>
      </trkpt>
      <trkpt lat="48.86113" lon="2.34462">
        <ele>49.400001525879</ele>
        <time>2016-05-02T20:35:07.000Z</time>
      </trkpt>
      <trkpt lat="48.86109" lon="2.34486">
        <ele>50.400001525879</ele>
        <time>2016-05-02T20:35:11.000Z</time>
      </trkpt>
      <trkpt lat="48.86098" lon="2.34507">
        <ele>51</ele>
        <time>2016-05-02T20:35:15.000Z</time>
      </trkpt>
      <trkpt lat="48.86091" lon="2.34537">
        <ele>50.799999237061</ele>
        <time>2016-05-02T20:35:19.000Z</time>
      </trkpt>
      <trkpt lat="48.86085" lon="2.34566">
        <ele>50.400001525879</ele>
        <time>2016-05-02T20:35:23.000Z</time>
      </trkpt>
      <trkpt lat="48.86078" lon="2.34586">
        <ele>49.200000762939</ele>
        <time>2016-05-02T20:35:26.000Z</time>
      </trkpt>
      <trkpt lat="48.86064" lon="2.34607">
        <ele>47.200000762939</ele>
        <time>2016-05-02T20:35:30.000Z</time>
      </trkpt>
      <trkpt lat="48.86049" lon="2.34625">
        <ele>46.400001525879</ele>
        <time>2016-05-02T20:35:34.000Z</time>
      </trkpt>
      <trkpt lat="48.86029" lon="2.3464">
        <ele>46.599998474121</ele>
        <time>2016-05-02T20:35:39.000Z</time>
      </trkpt>
      <trkpt lat="48.86015" lon="2.34646">
        <ele>46.799999237061</ele>
        <time>2016-05-02T20:35:42.000Z</time>
      </trkpt>
      <trkpt lat="48.85996" lon="2.34661">
        <ele>46.400001525879</ele>
        <time>2016-05-02T20:35:46.000Z</time>
      </trkpt>
      <trkpt lat="48.85982" lon="2.34675">
        <ele>46.400001525879</ele>
        <time>2016-05-02T20:35:49.000Z</time>
      </trkpt>
      <trkpt lat="48.8597" lon="2.34686">
        <ele>46.400001525879</ele>
        <time>2016-05-02T20:35:52.000Z</time>
      </trkpt>
      <trkpt lat="48.85963" lon="2.347">
        <ele>46</ele>
        <time>2016-05-02T20:35:56.000Z</time>
      </trkpt>
      <trkpt lat="48.85962" lon="2.34707">
        <ele>45.799999237061</ele>
        <time>2016-05-02T20:35:59.000Z</time>
      </trkpt>
      <trkpt lat="48.85958" lon="2.34711">
        <ele>45.599998474121</ele>
        <time>2016-05-02T20:36:05.000Z</time>
      </trkpt>
      <trkpt lat="48.85956" lon="2.34712">
        <ele>45.400001525879</ele>
        <time>2016-05-02T20:36:06.000Z</time>
      </trkpt>
      <trkpt lat="48.85951" lon="2.34717">
        <ele>45.200000762939</ele>
        <time>2016-05-02T20:36:15.000Z</time>
      </trkpt>
    </trkseg>
  </trk>
  <trk>
    <name><![CDATA[lundi 2016 05 16]]></name>
    <trkseg>
      <trkpt lat="48.85745" lon="2.34723">
        <ele>40.400001525879</ele>
        <time>2016-05-16T18:21:22.000Z</time>
      </trkpt>
      <trkpt lat="48.85739" lon="2.347">
        <ele>39.799999237061</ele>
        <time>2016-05-16T18:21:35.000Z</time>
      </trkpt>
      <trkpt lat="48.85726" lon="2.34692">
        <ele>40.200000762939</ele>
        <time>2016-05-16T18:21:41.000Z</time>
      </trkpt>
      <trkpt lat="48.85707" lon="2.34685">
        <ele>40.799999237061</ele>
        <time>2016-05-16T18:21:47.000Z</time>
      </trkpt>
      <trkpt lat="48.85687" lon="2.34674">
        <ele>41.200000762939</ele>
        <time>2016-05-16T18:21:53.000Z</time>
      </trkpt>
      <trkpt lat="48.85669" lon="2.34663">
        <ele>42.599998474121</ele>
        <time>2016-05-16T18:21:59.000Z</time>
      </trkpt>
      <trkpt lat="48.85651" lon="2.34651">
        <ele>44.200000762939</ele>
        <time>2016-05-16T18:22:05.000Z</time>
      </trkpt>
      <trkpt lat="48.85634" lon="2.34639">
        <ele>45.599998474121</ele>
        <time>2016-05-16T18:22:12.000Z</time>
      </trkpt>
      <trkpt lat="48.85632" lon="2.34636">
        <ele>45.799999237061</ele>
        <time>2016-05-16T18:22:15.000Z</time>
      </trkpt>
      <trkpt lat="48.85616" lon="2.34633">
        <ele>47.200000762939</ele>
        <time>2016-05-16T18:22:31.000Z</time>
      </trkpt>
      <trkpt lat="48.85597" lon="2.3462">
        <ele>47.799999237061</ele>
        <time>2016-05-16T18:22:36.000Z</time>
      </trkpt>
      <trkpt lat="48.85578" lon="2.34609">
        <ele>47.599998474121</ele>
        <time>2016-05-16T18:22:41.000Z</time>
      </trkpt>
      <trkpt lat="48.85559" lon="2.34591">
        <ele>47.400001525879</ele>
        <time>2016-05-16T18:22:46.000Z</time>
      </trkpt>
      <trkpt lat="48.85538" lon="2.34577">
        <ele>47</ele>
        <time>2016-05-16T18:22:50.000Z</time>
      </trkpt>
      <trkpt lat="48.85518" lon="2.34561">
        <ele>46.200000762939</ele>
        <time>2016-05-16T18:22:54.000Z</time>
      </trkpt>
      <trkpt lat="48.85497" lon="2.34546">
        <ele>44.799999237061</ele>
        <time>2016-05-16T18:22:58.000Z</time>
      </trkpt>
      <trkpt lat="48.85478" lon="2.34529">
        <ele>43.599998474121</ele>
        <time>2016-05-16T18:23:02.000Z</time>
      </trkpt>
      <trkpt lat="48.8546" lon="2.3451">
        <ele>42.200000762939</ele>
        <time>2016-05-16T18:23:07.000Z</time>
      </trkpt>
      <trkpt lat="48.85441" lon="2.345">
        <ele>41.200000762939</ele>
        <time>2016-05-16T18:23:11.000Z</time>
      </trkpt>
      <trkpt lat="48.85423" lon="2.34484">
        <ele>41.599998474121</ele>
        <time>2016-05-16T18:23:16.000Z</time>
      </trkpt>
      <trkpt lat="48.85406" lon="2.34466">
        <ele>42.200000762939</ele>
        <time>2016-05-16T18:23:22.000Z</time>
      </trkpt>
      <trkpt lat="48.85397" lon="2.34457">
        <ele>42.599998474121</ele>
        <time>2016-05-16T18:23:26.000Z</time>
      </trkpt>
      <trkpt lat="48.85388" lon="2.34439">
        <ele>42.599998474121</ele>
        <time>2016-05-16T18:23:32.000Z</time>
      </trkpt>
      <trkpt lat="48.85397" lon="2.34414">
        <ele>41</ele>
        <time>2016-05-16T18:23:37.000Z</time>
      </trkpt>
      <trkpt lat="48.85413" lon="2.34389">
        <ele>40.799999237061</ele>
        <time>2016-05-16T18:23:42.000Z</time>
      </trkpt>
      <trkpt lat="48.85426" lon="2.34365">
        <ele>40.400001525879</ele>
        <time>2016-05-16T18:23:46.000Z</time>
      </trkpt>
      <trkpt lat="48.85441" lon="2.34342">
        <ele>39.799999237061</ele>
        <time>2016-05-16T18:23:50.000Z</time>
      </trkpt>
      <trkpt lat="48.85454" lon="2.3432">
        <ele>40.200000762939</ele>
        <time>2016-05-16T18:23:54.000Z</time>
      </trkpt>
      <trkpt lat="48.85463" lon="2.34289">
        <ele>41.200000762939</ele>
        <time>2016-05-16T18:23:59.000Z</time>
      </trkpt>
      <trkpt lat="48.85476" lon="2.34261">
        <ele>41.200000762939</ele>
        <time>2016-05-16T18:24:04.000Z</time>
      </trkpt>
      <trkpt lat="48.85491" lon="2.34235">
        <ele>41</ele>
        <time>2016-05-16T18:24:09.000Z</time>
      </trkpt>
      <trkpt lat="48.85506" lon="2.34211">
        <ele>40.400001525879</ele>
        <time>2016-05-16T18:24:14.000Z</time>
      </trkpt>
      <trkpt lat="48.85518" lon="2.34191">
        <ele>39.400001525879</ele>
        <time>2016-05-16T18:24:18.000Z</time>
      </trkpt>
      <trkpt lat="48.85533" lon="2.34172">
        <ele>39.599998474121</ele>
        <time>2016-05-16T18:24:22.000Z</time>
      </trkpt>
      <trkpt lat="48.85546" lon="2.34153">
        <ele>42.799999237061</ele>
        <time>2016-05-16T18:24:26.000Z</time>
      </trkpt>
      <trkpt lat="48.85562" lon="2.3413">
        <ele>46.200000762939</ele>
        <time>2016-05-16T18:24:31.000Z</time>
      </trkpt>
      <trkpt lat="48.85578" lon="2.34107">
        <ele>45.599998474121</ele>
        <time>2016-05-16T18:24:36.000Z</time>
      </trkpt>
      <trkpt lat="48.85592" lon="2.34088">
        <ele>43.799999237061</ele>
        <time>2016-05-16T18:24:40.000Z</time>
      </trkpt>
      <trkpt lat="48.85607" lon="2.34065">
        <ele>43.799999237061</ele>
        <time>2016-05-16T18:24:46.000Z</time>
      </trkpt>
      <trkpt lat="48.85621" lon="2.34047">
        <ele>44.200000762939</ele>
        <time>2016-05-16T18:24:53.000Z</time>
      </trkpt>
      <trkpt lat="48.85627" lon="2.34037">
        <ele>44.599998474121</ele>
        <time>2016-05-16T18:24:58.000Z</time>
      </trkpt>
      <trkpt lat="48.85636" lon="2.34022">
        <ele>44.400001525879</ele>
        <time>2016-05-16T18:25:02.000Z</time>
      </trkpt>
      <trkpt lat="48.85653" lon="2.34001">
        <ele>40</ele>
        <time>2016-05-16T18:25:07.000Z</time>
      </trkpt>
      <trkpt lat="48.85668" lon="2.33978">
        <ele>36.599998474121</ele>
        <time>2016-05-16T18:25:12.000Z</time>
      </trkpt>
      <trkpt lat="48.8568" lon="2.33957">
        <ele>36.799999237061</ele>
        <time>2016-05-16T18:25:16.000Z</time>
      </trkpt>
      <trkpt lat="48.85692" lon="2.33935">
        <ele>37.200000762939</ele>
        <time>2016-05-16T18:25:20.000Z</time>
      </trkpt>
      <trkpt lat="48.85706" lon="2.33917">
        <ele>36</ele>
        <time>2016-05-16T18:25:24.000Z</time>
      </trkpt>
      <trkpt lat="48.85721" lon="2.33896">
        <ele>33.599998474121</ele>
        <time>2016-05-16T18:25:28.000Z</time>
      </trkpt>
      <trkpt lat="48.85738" lon="2.33872">
        <ele>31.60000038147</ele>
        <time>2016-05-16T18:25:32.000Z</time>
      </trkpt>
      <trkpt lat="48.85754" lon="2.33846">
        <ele>32.400001525879</ele>
        <time>2016-05-16T18:25:36.000Z</time>
      </trkpt>
      <trkpt lat="48.85769" lon="2.33819">
        <ele>32.799999237061</ele>
        <time>2016-05-16T18:25:40.000Z</time>
      </trkpt>
      <trkpt lat="48.85773" lon="2.33809">
        <ele>32.799999237061</ele>
        <time>2016-05-16T18:25:41.000Z</time>
      </trkpt>
      <trkpt lat="48.85782" lon="2.33778">
        <ele>33.799999237061</ele>
        <time>2016-05-16T18:25:45.000Z</time>
      </trkpt>
      <trkpt lat="48.85789" lon="2.33748">
        <ele>33.799999237061</ele>
        <time>2016-05-16T18:25:49.000Z</time>
      </trkpt>
      <trkpt lat="48.85795" lon="2.3372">
        <ele>33.400001525879</ele>
        <time>2016-05-16T18:25:53.000Z</time>
      </trkpt>
      <trkpt lat="48.858" lon="2.33689">
        <ele>32.799999237061</ele>
        <time>2016-05-16T18:25:57.000Z</time>
      </trkpt>
      <trkpt lat="48.85804" lon="2.33659">
        <ele>29</ele>
        <time>2016-05-16T18:26:01.000Z</time>
      </trkpt>
      <trkpt lat="48.85805" lon="2.33652">
        <ele>29.200000762939</ele>
        <time>2016-05-16T18:26:02.000Z</time>
      </trkpt>
      <trkpt lat="48.85807" lon="2.33637">
        <ele>29.799999237061</ele>
        <time>2016-05-16T18:26:04.000Z</time>
      </trkpt>
      <trkpt lat="48.85808" lon="2.33606">
        <ele>30.799999237061</ele>
        <time>2016-05-16T18:26:08.000Z</time>
      </trkpt>
      <trkpt lat="48.85807" lon="2.33577">
        <ele>29.60000038147</ele>
        <time>2016-05-16T18:26:12.000Z</time>
      </trkpt>
      <trkpt lat="48.85806" lon="2.33549">
        <ele>30.39999961853</ele>
        <time>2016-05-16T18:26:16.000Z</time>
      </trkpt>
      <trkpt lat="48.85808" lon="2.3352">
        <ele>34.799999237061</ele>
        <time>2016-05-16T18:26:20.000Z</time>
      </trkpt>
      <trkpt lat="48.85813" lon="2.33491">
        <ele>43</ele>
        <time>2016-05-16T18:26:24.000Z</time>
      </trkpt>
      <trkpt lat="48.8582" lon="2.33466">
        <ele>43.400001525879</ele>
        <time>2016-05-16T18:26:28.000Z</time>
      </trkpt>
      <trkpt lat="48.85822" lon="2.33459">
        <ele>43.599998474121</ele>
        <time>2016-05-16T18:26:29.000Z</time>
      </trkpt>
      <trkpt lat="48.85828" lon="2.33432">
        <ele>45.200000762939</ele>
        <time>2016-05-16T18:26:33.000Z</time>
      </trkpt>
      <trkpt lat="48.85836" lon="2.33405">
        <ele>46.400001525879</ele>
        <time>2016-05-16T18:26:37.000Z</time>
      </trkpt>
      <trkpt lat="48.85845" lon="2.33377">
        <ele>45.599998474121</ele>
        <time>2016-05-16T18:26:41.000Z</time>
      </trkpt>
      <trkpt lat="48.85854" lon="2.33349">
        <ele>44</ele>
        <time>2016-05-16T18:26:45.000Z</time>
      </trkpt>
      <trkpt lat="48.85862" lon="2.33319">
        <ele>43</ele>
        <time>2016-05-16T18:26:50.000Z</time>
      </trkpt>
      <trkpt lat="48.8587" lon="2.33298">
        <ele>42.799999237061</ele>
        <time>2016-05-16T18:26:55.000Z</time>
      </trkpt>
      <trkpt lat="48.85868" lon="2.33288">
        <ele>42.599998474121</ele>
        <time>2016-05-16T18:26:58.000Z</time>
      </trkpt>
      <trkpt lat="48.85869" lon="2.3327">
        <ele>42.400001525879</ele>
        <time>2016-05-16T18:27:16.000Z</time>
      </trkpt>
      <trkpt lat="48.85873" lon="2.33256">
        <ele>41.400001525879</ele>
        <time>2016-05-16T18:27:25.000Z</time>
      </trkpt>
      <trkpt lat="48.85873" lon="2.33246">
        <ele>40.400001525879</ele>
        <time>2016-05-16T18:27:30.000Z</time>
      </trkpt>
      <trkpt lat="48.85875" lon="2.33219">
        <ele>40.799999237061</ele>
        <time>2016-05-16T18:27:36.000Z</time>
      </trkpt>
      <trkpt lat="48.85882" lon="2.33193">
        <ele>40.799999237061</ele>
        <time>2016-05-16T18:27:40.000Z</time>
      </trkpt>
      <trkpt lat="48.8589" lon="2.33168">
        <ele>39.599998474121</ele>
        <time>2016-05-16T18:27:44.000Z</time>
      </trkpt>
      <trkpt lat="48.85899" lon="2.33141">
        <ele>39.400001525879</ele>
        <time>2016-05-16T18:27:48.000Z</time>
      </trkpt>
      <trkpt lat="48.85911" lon="2.33111">
        <ele>39.599998474121</ele>
        <time>2016-05-16T18:27:52.000Z</time>
      </trkpt>
      <trkpt lat="48.85921" lon="2.33081">
        <ele>40.200000762939</ele>
        <time>2016-05-16T18:27:56.000Z</time>
      </trkpt>
      <trkpt lat="48.85931" lon="2.33053">
        <ele>39.400001525879</ele>
        <time>2016-05-16T18:28:00.000Z</time>
      </trkpt>
      <trkpt lat="48.85939" lon="2.33026">
        <ele>39.400001525879</ele>
        <time>2016-05-16T18:28:04.000Z</time>
      </trkpt>
      <trkpt lat="48.85949" lon="2.32996">
        <ele>40</ele>
        <time>2016-05-16T18:28:09.000Z</time>
      </trkpt>
      <trkpt lat="48.85957" lon="2.32968">
        <ele>41.400001525879</ele>
        <time>2016-05-16T18:28:14.000Z</time>
      </trkpt>
      <trkpt lat="48.8596" lon="2.32956">
        <ele>42</ele>
        <time>2016-05-16T18:28:16.000Z</time>
      </trkpt>
      <trkpt lat="48.85969" lon="2.32929">
        <ele>42.400001525879</ele>
        <time>2016-05-16T18:28:21.000Z</time>
      </trkpt>
      <trkpt lat="48.85975" lon="2.3291">
        <ele>42</ele>
        <time>2016-05-16T18:28:24.000Z</time>
      </trkpt>
      <trkpt lat="48.85985" lon="2.32884">
        <ele>42.400001525879</ele>
        <time>2016-05-16T18:28:28.000Z</time>
      </trkpt>
      <trkpt lat="48.85994" lon="2.32857">
        <ele>40.799999237061</ele>
        <time>2016-05-16T18:28:32.000Z</time>
      </trkpt>
      <trkpt lat="48.85998" lon="2.32847">
        <ele>39.799999237061</ele>
        <time>2016-05-16T18:28:34.000Z</time>
      </trkpt>
      <trkpt lat="48.86003" lon="2.32838">
        <ele>39</ele>
        <time>2016-05-16T18:28:36.000Z</time>
      </trkpt>
      <trkpt lat="48.86013" lon="2.32815">
        <ele>37.799999237061</ele>
        <time>2016-05-16T18:28:42.000Z</time>
      </trkpt>
      <trkpt lat="48.86016" lon="2.32808">
        <ele>38</ele>
        <time>2016-05-16T18:28:45.000Z</time>
      </trkpt>
      <trkpt lat="48.86024" lon="2.32779">
        <ele>39</ele>
        <time>2016-05-16T18:29:04.000Z</time>
      </trkpt>
      <trkpt lat="48.86036" lon="2.32755">
        <ele>38.599998474121</ele>
        <time>2016-05-16T18:29:08.000Z</time>
      </trkpt>
      <trkpt lat="48.86048" lon="2.32731">
        <ele>38.200000762939</ele>
        <time>2016-05-16T18:29:11.000Z</time>
      </trkpt>
      <trkpt lat="48.86058" lon="2.32704">
        <ele>38.799999237061</ele>
        <time>2016-05-16T18:29:14.000Z</time>
      </trkpt>
      <trkpt lat="48.86068" lon="2.32674">
        <ele>37.400001525879</ele>
        <time>2016-05-16T18:29:18.000Z</time>
      </trkpt>
      <trkpt lat="48.86072" lon="2.3266">
        <ele>36.799999237061</ele>
        <time>2016-05-16T18:29:20.000Z</time>
      </trkpt>
      <trkpt lat="48.86077" lon="2.32643">
        <ele>35.400001525879</ele>
        <time>2016-05-16T18:29:23.000Z</time>
      </trkpt>
      <trkpt lat="48.8609" lon="2.32623">
        <ele>33</ele>
        <time>2016-05-16T18:29:27.000Z</time>
      </trkpt>
      <trkpt lat="48.86098" lon="2.32607">
        <ele>31.799999237061</ele>
        <time>2016-05-16T18:29:31.000Z</time>
      </trkpt>
      <trkpt lat="48.86104" lon="2.32595">
        <ele>31</ele>
        <time>2016-05-16T18:29:35.000Z</time>
      </trkpt>
      <trkpt lat="48.86106" lon="2.32582">
        <ele>31</ele>
        <time>2016-05-16T18:29:39.000Z</time>
      </trkpt>
      <trkpt lat="48.86112" lon="2.32563">
        <ele>31.799999237061</ele>
        <time>2016-05-16T18:29:46.000Z</time>
      </trkpt>
      <trkpt lat="48.86118" lon="2.32532">
        <ele>33.200000762939</ele>
        <time>2016-05-16T18:29:54.000Z</time>
      </trkpt>
      <trkpt lat="48.86115" lon="2.32506">
        <ele>34.400001525879</ele>
        <time>2016-05-16T18:29:59.000Z</time>
      </trkpt>
      <trkpt lat="48.86124" lon="2.32476">
        <ele>34.599998474121</ele>
        <time>2016-05-16T18:30:04.000Z</time>
      </trkpt>
      <trkpt lat="48.86132" lon="2.32451">
        <ele>34.799999237061</ele>
        <time>2016-05-16T18:30:09.000Z</time>
      </trkpt>
      <trkpt lat="48.8614" lon="2.32425">
        <ele>33.799999237061</ele>
        <time>2016-05-16T18:30:15.000Z</time>
      </trkpt>
      <trkpt lat="48.86146" lon="2.32395">
        <ele>34</ele>
        <time>2016-05-16T18:30:20.000Z</time>
      </trkpt>
      <trkpt lat="48.86153" lon="2.32364">
        <ele>34.799999237061</ele>
        <time>2016-05-16T18:30:25.000Z</time>
      </trkpt>
      <trkpt lat="48.86162" lon="2.32334">
        <ele>34.599998474121</ele>
        <time>2016-05-16T18:30:30.000Z</time>
      </trkpt>
      <trkpt lat="48.86169" lon="2.32302">
        <ele>33</ele>
        <time>2016-05-16T18:30:35.000Z</time>
      </trkpt>
      <trkpt lat="48.86177" lon="2.32274">
        <ele>33.200000762939</ele>
        <time>2016-05-16T18:30:39.000Z</time>
      </trkpt>
      <trkpt lat="48.86184" lon="2.32246">
        <ele>33.400001525879</ele>
        <time>2016-05-16T18:30:43.000Z</time>
      </trkpt>
      <trkpt lat="48.86194" lon="2.32217">
        <ele>35</ele>
        <time>2016-05-16T18:30:47.000Z</time>
      </trkpt>
      <trkpt lat="48.86202" lon="2.32189">
        <ele>36.599998474121</ele>
        <time>2016-05-16T18:30:51.000Z</time>
      </trkpt>
      <trkpt lat="48.86211" lon="2.32161">
        <ele>36.200000762939</ele>
        <time>2016-05-16T18:30:55.000Z</time>
      </trkpt>
      <trkpt lat="48.86225" lon="2.32132">
        <ele>36.200000762939</ele>
        <time>2016-05-16T18:30:59.000Z</time>
      </trkpt>
      <trkpt lat="48.86227" lon="2.32124">
        <ele>36.400001525879</ele>
        <time>2016-05-16T18:31:00.000Z</time>
      </trkpt>
      <trkpt lat="48.86233" lon="2.32092">
        <ele>37.200000762939</ele>
        <time>2016-05-16T18:31:04.000Z</time>
      </trkpt>
      <trkpt lat="48.8624" lon="2.32071">
        <ele>36.200000762939</ele>
        <time>2016-05-16T18:31:07.000Z</time>
      </trkpt>
      <trkpt lat="48.86249" lon="2.32046">
        <ele>34.400001525879</ele>
        <time>2016-05-16T18:31:11.000Z</time>
      </trkpt>
      <trkpt lat="48.86257" lon="2.32019">
        <ele>33.200000762939</ele>
        <time>2016-05-16T18:31:15.000Z</time>
      </trkpt>
      <trkpt lat="48.86266" lon="2.3199">
        <ele>31.60000038147</ele>
        <time>2016-05-16T18:31:19.000Z</time>
      </trkpt>
      <trkpt lat="48.86275" lon="2.31962">
        <ele>31.799999237061</ele>
        <time>2016-05-16T18:31:23.000Z</time>
      </trkpt>
      <trkpt lat="48.86283" lon="2.31933">
        <ele>32.200000762939</ele>
        <time>2016-05-16T18:31:27.000Z</time>
      </trkpt>
      <trkpt lat="48.86293" lon="2.319">
        <ele>31.200000762939</ele>
        <time>2016-05-16T18:31:31.000Z</time>
      </trkpt>
      <trkpt lat="48.86299" lon="2.31871">
        <ele>30.200000762939</ele>
        <time>2016-05-16T18:31:35.000Z</time>
      </trkpt>
      <trkpt lat="48.86304" lon="2.31844">
        <ele>33.599998474121</ele>
        <time>2016-05-16T18:31:39.000Z</time>
      </trkpt>
      <trkpt lat="48.86312" lon="2.31813">
        <ele>38.799999237061</ele>
        <time>2016-05-16T18:31:44.000Z</time>
      </trkpt>
      <trkpt lat="48.86314" lon="2.31806">
        <ele>39.599998474121</ele>
        <time>2016-05-16T18:31:45.000Z</time>
      </trkpt>
      <trkpt lat="48.86319" lon="2.31787">
        <ele>42</ele>
        <time>2016-05-16T18:31:48.000Z</time>
      </trkpt>
      <trkpt lat="48.86322" lon="2.31759">
        <ele>46</ele>
        <time>2016-05-16T18:31:52.000Z</time>
      </trkpt>
      <trkpt lat="48.86322" lon="2.31746">
        <ele>47.400001525879</ele>
        <time>2016-05-16T18:31:54.000Z</time>
      </trkpt>
      <trkpt lat="48.86321" lon="2.31717">
        <ele>46.200000762939</ele>
        <time>2016-05-16T18:31:58.000Z</time>
      </trkpt>
      <trkpt lat="48.8632" lon="2.31688">
        <ele>35</ele>
        <time>2016-05-16T18:32:02.000Z</time>
      </trkpt>
      <trkpt lat="48.86319" lon="2.31658">
        <ele>24.200000762939</ele>
        <time>2016-05-16T18:32:06.000Z</time>
      </trkpt>
      <trkpt lat="48.86319" lon="2.31627">
        <ele>26.200000762939</ele>
        <time>2016-05-16T18:32:10.000Z</time>
      </trkpt>
      <trkpt lat="48.86317" lon="2.31599">
        <ele>28.200000762939</ele>
        <time>2016-05-16T18:32:14.000Z</time>
      </trkpt>
      <trkpt lat="48.86316" lon="2.31571">
        <ele>29</ele>
        <time>2016-05-16T18:32:18.000Z</time>
      </trkpt>
      <trkpt lat="48.86316" lon="2.31556">
        <ele>28.200000762939</ele>
        <time>2016-05-16T18:32:20.000Z</time>
      </trkpt>
      <trkpt lat="48.86316" lon="2.31524">
        <ele>29.799999237061</ele>
        <time>2016-05-16T18:32:24.000Z</time>
      </trkpt>
      <trkpt lat="48.86315" lon="2.31496">
        <ele>34.400001525879</ele>
        <time>2016-05-16T18:32:28.000Z</time>
      </trkpt>
      <trkpt lat="48.86316" lon="2.31483">
        <ele>33.400001525879</ele>
        <time>2016-05-16T18:32:30.000Z</time>
      </trkpt>
      <trkpt lat="48.86316" lon="2.31453">
        <ele>31.799999237061</ele>
        <time>2016-05-16T18:32:35.000Z</time>
      </trkpt>
      <trkpt lat="48.86315" lon="2.31435">
        <ele>32.599998474121</ele>
        <time>2016-05-16T18:32:38.000Z</time>
      </trkpt>
      <trkpt lat="48.86317" lon="2.31406">
        <ele>34</ele>
        <time>2016-05-16T18:32:43.000Z</time>
      </trkpt>
      <trkpt lat="48.86317" lon="2.31387">
        <ele>35</ele>
        <time>2016-05-16T18:32:46.000Z</time>
      </trkpt>
      <trkpt lat="48.86316" lon="2.31357">
        <ele>34.400001525879</ele>
        <time>2016-05-16T18:32:51.000Z</time>
      </trkpt>
      <trkpt lat="48.86315" lon="2.31326">
        <ele>32.400001525879</ele>
        <time>2016-05-16T18:32:55.000Z</time>
      </trkpt>
      <trkpt lat="48.86313" lon="2.31294">
        <ele>32.599998474121</ele>
        <time>2016-05-16T18:32:59.000Z</time>
      </trkpt>
      <trkpt lat="48.86313" lon="2.31259">
        <ele>31.799999237061</ele>
        <time>2016-05-16T18:33:03.000Z</time>
      </trkpt>
      <trkpt lat="48.86312" lon="2.31224">
        <ele>31.799999237061</ele>
        <time>2016-05-16T18:33:07.000Z</time>
      </trkpt>
      <trkpt lat="48.86311" lon="2.31202">
        <ele>32.200000762939</ele>
        <time>2016-05-16T18:33:10.000Z</time>
      </trkpt>
      <trkpt lat="48.8631" lon="2.31172">
        <ele>31.799999237061</ele>
        <time>2016-05-16T18:33:14.000Z</time>
      </trkpt>
      <trkpt lat="48.86309" lon="2.3114">
        <ele>33.200000762939</ele>
        <time>2016-05-16T18:33:18.000Z</time>
      </trkpt>
      <trkpt lat="48.86306" lon="2.31108">
        <ele>35</ele>
        <time>2016-05-16T18:33:22.000Z</time>
      </trkpt>
      <trkpt lat="48.86305" lon="2.31073">
        <ele>35.599998474121</ele>
        <time>2016-05-16T18:33:26.000Z</time>
      </trkpt>
      <trkpt lat="48.86305" lon="2.31044">
        <ele>37.200000762939</ele>
        <time>2016-05-16T18:33:29.000Z</time>
      </trkpt>
      <trkpt lat="48.86304" lon="2.31014">
        <ele>37.599998474121</ele>
        <time>2016-05-16T18:33:32.000Z</time>
      </trkpt>
      <trkpt lat="48.86305" lon="2.30983">
        <ele>37</ele>
        <time>2016-05-16T18:33:35.000Z</time>
      </trkpt>
      <trkpt lat="48.86304" lon="2.30954">
        <ele>37.799999237061</ele>
        <time>2016-05-16T18:33:38.000Z</time>
      </trkpt>
      <trkpt lat="48.86304" lon="2.30925">
        <ele>40</ele>
        <time>2016-05-16T18:33:41.000Z</time>
      </trkpt>
      <trkpt lat="48.86305" lon="2.30897">
        <ele>40.200000762939</ele>
        <time>2016-05-16T18:33:44.000Z</time>
      </trkpt>
      <trkpt lat="48.86305" lon="2.30867">
        <ele>38.799999237061</ele>
        <time>2016-05-16T18:33:47.000Z</time>
      </trkpt>
      <trkpt lat="48.86303" lon="2.30838">
        <ele>38.400001525879</ele>
        <time>2016-05-16T18:33:50.000Z</time>
      </trkpt>
      <trkpt lat="48.86302" lon="2.30809">
        <ele>37.200000762939</ele>
        <time>2016-05-16T18:33:53.000Z</time>
      </trkpt>
      <trkpt lat="48.86299" lon="2.3078">
        <ele>35.799999237061</ele>
        <time>2016-05-16T18:33:56.000Z</time>
      </trkpt>
      <trkpt lat="48.86299" lon="2.3077">
        <ele>35.799999237061</ele>
        <time>2016-05-16T18:33:57.000Z</time>
      </trkpt>
      <trkpt lat="48.86298" lon="2.30742">
        <ele>37.599998474121</ele>
        <time>2016-05-16T18:34:00.000Z</time>
      </trkpt>
      <trkpt lat="48.86295" lon="2.30708">
        <ele>37</ele>
        <time>2016-05-16T18:34:04.000Z</time>
      </trkpt>
      <trkpt lat="48.86294" lon="2.30674">
        <ele>35.799999237061</ele>
        <time>2016-05-16T18:34:08.000Z</time>
      </trkpt>
      <trkpt lat="48.86292" lon="2.3064">
        <ele>34.799999237061</ele>
        <time>2016-05-16T18:34:12.000Z</time>
      </trkpt>
      <trkpt lat="48.86292" lon="2.30618">
        <ele>34.799999237061</ele>
        <time>2016-05-16T18:34:15.000Z</time>
      </trkpt>
      <trkpt lat="48.86293" lon="2.30599">
        <ele>34.799999237061</ele>
        <time>2016-05-16T18:34:18.000Z</time>
      </trkpt>
      <trkpt lat="48.86294" lon="2.30582">
        <ele>33</ele>
        <time>2016-05-16T18:34:22.000Z</time>
      </trkpt>
      <trkpt lat="48.86291" lon="2.30569">
        <ele>33.599998474121</ele>
        <time>2016-05-16T18:34:26.000Z</time>
      </trkpt>
      <trkpt lat="48.86288" lon="2.30561">
        <ele>34.200000762939</ele>
        <time>2016-05-16T18:34:29.000Z</time>
      </trkpt>
      <trkpt lat="48.86288" lon="2.30541">
        <ele>34.799999237061</ele>
        <time>2016-05-16T18:34:34.000Z</time>
      </trkpt>
      <trkpt lat="48.86288" lon="2.30529">
        <ele>35</ele>
        <time>2016-05-16T18:34:37.000Z</time>
      </trkpt>
      <trkpt lat="48.86288" lon="2.30518">
        <ele>35.200000762939</ele>
        <time>2016-05-16T18:34:40.000Z</time>
      </trkpt>
      <trkpt lat="48.86288" lon="2.30499">
        <ele>35.400001525879</ele>
        <time>2016-05-16T18:34:45.000Z</time>
      </trkpt>
      <trkpt lat="48.86288" lon="2.30489">
        <ele>36.200000762939</ele>
        <time>2016-05-16T18:34:47.000Z</time>
      </trkpt>
      <trkpt lat="48.86285" lon="2.30457">
        <ele>39.799999237061</ele>
        <time>2016-05-16T18:34:53.000Z</time>
      </trkpt>
      <trkpt lat="48.86283" lon="2.30426">
        <ele>43</ele>
        <time>2016-05-16T18:34:58.000Z</time>
      </trkpt>
      <trkpt lat="48.8628" lon="2.30395">
        <ele>43.599998474121</ele>
        <time>2016-05-16T18:35:03.000Z</time>
      </trkpt>
      <trkpt lat="48.86276" lon="2.30367">
        <ele>43.599998474121</ele>
        <time>2016-05-16T18:35:11.000Z</time>
      </trkpt>
      <trkpt lat="48.86273" lon="2.30354">
        <ele>43.799999237061</ele>
        <time>2016-05-16T18:35:18.000Z</time>
      </trkpt>
      <trkpt lat="48.86264" lon="2.30331">
        <ele>43</ele>
        <time>2016-05-16T18:35:32.000Z</time>
      </trkpt>
      <trkpt lat="48.86258" lon="2.30329">
        <ele>43</ele>
        <time>2016-05-16T18:36:08.000Z</time>
      </trkpt>
      <trkpt lat="48.86256" lon="2.30335">
        <ele>43.200000762939</ele>
        <time>2016-05-16T18:36:16.000Z</time>
      </trkpt>
      <trkpt lat="48.86258" lon="2.30339">
        <ele>43.400001525879</ele>
        <time>2016-05-16T18:37:00.000Z</time>
      </trkpt>
      <trkpt lat="48.86254" lon="2.30306">
        <ele>43.200000762939</ele>
        <time>2016-05-16T18:37:08.000Z</time>
      </trkpt>
      <trkpt lat="48.86256" lon="2.30276">
        <ele>41.599998474121</ele>
        <time>2016-05-16T18:37:13.000Z</time>
      </trkpt>
      <trkpt lat="48.86257" lon="2.30244">
        <ele>40</ele>
        <time>2016-05-16T18:37:18.000Z</time>
      </trkpt>
      <trkpt lat="48.86261" lon="2.30218">
        <ele>38.200000762939</ele>
        <time>2016-05-16T18:37:26.000Z</time>
      </trkpt>
      <trkpt lat="48.86261" lon="2.30216">
        <ele>38.200000762939</ele>
        <time>2016-05-16T18:37:27.000Z</time>
      </trkpt>
      <trkpt lat="48.86259" lon="2.30214">
        <ele>38.200000762939</ele>
        <time>2016-05-16T18:37:31.000Z</time>
      </trkpt>
      <trkpt lat="48.86257" lon="2.30197">
        <ele>37.400001525879</ele>
        <time>2016-05-16T18:37:58.000Z</time>
      </trkpt>
      <trkpt lat="48.86255" lon="2.30169">
        <ele>35.799999237061</ele>
        <time>2016-05-16T18:38:04.000Z</time>
      </trkpt>
      <trkpt lat="48.8625" lon="2.30139">
        <ele>35.400001525879</ele>
        <time>2016-05-16T18:38:10.000Z</time>
      </trkpt>
      <trkpt lat="48.8625" lon="2.30107">
        <ele>37.400001525879</ele>
        <time>2016-05-16T18:38:17.000Z</time>
      </trkpt>
      <trkpt lat="48.8625" lon="2.30079">
        <ele>39</ele>
        <time>2016-05-16T18:38:23.000Z</time>
      </trkpt>
      <trkpt lat="48.86249" lon="2.30049">
        <ele>38.200000762939</ele>
        <time>2016-05-16T18:38:29.000Z</time>
      </trkpt>
      <trkpt lat="48.86246" lon="2.30017">
        <ele>37</ele>
        <time>2016-05-16T18:38:35.000Z</time>
      </trkpt>
      <trkpt lat="48.86242" lon="2.29985">
        <ele>35.799999237061</ele>
        <time>2016-05-16T18:38:39.000Z</time>
      </trkpt>
      <trkpt lat="48.86234" lon="2.29954">
        <ele>34</ele>
        <time>2016-05-16T18:38:43.000Z</time>
      </trkpt>
      <trkpt lat="48.86227" lon="2.29925">
        <ele>31.200000762939</ele>
        <time>2016-05-16T18:38:47.000Z</time>
      </trkpt>
      <trkpt lat="48.8622" lon="2.29895">
        <ele>29.799999237061</ele>
        <time>2016-05-16T18:38:51.000Z</time>
      </trkpt>
      <trkpt lat="48.86212" lon="2.29864">
        <ele>29.39999961853</ele>
        <time>2016-05-16T18:38:55.000Z</time>
      </trkpt>
      <trkpt lat="48.86204" lon="2.29836">
        <ele>29.39999961853</ele>
        <time>2016-05-16T18:38:59.000Z</time>
      </trkpt>
      <trkpt lat="48.86199" lon="2.29822">
        <ele>29.799999237061</ele>
        <time>2016-05-16T18:39:01.000Z</time>
      </trkpt>
      <trkpt lat="48.86193" lon="2.29801">
        <ele>30.799999237061</ele>
        <time>2016-05-16T18:39:04.000Z</time>
      </trkpt>
      <trkpt lat="48.86185" lon="2.29774">
        <ele>32</ele>
        <time>2016-05-16T18:39:08.000Z</time>
      </trkpt>
      <trkpt lat="48.86183" lon="2.29768">
        <ele>32.200000762939</ele>
        <time>2016-05-16T18:39:09.000Z</time>
      </trkpt>
      <trkpt lat="48.86177" lon="2.29741">
        <ele>33</ele>
        <time>2016-05-16T18:39:14.000Z</time>
      </trkpt>
      <trkpt lat="48.86169" lon="2.29716">
        <ele>32.799999237061</ele>
        <time>2016-05-16T18:39:19.000Z</time>
      </trkpt>
      <trkpt lat="48.86161" lon="2.29691">
        <ele>32.599998474121</ele>
        <time>2016-05-16T18:39:24.000Z</time>
      </trkpt>
      <trkpt lat="48.86147" lon="2.29666">
        <ele>32.599998474121</ele>
        <time>2016-05-16T18:39:29.000Z</time>
      </trkpt>
      <trkpt lat="48.86138" lon="2.2965">
        <ele>33</ele>
        <time>2016-05-16T18:39:32.000Z</time>
      </trkpt>
      <trkpt lat="48.86124" lon="2.29629">
        <ele>33.599998474121</ele>
        <time>2016-05-16T18:39:36.000Z</time>
      </trkpt>
      <trkpt lat="48.8611" lon="2.29608">
        <ele>34.200000762939</ele>
        <time>2016-05-16T18:39:41.000Z</time>
      </trkpt>
      <trkpt lat="48.86095" lon="2.29586">
        <ele>35.599998474121</ele>
        <time>2016-05-16T18:39:46.000Z</time>
      </trkpt>
      <trkpt lat="48.86092" lon="2.29581">
        <ele>35.799999237061</ele>
        <time>2016-05-16T18:39:47.000Z</time>
      </trkpt>
      <trkpt lat="48.86083" lon="2.29569">
        <ele>36.200000762939</ele>
        <time>2016-05-16T18:39:50.000Z</time>
      </trkpt>
      <trkpt lat="48.86073" lon="2.2955">
        <ele>36.599998474121</ele>
        <time>2016-05-16T18:39:54.000Z</time>
      </trkpt>
      <trkpt lat="48.86057" lon="2.29527">
        <ele>37.200000762939</ele>
        <time>2016-05-16T18:40:00.000Z</time>
      </trkpt>
      <trkpt lat="48.8605" lon="2.29516">
        <ele>37.599998474121</ele>
        <time>2016-05-16T18:40:03.000Z</time>
      </trkpt>
      <trkpt lat="48.86034" lon="2.29497">
        <ele>38.200000762939</ele>
        <time>2016-05-16T18:40:10.000Z</time>
      </trkpt>
      <trkpt lat="48.8603" lon="2.2948">
        <ele>37.400001525879</ele>
        <time>2016-05-16T18:40:21.000Z</time>
      </trkpt>
      <trkpt lat="48.8603" lon="2.2948">
        <ele>37.400001525879</ele>
        <time>2016-05-16T18:40:22.000Z</time>
      </trkpt>
      <trkpt lat="48.86015" lon="2.29462">
        <ele>37.599998474121</ele>
        <time>2016-05-16T18:40:38.000Z</time>
      </trkpt>
      <trkpt lat="48.86002" lon="2.2944">
        <ele>37.599998474121</ele>
        <time>2016-05-16T18:40:45.000Z</time>
      </trkpt>
      <trkpt lat="48.85986" lon="2.29417">
        <ele>37.599998474121</ele>
        <time>2016-05-16T18:40:51.000Z</time>
      </trkpt>
      <trkpt lat="48.85971" lon="2.29394">
        <ele>38.200000762939</ele>
        <time>2016-05-16T18:40:57.000Z</time>
      </trkpt>
      <trkpt lat="48.85957" lon="2.29375">
        <ele>38.799999237061</ele>
        <time>2016-05-16T18:41:02.000Z</time>
      </trkpt>
      <trkpt lat="48.85941" lon="2.29357">
        <ele>39.799999237061</ele>
        <time>2016-05-16T18:41:07.000Z</time>
      </trkpt>
      <trkpt lat="48.85927" lon="2.29338">
        <ele>39.200000762939</ele>
        <time>2016-05-16T18:41:13.000Z</time>
      </trkpt>
      <trkpt lat="48.85853" lon="2.29217">
        <ele>35.599998474121</ele>
        <time>2016-05-16T18:41:40.000Z</time>
      </trkpt>
      <trkpt lat="48.85838" lon="2.292">
        <ele>36.200000762939</ele>
        <time>2016-05-16T18:41:45.000Z</time>
      </trkpt>
      <trkpt lat="48.85823" lon="2.29181">
        <ele>36.400001525879</ele>
        <time>2016-05-16T18:41:51.000Z</time>
      </trkpt>
      <trkpt lat="48.8581" lon="2.29163">
        <ele>36.599998474121</ele>
        <time>2016-05-16T18:41:57.000Z</time>
      </trkpt>
      <trkpt lat="48.85796" lon="2.29141">
        <ele>36.599998474121</ele>
        <time>2016-05-16T18:42:03.000Z</time>
      </trkpt>
      <trkpt lat="48.85782" lon="2.29122">
        <ele>36.799999237061</ele>
        <time>2016-05-16T18:42:09.000Z</time>
      </trkpt>
      <trkpt lat="48.85764" lon="2.29106">
        <ele>37</ele>
        <time>2016-05-16T18:42:15.000Z</time>
      </trkpt>
      <trkpt lat="48.85749" lon="2.29086">
        <ele>35.799999237061</ele>
        <time>2016-05-16T18:42:20.000Z</time>
      </trkpt>
      <trkpt lat="48.85734" lon="2.29067">
        <ele>35.799999237061</ele>
        <time>2016-05-16T18:42:25.000Z</time>
      </trkpt>
      <trkpt lat="48.8572" lon="2.29048">
        <ele>36.599998474121</ele>
        <time>2016-05-16T18:42:29.000Z</time>
      </trkpt>
      <trkpt lat="48.85701" lon="2.29027">
        <ele>37.400001525879</ele>
        <time>2016-05-16T18:42:33.000Z</time>
      </trkpt>
      <trkpt lat="48.85681" lon="2.2901">
        <ele>37.400001525879</ele>
        <time>2016-05-16T18:42:37.000Z</time>
      </trkpt>
      <trkpt lat="48.85661" lon="2.28996">
        <ele>36</ele>
        <time>2016-05-16T18:42:41.000Z</time>
      </trkpt>
      <trkpt lat="48.85644" lon="2.28986">
        <ele>34.200000762939</ele>
        <time>2016-05-16T18:42:45.000Z</time>
      </trkpt>
      <trkpt lat="48.85624" lon="2.28978">
        <ele>32.200000762939</ele>
        <time>2016-05-16T18:42:50.000Z</time>
      </trkpt>
      <trkpt lat="48.85611" lon="2.28972">
        <ele>31</ele>
        <time>2016-05-16T18:42:53.000Z</time>
      </trkpt>
      <trkpt lat="48.85593" lon="2.28966">
        <ele>32</ele>
        <time>2016-05-16T18:42:57.000Z</time>
      </trkpt>
      <trkpt lat="48.85575" lon="2.28957">
        <ele>34</ele>
        <time>2016-05-16T18:43:02.000Z</time>
      </trkpt>
      <trkpt lat="48.85557" lon="2.2895">
        <ele>36.200000762939</ele>
        <time>2016-05-16T18:43:07.000Z</time>
      </trkpt>
      <trkpt lat="48.8555" lon="2.28947">
        <ele>36.799999237061</ele>
        <time>2016-05-16T18:43:09.000Z</time>
      </trkpt>
      <trkpt lat="48.85533" lon="2.28937">
        <ele>38.400001525879</ele>
        <time>2016-05-16T18:43:14.000Z</time>
      </trkpt>
      <trkpt lat="48.8553" lon="2.28935">
        <ele>38.599998474121</ele>
        <time>2016-05-16T18:43:15.000Z</time>
      </trkpt>
      <trkpt lat="48.85514" lon="2.28921">
        <ele>39.599998474121</ele>
        <time>2016-05-16T18:43:20.000Z</time>
      </trkpt>
      <trkpt lat="48.85495" lon="2.28908">
        <ele>40.599998474121</ele>
        <time>2016-05-16T18:43:26.000Z</time>
      </trkpt>
      <trkpt lat="48.8548" lon="2.28892">
        <ele>40.799999237061</ele>
        <time>2016-05-16T18:43:35.000Z</time>
      </trkpt>
      <trkpt lat="48.85473" lon="2.28877">
        <ele>40.799999237061</ele>
        <time>2016-05-16T18:43:43.000Z</time>
      </trkpt>
      <trkpt lat="48.8549" lon="2.28866">
        <ele>39.200000762939</ele>
        <time>2016-05-16T18:43:57.000Z</time>
      </trkpt>
      <trkpt lat="48.85507" lon="2.28853">
        <ele>37.799999237061</ele>
        <time>2016-05-16T18:44:02.000Z</time>
      </trkpt>
      <trkpt lat="48.85522" lon="2.28838">
        <ele>36.400001525879</ele>
        <time>2016-05-16T18:44:06.000Z</time>
      </trkpt>
      <trkpt lat="48.85539" lon="2.28823">
        <ele>35.200000762939</ele>
        <time>2016-05-16T18:44:10.000Z</time>
      </trkpt>
      <trkpt lat="48.85557" lon="2.28806">
        <ele>33.799999237061</ele>
        <time>2016-05-16T18:44:14.000Z</time>
      </trkpt>
      <trkpt lat="48.85576" lon="2.28787">
        <ele>33</ele>
        <time>2016-05-16T18:44:18.000Z</time>
      </trkpt>
      <trkpt lat="48.85591" lon="2.28769">
        <ele>33</ele>
        <time>2016-05-16T18:44:22.000Z</time>
      </trkpt>
      <trkpt lat="48.85605" lon="2.28751">
        <ele>33</ele>
        <time>2016-05-16T18:44:26.000Z</time>
      </trkpt>
      <trkpt lat="48.8562" lon="2.28732">
        <ele>32.400001525879</ele>
        <time>2016-05-16T18:44:30.000Z</time>
      </trkpt>
      <trkpt lat="48.85637" lon="2.28717">
        <ele>32</ele>
        <time>2016-05-16T18:44:34.000Z</time>
      </trkpt>
      <trkpt lat="48.85654" lon="2.28697">
        <ele>33.200000762939</ele>
        <time>2016-05-16T18:44:39.000Z</time>
      </trkpt>
      <trkpt lat="48.85659" lon="2.28689">
        <ele>35</ele>
        <time>2016-05-16T18:44:42.000Z</time>
      </trkpt>
      <trkpt lat="48.8566" lon="2.28685">
        <ele>35.599998474121</ele>
        <time>2016-05-16T18:44:44.000Z</time>
      </trkpt>
      <trkpt lat="48.85669" lon="2.28676">
        <ele>37.799999237061</ele>
        <time>2016-05-16T18:44:50.000Z</time>
      </trkpt>
      <trkpt lat="48.85672" lon="2.28671">
        <ele>39</ele>
        <time>2016-05-16T18:44:52.000Z</time>
      </trkpt>
      <trkpt lat="48.8567" lon="2.2866">
        <ele>39.799999237061</ele>
        <time>2016-05-16T18:44:58.000Z</time>
      </trkpt>
      <trkpt lat="48.85669" lon="2.28658">
        <ele>40</ele>
        <time>2016-05-16T18:45:01.000Z</time>
      </trkpt>
      <trkpt lat="48.85653" lon="2.2864">
        <ele>39.599998474121</ele>
        <time>2016-05-16T18:45:14.000Z</time>
      </trkpt>
      <trkpt lat="48.85638" lon="2.28622">
        <ele>39.200000762939</ele>
        <time>2016-05-16T18:45:21.000Z</time>
      </trkpt>
      <trkpt lat="48.85622" lon="2.28604">
        <ele>38.799999237061</ele>
        <time>2016-05-16T18:45:27.000Z</time>
      </trkpt>
      <trkpt lat="48.85606" lon="2.28585">
        <ele>38.599998474121</ele>
        <time>2016-05-16T18:45:33.000Z</time>
      </trkpt>
      <trkpt lat="48.85596" lon="2.2856">
        <ele>39.400001525879</ele>
        <time>2016-05-16T18:45:39.000Z</time>
      </trkpt>
      <trkpt lat="48.85596" lon="2.28559">
        <ele>39.400001525879</ele>
        <time>2016-05-16T18:45:40.000Z</time>
      </trkpt>
      <trkpt lat="48.85584" lon="2.28535">
        <ele>39.799999237061</ele>
        <time>2016-05-16T18:45:52.000Z</time>
      </trkpt>
      <trkpt lat="48.85573" lon="2.28512">
        <ele>40.200000762939</ele>
        <time>2016-05-16T18:45:57.000Z</time>
      </trkpt>
      <trkpt lat="48.85566" lon="2.28503">
        <ele>40.400001525879</ele>
        <time>2016-05-16T18:45:59.000Z</time>
      </trkpt>
      <trkpt lat="48.85552" lon="2.28483">
        <ele>41.400001525879</ele>
        <time>2016-05-16T18:46:03.000Z</time>
      </trkpt>
      <trkpt lat="48.85537" lon="2.28463">
        <ele>42.599998474121</ele>
        <time>2016-05-16T18:46:07.000Z</time>
      </trkpt>
      <trkpt lat="48.85522" lon="2.28444">
        <ele>43.599998474121</ele>
        <time>2016-05-16T18:46:11.000Z</time>
      </trkpt>
      <trkpt lat="48.85507" lon="2.28422">
        <ele>43.400001525879</ele>
        <time>2016-05-16T18:46:15.000Z</time>
      </trkpt>
      <trkpt lat="48.85494" lon="2.28402">
        <ele>42.599998474121</ele>
        <time>2016-05-16T18:46:19.000Z</time>
      </trkpt>
      <trkpt lat="48.85479" lon="2.28385">
        <ele>41.200000762939</ele>
        <time>2016-05-16T18:46:23.000Z</time>
      </trkpt>
      <trkpt lat="48.85472" lon="2.28377">
        <ele>40.599998474121</ele>
        <time>2016-05-16T18:46:25.000Z</time>
      </trkpt>
      <trkpt lat="48.85462" lon="2.28362">
        <ele>39.799999237061</ele>
        <time>2016-05-16T18:46:30.000Z</time>
      </trkpt>
      <trkpt lat="48.85449" lon="2.28343">
        <ele>38.799999237061</ele>
        <time>2016-05-16T18:46:35.000Z</time>
      </trkpt>
      <trkpt lat="48.85434" lon="2.28323">
        <ele>37.599998474121</ele>
        <time>2016-05-16T18:46:39.000Z</time>
      </trkpt>
      <trkpt lat="48.85418" lon="2.28303">
        <ele>36.200000762939</ele>
        <time>2016-05-16T18:46:43.000Z</time>
      </trkpt>
      <trkpt lat="48.85401" lon="2.28278">
        <ele>34.599998474121</ele>
        <time>2016-05-16T18:46:47.000Z</time>
      </trkpt>
      <trkpt lat="48.85387" lon="2.28258">
        <ele>33.400001525879</ele>
        <time>2016-05-16T18:46:50.000Z</time>
      </trkpt>
      <trkpt lat="48.85372" lon="2.28236">
        <ele>33.200000762939</ele>
        <time>2016-05-16T18:46:53.000Z</time>
      </trkpt>
      <trkpt lat="48.85357" lon="2.28213">
        <ele>34.599998474121</ele>
        <time>2016-05-16T18:46:56.000Z</time>
      </trkpt>
      <trkpt lat="48.85344" lon="2.28191">
        <ele>35.799999237061</ele>
        <time>2016-05-16T18:46:59.000Z</time>
      </trkpt>
      <trkpt lat="48.85332" lon="2.28169">
        <ele>36.599998474121</ele>
        <time>2016-05-16T18:47:02.000Z</time>
      </trkpt>
      <trkpt lat="48.85319" lon="2.28149">
        <ele>36.200000762939</ele>
        <time>2016-05-16T18:47:05.000Z</time>
      </trkpt>
      <trkpt lat="48.85305" lon="2.2812">
        <ele>35</ele>
        <time>2016-05-16T18:47:09.000Z</time>
      </trkpt>
      <trkpt lat="48.85292" lon="2.28091">
        <ele>34.799999237061</ele>
        <time>2016-05-16T18:47:13.000Z</time>
      </trkpt>
      <trkpt lat="48.85285" lon="2.28077">
        <ele>34.799999237061</ele>
        <time>2016-05-16T18:47:15.000Z</time>
      </trkpt>
      <trkpt lat="48.85271" lon="2.28049">
        <ele>33.799999237061</ele>
        <time>2016-05-16T18:47:19.000Z</time>
      </trkpt>
      <trkpt lat="48.85255" lon="2.28022">
        <ele>34.400001525879</ele>
        <time>2016-05-16T18:47:23.000Z</time>
      </trkpt>
      <trkpt lat="48.8524" lon="2.27996">
        <ele>35</ele>
        <time>2016-05-16T18:47:27.000Z</time>
      </trkpt>
      <trkpt lat="48.85232" lon="2.27986">
        <ele>35</ele>
        <time>2016-05-16T18:47:29.000Z</time>
      </trkpt>
      <trkpt lat="48.85215" lon="2.27961">
        <ele>35.200000762939</ele>
        <time>2016-05-16T18:47:33.000Z</time>
      </trkpt>
      <trkpt lat="48.85203" lon="2.27943">
        <ele>35.400001525879</ele>
        <time>2016-05-16T18:47:36.000Z</time>
      </trkpt>
      <trkpt lat="48.85187" lon="2.27916">
        <ele>35.799999237061</ele>
        <time>2016-05-16T18:47:40.000Z</time>
      </trkpt>
      <trkpt lat="48.85176" lon="2.27893">
        <ele>36.200000762939</ele>
        <time>2016-05-16T18:47:44.000Z</time>
      </trkpt>
      <trkpt lat="48.85174" lon="2.27889">
        <ele>36.200000762939</ele>
        <time>2016-05-16T18:47:45.000Z</time>
      </trkpt>
      <trkpt lat="48.85162" lon="2.27867">
        <ele>36.599998474121</ele>
        <time>2016-05-16T18:47:50.000Z</time>
      </trkpt>
      <trkpt lat="48.8516" lon="2.27862">
        <ele>36.599998474121</ele>
        <time>2016-05-16T18:47:51.000Z</time>
      </trkpt>
      <trkpt lat="48.85149" lon="2.27849">
        <ele>36.799999237061</ele>
        <time>2016-05-16T18:48:42.000Z</time>
      </trkpt>
      <trkpt lat="48.8514" lon="2.27837">
        <ele>37</ele>
        <time>2016-05-16T18:48:49.000Z</time>
      </trkpt>
      <trkpt lat="48.85131" lon="2.27827">
        <ele>37</ele>
        <time>2016-05-16T18:48:55.000Z</time>
      </trkpt>
      <trkpt lat="48.85115" lon="2.27809">
        <ele>37</ele>
        <time>2016-05-16T18:49:07.000Z</time>
      </trkpt>
      <trkpt lat="48.851" lon="2.27789">
        <ele>37</ele>
        <time>2016-05-16T18:49:12.000Z</time>
      </trkpt>
      <trkpt lat="48.85086" lon="2.27767">
        <ele>37</ele>
        <time>2016-05-16T18:49:16.000Z</time>
      </trkpt>
      <trkpt lat="48.85073" lon="2.27743">
        <ele>37.200000762939</ele>
        <time>2016-05-16T18:49:20.000Z</time>
      </trkpt>
      <trkpt lat="48.85059" lon="2.27725">
        <ele>38.799999237061</ele>
        <time>2016-05-16T18:49:24.000Z</time>
      </trkpt>
      <trkpt lat="48.85043" lon="2.27702">
        <ele>40.599998474121</ele>
        <time>2016-05-16T18:49:29.000Z</time>
      </trkpt>
      <trkpt lat="48.85031" lon="2.27681">
        <ele>42.400001525879</ele>
        <time>2016-05-16T18:49:33.000Z</time>
      </trkpt>
      <trkpt lat="48.85016" lon="2.2766">
        <ele>44.200000762939</ele>
        <time>2016-05-16T18:49:37.000Z</time>
      </trkpt>
      <trkpt lat="48.85" lon="2.27643">
        <ele>45</ele>
        <time>2016-05-16T18:49:41.000Z</time>
      </trkpt>
      <trkpt lat="48.84982" lon="2.27624">
        <ele>45.799999237061</ele>
        <time>2016-05-16T18:49:45.000Z</time>
      </trkpt>
      <trkpt lat="48.84966" lon="2.27605">
        <ele>46.799999237061</ele>
        <time>2016-05-16T18:49:49.000Z</time>
      </trkpt>
      <trkpt lat="48.84948" lon="2.27587">
        <ele>47.599998474121</ele>
        <time>2016-05-16T18:49:53.000Z</time>
      </trkpt>
      <trkpt lat="48.84929" lon="2.27565">
        <ele>47.599998474121</ele>
        <time>2016-05-16T18:49:57.000Z</time>
      </trkpt>
      <trkpt lat="48.8491" lon="2.27545">
        <ele>47.200000762939</ele>
        <time>2016-05-16T18:50:01.000Z</time>
      </trkpt>
      <trkpt lat="48.84891" lon="2.27525">
        <ele>46.599998474121</ele>
        <time>2016-05-16T18:50:05.000Z</time>
      </trkpt>
      <trkpt lat="48.84876" lon="2.27507">
        <ele>46.200000762939</ele>
        <time>2016-05-16T18:50:08.000Z</time>
      </trkpt>
      <trkpt lat="48.84859" lon="2.27486">
        <ele>45.599998474121</ele>
        <time>2016-05-16T18:50:12.000Z</time>
      </trkpt>
      <trkpt lat="48.84841" lon="2.27469">
        <ele>44.799999237061</ele>
        <time>2016-05-16T18:50:16.000Z</time>
      </trkpt>
      <trkpt lat="48.84825" lon="2.27452">
        <ele>44</ele>
        <time>2016-05-16T18:50:20.000Z</time>
      </trkpt>
      <trkpt lat="48.84821" lon="2.27447">
        <ele>43.799999237061</ele>
        <time>2016-05-16T18:50:21.000Z</time>
      </trkpt>
      <trkpt lat="48.84806" lon="2.2743">
        <ele>43</ele>
        <time>2016-05-16T18:50:25.000Z</time>
      </trkpt>
      <trkpt lat="48.84798" lon="2.27421">
        <ele>42.599998474121</ele>
        <time>2016-05-16T18:50:27.000Z</time>
      </trkpt>
      <trkpt lat="48.84779" lon="2.27403">
        <ele>42.400001525879</ele>
        <time>2016-05-16T18:50:32.000Z</time>
      </trkpt>
      <trkpt lat="48.84764" lon="2.27388">
        <ele>42.400001525879</ele>
        <time>2016-05-16T18:50:37.000Z</time>
      </trkpt>
      <trkpt lat="48.84754" lon="2.27377">
        <ele>42.200000762939</ele>
        <time>2016-05-16T18:50:41.000Z</time>
      </trkpt>
      <trkpt lat="48.8475" lon="2.27367">
        <ele>42.200000762939</ele>
        <time>2016-05-16T18:50:44.000Z</time>
      </trkpt>
      <trkpt lat="48.84739" lon="2.27366">
        <ele>41.599998474121</ele>
        <time>2016-05-16T18:50:49.000Z</time>
      </trkpt>
      <trkpt lat="48.84734" lon="2.27367">
        <ele>41.400001525879</ele>
        <time>2016-05-16T18:50:52.000Z</time>
      </trkpt>
      <trkpt lat="48.84732" lon="2.27352">
        <ele>41.799999237061</ele>
        <time>2016-05-16T18:51:33.000Z</time>
      </trkpt>
      <trkpt lat="48.84713" lon="2.27334">
        <ele>41.200000762939</ele>
        <time>2016-05-16T18:51:38.000Z</time>
      </trkpt>
      <trkpt lat="48.84693" lon="2.27314">
        <ele>41.200000762939</ele>
        <time>2016-05-16T18:51:42.000Z</time>
      </trkpt>
      <trkpt lat="48.84672" lon="2.273">
        <ele>40</ele>
        <time>2016-05-16T18:51:45.000Z</time>
      </trkpt>
      <trkpt lat="48.84653" lon="2.27285">
        <ele>38.799999237061</ele>
        <time>2016-05-16T18:51:48.000Z</time>
      </trkpt>
      <trkpt lat="48.84637" lon="2.27269">
        <ele>38</ele>
        <time>2016-05-16T18:51:51.000Z</time>
      </trkpt>
      <trkpt lat="48.8462" lon="2.27253">
        <ele>37</ele>
        <time>2016-05-16T18:51:54.000Z</time>
      </trkpt>
      <trkpt lat="48.84603" lon="2.27236">
        <ele>37</ele>
        <time>2016-05-16T18:51:57.000Z</time>
      </trkpt>
      <trkpt lat="48.84587" lon="2.27218">
        <ele>38.400001525879</ele>
        <time>2016-05-16T18:52:00.000Z</time>
      </trkpt>
      <trkpt lat="48.8457" lon="2.27197">
        <ele>40</ele>
        <time>2016-05-16T18:52:03.000Z</time>
      </trkpt>
      <trkpt lat="48.84553" lon="2.2718">
        <ele>41.400001525879</ele>
        <time>2016-05-16T18:52:06.000Z</time>
      </trkpt>
      <trkpt lat="48.84538" lon="2.27163">
        <ele>42.599998474121</ele>
        <time>2016-05-16T18:52:09.000Z</time>
      </trkpt>
      <trkpt lat="48.84521" lon="2.27145">
        <ele>41.599998474121</ele>
        <time>2016-05-16T18:52:12.000Z</time>
      </trkpt>
      <trkpt lat="48.84503" lon="2.27126">
        <ele>42.599998474121</ele>
        <time>2016-05-16T18:52:15.000Z</time>
      </trkpt>
      <trkpt lat="48.84485" lon="2.27108">
        <ele>43.400001525879</ele>
        <time>2016-05-16T18:52:18.000Z</time>
      </trkpt>
      <trkpt lat="48.84467" lon="2.27091">
        <ele>44.200000762939</ele>
        <time>2016-05-16T18:52:21.000Z</time>
      </trkpt>
      <trkpt lat="48.84449" lon="2.27069">
        <ele>45.200000762939</ele>
        <time>2016-05-16T18:52:24.000Z</time>
      </trkpt>
      <trkpt lat="48.8443" lon="2.27045">
        <ele>45.799999237061</ele>
        <time>2016-05-16T18:52:27.000Z</time>
      </trkpt>
      <trkpt lat="48.84411" lon="2.27019">
        <ele>46</ele>
        <time>2016-05-16T18:52:30.000Z</time>
      </trkpt>
      <trkpt lat="48.84398" lon="2.27005">
        <ele>46</ele>
        <time>2016-05-16T18:52:32.000Z</time>
      </trkpt>
      <trkpt lat="48.84378" lon="2.26986">
        <ele>46.200000762939</ele>
        <time>2016-05-16T18:52:35.000Z</time>
      </trkpt>
      <trkpt lat="48.84358" lon="2.26965">
        <ele>45.799999237061</ele>
        <time>2016-05-16T18:52:38.000Z</time>
      </trkpt>
      <trkpt lat="48.84337" lon="2.26949">
        <ele>45.400001525879</ele>
        <time>2016-05-16T18:52:41.000Z</time>
      </trkpt>
      <trkpt lat="48.84315" lon="2.26931">
        <ele>44.599998474121</ele>
        <time>2016-05-16T18:52:44.000Z</time>
      </trkpt>
      <trkpt lat="48.84294" lon="2.26909">
        <ele>44</ele>
        <time>2016-05-16T18:52:47.000Z</time>
      </trkpt>
      <trkpt lat="48.84275" lon="2.26883">
        <ele>44.400001525879</ele>
        <time>2016-05-16T18:52:50.000Z</time>
      </trkpt>
      <trkpt lat="48.84258" lon="2.26858">
        <ele>43.400001525879</ele>
        <time>2016-05-16T18:52:53.000Z</time>
      </trkpt>
      <trkpt lat="48.84242" lon="2.2683">
        <ele>42.400001525879</ele>
        <time>2016-05-16T18:52:56.000Z</time>
      </trkpt>
      <trkpt lat="48.84228" lon="2.26804">
        <ele>42.799999237061</ele>
        <time>2016-05-16T18:52:59.000Z</time>
      </trkpt>
      <trkpt lat="48.84214" lon="2.26779">
        <ele>43.200000762939</ele>
        <time>2016-05-16T18:53:02.000Z</time>
      </trkpt>
      <trkpt lat="48.84202" lon="2.26755">
        <ele>43</ele>
        <time>2016-05-16T18:53:05.000Z</time>
      </trkpt>
      <trkpt lat="48.84191" lon="2.2673">
        <ele>43.400001525879</ele>
        <time>2016-05-16T18:53:08.000Z</time>
      </trkpt>
      <trkpt lat="48.84177" lon="2.26701">
        <ele>44</ele>
        <time>2016-05-16T18:53:12.000Z</time>
      </trkpt>
      <trkpt lat="48.84166" lon="2.26675">
        <ele>44.400001525879</ele>
        <time>2016-05-16T18:53:16.000Z</time>
      </trkpt>
      <trkpt lat="48.84153" lon="2.26653">
        <ele>44.599998474121</ele>
        <time>2016-05-16T18:53:20.000Z</time>
      </trkpt>
      <trkpt lat="48.8414" lon="2.26627">
        <ele>44.799999237061</ele>
        <time>2016-05-16T18:53:25.000Z</time>
      </trkpt>
      <trkpt lat="48.84133" lon="2.26605">
        <ele>45</ele>
        <time>2016-05-16T18:53:30.000Z</time>
      </trkpt>
      <trkpt lat="48.84119" lon="2.26584">
        <ele>44.799999237061</ele>
        <time>2016-05-16T18:53:37.000Z</time>
      </trkpt>
      <trkpt lat="48.84113" lon="2.26577">
        <ele>45</ele>
        <time>2016-05-16T18:53:40.000Z</time>
      </trkpt>
      <trkpt lat="48.84107" lon="2.2657">
        <ele>45</ele>
        <time>2016-05-16T18:53:43.000Z</time>
      </trkpt>
      <trkpt lat="48.841" lon="2.26561">
        <ele>45.200000762939</ele>
        <time>2016-05-16T18:53:49.000Z</time>
      </trkpt>
      <trkpt lat="48.84096" lon="2.26557">
        <ele>45.400001525879</ele>
        <time>2016-05-16T18:53:52.000Z</time>
      </trkpt>
      <trkpt lat="48.84094" lon="2.26557">
        <ele>45.599998474121</ele>
        <time>2016-05-16T18:53:56.000Z</time>
      </trkpt>
      <trkpt lat="48.841" lon="2.26545">
        <ele>45.200000762939</ele>
        <time>2016-05-16T18:54:41.000Z</time>
      </trkpt>
      <trkpt lat="48.84103" lon="2.26533">
        <ele>45.200000762939</ele>
        <time>2016-05-16T18:55:49.000Z</time>
      </trkpt>
      <trkpt lat="48.84097" lon="2.26522">
        <ele>45.400001525879</ele>
        <time>2016-05-16T18:56:35.000Z</time>
      </trkpt>
      <trkpt lat="48.84082" lon="2.26502">
        <ele>46.200000762939</ele>
        <time>2016-05-16T18:56:41.000Z</time>
      </trkpt>
      <trkpt lat="48.84068" lon="2.26483">
        <ele>46.200000762939</ele>
        <time>2016-05-16T18:56:47.000Z</time>
      </trkpt>
      <trkpt lat="48.84054" lon="2.26463">
        <ele>45.799999237061</ele>
        <time>2016-05-16T18:56:54.000Z</time>
      </trkpt>
      <trkpt lat="48.84042" lon="2.26439">
        <ele>45.400001525879</ele>
        <time>2016-05-16T18:57:02.000Z</time>
      </trkpt>
      <trkpt lat="48.8403" lon="2.26412">
        <ele>45.400001525879</ele>
        <time>2016-05-16T18:57:10.000Z</time>
      </trkpt>
      <trkpt lat="48.84018" lon="2.26391">
        <ele>44.799999237061</ele>
        <time>2016-05-16T18:57:16.000Z</time>
      </trkpt>
      <trkpt lat="48.84006" lon="2.26367">
        <ele>44.799999237061</ele>
        <time>2016-05-16T18:57:22.000Z</time>
      </trkpt>
      <trkpt lat="48.83993" lon="2.26347">
        <ele>45</ele>
        <time>2016-05-16T18:57:27.000Z</time>
      </trkpt>
      <trkpt lat="48.83982" lon="2.26322">
        <ele>45</ele>
        <time>2016-05-16T18:57:32.000Z</time>
      </trkpt>
      <trkpt lat="48.83972" lon="2.26296">
        <ele>45.599998474121</ele>
        <time>2016-05-16T18:57:37.000Z</time>
      </trkpt>
      <trkpt lat="48.83961" lon="2.26267">
        <ele>46.200000762939</ele>
        <time>2016-05-16T18:57:42.000Z</time>
      </trkpt>
      <trkpt lat="48.83951" lon="2.26243">
        <ele>47</ele>
        <time>2016-05-16T18:57:46.000Z</time>
      </trkpt>
      <trkpt lat="48.83942" lon="2.2622">
        <ele>46</ele>
        <time>2016-05-16T18:57:50.000Z</time>
      </trkpt>
      <trkpt lat="48.83933" lon="2.26195">
        <ele>45.200000762939</ele>
        <time>2016-05-16T18:57:54.000Z</time>
      </trkpt>
      <trkpt lat="48.83929" lon="2.26181">
        <ele>44.599998474121</ele>
        <time>2016-05-16T18:57:56.000Z</time>
      </trkpt>
      <trkpt lat="48.83921" lon="2.26148">
        <ele>44.200000762939</ele>
        <time>2016-05-16T18:58:00.000Z</time>
      </trkpt>
      <trkpt lat="48.83911" lon="2.26118">
        <ele>45</ele>
        <time>2016-05-16T18:58:04.000Z</time>
      </trkpt>
      <trkpt lat="48.83901" lon="2.26088">
        <ele>45.799999237061</ele>
        <time>2016-05-16T18:58:08.000Z</time>
      </trkpt>
      <trkpt lat="48.83892" lon="2.26058">
        <ele>45.799999237061</ele>
        <time>2016-05-16T18:58:12.000Z</time>
      </trkpt>
      <trkpt lat="48.83884" lon="2.26026">
        <ele>45.400001525879</ele>
        <time>2016-05-16T18:58:16.000Z</time>
      </trkpt>
      <trkpt lat="48.83876" lon="2.25995">
        <ele>45</ele>
        <time>2016-05-16T18:58:20.000Z</time>
      </trkpt>
      <trkpt lat="48.83868" lon="2.25966">
        <ele>44</ele>
        <time>2016-05-16T18:58:24.000Z</time>
      </trkpt>
      <trkpt lat="48.83859" lon="2.25938">
        <ele>43</ele>
        <time>2016-05-16T18:58:28.000Z</time>
      </trkpt>
      <trkpt lat="48.83851" lon="2.2591">
        <ele>42.200000762939</ele>
        <time>2016-05-16T18:58:32.000Z</time>
      </trkpt>
      <trkpt lat="48.83843" lon="2.25884">
        <ele>42.400001525879</ele>
        <time>2016-05-16T18:58:36.000Z</time>
      </trkpt>
      <trkpt lat="48.83834" lon="2.25859">
        <ele>42.599998474121</ele>
        <time>2016-05-16T18:58:40.000Z</time>
      </trkpt>
      <trkpt lat="48.83826" lon="2.25832">
        <ele>42.799999237061</ele>
        <time>2016-05-16T18:58:44.000Z</time>
      </trkpt>
      <trkpt lat="48.83821" lon="2.2581">
        <ele>41.599998474121</ele>
        <time>2016-05-16T18:58:47.000Z</time>
      </trkpt>
      <trkpt lat="48.8382" lon="2.25792">
        <ele>40.599998474121</ele>
        <time>2016-05-16T18:58:50.000Z</time>
      </trkpt>
      <trkpt lat="48.8382" lon="2.25778">
        <ele>40.400001525879</ele>
        <time>2016-05-16T18:58:53.000Z</time>
      </trkpt>
      <trkpt lat="48.83823" lon="2.25763">
        <ele>40</ele>
        <time>2016-05-16T18:58:56.000Z</time>
      </trkpt>
      <trkpt lat="48.83829" lon="2.25738">
        <ele>39.400001525879</ele>
        <time>2016-05-16T18:59:19.000Z</time>
      </trkpt>
      <trkpt lat="48.83838" lon="2.25713">
        <ele>39.400001525879</ele>
        <time>2016-05-16T18:59:25.000Z</time>
      </trkpt>
      <trkpt lat="48.83841" lon="2.25685">
        <ele>39.799999237061</ele>
        <time>2016-05-16T18:59:30.000Z</time>
      </trkpt>
      <trkpt lat="48.83837" lon="2.25657">
        <ele>39.799999237061</ele>
        <time>2016-05-16T18:59:34.000Z</time>
      </trkpt>
      <trkpt lat="48.83834" lon="2.25627">
        <ele>39.599998474121</ele>
        <time>2016-05-16T18:59:38.000Z</time>
      </trkpt>
      <trkpt lat="48.83835" lon="2.25597">
        <ele>39.799999237061</ele>
        <time>2016-05-16T18:59:43.000Z</time>
      </trkpt>
      <trkpt lat="48.8384" lon="2.25569">
        <ele>40.200000762939</ele>
        <time>2016-05-16T18:59:48.000Z</time>
      </trkpt>
      <trkpt lat="48.83849" lon="2.25539">
        <ele>39.799999237061</ele>
        <time>2016-05-16T18:59:53.000Z</time>
      </trkpt>
      <trkpt lat="48.83859" lon="2.25512">
        <ele>39.599998474121</ele>
        <time>2016-05-16T18:59:58.000Z</time>
      </trkpt>
      <trkpt lat="48.83866" lon="2.25485">
        <ele>39.599998474121</ele>
        <time>2016-05-16T19:00:03.000Z</time>
      </trkpt>
      <trkpt lat="48.83871" lon="2.25457">
        <ele>39.400001525879</ele>
        <time>2016-05-16T19:00:08.000Z</time>
      </trkpt>
      <trkpt lat="48.83875" lon="2.25427">
        <ele>39.200000762939</ele>
        <time>2016-05-16T19:00:14.000Z</time>
      </trkpt>
      <trkpt lat="48.83879" lon="2.254">
        <ele>39.599998474121</ele>
        <time>2016-05-16T19:00:24.000Z</time>
      </trkpt>
      <trkpt lat="48.83871" lon="2.25379">
        <ele>39.799999237061</ele>
        <time>2016-05-16T19:01:01.000Z</time>
      </trkpt>
      <trkpt lat="48.83866" lon="2.25353">
        <ele>40</ele>
        <time>2016-05-16T19:01:06.000Z</time>
      </trkpt>
      <trkpt lat="48.83864" lon="2.25324">
        <ele>40.200000762939</ele>
        <time>2016-05-16T19:01:11.000Z</time>
      </trkpt>
      <trkpt lat="48.83863" lon="2.25294">
        <ele>39.799999237061</ele>
        <time>2016-05-16T19:01:17.000Z</time>
      </trkpt>
      <trkpt lat="48.83865" lon="2.25265">
        <ele>39.599998474121</ele>
        <time>2016-05-16T19:01:23.000Z</time>
      </trkpt>
      <trkpt lat="48.83868" lon="2.25235">
        <ele>39.799999237061</ele>
        <time>2016-05-16T19:01:29.000Z</time>
      </trkpt>
      <trkpt lat="48.83872" lon="2.25207">
        <ele>40.599998474121</ele>
        <time>2016-05-16T19:01:34.000Z</time>
      </trkpt>
      <trkpt lat="48.83875" lon="2.25176">
        <ele>41.400001525879</ele>
        <time>2016-05-16T19:01:40.000Z</time>
      </trkpt>
      <trkpt lat="48.83877" lon="2.25147">
        <ele>42.400001525879</ele>
        <time>2016-05-16T19:01:45.000Z</time>
      </trkpt>
      <trkpt lat="48.83878" lon="2.25116">
        <ele>43.200000762939</ele>
        <time>2016-05-16T19:01:50.000Z</time>
      </trkpt>
      <trkpt lat="48.83879" lon="2.25086">
        <ele>44</ele>
        <time>2016-05-16T19:01:55.000Z</time>
      </trkpt>
      <trkpt lat="48.8388" lon="2.25053">
        <ele>44.400001525879</ele>
        <time>2016-05-16T19:02:00.000Z</time>
      </trkpt>
      <trkpt lat="48.83881" lon="2.25019">
        <ele>44.799999237061</ele>
        <time>2016-05-16T19:02:05.000Z</time>
      </trkpt>
      <trkpt lat="48.83882" lon="2.24988">
        <ele>43.799999237061</ele>
        <time>2016-05-16T19:02:09.000Z</time>
      </trkpt>
      <trkpt lat="48.83885" lon="2.24956">
        <ele>43</ele>
        <time>2016-05-16T19:02:13.000Z</time>
      </trkpt>
      <trkpt lat="48.83888" lon="2.24921">
        <ele>42.400001525879</ele>
        <time>2016-05-16T19:02:17.000Z</time>
      </trkpt>
      <trkpt lat="48.83892" lon="2.24892">
        <ele>42</ele>
        <time>2016-05-16T19:02:20.000Z</time>
      </trkpt>
      <trkpt lat="48.83893" lon="2.24882">
        <ele>41.799999237061</ele>
        <time>2016-05-16T19:02:21.000Z</time>
      </trkpt>
      <trkpt lat="48.83896" lon="2.24853">
        <ele>41.599998474121</ele>
        <time>2016-05-16T19:02:24.000Z</time>
      </trkpt>
      <trkpt lat="48.83898" lon="2.24826">
        <ele>42</ele>
        <time>2016-05-16T19:02:27.000Z</time>
      </trkpt>
      <trkpt lat="48.839" lon="2.24798">
        <ele>42.400001525879</ele>
        <time>2016-05-16T19:02:30.000Z</time>
      </trkpt>
      <trkpt lat="48.83903" lon="2.24771">
        <ele>42.599998474121</ele>
        <time>2016-05-16T19:02:33.000Z</time>
      </trkpt>
      <trkpt lat="48.83907" lon="2.24736">
        <ele>43</ele>
        <time>2016-05-16T19:02:37.000Z</time>
      </trkpt>
      <trkpt lat="48.83911" lon="2.24706">
        <ele>43.200000762939</ele>
        <time>2016-05-16T19:02:41.000Z</time>
      </trkpt>
      <trkpt lat="48.83909" lon="2.24693">
        <ele>43</ele>
        <time>2016-05-16T19:02:45.000Z</time>
      </trkpt>
      <trkpt lat="48.83915" lon="2.24666">
        <ele>42.799999237061</ele>
        <time>2016-05-16T19:02:57.000Z</time>
      </trkpt>
      <trkpt lat="48.83918" lon="2.24636">
        <ele>42.200000762939</ele>
        <time>2016-05-16T19:03:01.000Z</time>
      </trkpt>
      <trkpt lat="48.8392" lon="2.24604">
        <ele>41.400001525879</ele>
        <time>2016-05-16T19:03:05.000Z</time>
      </trkpt>
      <trkpt lat="48.83922" lon="2.2457">
        <ele>40.599998474121</ele>
        <time>2016-05-16T19:03:09.000Z</time>
      </trkpt>
      <trkpt lat="48.83923" lon="2.24536">
        <ele>40.200000762939</ele>
        <time>2016-05-16T19:03:13.000Z</time>
      </trkpt>
      <trkpt lat="48.83927" lon="2.24504">
        <ele>39.799999237061</ele>
        <time>2016-05-16T19:03:17.000Z</time>
      </trkpt>
      <trkpt lat="48.83933" lon="2.24471">
        <ele>40</ele>
        <time>2016-05-16T19:03:21.000Z</time>
      </trkpt>
      <trkpt lat="48.83938" lon="2.2444">
        <ele>40</ele>
        <time>2016-05-16T19:03:25.000Z</time>
      </trkpt>
      <trkpt lat="48.8394" lon="2.24408">
        <ele>40</ele>
        <time>2016-05-16T19:03:29.000Z</time>
      </trkpt>
      <trkpt lat="48.83944" lon="2.24375">
        <ele>40.599998474121</ele>
        <time>2016-05-16T19:03:33.000Z</time>
      </trkpt>
      <trkpt lat="48.83948" lon="2.24341">
        <ele>41.200000762939</ele>
        <time>2016-05-16T19:03:37.000Z</time>
      </trkpt>
      <trkpt lat="48.83949" lon="2.24306">
        <ele>41.400001525879</ele>
        <time>2016-05-16T19:03:41.000Z</time>
      </trkpt>
      <trkpt lat="48.83953" lon="2.24278">
        <ele>41.400001525879</ele>
        <time>2016-05-16T19:03:44.000Z</time>
      </trkpt>
      <trkpt lat="48.83955" lon="2.24242">
        <ele>41.400001525879</ele>
        <time>2016-05-16T19:03:48.000Z</time>
      </trkpt>
      <trkpt lat="48.83957" lon="2.24215">
        <ele>42.400001525879</ele>
        <time>2016-05-16T19:03:51.000Z</time>
      </trkpt>
      <trkpt lat="48.83958" lon="2.24187">
        <ele>43.400001525879</ele>
        <time>2016-05-16T19:03:54.000Z</time>
      </trkpt>
      <trkpt lat="48.83959" lon="2.24157">
        <ele>43.400001525879</ele>
        <time>2016-05-16T19:03:57.000Z</time>
      </trkpt>
      <trkpt lat="48.83962" lon="2.24127">
        <ele>42.599998474121</ele>
        <time>2016-05-16T19:04:00.000Z</time>
      </trkpt>
      <trkpt lat="48.83965" lon="2.24098">
        <ele>42</ele>
        <time>2016-05-16T19:04:03.000Z</time>
      </trkpt>
      <trkpt lat="48.83969" lon="2.24071">
        <ele>42</ele>
        <time>2016-05-16T19:04:06.000Z</time>
      </trkpt>
      <trkpt lat="48.83974" lon="2.24041">
        <ele>41.599998474121</ele>
        <time>2016-05-16T19:04:11.000Z</time>
      </trkpt>
      <trkpt lat="48.83979" lon="2.24016">
        <ele>41.200000762939</ele>
        <time>2016-05-16T19:04:17.000Z</time>
      </trkpt>
      <trkpt lat="48.83984" lon="2.23986">
        <ele>40.799999237061</ele>
        <time>2016-05-16T19:04:23.000Z</time>
      </trkpt>
      <trkpt lat="48.83986" lon="2.23967">
        <ele>40.599998474121</ele>
        <time>2016-05-16T19:04:26.000Z</time>
      </trkpt>
      <trkpt lat="48.83989" lon="2.23933">
        <ele>39.599998474121</ele>
        <time>2016-05-16T19:04:31.000Z</time>
      </trkpt>
      <trkpt lat="48.83991" lon="2.23901">
        <ele>38.799999237061</ele>
        <time>2016-05-16T19:04:35.000Z</time>
      </trkpt>
      <trkpt lat="48.83994" lon="2.23867">
        <ele>38.799999237061</ele>
        <time>2016-05-16T19:04:39.000Z</time>
      </trkpt>
      <trkpt lat="48.83996" lon="2.2383">
        <ele>38.200000762939</ele>
        <time>2016-05-16T19:04:43.000Z</time>
      </trkpt>
      <trkpt lat="48.83998" lon="2.23801">
        <ele>37.599998474121</ele>
        <time>2016-05-16T19:04:46.000Z</time>
      </trkpt>
      <trkpt lat="48.84001" lon="2.23771">
        <ele>38</ele>
        <time>2016-05-16T19:04:49.000Z</time>
      </trkpt>
      <trkpt lat="48.84003" lon="2.23741">
        <ele>38.200000762939</ele>
        <time>2016-05-16T19:04:52.000Z</time>
      </trkpt>
      <trkpt lat="48.84004" lon="2.23713">
        <ele>38</ele>
        <time>2016-05-16T19:04:55.000Z</time>
      </trkpt>
      <trkpt lat="48.84006" lon="2.23684">
        <ele>37.599998474121</ele>
        <time>2016-05-16T19:04:58.000Z</time>
      </trkpt>
      <trkpt lat="48.84009" lon="2.23655">
        <ele>37</ele>
        <time>2016-05-16T19:05:01.000Z</time>
      </trkpt>
      <trkpt lat="48.84011" lon="2.23627">
        <ele>36</ele>
        <time>2016-05-16T19:05:04.000Z</time>
      </trkpt>
      <trkpt lat="48.84013" lon="2.23597">
        <ele>34.799999237061</ele>
        <time>2016-05-16T19:05:07.000Z</time>
      </trkpt>
      <trkpt lat="48.84014" lon="2.23568">
        <ele>34.200000762939</ele>
        <time>2016-05-16T19:05:10.000Z</time>
      </trkpt>
      <trkpt lat="48.84016" lon="2.23539">
        <ele>34.400001525879</ele>
        <time>2016-05-16T19:05:13.000Z</time>
      </trkpt>
      <trkpt lat="48.84019" lon="2.23509">
        <ele>34.799999237061</ele>
        <time>2016-05-16T19:05:16.000Z</time>
      </trkpt>
      <trkpt lat="48.84022" lon="2.23478">
        <ele>35.599998474121</ele>
        <time>2016-05-16T19:05:19.000Z</time>
      </trkpt>
      <trkpt lat="48.84024" lon="2.2345">
        <ele>36.799999237061</ele>
        <time>2016-05-16T19:05:22.000Z</time>
      </trkpt>
      <trkpt lat="48.84028" lon="2.2342">
        <ele>38</ele>
        <time>2016-05-16T19:05:25.000Z</time>
      </trkpt>
      <trkpt lat="48.84031" lon="2.2339">
        <ele>38.400001525879</ele>
        <time>2016-05-16T19:05:28.000Z</time>
      </trkpt>
      <trkpt lat="48.84033" lon="2.2336">
        <ele>38.799999237061</ele>
        <time>2016-05-16T19:05:31.000Z</time>
      </trkpt>
      <trkpt lat="48.84035" lon="2.23331">
        <ele>39.200000762939</ele>
        <time>2016-05-16T19:05:34.000Z</time>
      </trkpt>
      <trkpt lat="48.84037" lon="2.23302">
        <ele>38.599998474121</ele>
        <time>2016-05-16T19:05:37.000Z</time>
      </trkpt>
      <trkpt lat="48.84038" lon="2.23274">
        <ele>37.799999237061</ele>
        <time>2016-05-16T19:05:40.000Z</time>
      </trkpt>
      <trkpt lat="48.84039" lon="2.23245">
        <ele>37.400001525879</ele>
        <time>2016-05-16T19:05:43.000Z</time>
      </trkpt>
      <trkpt lat="48.84044" lon="2.23218">
        <ele>36.599998474121</ele>
        <time>2016-05-16T19:05:46.000Z</time>
      </trkpt>
      <trkpt lat="48.84048" lon="2.23184">
        <ele>35.400001525879</ele>
        <time>2016-05-16T19:05:50.000Z</time>
      </trkpt>
      <trkpt lat="48.84052" lon="2.23153">
        <ele>34.200000762939</ele>
        <time>2016-05-16T19:05:54.000Z</time>
      </trkpt>
      <trkpt lat="48.84055" lon="2.23124">
        <ele>35</ele>
        <time>2016-05-16T19:05:58.000Z</time>
      </trkpt>
      <trkpt lat="48.84058" lon="2.23092">
        <ele>34.799999237061</ele>
        <time>2016-05-16T19:06:02.000Z</time>
      </trkpt>
      <trkpt lat="48.84062" lon="2.23061">
        <ele>35.200000762939</ele>
        <time>2016-05-16T19:06:06.000Z</time>
      </trkpt>
      <trkpt lat="48.84064" lon="2.23045">
        <ele>35.799999237061</ele>
        <time>2016-05-16T19:06:08.000Z</time>
      </trkpt>
      <trkpt lat="48.84066" lon="2.23024">
        <ele>35.799999237061</ele>
        <time>2016-05-16T19:06:11.000Z</time>
      </trkpt>
      <trkpt lat="48.84069" lon="2.22997">
        <ele>35</ele>
        <time>2016-05-16T19:06:15.000Z</time>
      </trkpt>
      <trkpt lat="48.84072" lon="2.22965">
        <ele>34.400001525879</ele>
        <time>2016-05-16T19:06:20.000Z</time>
      </trkpt>
      <trkpt lat="48.84076" lon="2.22934">
        <ele>34.200000762939</ele>
        <time>2016-05-16T19:06:25.000Z</time>
      </trkpt>
      <trkpt lat="48.84079" lon="2.22919">
        <ele>34</ele>
        <time>2016-05-16T19:06:28.000Z</time>
      </trkpt>
      <trkpt lat="48.84087" lon="2.2291">
        <ele>33.200000762939</ele>
        <time>2016-05-16T19:06:32.000Z</time>
      </trkpt>
      <trkpt lat="48.84089" lon="2.22908">
        <ele>33.200000762939</ele>
        <time>2016-05-16T19:06:33.000Z</time>
      </trkpt>
      <trkpt lat="48.84098" lon="2.22888">
        <ele>32.799999237061</ele>
        <time>2016-05-16T19:07:23.000Z</time>
      </trkpt>
      <trkpt lat="48.84101" lon="2.22863">
        <ele>33.200000762939</ele>
        <time>2016-05-16T19:07:55.000Z</time>
      </trkpt>
      <trkpt lat="48.84101" lon="2.22832">
        <ele>34</ele>
        <time>2016-05-16T19:08:02.000Z</time>
      </trkpt>
      <trkpt lat="48.84096" lon="2.22805">
        <ele>34.400001525879</ele>
        <time>2016-05-16T19:08:08.000Z</time>
      </trkpt>
      <trkpt lat="48.84096" lon="2.22773">
        <ele>34.799999237061</ele>
        <time>2016-05-16T19:08:14.000Z</time>
      </trkpt>
      <trkpt lat="48.84101" lon="2.22743">
        <ele>35.200000762939</ele>
        <time>2016-05-16T19:08:20.000Z</time>
      </trkpt>
      <trkpt lat="48.84102" lon="2.22715">
        <ele>34.799999237061</ele>
        <time>2016-05-16T19:08:26.000Z</time>
      </trkpt>
      <trkpt lat="48.84106" lon="2.22688">
        <ele>34.200000762939</ele>
        <time>2016-05-16T19:08:31.000Z</time>
      </trkpt>
      <trkpt lat="48.84109" lon="2.22657">
        <ele>33.799999237061</ele>
        <time>2016-05-16T19:08:37.000Z</time>
      </trkpt>
      <trkpt lat="48.84114" lon="2.22623">
        <ele>33.400001525879</ele>
        <time>2016-05-16T19:08:42.000Z</time>
      </trkpt>
      <trkpt lat="48.84119" lon="2.22594">
        <ele>33</ele>
        <time>2016-05-16T19:08:48.000Z</time>
      </trkpt>
      <trkpt lat="48.84123" lon="2.22568">
        <ele>32</ele>
        <time>2016-05-16T19:08:55.000Z</time>
      </trkpt>
      <trkpt lat="48.84124" lon="2.22539">
        <ele>31</ele>
        <time>2016-05-16T19:09:01.000Z</time>
      </trkpt>
      <trkpt lat="48.84129" lon="2.22512">
        <ele>29.60000038147</ele>
        <time>2016-05-16T19:09:07.000Z</time>
      </trkpt>
      <trkpt lat="48.84134" lon="2.22483">
        <ele>27.60000038147</ele>
        <time>2016-05-16T19:09:13.000Z</time>
      </trkpt>
      <trkpt lat="48.84138" lon="2.22453">
        <ele>24.799999237061</ele>
        <time>2016-05-16T19:09:19.000Z</time>
      </trkpt>
      <trkpt lat="48.84141" lon="2.22424">
        <ele>21.799999237061</ele>
        <time>2016-05-16T19:09:24.000Z</time>
      </trkpt>
      <trkpt lat="48.84145" lon="2.22394">
        <ele>20.200000762939</ele>
        <time>2016-05-16T19:09:29.000Z</time>
      </trkpt>
      <trkpt lat="48.84147" lon="2.22366">
        <ele>20.200000762939</ele>
        <time>2016-05-16T19:09:35.000Z</time>
      </trkpt>
      <trkpt lat="48.8415" lon="2.22334">
        <ele>21.200000762939</ele>
        <time>2016-05-16T19:09:41.000Z</time>
      </trkpt>
      <trkpt lat="48.84152" lon="2.22304">
        <ele>22.799999237061</ele>
        <time>2016-05-16T19:09:47.000Z</time>
      </trkpt>
      <trkpt lat="48.84154" lon="2.22275">
        <ele>26</ele>
        <time>2016-05-16T19:09:54.000Z</time>
      </trkpt>
      <trkpt lat="48.84156" lon="2.22265">
        <ele>27.60000038147</ele>
        <time>2016-05-16T19:09:57.000Z</time>
      </trkpt>
      <trkpt lat="48.84163" lon="2.2225">
        <ele>30.200000762939</ele>
        <time>2016-05-16T19:10:47.000Z</time>
      </trkpt>
      <trkpt lat="48.84169" lon="2.22239">
        <ele>31.799999237061</ele>
        <time>2016-05-16T19:11:20.000Z</time>
      </trkpt>
      <trkpt lat="48.84166" lon="2.22226">
        <ele>33.400001525879</ele>
        <time>2016-05-16T19:11:41.000Z</time>
      </trkpt>
      <trkpt lat="48.84174" lon="2.22208">
        <ele>36</ele>
        <time>2016-05-16T19:11:58.000Z</time>
      </trkpt>
      <trkpt lat="48.84175" lon="2.22198">
        <ele>37.200000762939</ele>
        <time>2016-05-16T19:12:03.000Z</time>
      </trkpt>
      <trkpt lat="48.84178" lon="2.2217">
        <ele>40.599998474121</ele>
        <time>2016-05-16T19:12:11.000Z</time>
      </trkpt>
      <trkpt lat="48.84181" lon="2.22165">
        <ele>41.400001525879</ele>
        <time>2016-05-16T19:12:13.000Z</time>
      </trkpt>
      <trkpt lat="48.84194" lon="2.22144">
        <ele>42.599998474121</ele>
        <time>2016-05-16T19:12:22.000Z</time>
      </trkpt>
      <trkpt lat="48.84195" lon="2.22141">
        <ele>42.599998474121</ele>
        <time>2016-05-16T19:12:24.000Z</time>
      </trkpt>
      <trkpt lat="48.84195" lon="2.2214">
        <ele>42.599998474121</ele>
        <time>2016-05-16T19:12:25.000Z</time>
      </trkpt>
      <trkpt lat="48.84188" lon="2.22115">
        <ele>43.799999237061</ele>
        <time>2016-05-16T19:12:36.000Z</time>
      </trkpt>
      <trkpt lat="48.84191" lon="2.22106">
        <ele>44</ele>
        <time>2016-05-16T19:12:39.000Z</time>
      </trkpt>
      <trkpt lat="48.84192" lon="2.22097">
        <ele>44.200000762939</ele>
        <time>2016-05-16T19:12:43.000Z</time>
      </trkpt>
      <trkpt lat="48.84192" lon="2.22089">
        <ele>44.599998474121</ele>
        <time>2016-05-16T19:12:45.000Z</time>
      </trkpt>
      <trkpt lat="48.84196" lon="2.2206">
        <ele>47.200000762939</ele>
        <time>2016-05-16T19:12:52.000Z</time>
      </trkpt>
      <trkpt lat="48.84199" lon="2.2203">
        <ele>50.200000762939</ele>
        <time>2016-05-16T19:12:59.000Z</time>
      </trkpt>
      <trkpt lat="48.842" lon="2.22015">
        <ele>51.799999237061</ele>
        <time>2016-05-16T19:13:03.000Z</time>
      </trkpt>
      <trkpt lat="48.84205" lon="2.21986">
        <ele>54.200000762939</ele>
        <time>2016-05-16T19:13:10.000Z</time>
      </trkpt>
      <trkpt lat="48.84208" lon="2.21959">
        <ele>57</ele>
        <time>2016-05-16T19:13:16.000Z</time>
      </trkpt>
      <trkpt lat="48.84211" lon="2.21934">
        <ele>59.400001525879</ele>
        <time>2016-05-16T19:13:26.000Z</time>
      </trkpt>
      <trkpt lat="48.84219" lon="2.21933">
        <ele>59.799999237061</ele>
        <time>2016-05-16T19:14:37.000Z</time>
      </trkpt>
      <trkpt lat="48.84199" lon="2.21938">
        <ele>58.799999237061</ele>
        <time>2016-05-16T19:14:51.000Z</time>
      </trkpt>
      <trkpt lat="48.84181" lon="2.21935">
        <ele>58.599998474121</ele>
        <time>2016-05-16T19:15:00.000Z</time>
      </trkpt>
      <trkpt lat="48.84162" lon="2.21935">
        <ele>58.200000762939</ele>
        <time>2016-05-16T19:15:07.000Z</time>
      </trkpt>
      <trkpt lat="48.84143" lon="2.21933">
        <ele>58</ele>
        <time>2016-05-16T19:15:13.000Z</time>
      </trkpt>
      <trkpt lat="48.84131" lon="2.21929">
        <ele>58</ele>
        <time>2016-05-16T19:15:18.000Z</time>
      </trkpt>
      <trkpt lat="48.84119" lon="2.21912">
        <ele>59.400001525879</ele>
        <time>2016-05-16T19:15:27.000Z</time>
      </trkpt>
      <trkpt lat="48.84126" lon="2.21884">
        <ele>61.400001525879</ele>
        <time>2016-05-16T19:15:33.000Z</time>
      </trkpt>
      <trkpt lat="48.84131" lon="2.21855">
        <ele>63.599998474121</ele>
        <time>2016-05-16T19:15:41.000Z</time>
      </trkpt>
      <trkpt lat="48.84132" lon="2.21853">
        <ele>64</ele>
        <time>2016-05-16T19:15:42.000Z</time>
      </trkpt>
      <trkpt lat="48.84138" lon="2.21839">
        <ele>65.800003051758</ele>
        <time>2016-05-16T19:15:46.000Z</time>
      </trkpt>
      <trkpt lat="48.8414" lon="2.21825">
        <ele>67.400001525879</ele>
        <time>2016-05-16T19:15:50.000Z</time>
      </trkpt>
      <trkpt lat="48.84147" lon="2.21798">
        <ele>70.199996948242</ele>
        <time>2016-05-16T19:15:58.000Z</time>
      </trkpt>
      <trkpt lat="48.84151" lon="2.21793">
        <ele>70.599998474121</ele>
        <time>2016-05-16T19:16:00.000Z</time>
      </trkpt>
      <trkpt lat="48.84154" lon="2.21782">
        <ele>72.199996948242</ele>
        <time>2016-05-16T19:16:06.000Z</time>
      </trkpt>
      <trkpt lat="48.84156" lon="2.21772">
        <ele>73.400001525879</ele>
        <time>2016-05-16T19:16:11.000Z</time>
      </trkpt>
      <trkpt lat="48.8415" lon="2.21768">
        <ele>73.199996948242</ele>
        <time>2016-05-16T19:16:22.000Z</time>
      </trkpt>
      <trkpt lat="48.84142" lon="2.21766">
        <ele>72.800003051758</ele>
        <time>2016-05-16T19:17:33.000Z</time>
      </trkpt>
      <trkpt lat="48.84124" lon="2.2176">
        <ele>72</ele>
        <time>2016-05-16T19:17:41.000Z</time>
      </trkpt>
      <trkpt lat="48.84104" lon="2.21755">
        <ele>71.199996948242</ele>
        <time>2016-05-16T19:17:48.000Z</time>
      </trkpt>
      <trkpt lat="48.84086" lon="2.21751">
        <ele>71</ele>
        <time>2016-05-16T19:17:55.000Z</time>
      </trkpt>
      <trkpt lat="48.84077" lon="2.21749">
        <ele>71</ele>
        <time>2016-05-16T19:18:00.000Z</time>
      </trkpt>
      <trkpt lat="48.84065" lon="2.21747">
        <ele>70.800003051758</ele>
        <time>2016-05-16T19:18:12.000Z</time>
      </trkpt>
      <trkpt lat="48.84059" lon="2.21744">
        <ele>71</ele>
        <time>2016-05-16T19:18:15.000Z</time>
      </trkpt>
      <trkpt lat="48.84043" lon="2.21738">
        <ele>72</ele>
        <time>2016-05-16T19:18:22.000Z</time>
      </trkpt>
      <trkpt lat="48.84032" lon="2.21733">
        <ele>72.800003051758</ele>
        <time>2016-05-16T19:18:28.000Z</time>
      </trkpt>
      <trkpt lat="48.84023" lon="2.21729">
        <ele>73.400001525879</ele>
        <time>2016-05-16T19:18:34.000Z</time>
      </trkpt>
      <trkpt lat="48.84005" lon="2.2172">
        <ele>74.599998474121</ele>
        <time>2016-05-16T19:18:45.000Z</time>
      </trkpt>
      <trkpt lat="48.84" lon="2.21719">
        <ele>74.800003051758</ele>
        <time>2016-05-16T19:18:48.000Z</time>
      </trkpt>
      <trkpt lat="48.83985" lon="2.21712">
        <ele>76</ele>
        <time>2016-05-16T19:19:00.000Z</time>
      </trkpt>
      <trkpt lat="48.83972" lon="2.21698">
        <ele>78.400001525879</ele>
        <time>2016-05-16T19:19:32.000Z</time>
      </trkpt>
      <trkpt lat="48.83957" lon="2.217">
        <ele>77.800003051758</ele>
        <time>2016-05-16T19:19:41.000Z</time>
      </trkpt>
      <trkpt lat="48.83949" lon="2.21706">
        <ele>76.199996948242</ele>
        <time>2016-05-16T19:20:34.000Z</time>
      </trkpt>
      <trkpt lat="48.83943" lon="2.21708">
        <ele>75.800003051758</ele>
        <time>2016-05-16T19:21:51.000Z</time>
      </trkpt>
      <trkpt lat="48.83935" lon="2.21697">
        <ele>77.400001525879</ele>
        <time>2016-05-16T19:22:17.000Z</time>
      </trkpt>
      <trkpt lat="48.83917" lon="2.21692">
        <ele>76.400001525879</ele>
        <time>2016-05-16T19:22:34.000Z</time>
      </trkpt>
      <trkpt lat="48.83898" lon="2.21685">
        <ele>76</ele>
        <time>2016-05-16T19:22:44.000Z</time>
      </trkpt>
      <trkpt lat="48.83881" lon="2.21679">
        <ele>75.199996948242</ele>
        <time>2016-05-16T19:22:54.000Z</time>
      </trkpt>
      <trkpt lat="48.83863" lon="2.2167">
        <ele>75.199996948242</ele>
        <time>2016-05-16T19:23:05.000Z</time>
      </trkpt>
      <trkpt lat="48.8386" lon="2.21669">
        <ele>75.199996948242</ele>
        <time>2016-05-16T19:23:08.000Z</time>
      </trkpt>
      <trkpt lat="48.83856" lon="2.2167">
        <ele>75</ele>
        <time>2016-05-16T19:23:12.000Z</time>
      </trkpt>
      <trkpt lat="48.83838" lon="2.21665">
        <ele>72.800003051758</ele>
        <time>2016-05-16T19:23:28.000Z</time>
      </trkpt>
      <trkpt lat="48.83836" lon="2.21665">
        <ele>72.599998474121</ele>
        <time>2016-05-16T19:23:29.000Z</time>
      </trkpt>
      <trkpt lat="48.83834" lon="2.21664">
        <ele>72.199996948242</ele>
        <time>2016-05-16T19:23:33.000Z</time>
      </trkpt>
      <trkpt lat="48.83821" lon="2.21658">
        <ele>70.800003051758</ele>
        <time>2016-05-16T19:24:40.000Z</time>
      </trkpt>
      <trkpt lat="48.83814" lon="2.21649">
        <ele>70.199996948242</ele>
        <time>2016-05-16T19:25:38.000Z</time>
      </trkpt>
      <trkpt lat="48.83814" lon="2.21644">
        <ele>70.400001525879</ele>
        <time>2016-05-16T19:25:41.000Z</time>
      </trkpt>
      <trkpt lat="48.83809" lon="2.21615">
        <ele>71</ele>
        <time>2016-05-16T19:25:53.000Z</time>
      </trkpt>
      <trkpt lat="48.83806" lon="2.21587">
        <ele>73.199996948242</ele>
        <time>2016-05-16T19:26:00.000Z</time>
      </trkpt>
      <trkpt lat="48.83803" lon="2.2156">
        <ele>74.199996948242</ele>
        <time>2016-05-16T19:26:07.000Z</time>
      </trkpt>
      <trkpt lat="48.838" lon="2.2153">
        <ele>75.599998474121</ele>
        <time>2016-05-16T19:26:15.000Z</time>
      </trkpt>
      <trkpt lat="48.838" lon="2.21501">
        <ele>77</ele>
        <time>2016-05-16T19:26:22.000Z</time>
      </trkpt>
      <trkpt lat="48.83798" lon="2.21472">
        <ele>78</ele>
        <time>2016-05-16T19:26:28.000Z</time>
      </trkpt>
      <trkpt lat="48.83797" lon="2.21444">
        <ele>79.199996948242</ele>
        <time>2016-05-16T19:26:34.000Z</time>
      </trkpt>
      <trkpt lat="48.838" lon="2.21415">
        <ele>80.199996948242</ele>
        <time>2016-05-16T19:26:39.000Z</time>
      </trkpt>
      <trkpt lat="48.838" lon="2.21385">
        <ele>81.599998474121</ele>
        <time>2016-05-16T19:26:45.000Z</time>
      </trkpt>
      <trkpt lat="48.838" lon="2.21355">
        <ele>83</ele>
        <time>2016-05-16T19:26:51.000Z</time>
      </trkpt>
      <trkpt lat="48.838" lon="2.21327">
        <ele>83</ele>
        <time>2016-05-16T19:26:57.000Z</time>
      </trkpt>
      <trkpt lat="48.838" lon="2.21299">
        <ele>82.599998474121</ele>
        <time>2016-05-16T19:27:03.000Z</time>
      </trkpt>
      <trkpt lat="48.83801" lon="2.21269">
        <ele>82.400001525879</ele>
        <time>2016-05-16T19:27:09.000Z</time>
      </trkpt>
      <trkpt lat="48.83802" lon="2.2124">
        <ele>82.599998474121</ele>
        <time>2016-05-16T19:27:16.000Z</time>
      </trkpt>
      <trkpt lat="48.838" lon="2.21211">
        <ele>82.800003051758</ele>
        <time>2016-05-16T19:27:28.000Z</time>
      </trkpt>
      <trkpt lat="48.83797" lon="2.21184">
        <ele>82.800003051758</ele>
        <time>2016-05-16T19:27:35.000Z</time>
      </trkpt>
      <trkpt lat="48.83796" lon="2.21154">
        <ele>83.400001525879</ele>
        <time>2016-05-16T19:27:42.000Z</time>
      </trkpt>
      <trkpt lat="48.83793" lon="2.21135">
        <ele>84</ele>
        <time>2016-05-16T19:27:47.000Z</time>
      </trkpt>
      <trkpt lat="48.83781" lon="2.21113">
        <ele>84</ele>
        <time>2016-05-16T19:27:53.000Z</time>
      </trkpt>
      <trkpt lat="48.83771" lon="2.21088">
        <ele>84.599998474121</ele>
        <time>2016-05-16T19:27:59.000Z</time>
      </trkpt>
      <trkpt lat="48.83753" lon="2.21078">
        <ele>85.800003051758</ele>
        <time>2016-05-16T19:28:07.000Z</time>
      </trkpt>
      <trkpt lat="48.83747" lon="2.21071">
        <ele>86.199996948242</ele>
        <time>2016-05-16T19:28:12.000Z</time>
      </trkpt>
      <trkpt lat="48.83745" lon="2.21045">
        <ele>87.599998474121</ele>
        <time>2016-05-16T19:28:43.000Z</time>
      </trkpt>
      <trkpt lat="48.83741" lon="2.21015">
        <ele>88.800003051758</ele>
        <time>2016-05-16T19:28:49.000Z</time>
      </trkpt>
      <trkpt lat="48.8374" lon="2.21003">
        <ele>89.199996948242</ele>
        <time>2016-05-16T19:28:51.000Z</time>
      </trkpt>
      <trkpt lat="48.83737" lon="2.20974">
        <ele>91</ele>
        <time>2016-05-16T19:28:55.000Z</time>
      </trkpt>
      <trkpt lat="48.83735" lon="2.20945">
        <ele>92.800003051758</ele>
        <time>2016-05-16T19:28:59.000Z</time>
      </trkpt>
      <trkpt lat="48.83732" lon="2.20918">
        <ele>94.599998474121</ele>
        <time>2016-05-16T19:29:03.000Z</time>
      </trkpt>
      <trkpt lat="48.8373" lon="2.20885">
        <ele>95</ele>
        <time>2016-05-16T19:29:08.000Z</time>
      </trkpt>
      <trkpt lat="48.8373" lon="2.20854">
        <ele>95.800003051758</ele>
        <time>2016-05-16T19:29:13.000Z</time>
      </trkpt>
      <trkpt lat="48.83728" lon="2.2084">
        <ele>96.400001525879</ele>
        <time>2016-05-16T19:29:16.000Z</time>
      </trkpt>
      <trkpt lat="48.83726" lon="2.20818">
        <ele>97.199996948242</ele>
        <time>2016-05-16T19:29:21.000Z</time>
      </trkpt>
      <trkpt lat="48.83726" lon="2.20791">
        <ele>97.800003051758</ele>
        <time>2016-05-16T19:29:31.000Z</time>
      </trkpt>
      <trkpt lat="48.83736" lon="2.20777">
        <ele>97.800003051758</ele>
        <time>2016-05-16T19:30:28.000Z</time>
      </trkpt>
      <trkpt lat="48.83742" lon="2.20755">
        <ele>97.800003051758</ele>
        <time>2016-05-16T19:30:36.000Z</time>
      </trkpt>
      <trkpt lat="48.83737" lon="2.20735">
        <ele>97.800003051758</ele>
        <time>2016-05-16T19:30:43.000Z</time>
      </trkpt>
      <trkpt lat="48.83729" lon="2.20709">
        <ele>97.599998474121</ele>
        <time>2016-05-16T19:30:53.000Z</time>
      </trkpt>
      <trkpt lat="48.83721" lon="2.20684">
        <ele>97.400001525879</ele>
        <time>2016-05-16T19:31:01.000Z</time>
      </trkpt>
      <trkpt lat="48.83715" lon="2.20658">
        <ele>97.199996948242</ele>
        <time>2016-05-16T19:31:11.000Z</time>
      </trkpt>
      <trkpt lat="48.83714" lon="2.20629">
        <ele>97.400001525879</ele>
        <time>2016-05-16T19:31:20.000Z</time>
      </trkpt>
      <trkpt lat="48.83712" lon="2.20601">
        <ele>97.800003051758</ele>
        <time>2016-05-16T19:31:27.000Z</time>
      </trkpt>
      <trkpt lat="48.83711" lon="2.20573">
        <ele>98.400001525879</ele>
        <time>2016-05-16T19:31:33.000Z</time>
      </trkpt>
      <trkpt lat="48.83711" lon="2.20544">
        <ele>99</ele>
        <time>2016-05-16T19:31:39.000Z</time>
      </trkpt>
      <trkpt lat="48.8371" lon="2.20517">
        <ele>99.800003051758</ele>
        <time>2016-05-16T19:31:43.000Z</time>
      </trkpt>
      <trkpt lat="48.83707" lon="2.20489">
        <ele>99.800003051758</ele>
        <time>2016-05-16T19:31:46.000Z</time>
      </trkpt>
      <trkpt lat="48.83704" lon="2.2046">
        <ele>100</ele>
        <time>2016-05-16T19:31:50.000Z</time>
      </trkpt>
      <trkpt lat="48.83699" lon="2.20428">
        <ele>100.40000152588</ele>
        <time>2016-05-16T19:31:54.000Z</time>
      </trkpt>
      <trkpt lat="48.83695" lon="2.20396">
        <ele>100.19999694824</ele>
        <time>2016-05-16T19:31:59.000Z</time>
      </trkpt>
      <trkpt lat="48.83693" lon="2.20381">
        <ele>99.800003051758</ele>
        <time>2016-05-16T19:32:02.000Z</time>
      </trkpt>
      <trkpt lat="48.83693" lon="2.20364">
        <ele>99.599998474121</ele>
        <time>2016-05-16T19:32:05.000Z</time>
      </trkpt>
      <trkpt lat="48.83692" lon="2.20334">
        <ele>98.800003051758</ele>
        <time>2016-05-16T19:32:10.000Z</time>
      </trkpt>
      <trkpt lat="48.83689" lon="2.20307">
        <ele>99.199996948242</ele>
        <time>2016-05-16T19:32:14.000Z</time>
      </trkpt>
      <trkpt lat="48.83688" lon="2.20287">
        <ele>99.599998474121</ele>
        <time>2016-05-16T19:32:17.000Z</time>
      </trkpt>
      <trkpt lat="48.83688" lon="2.20268">
        <ele>99.800003051758</ele>
        <time>2016-05-16T19:32:20.000Z</time>
      </trkpt>
      <trkpt lat="48.83685" lon="2.2024">
        <ele>100.40000152588</ele>
        <time>2016-05-16T19:32:25.000Z</time>
      </trkpt>
      <trkpt lat="48.83684" lon="2.20227">
        <ele>100.80000305176</ele>
        <time>2016-05-16T19:32:27.000Z</time>
      </trkpt>
      <trkpt lat="48.83682" lon="2.202">
        <ele>101.59999847412</ele>
        <time>2016-05-16T19:32:31.000Z</time>
      </trkpt>
      <trkpt lat="48.83681" lon="2.20172">
        <ele>102.19999694824</ele>
        <time>2016-05-16T19:32:36.000Z</time>
      </trkpt>
      <trkpt lat="48.8368" lon="2.20167">
        <ele>102.40000152588</ele>
        <time>2016-05-16T19:32:37.000Z</time>
      </trkpt>
      <trkpt lat="48.83677" lon="2.20136">
        <ele>102.80000305176</ele>
        <time>2016-05-16T19:32:42.000Z</time>
      </trkpt>
      <trkpt lat="48.83675" lon="2.20104">
        <ele>102.59999847412</ele>
        <time>2016-05-16T19:32:47.000Z</time>
      </trkpt>
      <trkpt lat="48.83672" lon="2.2007">
        <ele>102.59999847412</ele>
        <time>2016-05-16T19:32:52.000Z</time>
      </trkpt>
      <trkpt lat="48.8367" lon="2.20042">
        <ele>103</ele>
        <time>2016-05-16T19:32:56.000Z</time>
      </trkpt>
      <trkpt lat="48.83666" lon="2.20008">
        <ele>104</ele>
        <time>2016-05-16T19:33:01.000Z</time>
      </trkpt>
      <trkpt lat="48.83664" lon="2.19977">
        <ele>104.40000152588</ele>
        <time>2016-05-16T19:33:06.000Z</time>
      </trkpt>
      <trkpt lat="48.83664" lon="2.19949">
        <ele>104.59999847412</ele>
        <time>2016-05-16T19:33:09.000Z</time>
      </trkpt>
      <trkpt lat="48.83666" lon="2.19939">
        <ele>104.80000305176</ele>
        <time>2016-05-16T19:33:10.000Z</time>
      </trkpt>
      <trkpt lat="48.83664" lon="2.19909">
        <ele>105.59999847412</ele>
        <time>2016-05-16T19:33:15.000Z</time>
      </trkpt>
      <trkpt lat="48.8366" lon="2.1988">
        <ele>105.80000305176</ele>
        <time>2016-05-16T19:33:20.000Z</time>
      </trkpt>
      <trkpt lat="48.8366" lon="2.19874">
        <ele>106</ele>
        <time>2016-05-16T19:33:21.000Z</time>
      </trkpt>
      <trkpt lat="48.8366" lon="2.19863">
        <ele>106.19999694824</ele>
        <time>2016-05-16T19:33:23.000Z</time>
      </trkpt>
      <trkpt lat="48.83657" lon="2.19842">
        <ele>106.59999847412</ele>
        <time>2016-05-16T19:33:27.000Z</time>
      </trkpt>
      <trkpt lat="48.83657" lon="2.19836">
        <ele>106.80000305176</ele>
        <time>2016-05-16T19:33:28.000Z</time>
      </trkpt>
      <trkpt lat="48.83657" lon="2.19803">
        <ele>107.40000152588</ele>
        <time>2016-05-16T19:33:33.000Z</time>
      </trkpt>
      <trkpt lat="48.83654" lon="2.1977">
        <ele>108</ele>
        <time>2016-05-16T19:33:38.000Z</time>
      </trkpt>
      <trkpt lat="48.83655" lon="2.19742">
        <ele>108.80000305176</ele>
        <time>2016-05-16T19:33:43.000Z</time>
      </trkpt>
      <trkpt lat="48.83655" lon="2.19725">
        <ele>109.59999847412</ele>
        <time>2016-05-16T19:33:46.000Z</time>
      </trkpt>
      <trkpt lat="48.83653" lon="2.19698">
        <ele>110.40000152588</ele>
        <time>2016-05-16T19:33:51.000Z</time>
      </trkpt>
      <trkpt lat="48.8365" lon="2.19667">
        <ele>110.80000305176</ele>
        <time>2016-05-16T19:33:56.000Z</time>
      </trkpt>
      <trkpt lat="48.83648" lon="2.19639">
        <ele>111.59999847412</ele>
        <time>2016-05-16T19:34:01.000Z</time>
      </trkpt>
      <trkpt lat="48.83645" lon="2.19605">
        <ele>112</ele>
        <time>2016-05-16T19:34:06.000Z</time>
      </trkpt>
      <trkpt lat="48.83643" lon="2.19573">
        <ele>112</ele>
        <time>2016-05-16T19:34:11.000Z</time>
      </trkpt>
      <trkpt lat="48.83642" lon="2.19544">
        <ele>113.40000152588</ele>
        <time>2016-05-16T19:34:16.000Z</time>
      </trkpt>
      <trkpt lat="48.83639" lon="2.19516">
        <ele>114.59999847412</ele>
        <time>2016-05-16T19:34:20.000Z</time>
      </trkpt>
      <trkpt lat="48.83636" lon="2.1949">
        <ele>115.59999847412</ele>
        <time>2016-05-16T19:34:24.000Z</time>
      </trkpt>
      <trkpt lat="48.83631" lon="2.19459">
        <ele>116.80000305176</ele>
        <time>2016-05-16T19:34:28.000Z</time>
      </trkpt>
      <trkpt lat="48.83627" lon="2.19429">
        <ele>117.80000305176</ele>
        <time>2016-05-16T19:34:33.000Z</time>
      </trkpt>
      <trkpt lat="48.83627" lon="2.19397">
        <ele>118.19999694824</ele>
        <time>2016-05-16T19:34:39.000Z</time>
      </trkpt>
      <trkpt lat="48.83625" lon="2.19365">
        <ele>118.40000152588</ele>
        <time>2016-05-16T19:34:44.000Z</time>
      </trkpt>
      <trkpt lat="48.83622" lon="2.19333">
        <ele>119.40000152588</ele>
        <time>2016-05-16T19:34:48.000Z</time>
      </trkpt>
      <trkpt lat="48.83619" lon="2.19296">
        <ele>120.40000152588</ele>
        <time>2016-05-16T19:34:52.000Z</time>
      </trkpt>
      <trkpt lat="48.83618" lon="2.19274">
        <ele>121</ele>
        <time>2016-05-16T19:34:55.000Z</time>
      </trkpt>
      <trkpt lat="48.83616" lon="2.19245">
        <ele>121.80000305176</ele>
        <time>2016-05-16T19:34:59.000Z</time>
      </trkpt>
      <trkpt lat="48.83613" lon="2.19214">
        <ele>123.40000152588</ele>
        <time>2016-05-16T19:35:03.000Z</time>
      </trkpt>
      <trkpt lat="48.83612" lon="2.19192">
        <ele>124.40000152588</ele>
        <time>2016-05-16T19:35:06.000Z</time>
      </trkpt>
      <trkpt lat="48.83609" lon="2.19161">
        <ele>125.80000305176</ele>
        <time>2016-05-16T19:35:10.000Z</time>
      </trkpt>
      <trkpt lat="48.83606" lon="2.19132">
        <ele>126.40000152588</ele>
        <time>2016-05-16T19:35:14.000Z</time>
      </trkpt>
      <trkpt lat="48.83602" lon="2.19102">
        <ele>126.80000305176</ele>
        <time>2016-05-16T19:35:21.000Z</time>
      </trkpt>
      <trkpt lat="48.83602" lon="2.19098">
        <ele>127</ele>
        <time>2016-05-16T19:35:22.000Z</time>
      </trkpt>
      <trkpt lat="48.83601" lon="2.19081">
        <ele>127.19999694824</ele>
        <time>2016-05-16T19:35:27.000Z</time>
      </trkpt>
      <trkpt lat="48.836" lon="2.19073">
        <ele>127.19999694824</ele>
        <time>2016-05-16T19:35:29.000Z</time>
      </trkpt>
      <trkpt lat="48.83599" lon="2.19042">
        <ele>127.40000152588</ele>
        <time>2016-05-16T19:35:35.000Z</time>
      </trkpt>
      <trkpt lat="48.83599" lon="2.1903">
        <ele>127.40000152588</ele>
        <time>2016-05-16T19:35:37.000Z</time>
      </trkpt>
      <trkpt lat="48.83597" lon="2.19003">
        <ele>127.40000152588</ele>
        <time>2016-05-16T19:35:42.000Z</time>
      </trkpt>
      <trkpt lat="48.83596" lon="2.18971">
        <ele>128</ele>
        <time>2016-05-16T19:35:48.000Z</time>
      </trkpt>
      <trkpt lat="48.83594" lon="2.18938">
        <ele>128.60000610352</ele>
        <time>2016-05-16T19:35:53.000Z</time>
      </trkpt>
      <trkpt lat="48.83592" lon="2.18908">
        <ele>129</ele>
        <time>2016-05-16T19:35:58.000Z</time>
      </trkpt>
      <trkpt lat="48.83591" lon="2.18887">
        <ele>129</ele>
        <time>2016-05-16T19:36:03.000Z</time>
      </trkpt>
      <trkpt lat="48.83591" lon="2.18877">
        <ele>129</ele>
        <time>2016-05-16T19:36:06.000Z</time>
      </trkpt>
      <trkpt lat="48.83584" lon="2.18867">
        <ele>129.60000610352</ele>
        <time>2016-05-16T19:37:14.000Z</time>
      </trkpt>
      <trkpt lat="48.83587" lon="2.18874">
        <ele>129.39999389648</ele>
        <time>2016-05-16T19:39:16.000Z</time>
      </trkpt>
      <trkpt lat="48.83594" lon="2.18877">
        <ele>128.80000305176</ele>
        <time>2016-05-16T19:39:43.000Z</time>
      </trkpt>
      <trkpt lat="48.83592" lon="2.18874">
        <ele>129</ele>
        <time>2016-05-16T19:39:52.000Z</time>
      </trkpt>
      <trkpt lat="48.83578" lon="2.18862">
        <ele>130</ele>
        <time>2016-05-16T19:40:31.000Z</time>
      </trkpt>
      <trkpt lat="48.83571" lon="2.18836">
        <ele>130.60000610352</ele>
        <time>2016-05-16T19:40:38.000Z</time>
      </trkpt>
      <trkpt lat="48.83564" lon="2.18807">
        <ele>129.80000305176</ele>
        <time>2016-05-16T19:40:43.000Z</time>
      </trkpt>
      <trkpt lat="48.83558" lon="2.18781">
        <ele>128.60000610352</ele>
        <time>2016-05-16T19:40:47.000Z</time>
      </trkpt>
      <trkpt lat="48.83547" lon="2.18754">
        <ele>127.40000152588</ele>
        <time>2016-05-16T19:40:52.000Z</time>
      </trkpt>
      <trkpt lat="48.83534" lon="2.18733">
        <ele>126.59999847412</ele>
        <time>2016-05-16T19:40:56.000Z</time>
      </trkpt>
      <trkpt lat="48.83518" lon="2.18717">
        <ele>126.80000305176</ele>
        <time>2016-05-16T19:41:00.000Z</time>
      </trkpt>
      <trkpt lat="48.835" lon="2.18708">
        <ele>127.80000305176</ele>
        <time>2016-05-16T19:41:05.000Z</time>
      </trkpt>
      <trkpt lat="48.8348" lon="2.18691">
        <ele>128.39999389648</ele>
        <time>2016-05-16T19:41:10.000Z</time>
      </trkpt>
      <trkpt lat="48.83465" lon="2.18676">
        <ele>128.60000610352</ele>
        <time>2016-05-16T19:41:14.000Z</time>
      </trkpt>
      <trkpt lat="48.8345" lon="2.18657">
        <ele>128.80000305176</ele>
        <time>2016-05-16T19:41:19.000Z</time>
      </trkpt>
      <trkpt lat="48.83444" lon="2.18646">
        <ele>129.39999389648</ele>
        <time>2016-05-16T19:41:22.000Z</time>
      </trkpt>
      <trkpt lat="48.83433" lon="2.18623">
        <ele>129.80000305176</ele>
        <time>2016-05-16T19:41:27.000Z</time>
      </trkpt>
      <trkpt lat="48.83422" lon="2.18597">
        <ele>130.19999694824</ele>
        <time>2016-05-16T19:41:33.000Z</time>
      </trkpt>
      <trkpt lat="48.83409" lon="2.18575">
        <ele>130.80000305176</ele>
        <time>2016-05-16T19:41:38.000Z</time>
      </trkpt>
      <trkpt lat="48.83404" lon="2.18549">
        <ele>130.80000305176</ele>
        <time>2016-05-16T19:41:45.000Z</time>
      </trkpt>
      <trkpt lat="48.83407" lon="2.18544">
        <ele>130.39999389648</ele>
        <time>2016-05-16T19:41:48.000Z</time>
      </trkpt>
      <trkpt lat="48.83418" lon="2.1854">
        <ele>129.39999389648</ele>
        <time>2016-05-16T19:41:52.000Z</time>
      </trkpt>
      <trkpt lat="48.83438" lon="2.18538">
        <ele>127.59999847412</ele>
        <time>2016-05-16T19:41:58.000Z</time>
      </trkpt>
      <trkpt lat="48.83458" lon="2.18534">
        <ele>125.80000305176</ele>
        <time>2016-05-16T19:42:02.000Z</time>
      </trkpt>
      <trkpt lat="48.83478" lon="2.18531">
        <ele>124.19999694824</ele>
        <time>2016-05-16T19:42:06.000Z</time>
      </trkpt>
      <trkpt lat="48.83496" lon="2.18529">
        <ele>123.59999847412</ele>
        <time>2016-05-16T19:42:10.000Z</time>
      </trkpt>
      <trkpt lat="48.83516" lon="2.18527">
        <ele>122.80000305176</ele>
        <time>2016-05-16T19:42:15.000Z</time>
      </trkpt>
      <trkpt lat="48.83535" lon="2.18521">
        <ele>121.40000152588</ele>
        <time>2016-05-16T19:42:22.000Z</time>
      </trkpt>
      <trkpt lat="48.83553" lon="2.18519">
        <ele>120.19999694824</ele>
        <time>2016-05-16T19:42:32.000Z</time>
      </trkpt>
      <trkpt lat="48.83571" lon="2.18518">
        <ele>119.59999847412</ele>
        <time>2016-05-16T19:42:47.000Z</time>
      </trkpt>
      <trkpt lat="48.83591" lon="2.18515">
        <ele>119.19999694824</ele>
        <time>2016-05-16T19:43:04.000Z</time>
      </trkpt>
      <trkpt lat="48.8361" lon="2.18513">
        <ele>118.59999847412</ele>
        <time>2016-05-16T19:43:10.000Z</time>
      </trkpt>
      <trkpt lat="48.8363" lon="2.18504">
        <ele>117.40000152588</ele>
        <time>2016-05-16T19:43:16.000Z</time>
      </trkpt>
      <trkpt lat="48.83647" lon="2.18491">
        <ele>115.59999847412</ele>
        <time>2016-05-16T19:43:23.000Z</time>
      </trkpt>
      <trkpt lat="48.83667" lon="2.18483">
        <ele>113.59999847412</ele>
        <time>2016-05-16T19:43:31.000Z</time>
      </trkpt>
      <trkpt lat="48.83687" lon="2.18475">
        <ele>111.40000152588</ele>
        <time>2016-05-16T19:43:37.000Z</time>
      </trkpt>
      <trkpt lat="48.83705" lon="2.18469">
        <ele>111.59999847412</ele>
        <time>2016-05-16T19:43:45.000Z</time>
      </trkpt>
      <trkpt lat="48.83723" lon="2.18477">
        <ele>112</ele>
        <time>2016-05-16T19:43:53.000Z</time>
      </trkpt>
      <trkpt lat="48.83736" lon="2.18501">
        <ele>112</ele>
        <time>2016-05-16T19:43:59.000Z</time>
      </trkpt>
      <trkpt lat="48.83747" lon="2.18526">
        <ele>111.59999847412</ele>
        <time>2016-05-16T19:44:05.000Z</time>
      </trkpt>
      <trkpt lat="48.83758" lon="2.18547">
        <ele>111.40000152588</ele>
        <time>2016-05-16T19:44:11.000Z</time>
      </trkpt>
      <trkpt lat="48.8377" lon="2.18573">
        <ele>111</ele>
        <time>2016-05-16T19:44:18.000Z</time>
      </trkpt>
      <trkpt lat="48.83783" lon="2.18596">
        <ele>111.19999694824</ele>
        <time>2016-05-16T19:44:24.000Z</time>
      </trkpt>
      <trkpt lat="48.83799" lon="2.18609">
        <ele>111.40000152588</ele>
        <time>2016-05-16T19:44:30.000Z</time>
      </trkpt>
      <trkpt lat="48.83813" lon="2.18629">
        <ele>111.40000152588</ele>
        <time>2016-05-16T19:44:36.000Z</time>
      </trkpt>
      <trkpt lat="48.83827" lon="2.18647">
        <ele>111.59999847412</ele>
        <time>2016-05-16T19:44:43.000Z</time>
      </trkpt>
      <trkpt lat="48.83837" lon="2.18659">
        <ele>111.80000305176</ele>
        <time>2016-05-16T19:44:51.000Z</time>
      </trkpt>
      <trkpt lat="48.83839" lon="2.18663">
        <ele>111.80000305176</ele>
        <time>2016-05-16T19:44:57.000Z</time>
      </trkpt>
      <trkpt lat="48.83844" lon="2.18672">
        <ele>111.80000305176</ele>
        <time>2016-05-16T19:45:04.000Z</time>
      </trkpt>
      <trkpt lat="48.83858" lon="2.18684">
        <ele>111.80000305176</ele>
        <time>2016-05-16T19:45:31.000Z</time>
      </trkpt>
      <trkpt lat="48.83866" lon="2.18713">
        <ele>111.59999847412</ele>
        <time>2016-05-16T19:45:39.000Z</time>
      </trkpt>
      <trkpt lat="48.83871" lon="2.18743">
        <ele>111.40000152588</ele>
        <time>2016-05-16T19:45:45.000Z</time>
      </trkpt>
      <trkpt lat="48.83874" lon="2.18772">
        <ele>110.40000152588</ele>
        <time>2016-05-16T19:45:50.000Z</time>
      </trkpt>
      <trkpt lat="48.83885" lon="2.18798">
        <ele>109.80000305176</ele>
        <time>2016-05-16T19:45:54.000Z</time>
      </trkpt>
      <trkpt lat="48.83895" lon="2.18825">
        <ele>109</ele>
        <time>2016-05-16T19:45:58.000Z</time>
      </trkpt>
      <trkpt lat="48.83906" lon="2.18853">
        <ele>108.59999847412</ele>
        <time>2016-05-16T19:46:03.000Z</time>
      </trkpt>
      <trkpt lat="48.83914" lon="2.18884">
        <ele>108</ele>
        <time>2016-05-16T19:46:08.000Z</time>
      </trkpt>
      <trkpt lat="48.8392" lon="2.18911">
        <ele>107.59999847412</ele>
        <time>2016-05-16T19:46:12.000Z</time>
      </trkpt>
      <trkpt lat="48.83925" lon="2.18939">
        <ele>107</ele>
        <time>2016-05-16T19:46:16.000Z</time>
      </trkpt>
      <trkpt lat="48.83934" lon="2.1897">
        <ele>106.40000152588</ele>
        <time>2016-05-16T19:46:21.000Z</time>
      </trkpt>
      <trkpt lat="48.83941" lon="2.18997">
        <ele>106</ele>
        <time>2016-05-16T19:46:25.000Z</time>
      </trkpt>
      <trkpt lat="48.83949" lon="2.19025">
        <ele>104.80000305176</ele>
        <time>2016-05-16T19:46:29.000Z</time>
      </trkpt>
      <trkpt lat="48.83956" lon="2.19056">
        <ele>103.59999847412</ele>
        <time>2016-05-16T19:46:33.000Z</time>
      </trkpt>
      <trkpt lat="48.83959" lon="2.19071">
        <ele>103</ele>
        <time>2016-05-16T19:46:35.000Z</time>
      </trkpt>
      <trkpt lat="48.83966" lon="2.19104">
        <ele>102.59999847412</ele>
        <time>2016-05-16T19:46:39.000Z</time>
      </trkpt>
      <trkpt lat="48.83972" lon="2.19136">
        <ele>102.19999694824</ele>
        <time>2016-05-16T19:46:43.000Z</time>
      </trkpt>
      <trkpt lat="48.83975" lon="2.19168">
        <ele>101.59999847412</ele>
        <time>2016-05-16T19:46:47.000Z</time>
      </trkpt>
      <trkpt lat="48.8398" lon="2.19196">
        <ele>101.59999847412</ele>
        <time>2016-05-16T19:46:51.000Z</time>
      </trkpt>
      <trkpt lat="48.83985" lon="2.19229">
        <ele>101.40000152588</ele>
        <time>2016-05-16T19:46:56.000Z</time>
      </trkpt>
      <trkpt lat="48.83993" lon="2.19256">
        <ele>101.59999847412</ele>
        <time>2016-05-16T19:47:00.000Z</time>
      </trkpt>
      <trkpt lat="48.83999" lon="2.19268">
        <ele>101.80000305176</ele>
        <time>2016-05-16T19:47:02.000Z</time>
      </trkpt>
      <trkpt lat="48.8401" lon="2.19293">
        <ele>102.40000152588</ele>
        <time>2016-05-16T19:47:06.000Z</time>
      </trkpt>
      <trkpt lat="48.84021" lon="2.19323">
        <ele>103</ele>
        <time>2016-05-16T19:47:11.000Z</time>
      </trkpt>
      <trkpt lat="48.84032" lon="2.19351">
        <ele>103</ele>
        <time>2016-05-16T19:47:16.000Z</time>
      </trkpt>
      <trkpt lat="48.84042" lon="2.19378">
        <ele>102.80000305176</ele>
        <time>2016-05-16T19:47:20.000Z</time>
      </trkpt>
      <trkpt lat="48.84049" lon="2.19404">
        <ele>102.80000305176</ele>
        <time>2016-05-16T19:47:24.000Z</time>
      </trkpt>
      <trkpt lat="48.84056" lon="2.19434">
        <ele>102</ele>
        <time>2016-05-16T19:47:29.000Z</time>
      </trkpt>
      <trkpt lat="48.84059" lon="2.19463">
        <ele>101</ele>
        <time>2016-05-16T19:47:33.000Z</time>
      </trkpt>
      <trkpt lat="48.84063" lon="2.19498">
        <ele>99.800003051758</ele>
        <time>2016-05-16T19:47:37.000Z</time>
      </trkpt>
      <trkpt lat="48.84066" lon="2.19532">
        <ele>98.800003051758</ele>
        <time>2016-05-16T19:47:41.000Z</time>
      </trkpt>
      <trkpt lat="48.84074" lon="2.19551">
        <ele>98.400001525879</ele>
        <time>2016-05-16T19:47:43.000Z</time>
      </trkpt>
      <trkpt lat="48.84076" lon="2.19586">
        <ele>98.400001525879</ele>
        <time>2016-05-16T19:47:47.000Z</time>
      </trkpt>
      <trkpt lat="48.84078" lon="2.19619">
        <ele>98.800003051758</ele>
        <time>2016-05-16T19:47:51.000Z</time>
      </trkpt>
      <trkpt lat="48.84079" lon="2.19652">
        <ele>99.199996948242</ele>
        <time>2016-05-16T19:47:55.000Z</time>
      </trkpt>
      <trkpt lat="48.84081" lon="2.19659">
        <ele>99.199996948242</ele>
        <time>2016-05-16T19:47:56.000Z</time>
      </trkpt>
      <trkpt lat="48.84086" lon="2.19692">
        <ele>98.800003051758</ele>
        <time>2016-05-16T19:48:00.000Z</time>
      </trkpt>
      <trkpt lat="48.84091" lon="2.19723">
        <ele>98.400001525879</ele>
        <time>2016-05-16T19:48:04.000Z</time>
      </trkpt>
      <trkpt lat="48.84095" lon="2.19753">
        <ele>97.599998474121</ele>
        <time>2016-05-16T19:48:08.000Z</time>
      </trkpt>
      <trkpt lat="48.84099" lon="2.19767">
        <ele>97.199996948242</ele>
        <time>2016-05-16T19:48:10.000Z</time>
      </trkpt>
      <trkpt lat="48.84108" lon="2.19796">
        <ele>96.199996948242</ele>
        <time>2016-05-16T19:48:14.000Z</time>
      </trkpt>
      <trkpt lat="48.84115" lon="2.19824">
        <ele>95.599998474121</ele>
        <time>2016-05-16T19:48:18.000Z</time>
      </trkpt>
      <trkpt lat="48.8412" lon="2.19838">
        <ele>95.599998474121</ele>
        <time>2016-05-16T19:48:20.000Z</time>
      </trkpt>
      <trkpt lat="48.84124" lon="2.1986">
        <ele>96.400001525879</ele>
        <time>2016-05-16T19:48:23.000Z</time>
      </trkpt>
      <trkpt lat="48.84132" lon="2.19883">
        <ele>97.199996948242</ele>
        <time>2016-05-16T19:48:27.000Z</time>
      </trkpt>
      <trkpt lat="48.84142" lon="2.1991">
        <ele>98.400001525879</ele>
        <time>2016-05-16T19:48:32.000Z</time>
      </trkpt>
      <trkpt lat="48.84148" lon="2.19938">
        <ele>99.199996948242</ele>
        <time>2016-05-16T19:48:37.000Z</time>
      </trkpt>
      <trkpt lat="48.84152" lon="2.1995">
        <ele>99.400001525879</ele>
        <time>2016-05-16T19:48:39.000Z</time>
      </trkpt>
      <trkpt lat="48.84155" lon="2.19978">
        <ele>100.19999694824</ele>
        <time>2016-05-16T19:48:43.000Z</time>
      </trkpt>
      <trkpt lat="48.84156" lon="2.19985">
        <ele>100.40000152588</ele>
        <time>2016-05-16T19:48:44.000Z</time>
      </trkpt>
      <trkpt lat="48.84159" lon="2.20013">
        <ele>100.80000305176</ele>
        <time>2016-05-16T19:48:48.000Z</time>
      </trkpt>
      <trkpt lat="48.84163" lon="2.20047">
        <ele>101.40000152588</ele>
        <time>2016-05-16T19:48:53.000Z</time>
      </trkpt>
      <trkpt lat="48.84164" lon="2.20074">
        <ele>101.19999694824</ele>
        <time>2016-05-16T19:48:57.000Z</time>
      </trkpt>
      <trkpt lat="48.84165" lon="2.2008">
        <ele>101.19999694824</ele>
        <time>2016-05-16T19:48:58.000Z</time>
      </trkpt>
      <trkpt lat="48.84168" lon="2.20113">
        <ele>101.19999694824</ele>
        <time>2016-05-16T19:49:03.000Z</time>
      </trkpt>
      <trkpt lat="48.84169" lon="2.20118">
        <ele>101.19999694824</ele>
        <time>2016-05-16T19:49:04.000Z</time>
      </trkpt>
      <trkpt lat="48.84173" lon="2.20145">
        <ele>101.40000152588</ele>
        <time>2016-05-16T19:49:09.000Z</time>
      </trkpt>
      <trkpt lat="48.84175" lon="2.20174">
        <ele>101.40000152588</ele>
        <time>2016-05-16T19:49:14.000Z</time>
      </trkpt>
      <trkpt lat="48.84177" lon="2.20203">
        <ele>101</ele>
        <time>2016-05-16T19:49:19.000Z</time>
      </trkpt>
      <trkpt lat="48.84178" lon="2.20232">
        <ele>100.80000305176</ele>
        <time>2016-05-16T19:49:24.000Z</time>
      </trkpt>
      <trkpt lat="48.84181" lon="2.20257">
        <ele>101</ele>
        <time>2016-05-16T19:49:28.000Z</time>
      </trkpt>
      <trkpt lat="48.84185" lon="2.20289">
        <ele>102</ele>
        <time>2016-05-16T19:49:33.000Z</time>
      </trkpt>
      <trkpt lat="48.84188" lon="2.20323">
        <ele>102.80000305176</ele>
        <time>2016-05-16T19:49:38.000Z</time>
      </trkpt>
      <trkpt lat="48.84191" lon="2.2035">
        <ele>103.59999847412</ele>
        <time>2016-05-16T19:49:42.000Z</time>
      </trkpt>
      <trkpt lat="48.84195" lon="2.20382">
        <ele>104.19999694824</ele>
        <time>2016-05-16T19:49:47.000Z</time>
      </trkpt>
      <trkpt lat="48.84196" lon="2.20388">
        <ele>104.40000152588</ele>
        <time>2016-05-16T19:49:48.000Z</time>
      </trkpt>
      <trkpt lat="48.84199" lon="2.20421">
        <ele>105.19999694824</ele>
        <time>2016-05-16T19:49:53.000Z</time>
      </trkpt>
      <trkpt lat="48.84199" lon="2.20428">
        <ele>104.80000305176</ele>
        <time>2016-05-16T19:49:54.000Z</time>
      </trkpt>
      <trkpt lat="48.84203" lon="2.20457">
        <ele>103.59999847412</ele>
        <time>2016-05-16T19:49:58.000Z</time>
      </trkpt>
      <trkpt lat="48.84206" lon="2.20485">
        <ele>102.40000152588</ele>
        <time>2016-05-16T19:50:02.000Z</time>
      </trkpt>
      <trkpt lat="48.84208" lon="2.20514">
        <ele>101.59999847412</ele>
        <time>2016-05-16T19:50:06.000Z</time>
      </trkpt>
      <trkpt lat="48.8421" lon="2.20537">
        <ele>102</ele>
        <time>2016-05-16T19:50:09.000Z</time>
      </trkpt>
      <trkpt lat="48.84216" lon="2.20566">
        <ele>102.40000152588</ele>
        <time>2016-05-16T19:50:13.000Z</time>
      </trkpt>
      <trkpt lat="48.84219" lon="2.20596">
        <ele>102.59999847412</ele>
        <time>2016-05-16T19:50:17.000Z</time>
      </trkpt>
      <trkpt lat="48.84219" lon="2.20624">
        <ele>102.19999694824</ele>
        <time>2016-05-16T19:50:21.000Z</time>
      </trkpt>
      <trkpt lat="48.84224" lon="2.20651">
        <ele>102</ele>
        <time>2016-05-16T19:50:25.000Z</time>
      </trkpt>
      <trkpt lat="48.84224" lon="2.20658">
        <ele>101.80000305176</ele>
        <time>2016-05-16T19:50:26.000Z</time>
      </trkpt>
      <trkpt lat="48.84227" lon="2.20668">
        <ele>102</ele>
        <time>2016-05-16T19:50:28.000Z</time>
      </trkpt>
      <trkpt lat="48.84229" lon="2.20682">
        <ele>102</ele>
        <time>2016-05-16T19:50:32.000Z</time>
      </trkpt>
      <trkpt lat="48.84231" lon="2.20685">
        <ele>102</ele>
        <time>2016-05-16T19:50:36.000Z</time>
      </trkpt>
      <trkpt lat="48.84233" lon="2.20706">
        <ele>102</ele>
        <time>2016-05-16T19:50:56.000Z</time>
      </trkpt>
      <trkpt lat="48.84241" lon="2.20733">
        <ele>101.80000305176</ele>
        <time>2016-05-16T19:51:03.000Z</time>
      </trkpt>
      <trkpt lat="48.84247" lon="2.2076">
        <ele>101.80000305176</ele>
        <time>2016-05-16T19:51:08.000Z</time>
      </trkpt>
      <trkpt lat="48.84248" lon="2.20793">
        <ele>101.80000305176</ele>
        <time>2016-05-16T19:51:13.000Z</time>
      </trkpt>
      <trkpt lat="48.84251" lon="2.20826">
        <ele>102</ele>
        <time>2016-05-16T19:51:18.000Z</time>
      </trkpt>
      <trkpt lat="48.84252" lon="2.20853">
        <ele>102</ele>
        <time>2016-05-16T19:51:22.000Z</time>
      </trkpt>
      <trkpt lat="48.84253" lon="2.20883">
        <ele>102</ele>
        <time>2016-05-16T19:51:26.000Z</time>
      </trkpt>
      <trkpt lat="48.84257" lon="2.20911">
        <ele>102.40000152588</ele>
        <time>2016-05-16T19:51:30.000Z</time>
      </trkpt>
      <trkpt lat="48.8426" lon="2.2094">
        <ele>102.59999847412</ele>
        <time>2016-05-16T19:51:34.000Z</time>
      </trkpt>
      <trkpt lat="48.84262" lon="2.20969">
        <ele>102.59999847412</ele>
        <time>2016-05-16T19:51:38.000Z</time>
      </trkpt>
      <trkpt lat="48.84264" lon="2.20998">
        <ele>102.59999847412</ele>
        <time>2016-05-16T19:51:42.000Z</time>
      </trkpt>
      <trkpt lat="48.84265" lon="2.21012">
        <ele>102.59999847412</ele>
        <time>2016-05-16T19:51:44.000Z</time>
      </trkpt>
      <trkpt lat="48.84266" lon="2.21039">
        <ele>102.19999694824</ele>
        <time>2016-05-16T19:51:48.000Z</time>
      </trkpt>
      <trkpt lat="48.84267" lon="2.21046">
        <ele>102.19999694824</ele>
        <time>2016-05-16T19:51:49.000Z</time>
      </trkpt>
      <trkpt lat="48.8427" lon="2.21079">
        <ele>102</ele>
        <time>2016-05-16T19:51:54.000Z</time>
      </trkpt>
      <trkpt lat="48.84274" lon="2.21112">
        <ele>102</ele>
        <time>2016-05-16T19:51:59.000Z</time>
      </trkpt>
      <trkpt lat="48.84279" lon="2.21145">
        <ele>102.19999694824</ele>
        <time>2016-05-16T19:52:04.000Z</time>
      </trkpt>
      <trkpt lat="48.84283" lon="2.21177">
        <ele>102.40000152588</ele>
        <time>2016-05-16T19:52:09.000Z</time>
      </trkpt>
      <trkpt lat="48.84284" lon="2.2121">
        <ele>102</ele>
        <time>2016-05-16T19:52:14.000Z</time>
      </trkpt>
      <trkpt lat="48.84286" lon="2.21242">
        <ele>101.59999847412</ele>
        <time>2016-05-16T19:52:19.000Z</time>
      </trkpt>
      <trkpt lat="48.84287" lon="2.21274">
        <ele>100.80000305176</ele>
        <time>2016-05-16T19:52:24.000Z</time>
      </trkpt>
      <trkpt lat="48.84288" lon="2.21299">
        <ele>100</ele>
        <time>2016-05-16T19:52:28.000Z</time>
      </trkpt>
      <trkpt lat="48.84289" lon="2.21331">
        <ele>99</ele>
        <time>2016-05-16T19:52:33.000Z</time>
      </trkpt>
      <trkpt lat="48.8429" lon="2.21362">
        <ele>98.199996948242</ele>
        <time>2016-05-16T19:52:38.000Z</time>
      </trkpt>
      <trkpt lat="48.84295" lon="2.21385">
        <ele>98</ele>
        <time>2016-05-16T19:52:42.000Z</time>
      </trkpt>
      <trkpt lat="48.84296" lon="2.21396">
        <ele>97.800003051758</ele>
        <time>2016-05-16T19:52:44.000Z</time>
      </trkpt>
      <trkpt lat="48.843" lon="2.21423">
        <ele>97.199996948242</ele>
        <time>2016-05-16T19:52:49.000Z</time>
      </trkpt>
      <trkpt lat="48.84302" lon="2.21452">
        <ele>96.599998474121</ele>
        <time>2016-05-16T19:52:55.000Z</time>
      </trkpt>
      <trkpt lat="48.84303" lon="2.21457">
        <ele>96.599998474121</ele>
        <time>2016-05-16T19:52:56.000Z</time>
      </trkpt>
      <trkpt lat="48.84307" lon="2.21486">
        <ele>96.400001525879</ele>
        <time>2016-05-16T19:53:01.000Z</time>
      </trkpt>
      <trkpt lat="48.8431" lon="2.21514">
        <ele>96.400001525879</ele>
        <time>2016-05-16T19:53:05.000Z</time>
      </trkpt>
      <trkpt lat="48.84315" lon="2.21541">
        <ele>96.599998474121</ele>
        <time>2016-05-16T19:53:09.000Z</time>
      </trkpt>
      <trkpt lat="48.84322" lon="2.2157">
        <ele>97.400001525879</ele>
        <time>2016-05-16T19:53:13.000Z</time>
      </trkpt>
      <trkpt lat="48.84328" lon="2.21602">
        <ele>96.199996948242</ele>
        <time>2016-05-16T19:53:17.000Z</time>
      </trkpt>
      <trkpt lat="48.84331" lon="2.21629">
        <ele>94.599998474121</ele>
        <time>2016-05-16T19:53:20.000Z</time>
      </trkpt>
      <trkpt lat="48.84336" lon="2.21663">
        <ele>93.199996948242</ele>
        <time>2016-05-16T19:53:24.000Z</time>
      </trkpt>
      <trkpt lat="48.84343" lon="2.21696">
        <ele>89</ele>
        <time>2016-05-16T19:53:28.000Z</time>
      </trkpt>
      <trkpt lat="48.8435" lon="2.21727">
        <ele>85.199996948242</ele>
        <time>2016-05-16T19:53:32.000Z</time>
      </trkpt>
      <trkpt lat="48.84354" lon="2.21739">
        <ele>83.800003051758</ele>
        <time>2016-05-16T19:53:34.000Z</time>
      </trkpt>
      <trkpt lat="48.84371" lon="2.21753">
        <ele>82.400001525879</ele>
        <time>2016-05-16T19:53:38.000Z</time>
      </trkpt>
      <trkpt lat="48.84379" lon="2.21753">
        <ele>82.400001525879</ele>
        <time>2016-05-16T19:53:40.000Z</time>
      </trkpt>
      <trkpt lat="48.84402" lon="2.2175">
        <ele>82.199996948242</ele>
        <time>2016-05-16T19:53:45.000Z</time>
      </trkpt>
      <trkpt lat="48.8442" lon="2.21743">
        <ele>82.400001525879</ele>
        <time>2016-05-16T19:53:49.000Z</time>
      </trkpt>
      <trkpt lat="48.84434" lon="2.21739">
        <ele>82.800003051758</ele>
        <time>2016-05-16T19:53:52.000Z</time>
      </trkpt>
      <trkpt lat="48.84445" lon="2.2174">
        <ele>82.800003051758</ele>
        <time>2016-05-16T19:53:54.000Z</time>
      </trkpt>
      <trkpt lat="48.84466" lon="2.21744">
        <ele>83.199996948242</ele>
        <time>2016-05-16T19:53:58.000Z</time>
      </trkpt>
      <trkpt lat="48.84488" lon="2.21752">
        <ele>83.400001525879</ele>
        <time>2016-05-16T19:54:02.000Z</time>
      </trkpt>
      <trkpt lat="48.8451" lon="2.2176">
        <ele>83.599998474121</ele>
        <time>2016-05-16T19:54:06.000Z</time>
      </trkpt>
      <trkpt lat="48.8453" lon="2.21769">
        <ele>84</ele>
        <time>2016-05-16T19:54:10.000Z</time>
      </trkpt>
      <trkpt lat="48.84548" lon="2.21777">
        <ele>84.599998474121</ele>
        <time>2016-05-16T19:54:14.000Z</time>
      </trkpt>
      <trkpt lat="48.84558" lon="2.21781">
        <ele>85</ele>
        <time>2016-05-16T19:54:17.000Z</time>
      </trkpt>
      <trkpt lat="48.84571" lon="2.21802">
        <ele>84.599998474121</ele>
        <time>2016-05-16T19:54:22.000Z</time>
      </trkpt>
      <trkpt lat="48.84576" lon="2.2182">
        <ele>83.599998474121</ele>
        <time>2016-05-16T19:54:25.000Z</time>
      </trkpt>
      <trkpt lat="48.84585" lon="2.2185">
        <ele>80</ele>
        <time>2016-05-16T19:54:31.000Z</time>
      </trkpt>
      <trkpt lat="48.84585" lon="2.21854">
        <ele>79.599998474121</ele>
        <time>2016-05-16T19:54:32.000Z</time>
      </trkpt>
      <trkpt lat="48.84589" lon="2.21879">
        <ele>75.599998474121</ele>
        <time>2016-05-16T19:54:40.000Z</time>
      </trkpt>
      <trkpt lat="48.84583" lon="2.21898">
        <ele>73.199996948242</ele>
        <time>2016-05-16T19:55:32.000Z</time>
      </trkpt>
      <trkpt lat="48.84587" lon="2.21926">
        <ele>71</ele>
        <time>2016-05-16T19:55:37.000Z</time>
      </trkpt>
      <trkpt lat="48.8459" lon="2.21954">
        <ele>68</ele>
        <time>2016-05-16T19:55:41.000Z</time>
      </trkpt>
      <trkpt lat="48.84596" lon="2.21981">
        <ele>65</ele>
        <time>2016-05-16T19:55:46.000Z</time>
      </trkpt>
      <trkpt lat="48.84607" lon="2.22004">
        <ele>61.799999237061</ele>
        <time>2016-05-16T19:55:56.000Z</time>
      </trkpt>
      <trkpt lat="48.84627" lon="2.22001">
        <ele>61.599998474121</ele>
        <time>2016-05-16T19:56:14.000Z</time>
      </trkpt>
      <trkpt lat="48.84646" lon="2.21999">
        <ele>61.799999237061</ele>
        <time>2016-05-16T19:56:19.000Z</time>
      </trkpt>
      <trkpt lat="48.84666" lon="2.22001">
        <ele>61.200000762939</ele>
        <time>2016-05-16T19:56:24.000Z</time>
      </trkpt>
      <trkpt lat="48.84686" lon="2.2201">
        <ele>59.200000762939</ele>
        <time>2016-05-16T19:56:29.000Z</time>
      </trkpt>
      <trkpt lat="48.84706" lon="2.22021">
        <ele>57.400001525879</ele>
        <time>2016-05-16T19:56:34.000Z</time>
      </trkpt>
      <trkpt lat="48.84726" lon="2.22033">
        <ele>55.799999237061</ele>
        <time>2016-05-16T19:56:39.000Z</time>
      </trkpt>
      <trkpt lat="48.84747" lon="2.22042">
        <ele>54.599998474121</ele>
        <time>2016-05-16T19:56:44.000Z</time>
      </trkpt>
      <trkpt lat="48.84765" lon="2.22047">
        <ele>54.599998474121</ele>
        <time>2016-05-16T19:56:48.000Z</time>
      </trkpt>
      <trkpt lat="48.84785" lon="2.22054">
        <ele>53.400001525879</ele>
        <time>2016-05-16T19:56:52.000Z</time>
      </trkpt>
      <trkpt lat="48.84803" lon="2.2206">
        <ele>52</ele>
        <time>2016-05-16T19:56:56.000Z</time>
      </trkpt>
      <trkpt lat="48.84824" lon="2.22068">
        <ele>50.400001525879</ele>
        <time>2016-05-16T19:57:02.000Z</time>
      </trkpt>
      <trkpt lat="48.8484" lon="2.22073">
        <ele>49.200000762939</ele>
        <time>2016-05-16T19:57:07.000Z</time>
      </trkpt>
      <trkpt lat="48.84861" lon="2.22082">
        <ele>47.599998474121</ele>
        <time>2016-05-16T19:57:14.000Z</time>
      </trkpt>
      <trkpt lat="48.84878" lon="2.22096">
        <ele>45.599998474121</ele>
        <time>2016-05-16T19:57:19.000Z</time>
      </trkpt>
      <trkpt lat="48.84897" lon="2.22103">
        <ele>44.400001525879</ele>
        <time>2016-05-16T19:57:23.000Z</time>
      </trkpt>
      <trkpt lat="48.84917" lon="2.22111">
        <ele>43</ele>
        <time>2016-05-16T19:57:27.000Z</time>
      </trkpt>
      <trkpt lat="48.84937" lon="2.22116">
        <ele>42</ele>
        <time>2016-05-16T19:57:31.000Z</time>
      </trkpt>
      <trkpt lat="48.84955" lon="2.22119">
        <ele>41</ele>
        <time>2016-05-16T19:57:35.000Z</time>
      </trkpt>
      <trkpt lat="48.84967" lon="2.22129">
        <ele>39.599998474121</ele>
        <time>2016-05-16T19:57:39.000Z</time>
      </trkpt>
      <trkpt lat="48.84971" lon="2.22145">
        <ele>37.599998474121</ele>
        <time>2016-05-16T19:57:43.000Z</time>
      </trkpt>
      <trkpt lat="48.84971" lon="2.22149">
        <ele>37.200000762939</ele>
        <time>2016-05-16T19:57:44.000Z</time>
      </trkpt>
      <trkpt lat="48.84989" lon="2.22158">
        <ele>35.599998474121</ele>
        <time>2016-05-16T19:57:52.000Z</time>
      </trkpt>
      <trkpt lat="48.85007" lon="2.22153">
        <ele>35.599998474121</ele>
        <time>2016-05-16T19:57:58.000Z</time>
      </trkpt>
      <trkpt lat="48.85025" lon="2.22152">
        <ele>34.799999237061</ele>
        <time>2016-05-16T19:58:04.000Z</time>
      </trkpt>
      <trkpt lat="48.85045" lon="2.22156">
        <ele>34</ele>
        <time>2016-05-16T19:58:09.000Z</time>
      </trkpt>
      <trkpt lat="48.85064" lon="2.22157">
        <ele>33.400001525879</ele>
        <time>2016-05-16T19:58:13.000Z</time>
      </trkpt>
      <trkpt lat="48.85087" lon="2.22157">
        <ele>32.799999237061</ele>
        <time>2016-05-16T19:58:17.000Z</time>
      </trkpt>
      <trkpt lat="48.85108" lon="2.22155">
        <ele>32.799999237061</ele>
        <time>2016-05-16T19:58:21.000Z</time>
      </trkpt>
      <trkpt lat="48.85127" lon="2.22152">
        <ele>33.200000762939</ele>
        <time>2016-05-16T19:58:25.000Z</time>
      </trkpt>
      <trkpt lat="48.85146" lon="2.22149">
        <ele>33.799999237061</ele>
        <time>2016-05-16T19:58:29.000Z</time>
      </trkpt>
      <trkpt lat="48.85155" lon="2.22148">
        <ele>33.799999237061</ele>
        <time>2016-05-16T19:58:31.000Z</time>
      </trkpt>
      <trkpt lat="48.85173" lon="2.22149">
        <ele>34</ele>
        <time>2016-05-16T19:58:35.000Z</time>
      </trkpt>
      <trkpt lat="48.85177" lon="2.22149">
        <ele>34</ele>
        <time>2016-05-16T19:58:36.000Z</time>
      </trkpt>
      <trkpt lat="48.85196" lon="2.22146">
        <ele>34</ele>
        <time>2016-05-16T19:58:41.000Z</time>
      </trkpt>
      <trkpt lat="48.85215" lon="2.22141">
        <ele>34.599998474121</ele>
        <time>2016-05-16T19:58:48.000Z</time>
      </trkpt>
      <trkpt lat="48.85218" lon="2.22141">
        <ele>34.599998474121</ele>
        <time>2016-05-16T19:58:49.000Z</time>
      </trkpt>
      <trkpt lat="48.85238" lon="2.22141">
        <ele>34.799999237061</ele>
        <time>2016-05-16T19:58:55.000Z</time>
      </trkpt>
      <trkpt lat="48.85258" lon="2.22141">
        <ele>35</ele>
        <time>2016-05-16T19:59:02.000Z</time>
      </trkpt>
      <trkpt lat="48.85266" lon="2.22143">
        <ele>34.799999237061</ele>
        <time>2016-05-16T19:59:06.000Z</time>
      </trkpt>
      <trkpt lat="48.85284" lon="2.22147">
        <ele>34.400001525879</ele>
        <time>2016-05-16T19:59:15.000Z</time>
      </trkpt>
      <trkpt lat="48.85291" lon="2.2215">
        <ele>34.200000762939</ele>
        <time>2016-05-16T19:59:19.000Z</time>
      </trkpt>
      <trkpt lat="48.85311" lon="2.22146">
        <ele>33.799999237061</ele>
        <time>2016-05-16T19:59:27.000Z</time>
      </trkpt>
      <trkpt lat="48.8533" lon="2.22148">
        <ele>33.400001525879</ele>
        <time>2016-05-16T19:59:33.000Z</time>
      </trkpt>
      <trkpt lat="48.8535" lon="2.22148">
        <ele>32.799999237061</ele>
        <time>2016-05-16T19:59:39.000Z</time>
      </trkpt>
      <trkpt lat="48.85372" lon="2.22155">
        <ele>32.400001525879</ele>
        <time>2016-05-16T19:59:45.000Z</time>
      </trkpt>
      <trkpt lat="48.85391" lon="2.22159">
        <ele>32.200000762939</ele>
        <time>2016-05-16T19:59:51.000Z</time>
      </trkpt>
      <trkpt lat="48.85412" lon="2.22167">
        <ele>31.799999237061</ele>
        <time>2016-05-16T19:59:56.000Z</time>
      </trkpt>
      <trkpt lat="48.8543" lon="2.2217">
        <ele>31.799999237061</ele>
        <time>2016-05-16T20:00:01.000Z</time>
      </trkpt>
      <trkpt lat="48.85449" lon="2.22172">
        <ele>31.799999237061</ele>
        <time>2016-05-16T20:00:06.000Z</time>
      </trkpt>
      <trkpt lat="48.8547" lon="2.22173">
        <ele>31.799999237061</ele>
        <time>2016-05-16T20:00:11.000Z</time>
      </trkpt>
      <trkpt lat="48.8549" lon="2.22176">
        <ele>31.799999237061</ele>
        <time>2016-05-16T20:00:16.000Z</time>
      </trkpt>
      <trkpt lat="48.85511" lon="2.2218">
        <ele>31.799999237061</ele>
        <time>2016-05-16T20:00:21.000Z</time>
      </trkpt>
      <trkpt lat="48.85531" lon="2.22183">
        <ele>31.799999237061</ele>
        <time>2016-05-16T20:00:26.000Z</time>
      </trkpt>
      <trkpt lat="48.85552" lon="2.22184">
        <ele>32</ele>
        <time>2016-05-16T20:00:31.000Z</time>
      </trkpt>
      <trkpt lat="48.85572" lon="2.22187">
        <ele>32.200000762939</ele>
        <time>2016-05-16T20:00:37.000Z</time>
      </trkpt>
      <trkpt lat="48.85592" lon="2.22193">
        <ele>32.599998474121</ele>
        <time>2016-05-16T20:00:44.000Z</time>
      </trkpt>
      <trkpt lat="48.85611" lon="2.22196">
        <ele>32.799999237061</ele>
        <time>2016-05-16T20:00:50.000Z</time>
      </trkpt>
      <trkpt lat="48.85629" lon="2.22199">
        <ele>33.200000762939</ele>
        <time>2016-05-16T20:00:55.000Z</time>
      </trkpt>
      <trkpt lat="48.85648" lon="2.22201">
        <ele>33.599998474121</ele>
        <time>2016-05-16T20:01:00.000Z</time>
      </trkpt>
      <trkpt lat="48.85666" lon="2.22203">
        <ele>34.200000762939</ele>
        <time>2016-05-16T20:01:07.000Z</time>
      </trkpt>
      <trkpt lat="48.85671" lon="2.22201">
        <ele>34.400001525879</ele>
        <time>2016-05-16T20:01:52.000Z</time>
      </trkpt>
      <trkpt lat="48.85692" lon="2.22207">
        <ele>34.799999237061</ele>
        <time>2016-05-16T20:02:01.000Z</time>
      </trkpt>
      <trkpt lat="48.85712" lon="2.22212">
        <ele>34.400001525879</ele>
        <time>2016-05-16T20:02:07.000Z</time>
      </trkpt>
      <trkpt lat="48.85731" lon="2.2222">
        <ele>33.799999237061</ele>
        <time>2016-05-16T20:02:13.000Z</time>
      </trkpt>
      <trkpt lat="48.85751" lon="2.22221">
        <ele>33.400001525879</ele>
        <time>2016-05-16T20:02:18.000Z</time>
      </trkpt>
      <trkpt lat="48.8577" lon="2.22223">
        <ele>33.400001525879</ele>
        <time>2016-05-16T20:02:23.000Z</time>
      </trkpt>
      <trkpt lat="48.8579" lon="2.22228">
        <ele>33.799999237061</ele>
        <time>2016-05-16T20:02:28.000Z</time>
      </trkpt>
      <trkpt lat="48.85811" lon="2.22233">
        <ele>34.200000762939</ele>
        <time>2016-05-16T20:02:33.000Z</time>
      </trkpt>
      <trkpt lat="48.85831" lon="2.22239">
        <ele>34.400001525879</ele>
        <time>2016-05-16T20:02:38.000Z</time>
      </trkpt>
      <trkpt lat="48.85841" lon="2.22262">
        <ele>34</ele>
        <time>2016-05-16T20:02:44.000Z</time>
      </trkpt>
      <trkpt lat="48.85843" lon="2.22293">
        <ele>33.400001525879</ele>
        <time>2016-05-16T20:02:50.000Z</time>
      </trkpt>
      <trkpt lat="48.85845" lon="2.22324">
        <ele>32.799999237061</ele>
        <time>2016-05-16T20:02:56.000Z</time>
      </trkpt>
      <trkpt lat="48.85845" lon="2.22354">
        <ele>31.799999237061</ele>
        <time>2016-05-16T20:03:02.000Z</time>
      </trkpt>
      <trkpt lat="48.85848" lon="2.22374">
        <ele>31.200000762939</ele>
        <time>2016-05-16T20:03:08.000Z</time>
      </trkpt>
      <trkpt lat="48.85863" lon="2.2238">
        <ele>31</ele>
        <time>2016-05-16T20:03:13.000Z</time>
      </trkpt>
      <trkpt lat="48.85883" lon="2.22386">
        <ele>30.200000762939</ele>
        <time>2016-05-16T20:03:18.000Z</time>
      </trkpt>
      <trkpt lat="48.85902" lon="2.22394">
        <ele>29.60000038147</ele>
        <time>2016-05-16T20:03:23.000Z</time>
      </trkpt>
      <trkpt lat="48.85919" lon="2.22404">
        <ele>28.799999237061</ele>
        <time>2016-05-16T20:03:27.000Z</time>
      </trkpt>
      <trkpt lat="48.85939" lon="2.22419">
        <ele>28</ele>
        <time>2016-05-16T20:03:32.000Z</time>
      </trkpt>
      <trkpt lat="48.8596" lon="2.22431">
        <ele>28</ele>
        <time>2016-05-16T20:03:37.000Z</time>
      </trkpt>
      <trkpt lat="48.8598" lon="2.22442">
        <ele>28.60000038147</ele>
        <time>2016-05-16T20:03:42.000Z</time>
      </trkpt>
      <trkpt lat="48.86" lon="2.22451">
        <ele>29</ele>
        <time>2016-05-16T20:03:47.000Z</time>
      </trkpt>
      <trkpt lat="48.86018" lon="2.2246">
        <ele>29.39999961853</ele>
        <time>2016-05-16T20:03:52.000Z</time>
      </trkpt>
      <trkpt lat="48.86038" lon="2.22469">
        <ele>29.60000038147</ele>
        <time>2016-05-16T20:03:57.000Z</time>
      </trkpt>
      <trkpt lat="48.86058" lon="2.22478">
        <ele>29.60000038147</ele>
        <time>2016-05-16T20:04:02.000Z</time>
      </trkpt>
      <trkpt lat="48.86079" lon="2.2249">
        <ele>29.60000038147</ele>
        <time>2016-05-16T20:04:07.000Z</time>
      </trkpt>
      <trkpt lat="48.86098" lon="2.225">
        <ele>30</ele>
        <time>2016-05-16T20:04:11.000Z</time>
      </trkpt>
      <trkpt lat="48.86114" lon="2.22508">
        <ele>30.39999961853</ele>
        <time>2016-05-16T20:04:15.000Z</time>
      </trkpt>
      <trkpt lat="48.86131" lon="2.22518">
        <ele>30.799999237061</ele>
        <time>2016-05-16T20:04:20.000Z</time>
      </trkpt>
      <trkpt lat="48.86153" lon="2.22531">
        <ele>31.60000038147</ele>
        <time>2016-05-16T20:04:26.000Z</time>
      </trkpt>
      <trkpt lat="48.86171" lon="2.22538">
        <ele>32</ele>
        <time>2016-05-16T20:04:30.000Z</time>
      </trkpt>
      <trkpt lat="48.86185" lon="2.22546">
        <ele>32.400001525879</ele>
        <time>2016-05-16T20:04:34.000Z</time>
      </trkpt>
      <trkpt lat="48.86198" lon="2.22553">
        <ele>32.200000762939</ele>
        <time>2016-05-16T20:04:37.000Z</time>
      </trkpt>
      <trkpt lat="48.86217" lon="2.22565">
        <ele>31.39999961853</ele>
        <time>2016-05-16T20:04:42.000Z</time>
      </trkpt>
      <trkpt lat="48.86234" lon="2.22577">
        <ele>30.799999237061</ele>
        <time>2016-05-16T20:04:46.000Z</time>
      </trkpt>
      <trkpt lat="48.8625" lon="2.22588">
        <ele>29.799999237061</ele>
        <time>2016-05-16T20:04:50.000Z</time>
      </trkpt>
      <trkpt lat="48.86274" lon="2.22595">
        <ele>28.39999961853</ele>
        <time>2016-05-16T20:04:53.000Z</time>
      </trkpt>
      <trkpt lat="48.86293" lon="2.22605">
        <ele>28</ele>
        <time>2016-05-16T20:04:56.000Z</time>
      </trkpt>
      <trkpt lat="48.86311" lon="2.22616">
        <ele>27.60000038147</ele>
        <time>2016-05-16T20:04:59.000Z</time>
      </trkpt>
      <trkpt lat="48.86332" lon="2.22629">
        <ele>27.39999961853</ele>
        <time>2016-05-16T20:05:03.000Z</time>
      </trkpt>
      <trkpt lat="48.8635" lon="2.22641">
        <ele>27</ele>
        <time>2016-05-16T20:05:07.000Z</time>
      </trkpt>
      <trkpt lat="48.86368" lon="2.2265">
        <ele>26.799999237061</ele>
        <time>2016-05-16T20:05:11.000Z</time>
      </trkpt>
      <trkpt lat="48.86387" lon="2.22659">
        <ele>26.799999237061</ele>
        <time>2016-05-16T20:05:15.000Z</time>
      </trkpt>
      <trkpt lat="48.86405" lon="2.22669">
        <ele>27.39999961853</ele>
        <time>2016-05-16T20:05:19.000Z</time>
      </trkpt>
      <trkpt lat="48.8642" lon="2.22677">
        <ele>28</ele>
        <time>2016-05-16T20:05:22.000Z</time>
      </trkpt>
      <trkpt lat="48.8644" lon="2.22687">
        <ele>28.60000038147</ele>
        <time>2016-05-16T20:05:26.000Z</time>
      </trkpt>
      <trkpt lat="48.8645" lon="2.22691">
        <ele>29.200000762939</ele>
        <time>2016-05-16T20:05:28.000Z</time>
      </trkpt>
      <trkpt lat="48.86471" lon="2.22698">
        <ele>30.39999961853</ele>
        <time>2016-05-16T20:05:32.000Z</time>
      </trkpt>
      <trkpt lat="48.86492" lon="2.22704">
        <ele>31.60000038147</ele>
        <time>2016-05-16T20:05:36.000Z</time>
      </trkpt>
      <trkpt lat="48.8651" lon="2.22711">
        <ele>32.599998474121</ele>
        <time>2016-05-16T20:05:40.000Z</time>
      </trkpt>
      <trkpt lat="48.86537" lon="2.22723">
        <ele>33.599998474121</ele>
        <time>2016-05-16T20:05:44.000Z</time>
      </trkpt>
      <trkpt lat="48.86554" lon="2.22734">
        <ele>34</ele>
        <time>2016-05-16T20:05:47.000Z</time>
      </trkpt>
      <trkpt lat="48.86571" lon="2.22745">
        <ele>34.599998474121</ele>
        <time>2016-05-16T20:05:50.000Z</time>
      </trkpt>
      <trkpt lat="48.86591" lon="2.2276">
        <ele>34.599998474121</ele>
        <time>2016-05-16T20:05:54.000Z</time>
      </trkpt>
      <trkpt lat="48.8661" lon="2.22772">
        <ele>34.599998474121</ele>
        <time>2016-05-16T20:05:58.000Z</time>
      </trkpt>
      <trkpt lat="48.86614" lon="2.22775">
        <ele>34.599998474121</ele>
        <time>2016-05-16T20:05:59.000Z</time>
      </trkpt>
      <trkpt lat="48.86632" lon="2.22789">
        <ele>34.200000762939</ele>
        <time>2016-05-16T20:06:03.000Z</time>
      </trkpt>
      <trkpt lat="48.8665" lon="2.22804">
        <ele>33.799999237061</ele>
        <time>2016-05-16T20:06:07.000Z</time>
      </trkpt>
      <trkpt lat="48.86668" lon="2.22818">
        <ele>33.400001525879</ele>
        <time>2016-05-16T20:06:11.000Z</time>
      </trkpt>
      <trkpt lat="48.86687" lon="2.22831">
        <ele>33.200000762939</ele>
        <time>2016-05-16T20:06:15.000Z</time>
      </trkpt>
      <trkpt lat="48.86708" lon="2.22844">
        <ele>32.400001525879</ele>
        <time>2016-05-16T20:06:19.000Z</time>
      </trkpt>
      <trkpt lat="48.86728" lon="2.22859">
        <ele>31.799999237061</ele>
        <time>2016-05-16T20:06:23.000Z</time>
      </trkpt>
      <trkpt lat="48.86746" lon="2.22875">
        <ele>31</ele>
        <time>2016-05-16T20:06:27.000Z</time>
      </trkpt>
      <trkpt lat="48.86755" lon="2.22882">
        <ele>30.799999237061</ele>
        <time>2016-05-16T20:06:29.000Z</time>
      </trkpt>
      <trkpt lat="48.86774" lon="2.22897">
        <ele>30.200000762939</ele>
        <time>2016-05-16T20:06:33.000Z</time>
      </trkpt>
      <trkpt lat="48.86792" lon="2.22913">
        <ele>30.60000038147</ele>
        <time>2016-05-16T20:06:37.000Z</time>
      </trkpt>
      <trkpt lat="48.8681" lon="2.22932">
        <ele>31.200000762939</ele>
        <time>2016-05-16T20:06:41.000Z</time>
      </trkpt>
      <trkpt lat="48.8683" lon="2.22952">
        <ele>31.60000038147</ele>
        <time>2016-05-16T20:06:45.000Z</time>
      </trkpt>
      <trkpt lat="48.86848" lon="2.22972">
        <ele>32</ele>
        <time>2016-05-16T20:06:49.000Z</time>
      </trkpt>
      <trkpt lat="48.86867" lon="2.22993">
        <ele>32.200000762939</ele>
        <time>2016-05-16T20:06:53.000Z</time>
      </trkpt>
      <trkpt lat="48.86883" lon="2.23013">
        <ele>32</ele>
        <time>2016-05-16T20:06:57.000Z</time>
      </trkpt>
      <trkpt lat="48.86899" lon="2.23032">
        <ele>31.799999237061</ele>
        <time>2016-05-16T20:07:01.000Z</time>
      </trkpt>
      <trkpt lat="48.86917" lon="2.23052">
        <ele>31.39999961853</ele>
        <time>2016-05-16T20:07:05.000Z</time>
      </trkpt>
      <trkpt lat="48.86935" lon="2.23074">
        <ele>31</ele>
        <time>2016-05-16T20:07:09.000Z</time>
      </trkpt>
      <trkpt lat="48.86955" lon="2.23094">
        <ele>31</ele>
        <time>2016-05-16T20:07:13.000Z</time>
      </trkpt>
      <trkpt lat="48.86974" lon="2.23114">
        <ele>31</ele>
        <time>2016-05-16T20:07:17.000Z</time>
      </trkpt>
      <trkpt lat="48.86991" lon="2.23133">
        <ele>30.799999237061</ele>
        <time>2016-05-16T20:07:21.000Z</time>
      </trkpt>
      <trkpt lat="48.87008" lon="2.23152">
        <ele>30.799999237061</ele>
        <time>2016-05-16T20:07:25.000Z</time>
      </trkpt>
      <trkpt lat="48.87025" lon="2.23173">
        <ele>30.60000038147</ele>
        <time>2016-05-16T20:07:29.000Z</time>
      </trkpt>
      <trkpt lat="48.87042" lon="2.23192">
        <ele>30</ele>
        <time>2016-05-16T20:07:33.000Z</time>
      </trkpt>
      <trkpt lat="48.87061" lon="2.23209">
        <ele>29.200000762939</ele>
        <time>2016-05-16T20:07:37.000Z</time>
      </trkpt>
      <trkpt lat="48.87078" lon="2.23228">
        <ele>28.60000038147</ele>
        <time>2016-05-16T20:07:41.000Z</time>
      </trkpt>
      <trkpt lat="48.87095" lon="2.23247">
        <ele>28</ele>
        <time>2016-05-16T20:07:45.000Z</time>
      </trkpt>
      <trkpt lat="48.87112" lon="2.23267">
        <ele>27.60000038147</ele>
        <time>2016-05-16T20:07:49.000Z</time>
      </trkpt>
      <trkpt lat="48.87128" lon="2.23288">
        <ele>27.39999961853</ele>
        <time>2016-05-16T20:07:53.000Z</time>
      </trkpt>
      <trkpt lat="48.87144" lon="2.23303">
        <ele>27.60000038147</ele>
        <time>2016-05-16T20:07:56.000Z</time>
      </trkpt>
      <trkpt lat="48.87163" lon="2.2332">
        <ele>27.60000038147</ele>
        <time>2016-05-16T20:08:00.000Z</time>
      </trkpt>
      <trkpt lat="48.87182" lon="2.23333">
        <ele>27.799999237061</ele>
        <time>2016-05-16T20:08:04.000Z</time>
      </trkpt>
      <trkpt lat="48.87199" lon="2.23353">
        <ele>28.799999237061</ele>
        <time>2016-05-16T20:08:08.000Z</time>
      </trkpt>
      <trkpt lat="48.87215" lon="2.23375">
        <ele>30.39999961853</ele>
        <time>2016-05-16T20:08:12.000Z</time>
      </trkpt>
      <trkpt lat="48.8723" lon="2.23393">
        <ele>32.200000762939</ele>
        <time>2016-05-16T20:08:15.000Z</time>
      </trkpt>
      <trkpt lat="48.87248" lon="2.23414">
        <ele>33.799999237061</ele>
        <time>2016-05-16T20:08:19.000Z</time>
      </trkpt>
      <trkpt lat="48.87266" lon="2.23437">
        <ele>33.400001525879</ele>
        <time>2016-05-16T20:08:23.000Z</time>
      </trkpt>
      <trkpt lat="48.87281" lon="2.23462">
        <ele>31.799999237061</ele>
        <time>2016-05-16T20:08:27.000Z</time>
      </trkpt>
      <trkpt lat="48.87295" lon="2.23491">
        <ele>29</ele>
        <time>2016-05-16T20:08:31.000Z</time>
      </trkpt>
      <trkpt lat="48.87311" lon="2.23517">
        <ele>27.799999237061</ele>
        <time>2016-05-16T20:08:35.000Z</time>
      </trkpt>
      <trkpt lat="48.87321" lon="2.23534">
        <ele>27.39999961853</ele>
        <time>2016-05-16T20:08:38.000Z</time>
      </trkpt>
      <trkpt lat="48.87334" lon="2.23555">
        <ele>26.60000038147</ele>
        <time>2016-05-16T20:08:42.000Z</time>
      </trkpt>
      <trkpt lat="48.87347" lon="2.23577">
        <ele>25.799999237061</ele>
        <time>2016-05-16T20:08:46.000Z</time>
      </trkpt>
      <trkpt lat="48.87361" lon="2.236">
        <ele>25.799999237061</ele>
        <time>2016-05-16T20:08:50.000Z</time>
      </trkpt>
      <trkpt lat="48.87372" lon="2.23623">
        <ele>26.200000762939</ele>
        <time>2016-05-16T20:08:54.000Z</time>
      </trkpt>
      <trkpt lat="48.87386" lon="2.23645">
        <ele>26.60000038147</ele>
        <time>2016-05-16T20:08:58.000Z</time>
      </trkpt>
      <trkpt lat="48.874" lon="2.23667">
        <ele>27</ele>
        <time>2016-05-16T20:09:02.000Z</time>
      </trkpt>
      <trkpt lat="48.87416" lon="2.23689">
        <ele>27.39999961853</ele>
        <time>2016-05-16T20:09:06.000Z</time>
      </trkpt>
      <trkpt lat="48.87429" lon="2.23711">
        <ele>27.39999961853</ele>
        <time>2016-05-16T20:09:10.000Z</time>
      </trkpt>
      <trkpt lat="48.87443" lon="2.23733">
        <ele>27.799999237061</ele>
        <time>2016-05-16T20:09:14.000Z</time>
      </trkpt>
      <trkpt lat="48.87459" lon="2.23756">
        <ele>29.200000762939</ele>
        <time>2016-05-16T20:09:18.000Z</time>
      </trkpt>
      <trkpt lat="48.87476" lon="2.23776">
        <ele>31</ele>
        <time>2016-05-16T20:09:22.000Z</time>
      </trkpt>
      <trkpt lat="48.8749" lon="2.23798">
        <ele>32.599998474121</ele>
        <time>2016-05-16T20:09:26.000Z</time>
      </trkpt>
      <trkpt lat="48.87507" lon="2.23821">
        <ele>34.599998474121</ele>
        <time>2016-05-16T20:09:30.000Z</time>
      </trkpt>
      <trkpt lat="48.87511" lon="2.23826">
        <ele>35.200000762939</ele>
        <time>2016-05-16T20:09:31.000Z</time>
      </trkpt>
      <trkpt lat="48.87525" lon="2.23844">
        <ele>36.599998474121</ele>
        <time>2016-05-16T20:09:34.000Z</time>
      </trkpt>
      <trkpt lat="48.87537" lon="2.2386">
        <ele>36.400001525879</ele>
        <time>2016-05-16T20:09:37.000Z</time>
      </trkpt>
      <trkpt lat="48.87548" lon="2.23876">
        <ele>36.400001525879</ele>
        <time>2016-05-16T20:09:40.000Z</time>
      </trkpt>
      <trkpt lat="48.87563" lon="2.23897">
        <ele>36.400001525879</ele>
        <time>2016-05-16T20:09:44.000Z</time>
      </trkpt>
      <trkpt lat="48.87575" lon="2.23914">
        <ele>36.200000762939</ele>
        <time>2016-05-16T20:09:47.000Z</time>
      </trkpt>
      <trkpt lat="48.87587" lon="2.23938">
        <ele>33.799999237061</ele>
        <time>2016-05-16T20:09:51.000Z</time>
      </trkpt>
      <trkpt lat="48.876" lon="2.23959">
        <ele>31.60000038147</ele>
        <time>2016-05-16T20:09:55.000Z</time>
      </trkpt>
      <trkpt lat="48.87614" lon="2.23976">
        <ele>30.60000038147</ele>
        <time>2016-05-16T20:09:59.000Z</time>
      </trkpt>
      <trkpt lat="48.87617" lon="2.23981">
        <ele>30.39999961853</ele>
        <time>2016-05-16T20:10:00.000Z</time>
      </trkpt>
      <trkpt lat="48.87632" lon="2.24005">
        <ele>30</ele>
        <time>2016-05-16T20:10:05.000Z</time>
      </trkpt>
      <trkpt lat="48.87637" lon="2.24014">
        <ele>30</ele>
        <time>2016-05-16T20:10:07.000Z</time>
      </trkpt>
      <trkpt lat="48.87648" lon="2.24033">
        <ele>30</ele>
        <time>2016-05-16T20:10:11.000Z</time>
      </trkpt>
      <trkpt lat="48.87661" lon="2.24054">
        <ele>30.60000038147</ele>
        <time>2016-05-16T20:10:16.000Z</time>
      </trkpt>
      <trkpt lat="48.87675" lon="2.24074">
        <ele>31.39999961853</ele>
        <time>2016-05-16T20:10:21.000Z</time>
      </trkpt>
      <trkpt lat="48.8769" lon="2.24094">
        <ele>31</ele>
        <time>2016-05-16T20:10:27.000Z</time>
      </trkpt>
      <trkpt lat="48.87693" lon="2.24099">
        <ele>31.200000762939</ele>
        <time>2016-05-16T20:10:29.000Z</time>
      </trkpt>
      <trkpt lat="48.87701" lon="2.2411">
        <ele>31.39999961853</ele>
        <time>2016-05-16T20:10:35.000Z</time>
      </trkpt>
      <trkpt lat="48.87701" lon="2.24115">
        <ele>31.39999961853</ele>
        <time>2016-05-16T20:10:37.000Z</time>
      </trkpt>
      <trkpt lat="48.87714" lon="2.24119">
        <ele>31.799999237061</ele>
        <time>2016-05-16T20:10:57.000Z</time>
      </trkpt>
      <trkpt lat="48.87729" lon="2.24136">
        <ele>32.400001525879</ele>
        <time>2016-05-16T20:11:02.000Z</time>
      </trkpt>
      <trkpt lat="48.87744" lon="2.24157">
        <ele>33</ele>
        <time>2016-05-16T20:11:07.000Z</time>
      </trkpt>
      <trkpt lat="48.8776" lon="2.24177">
        <ele>33.200000762939</ele>
        <time>2016-05-16T20:11:12.000Z</time>
      </trkpt>
      <trkpt lat="48.87773" lon="2.24194">
        <ele>33.200000762939</ele>
        <time>2016-05-16T20:11:17.000Z</time>
      </trkpt>
      <trkpt lat="48.87788" lon="2.2421">
        <ele>33</ele>
        <time>2016-05-16T20:11:22.000Z</time>
      </trkpt>
      <trkpt lat="48.87802" lon="2.24229">
        <ele>32.799999237061</ele>
        <time>2016-05-16T20:11:28.000Z</time>
      </trkpt>
      <trkpt lat="48.87815" lon="2.2425">
        <ele>32.400001525879</ele>
        <time>2016-05-16T20:11:36.000Z</time>
      </trkpt>
      <trkpt lat="48.87809" lon="2.24273">
        <ele>31.799999237061</ele>
        <time>2016-05-16T20:12:09.000Z</time>
      </trkpt>
      <trkpt lat="48.87795" lon="2.24294">
        <ele>32.400001525879</ele>
        <time>2016-05-16T20:12:16.000Z</time>
      </trkpt>
      <trkpt lat="48.87781" lon="2.24312">
        <ele>33.400001525879</ele>
        <time>2016-05-16T20:12:22.000Z</time>
      </trkpt>
      <trkpt lat="48.87767" lon="2.24331">
        <ele>34</ele>
        <time>2016-05-16T20:12:28.000Z</time>
      </trkpt>
      <trkpt lat="48.87753" lon="2.2435">
        <ele>33.799999237061</ele>
        <time>2016-05-16T20:12:34.000Z</time>
      </trkpt>
      <trkpt lat="48.87739" lon="2.2437">
        <ele>33.599998474121</ele>
        <time>2016-05-16T20:12:40.000Z</time>
      </trkpt>
      <trkpt lat="48.87736" lon="2.24373">
        <ele>33.599998474121</ele>
        <time>2016-05-16T20:12:42.000Z</time>
      </trkpt>
      <trkpt lat="48.87731" lon="2.24378">
        <ele>33.599998474121</ele>
        <time>2016-05-16T20:12:46.000Z</time>
      </trkpt>
      <trkpt lat="48.87728" lon="2.24381">
        <ele>33.599998474121</ele>
        <time>2016-05-16T20:12:49.000Z</time>
      </trkpt>
      <trkpt lat="48.87723" lon="2.24394">
        <ele>33.799999237061</ele>
        <time>2016-05-16T20:12:53.000Z</time>
      </trkpt>
      <trkpt lat="48.87711" lon="2.24419">
        <ele>33.799999237061</ele>
        <time>2016-05-16T20:13:00.000Z</time>
      </trkpt>
      <trkpt lat="48.87699" lon="2.24442">
        <ele>32.799999237061</ele>
        <time>2016-05-16T20:13:05.000Z</time>
      </trkpt>
      <trkpt lat="48.87688" lon="2.24465">
        <ele>32</ele>
        <time>2016-05-16T20:13:09.000Z</time>
      </trkpt>
      <trkpt lat="48.87677" lon="2.24489">
        <ele>31</ele>
        <time>2016-05-16T20:13:13.000Z</time>
      </trkpt>
      <trkpt lat="48.87665" lon="2.24515">
        <ele>30.200000762939</ele>
        <time>2016-05-16T20:13:17.000Z</time>
      </trkpt>
      <trkpt lat="48.87652" lon="2.24544">
        <ele>29.39999961853</ele>
        <time>2016-05-16T20:13:21.000Z</time>
      </trkpt>
      <trkpt lat="48.8764" lon="2.24572">
        <ele>30.799999237061</ele>
        <time>2016-05-16T20:13:25.000Z</time>
      </trkpt>
      <trkpt lat="48.8763" lon="2.24599">
        <ele>32.400001525879</ele>
        <time>2016-05-16T20:13:29.000Z</time>
      </trkpt>
      <trkpt lat="48.87622" lon="2.24618">
        <ele>33</ele>
        <time>2016-05-16T20:13:32.000Z</time>
      </trkpt>
      <trkpt lat="48.87613" lon="2.24641">
        <ele>33.599998474121</ele>
        <time>2016-05-16T20:13:36.000Z</time>
      </trkpt>
      <trkpt lat="48.8761" lon="2.24654">
        <ele>33.799999237061</ele>
        <time>2016-05-16T20:13:38.000Z</time>
      </trkpt>
      <trkpt lat="48.87605" lon="2.24684">
        <ele>34.200000762939</ele>
        <time>2016-05-16T20:13:42.000Z</time>
      </trkpt>
      <trkpt lat="48.87599" lon="2.24718">
        <ele>34.200000762939</ele>
        <time>2016-05-16T20:13:46.000Z</time>
      </trkpt>
      <trkpt lat="48.87594" lon="2.24752">
        <ele>34.400001525879</ele>
        <time>2016-05-16T20:13:50.000Z</time>
      </trkpt>
      <trkpt lat="48.87586" lon="2.24784">
        <ele>35.200000762939</ele>
        <time>2016-05-16T20:13:54.000Z</time>
      </trkpt>
      <trkpt lat="48.87579" lon="2.24814">
        <ele>36</ele>
        <time>2016-05-16T20:13:58.000Z</time>
      </trkpt>
      <trkpt lat="48.87575" lon="2.24842">
        <ele>36.799999237061</ele>
        <time>2016-05-16T20:14:02.000Z</time>
      </trkpt>
      <trkpt lat="48.8757" lon="2.24874">
        <ele>36.200000762939</ele>
        <time>2016-05-16T20:14:06.000Z</time>
      </trkpt>
      <trkpt lat="48.87568" lon="2.24889">
        <ele>36.200000762939</ele>
        <time>2016-05-16T20:14:08.000Z</time>
      </trkpt>
      <trkpt lat="48.87565" lon="2.24917">
        <ele>36.599998474121</ele>
        <time>2016-05-16T20:14:12.000Z</time>
      </trkpt>
      <trkpt lat="48.87558" lon="2.24946">
        <ele>37.200000762939</ele>
        <time>2016-05-16T20:14:18.000Z</time>
      </trkpt>
      <trkpt lat="48.87557" lon="2.24948">
        <ele>37.200000762939</ele>
        <time>2016-05-16T20:14:19.000Z</time>
      </trkpt>
      <trkpt lat="48.87551" lon="2.24957">
        <ele>37.200000762939</ele>
        <time>2016-05-16T20:14:29.000Z</time>
      </trkpt>
      <trkpt lat="48.8756" lon="2.24977">
        <ele>37.599998474121</ele>
        <time>2016-05-16T20:14:42.000Z</time>
      </trkpt>
      <trkpt lat="48.87577" lon="2.2499">
        <ele>38.200000762939</ele>
        <time>2016-05-16T20:14:48.000Z</time>
      </trkpt>
      <trkpt lat="48.87595" lon="2.25">
        <ele>38.799999237061</ele>
        <time>2016-05-16T20:14:54.000Z</time>
      </trkpt>
      <trkpt lat="48.87614" lon="2.2501">
        <ele>39</ele>
        <time>2016-05-16T20:15:02.000Z</time>
      </trkpt>
      <trkpt lat="48.8763" lon="2.25029">
        <ele>38.799999237061</ele>
        <time>2016-05-16T20:15:09.000Z</time>
      </trkpt>
      <trkpt lat="48.87647" lon="2.25042">
        <ele>38.599998474121</ele>
        <time>2016-05-16T20:15:16.000Z</time>
      </trkpt>
      <trkpt lat="48.87656" lon="2.25062">
        <ele>38.599998474121</ele>
        <time>2016-05-16T20:15:22.000Z</time>
      </trkpt>
      <trkpt lat="48.87659" lon="2.25088">
        <ele>38.799999237061</ele>
        <time>2016-05-16T20:15:28.000Z</time>
      </trkpt>
      <trkpt lat="48.8765" lon="2.25116">
        <ele>39</ele>
        <time>2016-05-16T20:15:34.000Z</time>
      </trkpt>
      <trkpt lat="48.8765" lon="2.25144">
        <ele>39</ele>
        <time>2016-05-16T20:15:40.000Z</time>
      </trkpt>
      <trkpt lat="48.87651" lon="2.25173">
        <ele>39</ele>
        <time>2016-05-16T20:15:46.000Z</time>
      </trkpt>
      <trkpt lat="48.87652" lon="2.25187">
        <ele>39.200000762939</ele>
        <time>2016-05-16T20:15:50.000Z</time>
      </trkpt>
      <trkpt lat="48.87648" lon="2.25197">
        <ele>39.400001525879</ele>
        <time>2016-05-16T20:15:55.000Z</time>
      </trkpt>
      <trkpt lat="48.87631" lon="2.25209">
        <ele>39.400001525879</ele>
        <time>2016-05-16T20:16:03.000Z</time>
      </trkpt>
      <trkpt lat="48.87625" lon="2.25234">
        <ele>39.200000762939</ele>
        <time>2016-05-16T20:16:09.000Z</time>
      </trkpt>
      <trkpt lat="48.87618" lon="2.2526">
        <ele>39.200000762939</ele>
        <time>2016-05-16T20:16:14.000Z</time>
      </trkpt>
      <trkpt lat="48.8761" lon="2.25287">
        <ele>40</ele>
        <time>2016-05-16T20:16:19.000Z</time>
      </trkpt>
      <trkpt lat="48.87606" lon="2.25319">
        <ele>40.799999237061</ele>
        <time>2016-05-16T20:16:24.000Z</time>
      </trkpt>
      <trkpt lat="48.87605" lon="2.25347">
        <ele>41</ele>
        <time>2016-05-16T20:16:28.000Z</time>
      </trkpt>
      <trkpt lat="48.87605" lon="2.25375">
        <ele>41</ele>
        <time>2016-05-16T20:16:32.000Z</time>
      </trkpt>
      <trkpt lat="48.87603" lon="2.25407">
        <ele>40.799999237061</ele>
        <time>2016-05-16T20:16:37.000Z</time>
      </trkpt>
      <trkpt lat="48.87599" lon="2.2544">
        <ele>40.799999237061</ele>
        <time>2016-05-16T20:16:42.000Z</time>
      </trkpt>
      <trkpt lat="48.87591" lon="2.25468">
        <ele>40.400001525879</ele>
        <time>2016-05-16T20:16:46.000Z</time>
      </trkpt>
      <trkpt lat="48.87588" lon="2.25498">
        <ele>40.599998474121</ele>
        <time>2016-05-16T20:16:50.000Z</time>
      </trkpt>
      <trkpt lat="48.87586" lon="2.25528">
        <ele>40.200000762939</ele>
        <time>2016-05-16T20:16:54.000Z</time>
      </trkpt>
      <trkpt lat="48.87582" lon="2.25557">
        <ele>39.799999237061</ele>
        <time>2016-05-16T20:16:58.000Z</time>
      </trkpt>
      <trkpt lat="48.87577" lon="2.25572">
        <ele>40</ele>
        <time>2016-05-16T20:17:02.000Z</time>
      </trkpt>
      <trkpt lat="48.87573" lon="2.25575">
        <ele>40</ele>
        <time>2016-05-16T20:17:04.000Z</time>
      </trkpt>
      <trkpt lat="48.87568" lon="2.25593">
        <ele>39.599998474121</ele>
        <time>2016-05-16T20:17:38.000Z</time>
      </trkpt>
      <trkpt lat="48.87585" lon="2.25604">
        <ele>39.400001525879</ele>
        <time>2016-05-16T20:17:45.000Z</time>
      </trkpt>
      <trkpt lat="48.87604" lon="2.25614">
        <ele>39.200000762939</ele>
        <time>2016-05-16T20:17:52.000Z</time>
      </trkpt>
      <trkpt lat="48.87623" lon="2.25623">
        <ele>38.799999237061</ele>
        <time>2016-05-16T20:17:58.000Z</time>
      </trkpt>
      <trkpt lat="48.87641" lon="2.25635">
        <ele>38.200000762939</ele>
        <time>2016-05-16T20:18:04.000Z</time>
      </trkpt>
      <trkpt lat="48.87663" lon="2.25642">
        <ele>37.799999237061</ele>
        <time>2016-05-16T20:18:09.000Z</time>
      </trkpt>
      <trkpt lat="48.87682" lon="2.25651">
        <ele>37.400001525879</ele>
        <time>2016-05-16T20:18:13.000Z</time>
      </trkpt>
      <trkpt lat="48.87701" lon="2.25661">
        <ele>37</ele>
        <time>2016-05-16T20:18:18.000Z</time>
      </trkpt>
      <trkpt lat="48.87721" lon="2.25672">
        <ele>37.799999237061</ele>
        <time>2016-05-16T20:18:23.000Z</time>
      </trkpt>
      <trkpt lat="48.87742" lon="2.25682">
        <ele>38.400001525879</ele>
        <time>2016-05-16T20:18:28.000Z</time>
      </trkpt>
      <trkpt lat="48.87763" lon="2.25692">
        <ele>39.200000762939</ele>
        <time>2016-05-16T20:18:33.000Z</time>
      </trkpt>
      <trkpt lat="48.87775" lon="2.25699">
        <ele>39.599998474121</ele>
        <time>2016-05-16T20:18:36.000Z</time>
      </trkpt>
      <trkpt lat="48.87794" lon="2.2571">
        <ele>39.599998474121</ele>
        <time>2016-05-16T20:18:40.000Z</time>
      </trkpt>
      <trkpt lat="48.87813" lon="2.25722">
        <ele>39.799999237061</ele>
        <time>2016-05-16T20:18:45.000Z</time>
      </trkpt>
      <trkpt lat="48.87831" lon="2.25732">
        <ele>39.799999237061</ele>
        <time>2016-05-16T20:18:49.000Z</time>
      </trkpt>
      <trkpt lat="48.87852" lon="2.25742">
        <ele>39.799999237061</ele>
        <time>2016-05-16T20:18:53.000Z</time>
      </trkpt>
      <trkpt lat="48.87869" lon="2.2575">
        <ele>40</ele>
        <time>2016-05-16T20:18:57.000Z</time>
      </trkpt>
      <trkpt lat="48.87877" lon="2.25754">
        <ele>40</ele>
        <time>2016-05-16T20:18:59.000Z</time>
      </trkpt>
      <trkpt lat="48.87887" lon="2.25761">
        <ele>40</ele>
        <time>2016-05-16T20:19:02.000Z</time>
      </trkpt>
      <trkpt lat="48.87902" lon="2.25769">
        <ele>40</ele>
        <time>2016-05-16T20:19:06.000Z</time>
      </trkpt>
      <trkpt lat="48.87922" lon="2.25775">
        <ele>40</ele>
        <time>2016-05-16T20:19:10.000Z</time>
      </trkpt>
      <trkpt lat="48.87942" lon="2.25785">
        <ele>40</ele>
        <time>2016-05-16T20:19:15.000Z</time>
      </trkpt>
      <trkpt lat="48.87964" lon="2.25798">
        <ele>39.400001525879</ele>
        <time>2016-05-16T20:19:20.000Z</time>
      </trkpt>
      <trkpt lat="48.87983" lon="2.25807">
        <ele>39</ele>
        <time>2016-05-16T20:19:25.000Z</time>
      </trkpt>
      <trkpt lat="48.88001" lon="2.25823">
        <ele>38.400001525879</ele>
        <time>2016-05-16T20:19:31.000Z</time>
      </trkpt>
      <trkpt lat="48.88014" lon="2.2584">
        <ele>38.400001525879</ele>
        <time>2016-05-16T20:19:37.000Z</time>
      </trkpt>
      <trkpt lat="48.8802" lon="2.25851">
        <ele>38.799999237061</ele>
        <time>2016-05-16T20:19:40.000Z</time>
      </trkpt>
      <trkpt lat="48.88029" lon="2.25879">
        <ele>40</ele>
        <time>2016-05-16T20:19:46.000Z</time>
      </trkpt>
      <trkpt lat="48.88032" lon="2.2588">
        <ele>40.200000762939</ele>
        <time>2016-05-16T20:19:47.000Z</time>
      </trkpt>
      <trkpt lat="48.88032" lon="2.25885">
        <ele>40.400001525879</ele>
        <time>2016-05-16T20:19:49.000Z</time>
      </trkpt>
      <trkpt lat="48.88041" lon="2.25913">
        <ele>41.799999237061</ele>
        <time>2016-05-16T20:20:06.000Z</time>
      </trkpt>
      <trkpt lat="48.88037" lon="2.25943">
        <ele>41.400001525879</ele>
        <time>2016-05-16T20:20:12.000Z</time>
      </trkpt>
      <trkpt lat="48.88034" lon="2.25975">
        <ele>41.400001525879</ele>
        <time>2016-05-16T20:20:17.000Z</time>
      </trkpt>
      <trkpt lat="48.88033" lon="2.2601">
        <ele>41</ele>
        <time>2016-05-16T20:20:22.000Z</time>
      </trkpt>
      <trkpt lat="48.8803" lon="2.26042">
        <ele>40.599998474121</ele>
        <time>2016-05-16T20:20:27.000Z</time>
      </trkpt>
      <trkpt lat="48.88025" lon="2.26073">
        <ele>40.200000762939</ele>
        <time>2016-05-16T20:20:32.000Z</time>
      </trkpt>
      <trkpt lat="48.88021" lon="2.26105">
        <ele>40.200000762939</ele>
        <time>2016-05-16T20:20:37.000Z</time>
      </trkpt>
      <trkpt lat="48.88016" lon="2.26131">
        <ele>40.400001525879</ele>
        <time>2016-05-16T20:20:41.000Z</time>
      </trkpt>
      <trkpt lat="48.88012" lon="2.26158">
        <ele>40.400001525879</ele>
        <time>2016-05-16T20:20:45.000Z</time>
      </trkpt>
      <trkpt lat="48.88007" lon="2.2619">
        <ele>39.599998474121</ele>
        <time>2016-05-16T20:20:50.000Z</time>
      </trkpt>
      <trkpt lat="48.88002" lon="2.26222">
        <ele>38.599998474121</ele>
        <time>2016-05-16T20:20:55.000Z</time>
      </trkpt>
      <trkpt lat="48.87998" lon="2.26249">
        <ele>37.799999237061</ele>
        <time>2016-05-16T20:20:59.000Z</time>
      </trkpt>
      <trkpt lat="48.87994" lon="2.26274">
        <ele>37.200000762939</ele>
        <time>2016-05-16T20:21:03.000Z</time>
      </trkpt>
      <trkpt lat="48.87992" lon="2.26286">
        <ele>37</ele>
        <time>2016-05-16T20:21:05.000Z</time>
      </trkpt>
      <trkpt lat="48.8799" lon="2.26319">
        <ele>36.799999237061</ele>
        <time>2016-05-16T20:21:10.000Z</time>
      </trkpt>
      <trkpt lat="48.8799" lon="2.26333">
        <ele>37</ele>
        <time>2016-05-16T20:21:12.000Z</time>
      </trkpt>
      <trkpt lat="48.87986" lon="2.26364">
        <ele>39.599998474121</ele>
        <time>2016-05-16T20:21:17.000Z</time>
      </trkpt>
      <trkpt lat="48.87985" lon="2.26396">
        <ele>40.799999237061</ele>
        <time>2016-05-16T20:21:22.000Z</time>
      </trkpt>
      <trkpt lat="48.87982" lon="2.26428">
        <ele>41.200000762939</ele>
        <time>2016-05-16T20:21:27.000Z</time>
      </trkpt>
      <trkpt lat="48.87978" lon="2.26459">
        <ele>41.400001525879</ele>
        <time>2016-05-16T20:21:32.000Z</time>
      </trkpt>
      <trkpt lat="48.87974" lon="2.26492">
        <ele>41.799999237061</ele>
        <time>2016-05-16T20:21:37.000Z</time>
      </trkpt>
      <trkpt lat="48.87971" lon="2.26525">
        <ele>40.200000762939</ele>
        <time>2016-05-16T20:21:42.000Z</time>
      </trkpt>
      <trkpt lat="48.87967" lon="2.26556">
        <ele>41.200000762939</ele>
        <time>2016-05-16T20:21:47.000Z</time>
      </trkpt>
      <trkpt lat="48.87963" lon="2.26588">
        <ele>42.599998474121</ele>
        <time>2016-05-16T20:21:52.000Z</time>
      </trkpt>
      <trkpt lat="48.87957" lon="2.26619">
        <ele>44.400001525879</ele>
        <time>2016-05-16T20:21:57.000Z</time>
      </trkpt>
      <trkpt lat="48.87952" lon="2.26652">
        <ele>45.799999237061</ele>
        <time>2016-05-16T20:22:02.000Z</time>
      </trkpt>
      <trkpt lat="48.87951" lon="2.26684">
        <ele>46.200000762939</ele>
        <time>2016-05-16T20:22:07.000Z</time>
      </trkpt>
      <trkpt lat="48.87948" lon="2.26715">
        <ele>46.200000762939</ele>
        <time>2016-05-16T20:22:12.000Z</time>
      </trkpt>
      <trkpt lat="48.87946" lon="2.26727">
        <ele>46.200000762939</ele>
        <time>2016-05-16T20:22:14.000Z</time>
      </trkpt>
      <trkpt lat="48.87941" lon="2.26757">
        <ele>45.799999237061</ele>
        <time>2016-05-16T20:22:19.000Z</time>
      </trkpt>
      <trkpt lat="48.87939" lon="2.26782">
        <ele>45.599998474121</ele>
        <time>2016-05-16T20:22:23.000Z</time>
      </trkpt>
      <trkpt lat="48.87934" lon="2.26812">
        <ele>44.799999237061</ele>
        <time>2016-05-16T20:22:28.000Z</time>
      </trkpt>
      <trkpt lat="48.8793" lon="2.26842">
        <ele>44.799999237061</ele>
        <time>2016-05-16T20:22:33.000Z</time>
      </trkpt>
      <trkpt lat="48.87926" lon="2.26875">
        <ele>45.599998474121</ele>
        <time>2016-05-16T20:22:38.000Z</time>
      </trkpt>
      <trkpt lat="48.87925" lon="2.26888">
        <ele>46</ele>
        <time>2016-05-16T20:22:40.000Z</time>
      </trkpt>
      <trkpt lat="48.8792" lon="2.26919">
        <ele>45.799999237061</ele>
        <time>2016-05-16T20:22:45.000Z</time>
      </trkpt>
      <trkpt lat="48.87918" lon="2.26949">
        <ele>45.799999237061</ele>
        <time>2016-05-16T20:22:50.000Z</time>
      </trkpt>
      <trkpt lat="48.87917" lon="2.26979">
        <ele>46.200000762939</ele>
        <time>2016-05-16T20:22:55.000Z</time>
      </trkpt>
      <trkpt lat="48.87917" lon="2.26985">
        <ele>46.200000762939</ele>
        <time>2016-05-16T20:22:56.000Z</time>
      </trkpt>
      <trkpt lat="48.87914" lon="2.27011">
        <ele>46</ele>
        <time>2016-05-16T20:23:01.000Z</time>
      </trkpt>
      <trkpt lat="48.87911" lon="2.27039">
        <ele>45.599998474121</ele>
        <time>2016-05-16T20:23:08.000Z</time>
      </trkpt>
      <trkpt lat="48.87903" lon="2.27065">
        <ele>45.599998474121</ele>
        <time>2016-05-16T20:23:22.000Z</time>
      </trkpt>
      <trkpt lat="48.87895" lon="2.27092">
        <ele>45.599998474121</ele>
        <time>2016-05-16T20:23:28.000Z</time>
      </trkpt>
      <trkpt lat="48.87891" lon="2.27121">
        <ele>45</ele>
        <time>2016-05-16T20:23:34.000Z</time>
      </trkpt>
      <trkpt lat="48.87888" lon="2.27149">
        <ele>44.400001525879</ele>
        <time>2016-05-16T20:23:40.000Z</time>
      </trkpt>
      <trkpt lat="48.87887" lon="2.27181">
        <ele>44</ele>
        <time>2016-05-16T20:23:46.000Z</time>
      </trkpt>
      <trkpt lat="48.87887" lon="2.27213">
        <ele>43.599998474121</ele>
        <time>2016-05-16T20:23:52.000Z</time>
      </trkpt>
      <trkpt lat="48.87883" lon="2.27241">
        <ele>43</ele>
        <time>2016-05-16T20:23:57.000Z</time>
      </trkpt>
      <trkpt lat="48.87878" lon="2.27271">
        <ele>42</ele>
        <time>2016-05-16T20:24:02.000Z</time>
      </trkpt>
      <trkpt lat="48.87873" lon="2.27299">
        <ele>44.200000762939</ele>
        <time>2016-05-16T20:24:07.000Z</time>
      </trkpt>
      <trkpt lat="48.8787" lon="2.2733">
        <ele>46.599998474121</ele>
        <time>2016-05-16T20:24:12.000Z</time>
      </trkpt>
      <trkpt lat="48.87867" lon="2.27362">
        <ele>46.400001525879</ele>
        <time>2016-05-16T20:24:17.000Z</time>
      </trkpt>
      <trkpt lat="48.87864" lon="2.27394">
        <ele>46</ele>
        <time>2016-05-16T20:24:22.000Z</time>
      </trkpt>
      <trkpt lat="48.87858" lon="2.27427">
        <ele>46.400001525879</ele>
        <time>2016-05-16T20:24:27.000Z</time>
      </trkpt>
      <trkpt lat="48.87852" lon="2.27454">
        <ele>47.200000762939</ele>
        <time>2016-05-16T20:24:31.000Z</time>
      </trkpt>
      <trkpt lat="48.87848" lon="2.27487">
        <ele>48</ele>
        <time>2016-05-16T20:24:36.000Z</time>
      </trkpt>
      <trkpt lat="48.87844" lon="2.27516">
        <ele>47</ele>
        <time>2016-05-16T20:24:41.000Z</time>
      </trkpt>
      <trkpt lat="48.87841" lon="2.27546">
        <ele>46</ele>
        <time>2016-05-16T20:24:46.000Z</time>
      </trkpt>
      <trkpt lat="48.87841" lon="2.27557">
        <ele>45.799999237061</ele>
        <time>2016-05-16T20:24:48.000Z</time>
      </trkpt>
      <trkpt lat="48.87839" lon="2.2759">
        <ele>44.599998474121</ele>
        <time>2016-05-16T20:24:54.000Z</time>
      </trkpt>
      <trkpt lat="48.87836" lon="2.27618">
        <ele>43.599998474121</ele>
        <time>2016-05-16T20:24:59.000Z</time>
      </trkpt>
      <trkpt lat="48.87834" lon="2.27646">
        <ele>43.200000762939</ele>
        <time>2016-05-16T20:25:04.000Z</time>
      </trkpt>
      <trkpt lat="48.8783" lon="2.27677">
        <ele>44.200000762939</ele>
        <time>2016-05-16T20:25:10.000Z</time>
      </trkpt>
      <trkpt lat="48.87827" lon="2.27705">
        <ele>44.400001525879</ele>
        <time>2016-05-16T20:25:15.000Z</time>
      </trkpt>
      <trkpt lat="48.87823" lon="2.27735">
        <ele>45.400001525879</ele>
        <time>2016-05-16T20:25:20.000Z</time>
      </trkpt>
      <trkpt lat="48.87818" lon="2.27766">
        <ele>46.400001525879</ele>
        <time>2016-05-16T20:25:25.000Z</time>
      </trkpt>
      <trkpt lat="48.87814" lon="2.27798">
        <ele>47</ele>
        <time>2016-05-16T20:25:30.000Z</time>
      </trkpt>
      <trkpt lat="48.87809" lon="2.2783">
        <ele>46.799999237061</ele>
        <time>2016-05-16T20:25:35.000Z</time>
      </trkpt>
      <trkpt lat="48.87805" lon="2.27861">
        <ele>46.799999237061</ele>
        <time>2016-05-16T20:25:40.000Z</time>
      </trkpt>
      <trkpt lat="48.87802" lon="2.27889">
        <ele>46</ele>
        <time>2016-05-16T20:25:45.000Z</time>
      </trkpt>
      <trkpt lat="48.87797" lon="2.27904">
        <ele>45.400001525879</ele>
        <time>2016-05-16T20:25:50.000Z</time>
      </trkpt>
      <trkpt lat="48.87782" lon="2.27921">
        <ele>44</ele>
        <time>2016-05-16T20:26:00.000Z</time>
      </trkpt>
      <trkpt lat="48.87779" lon="2.27922">
        <ele>43.599998474121</ele>
        <time>2016-05-16T20:26:03.000Z</time>
      </trkpt>
      <trkpt lat="48.87771" lon="2.27938">
        <ele>42</ele>
        <time>2016-05-16T20:26:47.000Z</time>
      </trkpt>
      <trkpt lat="48.87786" lon="2.27953">
        <ele>41.799999237061</ele>
        <time>2016-05-16T20:26:54.000Z</time>
      </trkpt>
      <trkpt lat="48.87804" lon="2.27969">
        <ele>41.799999237061</ele>
        <time>2016-05-16T20:27:00.000Z</time>
      </trkpt>
      <trkpt lat="48.87817" lon="2.27992">
        <ele>41</ele>
        <time>2016-05-16T20:27:05.000Z</time>
      </trkpt>
      <trkpt lat="48.87819" lon="2.28021">
        <ele>39</ele>
        <time>2016-05-16T20:27:10.000Z</time>
      </trkpt>
      <trkpt lat="48.8781" lon="2.28049">
        <ele>37.599998474121</ele>
        <time>2016-05-16T20:27:15.000Z</time>
      </trkpt>
      <trkpt lat="48.87797" lon="2.28071">
        <ele>37.799999237061</ele>
        <time>2016-05-16T20:27:21.000Z</time>
      </trkpt>
      <trkpt lat="48.87781" lon="2.28085">
        <ele>37.799999237061</ele>
        <time>2016-05-16T20:27:30.000Z</time>
      </trkpt>
      <trkpt lat="48.87762" lon="2.28095">
        <ele>38</ele>
        <time>2016-05-16T20:27:37.000Z</time>
      </trkpt>
      <trkpt lat="48.87748" lon="2.28105">
        <ele>38.400001525879</ele>
        <time>2016-05-16T20:27:44.000Z</time>
      </trkpt>
      <trkpt lat="48.87741" lon="2.28104">
        <ele>38.400001525879</ele>
        <time>2016-05-16T20:28:15.000Z</time>
      </trkpt>
      <trkpt lat="48.87739" lon="2.28106">
        <ele>38.400001525879</ele>
        <time>2016-05-16T20:28:18.000Z</time>
      </trkpt>
      <trkpt lat="48.87735" lon="2.28116">
        <ele>38.400001525879</ele>
        <time>2016-05-16T20:28:22.000Z</time>
      </trkpt>
      <trkpt lat="48.87723" lon="2.28144">
        <ele>39.599998474121</ele>
        <time>2016-05-16T20:28:27.000Z</time>
      </trkpt>
      <trkpt lat="48.87715" lon="2.28168">
        <ele>40.400001525879</ele>
        <time>2016-05-16T20:28:31.000Z</time>
      </trkpt>
      <trkpt lat="48.87706" lon="2.28197">
        <ele>40.599998474121</ele>
        <time>2016-05-16T20:28:36.000Z</time>
      </trkpt>
      <trkpt lat="48.87701" lon="2.28225">
        <ele>40.200000762939</ele>
        <time>2016-05-16T20:28:41.000Z</time>
      </trkpt>
      <trkpt lat="48.87699" lon="2.28258">
        <ele>39.799999237061</ele>
        <time>2016-05-16T20:28:47.000Z</time>
      </trkpt>
      <trkpt lat="48.87699" lon="2.28287">
        <ele>42.599998474121</ele>
        <time>2016-05-16T20:28:53.000Z</time>
      </trkpt>
      <trkpt lat="48.87701" lon="2.28316">
        <ele>45.200000762939</ele>
        <time>2016-05-16T20:29:09.000Z</time>
      </trkpt>
      <trkpt lat="48.8771" lon="2.28342">
        <ele>46.400001525879</ele>
        <time>2016-05-16T20:29:17.000Z</time>
      </trkpt>
      <trkpt lat="48.87714" lon="2.28371">
        <ele>47.400001525879</ele>
        <time>2016-05-16T20:29:25.000Z</time>
      </trkpt>
      <trkpt lat="48.87708" lon="2.28395">
        <ele>48</ele>
        <time>2016-05-16T20:29:35.000Z</time>
      </trkpt>
      <trkpt lat="48.87702" lon="2.28398">
        <ele>48.200000762939</ele>
        <time>2016-05-16T20:29:43.000Z</time>
      </trkpt>
      <trkpt lat="48.87696" lon="2.28423">
        <ele>49.200000762939</ele>
        <time>2016-05-16T20:29:51.000Z</time>
      </trkpt>
      <trkpt lat="48.87687" lon="2.28448">
        <ele>50</ele>
        <time>2016-05-16T20:29:56.000Z</time>
      </trkpt>
      <trkpt lat="48.87681" lon="2.28474">
        <ele>51.200000762939</ele>
        <time>2016-05-16T20:30:02.000Z</time>
      </trkpt>
      <trkpt lat="48.87672" lon="2.285">
        <ele>52.400001525879</ele>
        <time>2016-05-16T20:30:08.000Z</time>
      </trkpt>
      <trkpt lat="48.87661" lon="2.28527">
        <ele>53.400001525879</ele>
        <time>2016-05-16T20:30:14.000Z</time>
      </trkpt>
      <trkpt lat="48.87651" lon="2.28553">
        <ele>54.400001525879</ele>
        <time>2016-05-16T20:30:20.000Z</time>
      </trkpt>
      <trkpt lat="48.87658" lon="2.28591">
        <ele>54.400001525879</ele>
        <time>2016-05-16T20:30:27.000Z</time>
      </trkpt>
      <trkpt lat="48.87655" lon="2.28621">
        <ele>55</ele>
        <time>2016-05-16T20:30:33.000Z</time>
      </trkpt>
      <trkpt lat="48.87648" lon="2.28649">
        <ele>54.400001525879</ele>
        <time>2016-05-16T20:30:39.000Z</time>
      </trkpt>
      <trkpt lat="48.87636" lon="2.28672">
        <ele>54.599998474121</ele>
        <time>2016-05-16T20:30:44.000Z</time>
      </trkpt>
      <trkpt lat="48.87624" lon="2.28698">
        <ele>55.200000762939</ele>
        <time>2016-05-16T20:30:48.000Z</time>
      </trkpt>
      <trkpt lat="48.87623" lon="2.28703">
        <ele>55.200000762939</ele>
        <time>2016-05-16T20:30:49.000Z</time>
      </trkpt>
      <trkpt lat="48.87616" lon="2.28731">
        <ele>55.200000762939</ele>
        <time>2016-05-16T20:30:54.000Z</time>
      </trkpt>
      <trkpt lat="48.87614" lon="2.28737">
        <ele>55</ele>
        <time>2016-05-16T20:30:55.000Z</time>
      </trkpt>
      <trkpt lat="48.8761" lon="2.28766">
        <ele>55.799999237061</ele>
        <time>2016-05-16T20:31:00.000Z</time>
      </trkpt>
      <trkpt lat="48.87604" lon="2.28793">
        <ele>56.799999237061</ele>
        <time>2016-05-16T20:31:05.000Z</time>
      </trkpt>
      <trkpt lat="48.87598" lon="2.28819">
        <ele>58.200000762939</ele>
        <time>2016-05-16T20:31:10.000Z</time>
      </trkpt>
      <trkpt lat="48.87588" lon="2.28845">
        <ele>58.599998474121</ele>
        <time>2016-05-16T20:31:15.000Z</time>
      </trkpt>
      <trkpt lat="48.87579" lon="2.28874">
        <ele>59.400001525879</ele>
        <time>2016-05-16T20:31:20.000Z</time>
      </trkpt>
      <trkpt lat="48.87572" lon="2.28905">
        <ele>60.799999237061</ele>
        <time>2016-05-16T20:31:26.000Z</time>
      </trkpt>
      <trkpt lat="48.87567" lon="2.28935">
        <ele>61.400001525879</ele>
        <time>2016-05-16T20:31:32.000Z</time>
      </trkpt>
      <trkpt lat="48.87565" lon="2.28966">
        <ele>62.200000762939</ele>
        <time>2016-05-16T20:31:38.000Z</time>
      </trkpt>
      <trkpt lat="48.8756" lon="2.29001">
        <ele>64.400001525879</ele>
        <time>2016-05-16T20:31:44.000Z</time>
      </trkpt>
      <trkpt lat="48.87555" lon="2.29029">
        <ele>65.400001525879</ele>
        <time>2016-05-16T20:31:50.000Z</time>
      </trkpt>
      <trkpt lat="48.87545" lon="2.29057">
        <ele>65.599998474121</ele>
        <time>2016-05-16T20:31:55.000Z</time>
      </trkpt>
      <trkpt lat="48.87539" lon="2.29088">
        <ele>66.400001525879</ele>
        <time>2016-05-16T20:32:00.000Z</time>
      </trkpt>
      <trkpt lat="48.87534" lon="2.29115">
        <ele>66.800003051758</ele>
        <time>2016-05-16T20:32:05.000Z</time>
      </trkpt>
      <trkpt lat="48.87526" lon="2.29141">
        <ele>66.400001525879</ele>
        <time>2016-05-16T20:32:10.000Z</time>
      </trkpt>
      <trkpt lat="48.87519" lon="2.2917">
        <ele>66.400001525879</ele>
        <time>2016-05-16T20:32:15.000Z</time>
      </trkpt>
      <trkpt lat="48.87512" lon="2.29197">
        <ele>67.400001525879</ele>
        <time>2016-05-16T20:32:20.000Z</time>
      </trkpt>
      <trkpt lat="48.87504" lon="2.29223">
        <ele>68.400001525879</ele>
        <time>2016-05-16T20:32:25.000Z</time>
      </trkpt>
      <trkpt lat="48.87494" lon="2.29246">
        <ele>67</ele>
        <time>2016-05-16T20:32:30.000Z</time>
      </trkpt>
      <trkpt lat="48.87471" lon="2.29257">
        <ele>65.199996948242</ele>
        <time>2016-05-16T20:32:34.000Z</time>
      </trkpt>
      <trkpt lat="48.87451" lon="2.29273">
        <ele>63.400001525879</ele>
        <time>2016-05-16T20:32:41.000Z</time>
      </trkpt>
      <trkpt lat="48.87448" lon="2.29277">
        <ele>63</ele>
        <time>2016-05-16T20:32:44.000Z</time>
      </trkpt>
      <trkpt lat="48.87446" lon="2.2928">
        <ele>62.799999237061</ele>
        <time>2016-05-16T20:32:48.000Z</time>
      </trkpt>
      <trkpt lat="48.87445" lon="2.29282">
        <ele>62.599998474121</ele>
        <time>2016-05-16T20:32:50.000Z</time>
      </trkpt>
      <trkpt lat="48.87442" lon="2.29287">
        <ele>62.200000762939</ele>
        <time>2016-05-16T20:32:56.000Z</time>
      </trkpt>
      <trkpt lat="48.87437" lon="2.29286">
        <ele>62.200000762939</ele>
        <time>2016-05-16T20:33:01.000Z</time>
      </trkpt>
      <trkpt lat="48.87433" lon="2.29289">
        <ele>62.400001525879</ele>
        <time>2016-05-16T20:33:08.000Z</time>
      </trkpt>
      <trkpt lat="48.87423" lon="2.29296">
        <ele>62.599998474121</ele>
        <time>2016-05-16T20:33:27.000Z</time>
      </trkpt>
      <trkpt lat="48.87424" lon="2.29302">
        <ele>62.400001525879</ele>
        <time>2016-05-16T20:34:28.000Z</time>
      </trkpt>
      <trkpt lat="48.8742" lon="2.2933">
        <ele>62</ele>
        <time>2016-05-16T20:34:38.000Z</time>
      </trkpt>
      <trkpt lat="48.87416" lon="2.29346">
        <ele>61.599998474121</ele>
        <time>2016-05-16T20:34:43.000Z</time>
      </trkpt>
      <trkpt lat="48.87422" lon="2.29353">
        <ele>61</ele>
        <time>2016-05-16T20:34:47.000Z</time>
      </trkpt>
      <trkpt lat="48.87429" lon="2.29362">
        <ele>60.400001525879</ele>
        <time>2016-05-16T20:34:54.000Z</time>
      </trkpt>
      <trkpt lat="48.87437" lon="2.29369">
        <ele>59.799999237061</ele>
        <time>2016-05-16T20:35:08.000Z</time>
      </trkpt>
      <trkpt lat="48.87431" lon="2.29396">
        <ele>59</ele>
        <time>2016-05-16T20:35:35.000Z</time>
      </trkpt>
      <trkpt lat="48.87352" lon="2.29641">
        <ele>62.400001525879</ele>
        <time>2016-05-16T20:36:42.000Z</time>
      </trkpt>
      <trkpt lat="48.87352" lon="2.29642">
        <ele>62.400001525879</ele>
        <time>2016-05-16T20:36:46.000Z</time>
      </trkpt>
      <trkpt lat="48.87345" lon="2.29663">
        <ele>63.200000762939</ele>
        <time>2016-05-16T20:36:56.000Z</time>
      </trkpt>
      <trkpt lat="48.87345" lon="2.29657">
        <ele>63</ele>
        <time>2016-05-16T20:37:00.000Z</time>
      </trkpt>
      <trkpt lat="48.87345" lon="2.29656">
        <ele>63</ele>
        <time>2016-05-16T20:37:02.000Z</time>
      </trkpt>
      <trkpt lat="48.87336" lon="2.29649">
        <ele>62.799999237061</ele>
        <time>2016-05-16T20:37:58.000Z</time>
      </trkpt>
      <trkpt lat="48.8733" lon="2.29649">
        <ele>63</ele>
        <time>2016-05-16T20:38:02.000Z</time>
      </trkpt>
      <trkpt lat="48.8732" lon="2.29673">
        <ele>63.799999237061</ele>
        <time>2016-05-16T20:38:11.000Z</time>
      </trkpt>
      <trkpt lat="48.87317" lon="2.29682">
        <ele>64</ele>
        <time>2016-05-16T20:38:17.000Z</time>
      </trkpt>
      <trkpt lat="48.87301" lon="2.29697">
        <ele>64.599998474121</ele>
        <time>2016-05-16T20:38:34.000Z</time>
      </trkpt>
      <trkpt lat="48.87298" lon="2.29698">
        <ele>65</ele>
        <time>2016-05-16T20:38:39.000Z</time>
      </trkpt>
      <trkpt lat="48.87288" lon="2.29723">
        <ele>67.400001525879</ele>
        <time>2016-05-16T20:38:52.000Z</time>
      </trkpt>
      <trkpt lat="48.8728" lon="2.29753">
        <ele>69.800003051758</ele>
        <time>2016-05-16T20:38:58.000Z</time>
      </trkpt>
      <trkpt lat="48.87271" lon="2.29778">
        <ele>69</ele>
        <time>2016-05-16T20:39:04.000Z</time>
      </trkpt>
      <trkpt lat="48.87264" lon="2.29807">
        <ele>68</ele>
        <time>2016-05-16T20:39:12.000Z</time>
      </trkpt>
      <trkpt lat="48.87258" lon="2.29836">
        <ele>67.199996948242</ele>
        <time>2016-05-16T20:39:17.000Z</time>
      </trkpt>
      <trkpt lat="48.87252" lon="2.29865">
        <ele>66</ele>
        <time>2016-05-16T20:39:23.000Z</time>
      </trkpt>
      <trkpt lat="48.87246" lon="2.29892">
        <ele>65</ele>
        <time>2016-05-16T20:39:27.000Z</time>
      </trkpt>
      <trkpt lat="48.87236" lon="2.29922">
        <ele>63.799999237061</ele>
        <time>2016-05-16T20:39:33.000Z</time>
      </trkpt>
      <trkpt lat="48.87229" lon="2.2995">
        <ele>63.599998474121</ele>
        <time>2016-05-16T20:39:37.000Z</time>
      </trkpt>
      <trkpt lat="48.87221" lon="2.29979">
        <ele>62.200000762939</ele>
        <time>2016-05-16T20:39:41.000Z</time>
      </trkpt>
      <trkpt lat="48.87213" lon="2.30007">
        <ele>61.599998474121</ele>
        <time>2016-05-16T20:39:45.000Z</time>
      </trkpt>
      <trkpt lat="48.87206" lon="2.30029">
        <ele>61</ele>
        <time>2016-05-16T20:39:49.000Z</time>
      </trkpt>
      <trkpt lat="48.87206" lon="2.30053">
        <ele>59.799999237061</ele>
        <time>2016-05-16T20:39:53.000Z</time>
      </trkpt>
      <trkpt lat="48.8719" lon="2.30083">
        <ele>57</ele>
        <time>2016-05-16T20:39:59.000Z</time>
      </trkpt>
      <trkpt lat="48.87182" lon="2.30095">
        <ele>56.799999237061</ele>
        <time>2016-05-16T20:40:02.000Z</time>
      </trkpt>
      <trkpt lat="48.87179" lon="2.30099">
        <ele>56.799999237061</ele>
        <time>2016-05-16T20:40:03.000Z</time>
      </trkpt>
      <trkpt lat="48.87172" lon="2.30118">
        <ele>56.599998474121</ele>
        <time>2016-05-16T20:40:07.000Z</time>
      </trkpt>
      <trkpt lat="48.87164" lon="2.30148">
        <ele>55.400001525879</ele>
        <time>2016-05-16T20:40:13.000Z</time>
      </trkpt>
      <trkpt lat="48.87159" lon="2.30176">
        <ele>53.799999237061</ele>
        <time>2016-05-16T20:40:17.000Z</time>
      </trkpt>
      <trkpt lat="48.87151" lon="2.30205">
        <ele>53.599998474121</ele>
        <time>2016-05-16T20:40:22.000Z</time>
      </trkpt>
      <trkpt lat="48.87148" lon="2.30214">
        <ele>53.599998474121</ele>
        <time>2016-05-16T20:40:25.000Z</time>
      </trkpt>
      <trkpt lat="48.87144" lon="2.30242">
        <ele>53.799999237061</ele>
        <time>2016-05-16T20:40:37.000Z</time>
      </trkpt>
      <trkpt lat="48.87144" lon="2.30258">
        <ele>54.200000762939</ele>
        <time>2016-05-16T20:40:50.000Z</time>
      </trkpt>
      <trkpt lat="48.87149" lon="2.30277">
        <ele>54.799999237061</ele>
        <time>2016-05-16T20:41:17.000Z</time>
      </trkpt>
      <trkpt lat="48.87141" lon="2.30303">
        <ele>55.200000762939</ele>
        <time>2016-05-16T20:41:24.000Z</time>
      </trkpt>
      <trkpt lat="48.87134" lon="2.30325">
        <ele>55.599998474121</ele>
        <time>2016-05-16T20:41:30.000Z</time>
      </trkpt>
      <trkpt lat="48.87125" lon="2.30354">
        <ele>55.599998474121</ele>
        <time>2016-05-16T20:41:39.000Z</time>
      </trkpt>
      <trkpt lat="48.87118" lon="2.3038">
        <ele>55.400001525879</ele>
        <time>2016-05-16T20:41:44.000Z</time>
      </trkpt>
      <trkpt lat="48.87107" lon="2.30404">
        <ele>55</ele>
        <time>2016-05-16T20:41:47.000Z</time>
      </trkpt>
      <trkpt lat="48.87097" lon="2.30428">
        <ele>54.599998474121</ele>
        <time>2016-05-16T20:41:51.000Z</time>
      </trkpt>
      <trkpt lat="48.87087" lon="2.30456">
        <ele>53.799999237061</ele>
        <time>2016-05-16T20:41:56.000Z</time>
      </trkpt>
      <trkpt lat="48.87071" lon="2.30476">
        <ele>52.799999237061</ele>
        <time>2016-05-16T20:42:01.000Z</time>
      </trkpt>
      <trkpt lat="48.87058" lon="2.30501">
        <ele>51.400001525879</ele>
        <time>2016-05-16T20:42:06.000Z</time>
      </trkpt>
      <trkpt lat="48.8705" lon="2.30528">
        <ele>50.799999237061</ele>
        <time>2016-05-16T20:42:11.000Z</time>
      </trkpt>
      <trkpt lat="48.87043" lon="2.30555">
        <ele>49.200000762939</ele>
        <time>2016-05-16T20:42:16.000Z</time>
      </trkpt>
      <trkpt lat="48.87038" lon="2.30584">
        <ele>47.599998474121</ele>
        <time>2016-05-16T20:42:23.000Z</time>
      </trkpt>
      <trkpt lat="48.87037" lon="2.30589">
        <ele>47.599998474121</ele>
        <time>2016-05-16T20:42:25.000Z</time>
      </trkpt>
      <trkpt lat="48.8703" lon="2.30617">
        <ele>48.599998474121</ele>
        <time>2016-05-16T20:42:33.000Z</time>
      </trkpt>
      <trkpt lat="48.87016" lon="2.30639">
        <ele>50.200000762939</ele>
        <time>2016-05-16T20:42:40.000Z</time>
      </trkpt>
      <trkpt lat="48.87001" lon="2.30659">
        <ele>50.799999237061</ele>
        <time>2016-05-16T20:42:45.000Z</time>
      </trkpt>
      <trkpt lat="48.86989" lon="2.30682">
        <ele>50.400001525879</ele>
        <time>2016-05-16T20:42:50.000Z</time>
      </trkpt>
      <trkpt lat="48.8698" lon="2.30707">
        <ele>49.799999237061</ele>
        <time>2016-05-16T20:42:54.000Z</time>
      </trkpt>
      <trkpt lat="48.86971" lon="2.30735">
        <ele>46.599998474121</ele>
        <time>2016-05-16T20:42:58.000Z</time>
      </trkpt>
      <trkpt lat="48.8696" lon="2.30766">
        <ele>43.400001525879</ele>
        <time>2016-05-16T20:43:02.000Z</time>
      </trkpt>
      <trkpt lat="48.86953" lon="2.30792">
        <ele>43.200000762939</ele>
        <time>2016-05-16T20:43:05.000Z</time>
      </trkpt>
      <trkpt lat="48.86947" lon="2.30818">
        <ele>43</ele>
        <time>2016-05-16T20:43:09.000Z</time>
      </trkpt>
      <trkpt lat="48.86939" lon="2.30844">
        <ele>43</ele>
        <time>2016-05-16T20:43:14.000Z</time>
      </trkpt>
      <trkpt lat="48.86936" lon="2.30848">
        <ele>43</ele>
        <time>2016-05-16T20:43:16.000Z</time>
      </trkpt>
      <trkpt lat="48.86935" lon="2.30852">
        <ele>43</ele>
        <time>2016-05-16T20:43:19.000Z</time>
      </trkpt>
      <trkpt lat="48.86929" lon="2.30871">
        <ele>43.200000762939</ele>
        <time>2016-05-16T20:43:43.000Z</time>
      </trkpt>
      <trkpt lat="48.86923" lon="2.30885">
        <ele>43.200000762939</ele>
        <time>2016-05-16T20:44:15.000Z</time>
      </trkpt>
      <trkpt lat="48.86914" lon="2.3091">
        <ele>42.599998474121</ele>
        <time>2016-05-16T20:44:23.000Z</time>
      </trkpt>
      <trkpt lat="48.86911" lon="2.30915">
        <ele>42.400001525879</ele>
        <time>2016-05-16T20:44:25.000Z</time>
      </trkpt>
      <trkpt lat="48.86893" lon="2.30924">
        <ele>42</ele>
        <time>2016-05-16T20:44:34.000Z</time>
      </trkpt>
      <trkpt lat="48.86875" lon="2.30928">
        <ele>41.599998474121</ele>
        <time>2016-05-16T20:44:42.000Z</time>
      </trkpt>
      <trkpt lat="48.86863" lon="2.30953">
        <ele>40</ele>
        <time>2016-05-16T20:44:50.000Z</time>
      </trkpt>
      <trkpt lat="48.86852" lon="2.30975">
        <ele>39</ele>
        <time>2016-05-16T20:44:55.000Z</time>
      </trkpt>
      <trkpt lat="48.86836" lon="2.30995">
        <ele>38.400001525879</ele>
        <time>2016-05-16T20:45:02.000Z</time>
      </trkpt>
      <trkpt lat="48.86816" lon="2.31001">
        <ele>38.200000762939</ele>
        <time>2016-05-16T20:45:08.000Z</time>
      </trkpt>
      <trkpt lat="48.86796" lon="2.31004">
        <ele>38.400001525879</ele>
        <time>2016-05-16T20:45:13.000Z</time>
      </trkpt>
      <trkpt lat="48.86774" lon="2.31005">
        <ele>38.799999237061</ele>
        <time>2016-05-16T20:45:18.000Z</time>
      </trkpt>
      <trkpt lat="48.86753" lon="2.31003">
        <ele>39.599998474121</ele>
        <time>2016-05-16T20:45:23.000Z</time>
      </trkpt>
      <trkpt lat="48.8673" lon="2.31005">
        <ele>40.400001525879</ele>
        <time>2016-05-16T20:45:28.000Z</time>
      </trkpt>
      <trkpt lat="48.86709" lon="2.31002">
        <ele>41.200000762939</ele>
        <time>2016-05-16T20:45:32.000Z</time>
      </trkpt>
      <trkpt lat="48.8669" lon="2.31">
        <ele>42</ele>
        <time>2016-05-16T20:45:34.000Z</time>
      </trkpt>
      <trkpt lat="48.86667" lon="2.31002">
        <ele>42.599998474121</ele>
        <time>2016-05-16T20:45:38.000Z</time>
      </trkpt>
      <trkpt lat="48.86649" lon="2.31005">
        <ele>43</ele>
        <time>2016-05-16T20:45:41.000Z</time>
      </trkpt>
      <trkpt lat="48.86625" lon="2.3101">
        <ele>43.599998474121</ele>
        <time>2016-05-16T20:45:45.000Z</time>
      </trkpt>
      <trkpt lat="48.86606" lon="2.31013">
        <ele>43.599998474121</ele>
        <time>2016-05-16T20:45:49.000Z</time>
      </trkpt>
      <trkpt lat="48.86587" lon="2.31017">
        <ele>42.799999237061</ele>
        <time>2016-05-16T20:45:53.000Z</time>
      </trkpt>
      <trkpt lat="48.86568" lon="2.31021">
        <ele>42</ele>
        <time>2016-05-16T20:45:57.000Z</time>
      </trkpt>
      <trkpt lat="48.86548" lon="2.31028">
        <ele>41</ele>
        <time>2016-05-16T20:46:01.000Z</time>
      </trkpt>
      <trkpt lat="48.86532" lon="2.31031">
        <ele>39.599998474121</ele>
        <time>2016-05-16T20:46:05.000Z</time>
      </trkpt>
      <trkpt lat="48.8651" lon="2.31039">
        <ele>36.799999237061</ele>
        <time>2016-05-16T20:46:10.000Z</time>
      </trkpt>
      <trkpt lat="48.86493" lon="2.3105">
        <ele>33.799999237061</ele>
        <time>2016-05-16T20:46:17.000Z</time>
      </trkpt>
      <trkpt lat="48.86476" lon="2.31049">
        <ele>32.200000762939</ele>
        <time>2016-05-16T20:46:25.000Z</time>
      </trkpt>
      <trkpt lat="48.86475" lon="2.31049">
        <ele>32</ele>
        <time>2016-05-16T20:46:27.000Z</time>
      </trkpt>
      <trkpt lat="48.86462" lon="2.31045">
        <ele>30.799999237061</ele>
        <time>2016-05-16T20:46:41.000Z</time>
      </trkpt>
      <trkpt lat="48.86455" lon="2.3105">
        <ele>29.799999237061</ele>
        <time>2016-05-16T20:46:59.000Z</time>
      </trkpt>
      <trkpt lat="48.86453" lon="2.31076">
        <ele>28.60000038147</ele>
        <time>2016-05-16T20:47:05.000Z</time>
      </trkpt>
      <trkpt lat="48.86453" lon="2.31104">
        <ele>28.60000038147</ele>
        <time>2016-05-16T20:47:10.000Z</time>
      </trkpt>
      <trkpt lat="48.86453" lon="2.31134">
        <ele>28.60000038147</ele>
        <time>2016-05-16T20:47:15.000Z</time>
      </trkpt>
      <trkpt lat="48.86456" lon="2.31165">
        <ele>29</ele>
        <time>2016-05-16T20:47:20.000Z</time>
      </trkpt>
      <trkpt lat="48.86459" lon="2.31196">
        <ele>31.799999237061</ele>
        <time>2016-05-16T20:47:25.000Z</time>
      </trkpt>
      <trkpt lat="48.8646" lon="2.31229">
        <ele>35</ele>
        <time>2016-05-16T20:47:30.000Z</time>
      </trkpt>
      <trkpt lat="48.86463" lon="2.31259">
        <ele>37.200000762939</ele>
        <time>2016-05-16T20:47:34.000Z</time>
      </trkpt>
      <trkpt lat="48.86463" lon="2.31292">
        <ele>36.599998474121</ele>
        <time>2016-05-16T20:47:38.000Z</time>
      </trkpt>
      <trkpt lat="48.86464" lon="2.31302">
        <ele>36.200000762939</ele>
        <time>2016-05-16T20:47:39.000Z</time>
      </trkpt>
      <trkpt lat="48.86465" lon="2.3132">
        <ele>35.799999237061</ele>
        <time>2016-05-16T20:47:42.000Z</time>
      </trkpt>
      <trkpt lat="48.86461" lon="2.31352">
        <ele>33.400001525879</ele>
        <time>2016-05-16T20:48:11.000Z</time>
      </trkpt>
      <trkpt lat="48.86464" lon="2.31383">
        <ele>32.799999237061</ele>
        <time>2016-05-16T20:48:18.000Z</time>
      </trkpt>
      <trkpt lat="48.86465" lon="2.31407">
        <ele>32.200000762939</ele>
        <time>2016-05-16T20:48:22.000Z</time>
      </trkpt>
      <trkpt lat="48.86467" lon="2.31439">
        <ele>34.400001525879</ele>
        <time>2016-05-16T20:48:27.000Z</time>
      </trkpt>
      <trkpt lat="48.8647" lon="2.31473">
        <ele>34.599998474121</ele>
        <time>2016-05-16T20:48:32.000Z</time>
      </trkpt>
      <trkpt lat="48.86469" lon="2.31507">
        <ele>33.200000762939</ele>
        <time>2016-05-16T20:48:36.000Z</time>
      </trkpt>
      <trkpt lat="48.8647" lon="2.31538">
        <ele>30.799999237061</ele>
        <time>2016-05-16T20:48:40.000Z</time>
      </trkpt>
      <trkpt lat="48.86472" lon="2.3157">
        <ele>30</ele>
        <time>2016-05-16T20:48:44.000Z</time>
      </trkpt>
      <trkpt lat="48.86473" lon="2.31604">
        <ele>28</ele>
        <time>2016-05-16T20:48:48.000Z</time>
      </trkpt>
      <trkpt lat="48.86476" lon="2.31641">
        <ele>27.39999961853</ele>
        <time>2016-05-16T20:48:52.000Z</time>
      </trkpt>
      <trkpt lat="48.86478" lon="2.3167">
        <ele>27.799999237061</ele>
        <time>2016-05-16T20:48:55.000Z</time>
      </trkpt>
      <trkpt lat="48.86482" lon="2.31705">
        <ele>30</ele>
        <time>2016-05-16T20:48:59.000Z</time>
      </trkpt>
      <trkpt lat="48.86484" lon="2.31742">
        <ele>36.400001525879</ele>
        <time>2016-05-16T20:49:03.000Z</time>
      </trkpt>
      <trkpt lat="48.86485" lon="2.31773">
        <ele>37.200000762939</ele>
        <time>2016-05-16T20:49:07.000Z</time>
      </trkpt>
      <trkpt lat="48.86484" lon="2.31794">
        <ele>37</ele>
        <time>2016-05-16T20:49:09.000Z</time>
      </trkpt>
      <trkpt lat="48.86473" lon="2.31826">
        <ele>33.799999237061</ele>
        <time>2016-05-16T20:49:12.000Z</time>
      </trkpt>
      <trkpt lat="48.86463" lon="2.31843">
        <ele>32.799999237061</ele>
        <time>2016-05-16T20:49:15.000Z</time>
      </trkpt>
      <trkpt lat="48.86455" lon="2.31856">
        <ele>32</ele>
        <time>2016-05-16T20:49:17.000Z</time>
      </trkpt>
      <trkpt lat="48.86444" lon="2.31884">
        <ele>29.39999961853</ele>
        <time>2016-05-16T20:49:22.000Z</time>
      </trkpt>
      <trkpt lat="48.8644" lon="2.31894">
        <ele>28.39999961853</ele>
        <time>2016-05-16T20:49:24.000Z</time>
      </trkpt>
      <trkpt lat="48.86432" lon="2.3192">
        <ele>27.200000762939</ele>
        <time>2016-05-16T20:49:29.000Z</time>
      </trkpt>
      <trkpt lat="48.86424" lon="2.31941">
        <ele>27.799999237061</ele>
        <time>2016-05-16T20:49:33.000Z</time>
      </trkpt>
      <trkpt lat="48.86416" lon="2.31967">
        <ele>28.60000038147</ele>
        <time>2016-05-16T20:49:38.000Z</time>
      </trkpt>
      <trkpt lat="48.86411" lon="2.31983">
        <ele>29</ele>
        <time>2016-05-16T20:49:42.000Z</time>
      </trkpt>
      <trkpt lat="48.86405" lon="2.31996">
        <ele>29.200000762939</ele>
        <time>2016-05-16T20:50:42.000Z</time>
      </trkpt>
      <trkpt lat="48.86401" lon="2.32025">
        <ele>30</ele>
        <time>2016-05-16T20:50:49.000Z</time>
      </trkpt>
      <trkpt lat="48.86392" lon="2.32054">
        <ele>30.200000762939</ele>
        <time>2016-05-16T20:50:55.000Z</time>
      </trkpt>
      <trkpt lat="48.86382" lon="2.32084">
        <ele>29.60000038147</ele>
        <time>2016-05-16T20:51:00.000Z</time>
      </trkpt>
      <trkpt lat="48.86373" lon="2.32109">
        <ele>29.799999237061</ele>
        <time>2016-05-16T20:51:04.000Z</time>
      </trkpt>
      <trkpt lat="48.86364" lon="2.32136">
        <ele>29.39999961853</ele>
        <time>2016-05-16T20:51:08.000Z</time>
      </trkpt>
      <trkpt lat="48.86359" lon="2.32152">
        <ele>29.200000762939</ele>
        <time>2016-05-16T20:51:10.000Z</time>
      </trkpt>
      <trkpt lat="48.86352" lon="2.32179">
        <ele>29.60000038147</ele>
        <time>2016-05-16T20:51:13.000Z</time>
      </trkpt>
      <trkpt lat="48.86344" lon="2.32207">
        <ele>30.799999237061</ele>
        <time>2016-05-16T20:51:16.000Z</time>
      </trkpt>
      <trkpt lat="48.86336" lon="2.32237">
        <ele>31.799999237061</ele>
        <time>2016-05-16T20:51:19.000Z</time>
      </trkpt>
      <trkpt lat="48.86326" lon="2.32267">
        <ele>31.200000762939</ele>
        <time>2016-05-16T20:51:22.000Z</time>
      </trkpt>
      <trkpt lat="48.86317" lon="2.32298">
        <ele>30.60000038147</ele>
        <time>2016-05-16T20:51:25.000Z</time>
      </trkpt>
      <trkpt lat="48.86306" lon="2.3233">
        <ele>30.200000762939</ele>
        <time>2016-05-16T20:51:28.000Z</time>
      </trkpt>
      <trkpt lat="48.86294" lon="2.32364">
        <ele>29.39999961853</ele>
        <time>2016-05-16T20:51:31.000Z</time>
      </trkpt>
      <trkpt lat="48.86283" lon="2.32399">
        <ele>28</ele>
        <time>2016-05-16T20:51:34.000Z</time>
      </trkpt>
      <trkpt lat="48.86273" lon="2.32433">
        <ele>27.39999961853</ele>
        <time>2016-05-16T20:51:37.000Z</time>
      </trkpt>
      <trkpt lat="48.8626" lon="2.32468">
        <ele>28.39999961853</ele>
        <time>2016-05-16T20:51:40.000Z</time>
      </trkpt>
      <trkpt lat="48.86247" lon="2.32502">
        <ele>29.200000762939</ele>
        <time>2016-05-16T20:51:43.000Z</time>
      </trkpt>
      <trkpt lat="48.86237" lon="2.32534">
        <ele>29.799999237061</ele>
        <time>2016-05-16T20:51:46.000Z</time>
      </trkpt>
      <trkpt lat="48.86226" lon="2.32565">
        <ele>30.200000762939</ele>
        <time>2016-05-16T20:51:49.000Z</time>
      </trkpt>
      <trkpt lat="48.86216" lon="2.32599">
        <ele>30.799999237061</ele>
        <time>2016-05-16T20:51:52.000Z</time>
      </trkpt>
      <trkpt lat="48.86206" lon="2.32632">
        <ele>30.200000762939</ele>
        <time>2016-05-16T20:51:55.000Z</time>
      </trkpt>
      <trkpt lat="48.86196" lon="2.32665">
        <ele>29.200000762939</ele>
        <time>2016-05-16T20:51:58.000Z</time>
      </trkpt>
      <trkpt lat="48.86186" lon="2.32699">
        <ele>30.200000762939</ele>
        <time>2016-05-16T20:52:01.000Z</time>
      </trkpt>
      <trkpt lat="48.86175" lon="2.32731">
        <ele>31.39999961853</ele>
        <time>2016-05-16T20:52:04.000Z</time>
      </trkpt>
      <trkpt lat="48.86165" lon="2.32762">
        <ele>31.200000762939</ele>
        <time>2016-05-16T20:52:07.000Z</time>
      </trkpt>
      <trkpt lat="48.86156" lon="2.32792">
        <ele>32.200000762939</ele>
        <time>2016-05-16T20:52:10.000Z</time>
      </trkpt>
      <trkpt lat="48.86147" lon="2.32823">
        <ele>31</ele>
        <time>2016-05-16T20:52:13.000Z</time>
      </trkpt>
      <trkpt lat="48.86137" lon="2.32853">
        <ele>30</ele>
        <time>2016-05-16T20:52:16.000Z</time>
      </trkpt>
      <trkpt lat="48.86127" lon="2.32881">
        <ele>31.200000762939</ele>
        <time>2016-05-16T20:52:19.000Z</time>
      </trkpt>
      <trkpt lat="48.86117" lon="2.32909">
        <ele>33.200000762939</ele>
        <time>2016-05-16T20:52:22.000Z</time>
      </trkpt>
      <trkpt lat="48.86114" lon="2.32919">
        <ele>33.400001525879</ele>
        <time>2016-05-16T20:52:23.000Z</time>
      </trkpt>
      <trkpt lat="48.86105" lon="2.32947">
        <ele>37.400001525879</ele>
        <time>2016-05-16T20:52:26.000Z</time>
      </trkpt>
      <trkpt lat="48.86096" lon="2.32972">
        <ele>41.400001525879</ele>
        <time>2016-05-16T20:52:29.000Z</time>
      </trkpt>
      <trkpt lat="48.8609" lon="2.32992">
        <ele>43.200000762939</ele>
        <time>2016-05-16T20:52:32.000Z</time>
      </trkpt>
      <trkpt lat="48.86081" lon="2.33002">
        <ele>42.599998474121</ele>
        <time>2016-05-16T20:52:40.000Z</time>
      </trkpt>
      <trkpt lat="48.86081" lon="2.33002">
        <ele>42.599998474121</ele>
        <time>2016-05-16T20:52:41.000Z</time>
      </trkpt>
      <trkpt lat="48.86097" lon="2.32996">
        <ele>43.599998474121</ele>
        <time>2016-05-16T20:53:00.000Z</time>
      </trkpt>
      <trkpt lat="48.86104" lon="2.33004">
        <ele>43.599998474121</ele>
        <time>2016-05-16T20:54:26.000Z</time>
      </trkpt>
      <trkpt lat="48.86122" lon="2.3302">
        <ele>42</ele>
        <time>2016-05-16T20:54:31.000Z</time>
      </trkpt>
      <trkpt lat="48.86139" lon="2.33034">
        <ele>40.599998474121</ele>
        <time>2016-05-16T20:54:34.000Z</time>
      </trkpt>
      <trkpt lat="48.86159" lon="2.3305">
        <ele>39</ele>
        <time>2016-05-16T20:54:37.000Z</time>
      </trkpt>
      <trkpt lat="48.86183" lon="2.33067">
        <ele>36.599998474121</ele>
        <time>2016-05-16T20:54:40.000Z</time>
      </trkpt>
      <trkpt lat="48.86201" lon="2.33079">
        <ele>35.799999237061</ele>
        <time>2016-05-16T20:54:42.000Z</time>
      </trkpt>
      <trkpt lat="48.86219" lon="2.33089">
        <ele>35.599998474121</ele>
        <time>2016-05-16T20:54:44.000Z</time>
      </trkpt>
      <trkpt lat="48.86315" lon="2.33154">
        <ele>37.599998474121</ele>
        <time>2016-05-16T20:54:57.000Z</time>
      </trkpt>
      <trkpt lat="48.86318" lon="2.33158">
        <ele>37.799999237061</ele>
        <time>2016-05-16T20:54:58.000Z</time>
      </trkpt>
      <trkpt lat="48.86335" lon="2.33173">
        <ele>39</ele>
        <time>2016-05-16T20:55:02.000Z</time>
      </trkpt>
      <trkpt lat="48.86341" lon="2.33179">
        <ele>39.599998474121</ele>
        <time>2016-05-16T20:55:04.000Z</time>
      </trkpt>
      <trkpt lat="48.86357" lon="2.33194">
        <ele>40.799999237061</ele>
        <time>2016-05-16T20:55:10.000Z</time>
      </trkpt>
      <trkpt lat="48.86367" lon="2.33204">
        <ele>41.799999237061</ele>
        <time>2016-05-16T20:55:15.000Z</time>
      </trkpt>
      <trkpt lat="48.86358" lon="2.33229">
        <ele>43</ele>
        <time>2016-05-16T20:55:28.000Z</time>
      </trkpt>
      <trkpt lat="48.86349" lon="2.33254">
        <ele>44.400001525879</ele>
        <time>2016-05-16T20:55:35.000Z</time>
      </trkpt>
      <trkpt lat="48.86342" lon="2.3328">
        <ele>45.799999237061</ele>
        <time>2016-05-16T20:55:41.000Z</time>
      </trkpt>
      <trkpt lat="48.86332" lon="2.33304">
        <ele>47</ele>
        <time>2016-05-16T20:55:49.000Z</time>
      </trkpt>
      <trkpt lat="48.8633" lon="2.33314">
        <ele>47</ele>
        <time>2016-05-16T20:55:52.000Z</time>
      </trkpt>
      <trkpt lat="48.86327" lon="2.33345">
        <ele>47.400001525879</ele>
        <time>2016-05-16T20:55:59.000Z</time>
      </trkpt>
      <trkpt lat="48.86328" lon="2.33375">
        <ele>48.599998474121</ele>
        <time>2016-05-16T20:56:04.000Z</time>
      </trkpt>
      <trkpt lat="48.8632" lon="2.33406">
        <ele>47.799999237061</ele>
        <time>2016-05-16T20:56:10.000Z</time>
      </trkpt>
      <trkpt lat="48.86305" lon="2.33427">
        <ele>45.599998474121</ele>
        <time>2016-05-16T20:56:15.000Z</time>
      </trkpt>
      <trkpt lat="48.8629" lon="2.33447">
        <ele>44.200000762939</ele>
        <time>2016-05-16T20:56:23.000Z</time>
      </trkpt>
      <trkpt lat="48.86278" lon="2.33485">
        <ele>44</ele>
        <time>2016-05-16T20:56:34.000Z</time>
      </trkpt>
      <trkpt lat="48.86283" lon="2.33501">
        <ele>44.400001525879</ele>
        <time>2016-05-16T20:56:37.000Z</time>
      </trkpt>
      <trkpt lat="48.86269" lon="2.33524">
        <ele>45.200000762939</ele>
        <time>2016-05-16T20:56:44.000Z</time>
      </trkpt>
      <trkpt lat="48.86255" lon="2.33548">
        <ele>46.200000762939</ele>
        <time>2016-05-16T20:56:49.000Z</time>
      </trkpt>
      <trkpt lat="48.86245" lon="2.33572">
        <ele>48</ele>
        <time>2016-05-16T20:56:54.000Z</time>
      </trkpt>
      <trkpt lat="48.86258" lon="2.33612">
        <ele>48</ele>
        <time>2016-05-16T20:56:59.000Z</time>
      </trkpt>
      <trkpt lat="48.86262" lon="2.33643">
        <ele>47.599998474121</ele>
        <time>2016-05-16T20:57:05.000Z</time>
      </trkpt>
      <trkpt lat="48.86271" lon="2.33658">
        <ele>47.200000762939</ele>
        <time>2016-05-16T20:57:16.000Z</time>
      </trkpt>
      <trkpt lat="48.86272" lon="2.33666">
        <ele>47</ele>
        <time>2016-05-16T20:57:37.000Z</time>
      </trkpt>
      <trkpt lat="48.8627" lon="2.33694">
        <ele>46.799999237061</ele>
        <time>2016-05-16T20:57:43.000Z</time>
      </trkpt>
      <trkpt lat="48.86274" lon="2.33703">
        <ele>46.599998474121</ele>
        <time>2016-05-16T20:57:45.000Z</time>
      </trkpt>
      <trkpt lat="48.86279" lon="2.33731">
        <ele>46</ele>
        <time>2016-05-16T20:57:50.000Z</time>
      </trkpt>
      <trkpt lat="48.86277" lon="2.33737">
        <ele>46</ele>
        <time>2016-05-16T20:57:51.000Z</time>
      </trkpt>
      <trkpt lat="48.86268" lon="2.33764">
        <ele>45.799999237061</ele>
        <time>2016-05-16T20:57:55.000Z</time>
      </trkpt>
      <trkpt lat="48.86267" lon="2.3377">
        <ele>45.799999237061</ele>
        <time>2016-05-16T20:57:56.000Z</time>
      </trkpt>
      <trkpt lat="48.86259" lon="2.33796">
        <ele>45.599998474121</ele>
        <time>2016-05-16T20:58:00.000Z</time>
      </trkpt>
      <trkpt lat="48.8625" lon="2.33823">
        <ele>44.799999237061</ele>
        <time>2016-05-16T20:58:04.000Z</time>
      </trkpt>
      <trkpt lat="48.86242" lon="2.33851">
        <ele>45</ele>
        <time>2016-05-16T20:58:08.000Z</time>
      </trkpt>
      <trkpt lat="48.86235" lon="2.3388">
        <ele>45.799999237061</ele>
        <time>2016-05-16T20:58:12.000Z</time>
      </trkpt>
      <trkpt lat="48.8623" lon="2.33908">
        <ele>46.400001525879</ele>
        <time>2016-05-16T20:58:16.000Z</time>
      </trkpt>
      <trkpt lat="48.8622" lon="2.33938">
        <ele>46.599998474121</ele>
        <time>2016-05-16T20:58:20.000Z</time>
      </trkpt>
      <trkpt lat="48.86214" lon="2.33961">
        <ele>47.599998474121</ele>
        <time>2016-05-16T20:58:23.000Z</time>
      </trkpt>
      <trkpt lat="48.86205" lon="2.33993">
        <ele>49</ele>
        <time>2016-05-16T20:58:27.000Z</time>
      </trkpt>
      <trkpt lat="48.86198" lon="2.34022">
        <ele>49.400001525879</ele>
        <time>2016-05-16T20:58:31.000Z</time>
      </trkpt>
      <trkpt lat="48.86194" lon="2.34028">
        <ele>49.200000762939</ele>
        <time>2016-05-16T20:58:32.000Z</time>
      </trkpt>
      <trkpt lat="48.86184" lon="2.34055">
        <ele>48.799999237061</ele>
        <time>2016-05-16T20:58:36.000Z</time>
      </trkpt>
      <trkpt lat="48.86178" lon="2.34081">
        <ele>48.599998474121</ele>
        <time>2016-05-16T20:58:40.000Z</time>
      </trkpt>
      <trkpt lat="48.86173" lon="2.34097">
        <ele>48.599998474121</ele>
        <time>2016-05-16T20:58:45.000Z</time>
      </trkpt>
      <trkpt lat="48.86173" lon="2.341">
        <ele>48.599998474121</ele>
        <time>2016-05-16T20:58:46.000Z</time>
      </trkpt>
      <trkpt lat="48.86172" lon="2.34104">
        <ele>48.599998474121</ele>
        <time>2016-05-16T20:58:49.000Z</time>
      </trkpt>
      <trkpt lat="48.86175" lon="2.34107">
        <ele>48.799999237061</ele>
        <time>2016-05-16T20:59:10.000Z</time>
      </trkpt>
      <trkpt lat="48.86167" lon="2.34135">
        <ele>48.799999237061</ele>
        <time>2016-05-16T20:59:21.000Z</time>
      </trkpt>
      <trkpt lat="48.86158" lon="2.34159">
        <ele>49.200000762939</ele>
        <time>2016-05-16T20:59:25.000Z</time>
      </trkpt>
      <trkpt lat="48.86149" lon="2.34185">
        <ele>49</ele>
        <time>2016-05-16T20:59:29.000Z</time>
      </trkpt>
      <trkpt lat="48.86143" lon="2.34217">
        <ele>49</ele>
        <time>2016-05-16T20:59:34.000Z</time>
      </trkpt>
      <trkpt lat="48.86137" lon="2.34243">
        <ele>49.400001525879</ele>
        <time>2016-05-16T20:59:38.000Z</time>
      </trkpt>
      <trkpt lat="48.86134" lon="2.34271">
        <ele>49</ele>
        <time>2016-05-16T20:59:42.000Z</time>
      </trkpt>
      <trkpt lat="48.86133" lon="2.34304">
        <ele>49.799999237061</ele>
        <time>2016-05-16T20:59:46.000Z</time>
      </trkpt>
      <trkpt lat="48.86126" lon="2.34336">
        <ele>50.200000762939</ele>
        <time>2016-05-16T20:59:51.000Z</time>
      </trkpt>
      <trkpt lat="48.8612" lon="2.34362">
        <ele>49.799999237061</ele>
        <time>2016-05-16T20:59:55.000Z</time>
      </trkpt>
      <trkpt lat="48.86116" lon="2.34393">
        <ele>49.599998474121</ele>
        <time>2016-05-16T21:00:01.000Z</time>
      </trkpt>
      <trkpt lat="48.86112" lon="2.34425">
        <ele>49.200000762939</ele>
        <time>2016-05-16T21:00:06.000Z</time>
      </trkpt>
      <trkpt lat="48.86114" lon="2.34456">
        <ele>49.200000762939</ele>
        <time>2016-05-16T21:00:10.000Z</time>
      </trkpt>
      <trkpt lat="48.8611" lon="2.34474">
        <ele>50</ele>
        <time>2016-05-16T21:00:13.000Z</time>
      </trkpt>
      <trkpt lat="48.861" lon="2.34498">
        <ele>51.200000762939</ele>
        <time>2016-05-16T21:00:17.000Z</time>
      </trkpt>
      <trkpt lat="48.86087" lon="2.34521">
        <ele>51.200000762939</ele>
        <time>2016-05-16T21:00:21.000Z</time>
      </trkpt>
      <trkpt lat="48.86076" lon="2.34544">
        <ele>51.200000762939</ele>
        <time>2016-05-16T21:00:25.000Z</time>
      </trkpt>
      <trkpt lat="48.86063" lon="2.3457">
        <ele>50</ele>
        <time>2016-05-16T21:00:30.000Z</time>
      </trkpt>
      <trkpt lat="48.86059" lon="2.34573">
        <ele>49.799999237061</ele>
        <time>2016-05-16T21:00:31.000Z</time>
      </trkpt>
      <trkpt lat="48.8604" lon="2.3459">
        <ele>48.400001525879</ele>
        <time>2016-05-16T21:00:36.000Z</time>
      </trkpt>
      <trkpt lat="48.86025" lon="2.34603">
        <ele>48.200000762939</ele>
        <time>2016-05-16T21:00:40.000Z</time>
      </trkpt>
      <trkpt lat="48.86013" lon="2.34613">
        <ele>48</ele>
        <time>2016-05-16T21:00:43.000Z</time>
      </trkpt>
      <trkpt lat="48.85995" lon="2.34628">
        <ele>48</ele>
        <time>2016-05-16T21:00:47.000Z</time>
      </trkpt>
      <trkpt lat="48.85972" lon="2.34638">
        <ele>47.799999237061</ele>
        <time>2016-05-16T21:00:51.000Z</time>
      </trkpt>
      <trkpt lat="48.85955" lon="2.34651">
        <ele>47.400001525879</ele>
        <time>2016-05-16T21:00:55.000Z</time>
      </trkpt>
      <trkpt lat="48.85953" lon="2.34656">
        <ele>47.200000762939</ele>
        <time>2016-05-16T21:00:56.000Z</time>
      </trkpt>
      <trkpt lat="48.8596" lon="2.34694">
        <ele>46.200000762939</ele>
        <time>2016-05-16T21:01:01.000Z</time>
      </trkpt>
      <trkpt lat="48.85959" lon="2.34697">
        <ele>46</ele>
        <time>2016-05-16T21:01:02.000Z</time>
      </trkpt>
      <trkpt lat="48.85944" lon="2.34711">
        <ele>45.400001525879</ele>
        <time>2016-05-16T21:01:10.000Z</time>
      </trkpt>
      <trkpt lat="48.85943" lon="2.34715">
        <ele>45.200000762939</ele>
        <time>2016-05-16T21:01:15.000Z</time>
      </trkpt>
      <trkpt lat="48.85943" lon="2.34716">
        <ele>45.200000762939</ele>
        <time>2016-05-16T21:01:16.000Z</time>
      </trkpt>
    </trkseg>
  </trk>
  <trk>
    <name><![CDATA[lundi 2016 05 23]]></name>
    <trkseg>
      <trkpt lat="48.8574" lon="2.34728">
        <ele>40.400001525879</ele>
        <time>2016-05-23T18:21:55.000Z</time>
      </trkpt>
      <trkpt lat="48.85749" lon="2.34749">
        <ele>40.200000762939</ele>
        <time>2016-05-23T18:22:11.000Z</time>
      </trkpt>
      <trkpt lat="48.85765" lon="2.34759">
        <ele>39.799999237061</ele>
        <time>2016-05-23T18:22:19.000Z</time>
      </trkpt>
      <trkpt lat="48.85781" lon="2.34774">
        <ele>40.400001525879</ele>
        <time>2016-05-23T18:22:32.000Z</time>
      </trkpt>
      <trkpt lat="48.85795" lon="2.34795">
        <ele>41.400001525879</ele>
        <time>2016-05-23T18:22:45.000Z</time>
      </trkpt>
      <trkpt lat="48.85813" lon="2.34809">
        <ele>43.400001525879</ele>
        <time>2016-05-23T18:22:51.000Z</time>
      </trkpt>
      <trkpt lat="48.85829" lon="2.34822">
        <ele>45</ele>
        <time>2016-05-23T18:23:00.000Z</time>
      </trkpt>
      <trkpt lat="48.85835" lon="2.34823">
        <ele>45.599998474121</ele>
        <time>2016-05-23T18:23:03.000Z</time>
      </trkpt>
      <trkpt lat="48.85854" lon="2.34826">
        <ele>47.799999237061</ele>
        <time>2016-05-23T18:23:26.000Z</time>
      </trkpt>
      <trkpt lat="48.85872" lon="2.34837">
        <ele>48</ele>
        <time>2016-05-23T18:23:32.000Z</time>
      </trkpt>
      <trkpt lat="48.85892" lon="2.34846">
        <ele>48</ele>
        <time>2016-05-23T18:23:38.000Z</time>
      </trkpt>
      <trkpt lat="48.8591" lon="2.34853">
        <ele>48</ele>
        <time>2016-05-23T18:23:44.000Z</time>
      </trkpt>
      <trkpt lat="48.85929" lon="2.34861">
        <ele>48</ele>
        <time>2016-05-23T18:23:49.000Z</time>
      </trkpt>
      <trkpt lat="48.85949" lon="2.34872">
        <ele>48.200000762939</ele>
        <time>2016-05-23T18:23:54.000Z</time>
      </trkpt>
      <trkpt lat="48.85967" lon="2.34883">
        <ele>48.400001525879</ele>
        <time>2016-05-23T18:23:58.000Z</time>
      </trkpt>
      <trkpt lat="48.85985" lon="2.34894">
        <ele>48.599998474121</ele>
        <time>2016-05-23T18:24:02.000Z</time>
      </trkpt>
      <trkpt lat="48.86002" lon="2.34906">
        <ele>48.799999237061</ele>
        <time>2016-05-23T18:24:06.000Z</time>
      </trkpt>
      <trkpt lat="48.8602" lon="2.34914">
        <ele>49</ele>
        <time>2016-05-23T18:24:09.000Z</time>
      </trkpt>
      <trkpt lat="48.8604" lon="2.34924">
        <ele>48.400001525879</ele>
        <time>2016-05-23T18:24:13.000Z</time>
      </trkpt>
      <trkpt lat="48.8605" lon="2.34929">
        <ele>48.200000762939</ele>
        <time>2016-05-23T18:24:15.000Z</time>
      </trkpt>
      <trkpt lat="48.86067" lon="2.34941">
        <ele>47.599998474121</ele>
        <time>2016-05-23T18:24:19.000Z</time>
      </trkpt>
      <trkpt lat="48.86087" lon="2.34953">
        <ele>47</ele>
        <time>2016-05-23T18:24:23.000Z</time>
      </trkpt>
      <trkpt lat="48.86109" lon="2.34965">
        <ele>46.400001525879</ele>
        <time>2016-05-23T18:24:27.000Z</time>
      </trkpt>
      <trkpt lat="48.86132" lon="2.34975">
        <ele>46.599998474121</ele>
        <time>2016-05-23T18:24:31.000Z</time>
      </trkpt>
      <trkpt lat="48.86149" lon="2.34982">
        <ele>46.799999237061</ele>
        <time>2016-05-23T18:24:34.000Z</time>
      </trkpt>
      <trkpt lat="48.86167" lon="2.34991">
        <ele>46.799999237061</ele>
        <time>2016-05-23T18:24:37.000Z</time>
      </trkpt>
      <trkpt lat="48.86185" lon="2.35004">
        <ele>47</ele>
        <time>2016-05-23T18:24:41.000Z</time>
      </trkpt>
      <trkpt lat="48.86202" lon="2.35016">
        <ele>47.400001525879</ele>
        <time>2016-05-23T18:24:45.000Z</time>
      </trkpt>
      <trkpt lat="48.86218" lon="2.35027">
        <ele>47.599998474121</ele>
        <time>2016-05-23T18:24:49.000Z</time>
      </trkpt>
      <trkpt lat="48.86232" lon="2.35033">
        <ele>48</ele>
        <time>2016-05-23T18:24:52.000Z</time>
      </trkpt>
      <trkpt lat="48.86246" lon="2.35041">
        <ele>48.200000762939</ele>
        <time>2016-05-23T18:24:55.000Z</time>
      </trkpt>
      <trkpt lat="48.86263" lon="2.35053">
        <ele>48.599998474121</ele>
        <time>2016-05-23T18:24:58.000Z</time>
      </trkpt>
      <trkpt lat="48.86284" lon="2.35065">
        <ele>48.599998474121</ele>
        <time>2016-05-23T18:25:02.000Z</time>
      </trkpt>
      <trkpt lat="48.86303" lon="2.35078">
        <ele>48.599998474121</ele>
        <time>2016-05-23T18:25:06.000Z</time>
      </trkpt>
      <trkpt lat="48.86317" lon="2.35087">
        <ele>48.400001525879</ele>
        <time>2016-05-23T18:25:10.000Z</time>
      </trkpt>
      <trkpt lat="48.86327" lon="2.35093">
        <ele>48.200000762939</ele>
        <time>2016-05-23T18:25:18.000Z</time>
      </trkpt>
      <trkpt lat="48.86328" lon="2.35094">
        <ele>48.200000762939</ele>
        <time>2016-05-23T18:25:19.000Z</time>
      </trkpt>
      <trkpt lat="48.86338" lon="2.35102">
        <ele>48</ele>
        <time>2016-05-23T18:25:25.000Z</time>
      </trkpt>
      <trkpt lat="48.86357" lon="2.35112">
        <ele>47.599998474121</ele>
        <time>2016-05-23T18:25:31.000Z</time>
      </trkpt>
      <trkpt lat="48.86373" lon="2.35124">
        <ele>47.400001525879</ele>
        <time>2016-05-23T18:25:36.000Z</time>
      </trkpt>
      <trkpt lat="48.86394" lon="2.35135">
        <ele>47.400001525879</ele>
        <time>2016-05-23T18:25:42.000Z</time>
      </trkpt>
      <trkpt lat="48.86415" lon="2.35142">
        <ele>47.200000762939</ele>
        <time>2016-05-23T18:25:47.000Z</time>
      </trkpt>
      <trkpt lat="48.86431" lon="2.35155">
        <ele>47</ele>
        <time>2016-05-23T18:25:51.000Z</time>
      </trkpt>
      <trkpt lat="48.86449" lon="2.35165">
        <ele>46.799999237061</ele>
        <time>2016-05-23T18:25:55.000Z</time>
      </trkpt>
      <trkpt lat="48.86469" lon="2.35176">
        <ele>46.799999237061</ele>
        <time>2016-05-23T18:26:00.000Z</time>
      </trkpt>
      <trkpt lat="48.86489" lon="2.35187">
        <ele>46.599998474121</ele>
        <time>2016-05-23T18:26:04.000Z</time>
      </trkpt>
      <trkpt lat="48.86509" lon="2.35197">
        <ele>46.599998474121</ele>
        <time>2016-05-23T18:26:08.000Z</time>
      </trkpt>
      <trkpt lat="48.8653" lon="2.35209">
        <ele>46.599998474121</ele>
        <time>2016-05-23T18:26:12.000Z</time>
      </trkpt>
      <trkpt lat="48.86551" lon="2.35221">
        <ele>47.400001525879</ele>
        <time>2016-05-23T18:26:16.000Z</time>
      </trkpt>
      <trkpt lat="48.86572" lon="2.35232">
        <ele>48</ele>
        <time>2016-05-23T18:26:20.000Z</time>
      </trkpt>
      <trkpt lat="48.8659" lon="2.35245">
        <ele>48.799999237061</ele>
        <time>2016-05-23T18:26:25.000Z</time>
      </trkpt>
      <trkpt lat="48.86597" lon="2.35248">
        <ele>48.799999237061</ele>
        <time>2016-05-23T18:26:28.000Z</time>
      </trkpt>
      <trkpt lat="48.86602" lon="2.35251">
        <ele>48.799999237061</ele>
        <time>2016-05-23T18:26:30.000Z</time>
      </trkpt>
      <trkpt lat="48.86604" lon="2.3528">
        <ele>48.599998474121</ele>
        <time>2016-05-23T18:26:35.000Z</time>
      </trkpt>
      <trkpt lat="48.866" lon="2.35311">
        <ele>48.200000762939</ele>
        <time>2016-05-23T18:26:40.000Z</time>
      </trkpt>
      <trkpt lat="48.86595" lon="2.35341">
        <ele>47.599998474121</ele>
        <time>2016-05-23T18:26:45.000Z</time>
      </trkpt>
      <trkpt lat="48.86596" lon="2.35373">
        <ele>47.599998474121</ele>
        <time>2016-05-23T18:26:50.000Z</time>
      </trkpt>
      <trkpt lat="48.86592" lon="2.35403">
        <ele>47.599998474121</ele>
        <time>2016-05-23T18:26:54.000Z</time>
      </trkpt>
      <trkpt lat="48.86589" lon="2.35419">
        <ele>48.200000762939</ele>
        <time>2016-05-23T18:26:56.000Z</time>
      </trkpt>
      <trkpt lat="48.86584" lon="2.3545">
        <ele>47.400001525879</ele>
        <time>2016-05-23T18:27:00.000Z</time>
      </trkpt>
      <trkpt lat="48.86581" lon="2.35478">
        <ele>47</ele>
        <time>2016-05-23T18:27:04.000Z</time>
      </trkpt>
      <trkpt lat="48.86579" lon="2.35484">
        <ele>47</ele>
        <time>2016-05-23T18:27:05.000Z</time>
      </trkpt>
      <trkpt lat="48.86572" lon="2.35509">
        <ele>46.599998474121</ele>
        <time>2016-05-23T18:27:09.000Z</time>
      </trkpt>
      <trkpt lat="48.86568" lon="2.35538">
        <ele>45</ele>
        <time>2016-05-23T18:27:14.000Z</time>
      </trkpt>
      <trkpt lat="48.86557" lon="2.35564">
        <ele>44.599998474121</ele>
        <time>2016-05-23T18:27:19.000Z</time>
      </trkpt>
      <trkpt lat="48.86551" lon="2.35584">
        <ele>44.400001525879</ele>
        <time>2016-05-23T18:27:23.000Z</time>
      </trkpt>
      <trkpt lat="48.86548" lon="2.35607">
        <ele>45</ele>
        <time>2016-05-23T18:27:28.000Z</time>
      </trkpt>
      <trkpt lat="48.86548" lon="2.35611">
        <ele>45</ele>
        <time>2016-05-23T18:27:29.000Z</time>
      </trkpt>
      <trkpt lat="48.86549" lon="2.35633">
        <ele>45</ele>
        <time>2016-05-23T18:27:33.000Z</time>
      </trkpt>
      <trkpt lat="48.86548" lon="2.35638">
        <ele>45</ele>
        <time>2016-05-23T18:27:34.000Z</time>
      </trkpt>
      <trkpt lat="48.86546" lon="2.35669">
        <ele>45.200000762939</ele>
        <time>2016-05-23T18:27:39.000Z</time>
      </trkpt>
      <trkpt lat="48.86539" lon="2.35697">
        <ele>45.599998474121</ele>
        <time>2016-05-23T18:27:43.000Z</time>
      </trkpt>
      <trkpt lat="48.86532" lon="2.35729">
        <ele>45.200000762939</ele>
        <time>2016-05-23T18:27:47.000Z</time>
      </trkpt>
      <trkpt lat="48.86527" lon="2.35762">
        <ele>45</ele>
        <time>2016-05-23T18:27:51.000Z</time>
      </trkpt>
      <trkpt lat="48.86521" lon="2.35793">
        <ele>45.599998474121</ele>
        <time>2016-05-23T18:27:55.000Z</time>
      </trkpt>
      <trkpt lat="48.86518" lon="2.35808">
        <ele>45.799999237061</ele>
        <time>2016-05-23T18:27:57.000Z</time>
      </trkpt>
      <trkpt lat="48.8651" lon="2.35839">
        <ele>45.799999237061</ele>
        <time>2016-05-23T18:28:01.000Z</time>
      </trkpt>
      <trkpt lat="48.86503" lon="2.35866">
        <ele>45.200000762939</ele>
        <time>2016-05-23T18:28:05.000Z</time>
      </trkpt>
      <trkpt lat="48.86496" lon="2.35895">
        <ele>44.599998474121</ele>
        <time>2016-05-23T18:28:09.000Z</time>
      </trkpt>
      <trkpt lat="48.86493" lon="2.3591">
        <ele>44.799999237061</ele>
        <time>2016-05-23T18:28:12.000Z</time>
      </trkpt>
      <trkpt lat="48.86488" lon="2.35929">
        <ele>45</ele>
        <time>2016-05-23T18:28:16.000Z</time>
      </trkpt>
      <trkpt lat="48.86485" lon="2.3594">
        <ele>45.200000762939</ele>
        <time>2016-05-23T18:28:18.000Z</time>
      </trkpt>
      <trkpt lat="48.86481" lon="2.35958">
        <ele>45.400001525879</ele>
        <time>2016-05-23T18:28:22.000Z</time>
      </trkpt>
      <trkpt lat="48.86479" lon="2.35982">
        <ele>44.799999237061</ele>
        <time>2016-05-23T18:28:26.000Z</time>
      </trkpt>
      <trkpt lat="48.86492" lon="2.36008">
        <ele>44.599998474121</ele>
        <time>2016-05-23T18:28:32.000Z</time>
      </trkpt>
      <trkpt lat="48.86501" lon="2.3602">
        <ele>44.400001525879</ele>
        <time>2016-05-23T18:28:35.000Z</time>
      </trkpt>
      <trkpt lat="48.86516" lon="2.36038">
        <ele>44.400001525879</ele>
        <time>2016-05-23T18:28:39.000Z</time>
      </trkpt>
      <trkpt lat="48.86531" lon="2.36056">
        <ele>44.200000762939</ele>
        <time>2016-05-23T18:28:43.000Z</time>
      </trkpt>
      <trkpt lat="48.86548" lon="2.36076">
        <ele>43.799999237061</ele>
        <time>2016-05-23T18:28:47.000Z</time>
      </trkpt>
      <trkpt lat="48.86563" lon="2.36094">
        <ele>43.599998474121</ele>
        <time>2016-05-23T18:28:50.000Z</time>
      </trkpt>
      <trkpt lat="48.86584" lon="2.36116">
        <ele>43.599998474121</ele>
        <time>2016-05-23T18:28:54.000Z</time>
      </trkpt>
      <trkpt lat="48.86601" lon="2.36131">
        <ele>43.599998474121</ele>
        <time>2016-05-23T18:28:57.000Z</time>
      </trkpt>
      <trkpt lat="48.86617" lon="2.36145">
        <ele>44</ele>
        <time>2016-05-23T18:28:59.000Z</time>
      </trkpt>
      <trkpt lat="48.86632" lon="2.36161">
        <ele>44.599998474121</ele>
        <time>2016-05-23T18:29:02.000Z</time>
      </trkpt>
      <trkpt lat="48.86647" lon="2.36182">
        <ele>45.200000762939</ele>
        <time>2016-05-23T18:29:06.000Z</time>
      </trkpt>
      <trkpt lat="48.86658" lon="2.36205">
        <ele>45.799999237061</ele>
        <time>2016-05-23T18:29:10.000Z</time>
      </trkpt>
      <trkpt lat="48.86668" lon="2.36236">
        <ele>46.400001525879</ele>
        <time>2016-05-23T18:29:15.000Z</time>
      </trkpt>
      <trkpt lat="48.86677" lon="2.36265">
        <ele>47.200000762939</ele>
        <time>2016-05-23T18:29:19.000Z</time>
      </trkpt>
      <trkpt lat="48.8669" lon="2.3629">
        <ele>48</ele>
        <time>2016-05-23T18:29:23.000Z</time>
      </trkpt>
      <trkpt lat="48.867" lon="2.36308">
        <ele>47.400001525879</ele>
        <time>2016-05-23T18:29:26.000Z</time>
      </trkpt>
      <trkpt lat="48.86716" lon="2.36324">
        <ele>46.200000762939</ele>
        <time>2016-05-23T18:29:30.000Z</time>
      </trkpt>
      <trkpt lat="48.86722" lon="2.3633">
        <ele>46</ele>
        <time>2016-05-23T18:29:32.000Z</time>
      </trkpt>
      <trkpt lat="48.86728" lon="2.36342">
        <ele>45</ele>
        <time>2016-05-23T18:29:37.000Z</time>
      </trkpt>
      <trkpt lat="48.86722" lon="2.36353">
        <ele>45.400001525879</ele>
        <time>2016-05-23T18:30:16.000Z</time>
      </trkpt>
      <trkpt lat="48.86716" lon="2.36346">
        <ele>46.200000762939</ele>
        <time>2016-05-23T18:32:17.000Z</time>
      </trkpt>
      <trkpt lat="48.86717" lon="2.36344">
        <ele>46</ele>
        <time>2016-05-23T18:33:50.000Z</time>
      </trkpt>
      <trkpt lat="48.86718" lon="2.36337">
        <ele>46.200000762939</ele>
        <time>2016-05-23T18:35:33.000Z</time>
      </trkpt>
      <trkpt lat="48.86721" lon="2.36343">
        <ele>45.599998474121</ele>
        <time>2016-05-23T18:36:40.000Z</time>
      </trkpt>
      <trkpt lat="48.86711" lon="2.36361">
        <ele>45.799999237061</ele>
        <time>2016-05-23T18:37:14.000Z</time>
      </trkpt>
      <trkpt lat="48.86698" lon="2.36386">
        <ele>44.599998474121</ele>
        <time>2016-05-23T18:37:21.000Z</time>
      </trkpt>
      <trkpt lat="48.86686" lon="2.36409">
        <ele>43.400001525879</ele>
        <time>2016-05-23T18:37:27.000Z</time>
      </trkpt>
      <trkpt lat="48.86675" lon="2.36432">
        <ele>43.599998474121</ele>
        <time>2016-05-23T18:37:32.000Z</time>
      </trkpt>
      <trkpt lat="48.86661" lon="2.36452">
        <ele>44</ele>
        <time>2016-05-23T18:37:37.000Z</time>
      </trkpt>
      <trkpt lat="48.86652" lon="2.36477">
        <ele>44.200000762939</ele>
        <time>2016-05-23T18:37:42.000Z</time>
      </trkpt>
      <trkpt lat="48.86651" lon="2.36507">
        <ele>44.200000762939</ele>
        <time>2016-05-23T18:37:48.000Z</time>
      </trkpt>
      <trkpt lat="48.86648" lon="2.36538">
        <ele>46</ele>
        <time>2016-05-23T18:37:53.000Z</time>
      </trkpt>
      <trkpt lat="48.86634" lon="2.36559">
        <ele>46.200000762939</ele>
        <time>2016-05-23T18:37:57.000Z</time>
      </trkpt>
      <trkpt lat="48.8662" lon="2.36575">
        <ele>46.599998474121</ele>
        <time>2016-05-23T18:38:01.000Z</time>
      </trkpt>
      <trkpt lat="48.86605" lon="2.36593">
        <ele>46.799999237061</ele>
        <time>2016-05-23T18:38:05.000Z</time>
      </trkpt>
      <trkpt lat="48.86589" lon="2.36611">
        <ele>46.599998474121</ele>
        <time>2016-05-23T18:38:09.000Z</time>
      </trkpt>
      <trkpt lat="48.86582" lon="2.36624">
        <ele>46.400001525879</ele>
        <time>2016-05-23T18:38:11.000Z</time>
      </trkpt>
      <trkpt lat="48.86573" lon="2.36651">
        <ele>46</ele>
        <time>2016-05-23T18:38:14.000Z</time>
      </trkpt>
      <trkpt lat="48.86558" lon="2.36678">
        <ele>45.599998474121</ele>
        <time>2016-05-23T18:38:18.000Z</time>
      </trkpt>
      <trkpt lat="48.86541" lon="2.36702">
        <ele>45.599998474121</ele>
        <time>2016-05-23T18:38:22.000Z</time>
      </trkpt>
      <trkpt lat="48.86526" lon="2.36727">
        <ele>45.799999237061</ele>
        <time>2016-05-23T18:38:26.000Z</time>
      </trkpt>
      <trkpt lat="48.86509" lon="2.36752">
        <ele>46</ele>
        <time>2016-05-23T18:38:30.000Z</time>
      </trkpt>
      <trkpt lat="48.86501" lon="2.36779">
        <ele>46.799999237061</ele>
        <time>2016-05-23T18:38:33.000Z</time>
      </trkpt>
      <trkpt lat="48.86487" lon="2.36804">
        <ele>47.200000762939</ele>
        <time>2016-05-23T18:38:37.000Z</time>
      </trkpt>
      <trkpt lat="48.8647" lon="2.36825">
        <ele>46.799999237061</ele>
        <time>2016-05-23T18:38:41.000Z</time>
      </trkpt>
      <trkpt lat="48.86456" lon="2.36849">
        <ele>46.200000762939</ele>
        <time>2016-05-23T18:38:45.000Z</time>
      </trkpt>
      <trkpt lat="48.86452" lon="2.36853">
        <ele>46.200000762939</ele>
        <time>2016-05-23T18:38:46.000Z</time>
      </trkpt>
      <trkpt lat="48.8644" lon="2.36885">
        <ele>46</ele>
        <time>2016-05-23T18:38:50.000Z</time>
      </trkpt>
      <trkpt lat="48.86426" lon="2.36913">
        <ele>45.799999237061</ele>
        <time>2016-05-23T18:38:54.000Z</time>
      </trkpt>
      <trkpt lat="48.86422" lon="2.36918">
        <ele>45.599998474121</ele>
        <time>2016-05-23T18:38:55.000Z</time>
      </trkpt>
      <trkpt lat="48.86404" lon="2.36938">
        <ele>45</ele>
        <time>2016-05-23T18:38:59.000Z</time>
      </trkpt>
      <trkpt lat="48.86386" lon="2.36958">
        <ele>44.799999237061</ele>
        <time>2016-05-23T18:39:03.000Z</time>
      </trkpt>
      <trkpt lat="48.86383" lon="2.36964">
        <ele>45</ele>
        <time>2016-05-23T18:39:04.000Z</time>
      </trkpt>
      <trkpt lat="48.86374" lon="2.36993">
        <ele>45.599998474121</ele>
        <time>2016-05-23T18:39:08.000Z</time>
      </trkpt>
      <trkpt lat="48.8636" lon="2.37015">
        <ele>45.400001525879</ele>
        <time>2016-05-23T18:39:12.000Z</time>
      </trkpt>
      <trkpt lat="48.86347" lon="2.3704">
        <ele>44.599998474121</ele>
        <time>2016-05-23T18:39:16.000Z</time>
      </trkpt>
      <trkpt lat="48.86348" lon="2.37053">
        <ele>44.200000762939</ele>
        <time>2016-05-23T18:39:17.000Z</time>
      </trkpt>
      <trkpt lat="48.86338" lon="2.37072">
        <ele>43.599998474121</ele>
        <time>2016-05-23T18:39:20.000Z</time>
      </trkpt>
      <trkpt lat="48.86328" lon="2.37084">
        <ele>43.599998474121</ele>
        <time>2016-05-23T18:39:24.000Z</time>
      </trkpt>
      <trkpt lat="48.86313" lon="2.3711">
        <ele>43.400001525879</ele>
        <time>2016-05-23T18:39:29.000Z</time>
      </trkpt>
      <trkpt lat="48.86299" lon="2.37132">
        <ele>43.599998474121</ele>
        <time>2016-05-23T18:39:33.000Z</time>
      </trkpt>
      <trkpt lat="48.86287" lon="2.37153">
        <ele>43.799999237061</ele>
        <time>2016-05-23T18:39:37.000Z</time>
      </trkpt>
      <trkpt lat="48.86281" lon="2.37162">
        <ele>44</ele>
        <time>2016-05-23T18:39:39.000Z</time>
      </trkpt>
      <trkpt lat="48.86269" lon="2.37185">
        <ele>44.200000762939</ele>
        <time>2016-05-23T18:39:43.000Z</time>
      </trkpt>
      <trkpt lat="48.86266" lon="2.3719">
        <ele>44.400001525879</ele>
        <time>2016-05-23T18:39:44.000Z</time>
      </trkpt>
      <trkpt lat="48.86257" lon="2.37206">
        <ele>44.400001525879</ele>
        <time>2016-05-23T18:39:47.000Z</time>
      </trkpt>
      <trkpt lat="48.86242" lon="2.37231">
        <ele>44.799999237061</ele>
        <time>2016-05-23T18:39:51.000Z</time>
      </trkpt>
      <trkpt lat="48.86228" lon="2.37256">
        <ele>45.200000762939</ele>
        <time>2016-05-23T18:39:55.000Z</time>
      </trkpt>
      <trkpt lat="48.86215" lon="2.37281">
        <ele>45.400001525879</ele>
        <time>2016-05-23T18:39:59.000Z</time>
      </trkpt>
      <trkpt lat="48.862" lon="2.37306">
        <ele>46.200000762939</ele>
        <time>2016-05-23T18:40:03.000Z</time>
      </trkpt>
      <trkpt lat="48.86185" lon="2.37331">
        <ele>46.799999237061</ele>
        <time>2016-05-23T18:40:07.000Z</time>
      </trkpt>
      <trkpt lat="48.86178" lon="2.37346">
        <ele>46.400001525879</ele>
        <time>2016-05-23T18:40:09.000Z</time>
      </trkpt>
      <trkpt lat="48.86165" lon="2.37372">
        <ele>45.400001525879</ele>
        <time>2016-05-23T18:40:13.000Z</time>
      </trkpt>
      <trkpt lat="48.86149" lon="2.37393">
        <ele>44.799999237061</ele>
        <time>2016-05-23T18:40:17.000Z</time>
      </trkpt>
      <trkpt lat="48.86132" lon="2.37416">
        <ele>44.400001525879</ele>
        <time>2016-05-23T18:40:21.000Z</time>
      </trkpt>
      <trkpt lat="48.86114" lon="2.37438">
        <ele>43.799999237061</ele>
        <time>2016-05-23T18:40:25.000Z</time>
      </trkpt>
      <trkpt lat="48.86098" lon="2.37464">
        <ele>42.799999237061</ele>
        <time>2016-05-23T18:40:29.000Z</time>
      </trkpt>
      <trkpt lat="48.86086" lon="2.37485">
        <ele>42.400001525879</ele>
        <time>2016-05-23T18:40:32.000Z</time>
      </trkpt>
      <trkpt lat="48.86072" lon="2.37511">
        <ele>43</ele>
        <time>2016-05-23T18:40:36.000Z</time>
      </trkpt>
      <trkpt lat="48.86057" lon="2.37535">
        <ele>43.599998474121</ele>
        <time>2016-05-23T18:40:40.000Z</time>
      </trkpt>
      <trkpt lat="48.86042" lon="2.37557">
        <ele>45.200000762939</ele>
        <time>2016-05-23T18:40:44.000Z</time>
      </trkpt>
      <trkpt lat="48.86032" lon="2.37577">
        <ele>46.400001525879</ele>
        <time>2016-05-23T18:40:47.000Z</time>
      </trkpt>
      <trkpt lat="48.8602" lon="2.376">
        <ele>47</ele>
        <time>2016-05-23T18:40:51.000Z</time>
      </trkpt>
      <trkpt lat="48.86005" lon="2.37627">
        <ele>46.400001525879</ele>
        <time>2016-05-23T18:40:56.000Z</time>
      </trkpt>
      <trkpt lat="48.85993" lon="2.37652">
        <ele>46.200000762939</ele>
        <time>2016-05-23T18:41:00.000Z</time>
      </trkpt>
      <trkpt lat="48.85977" lon="2.37673">
        <ele>46</ele>
        <time>2016-05-23T18:41:04.000Z</time>
      </trkpt>
      <trkpt lat="48.85962" lon="2.37698">
        <ele>46</ele>
        <time>2016-05-23T18:41:08.000Z</time>
      </trkpt>
      <trkpt lat="48.85948" lon="2.37724">
        <ele>46.400001525879</ele>
        <time>2016-05-23T18:41:12.000Z</time>
      </trkpt>
      <trkpt lat="48.85936" lon="2.37749">
        <ele>47</ele>
        <time>2016-05-23T18:41:16.000Z</time>
      </trkpt>
      <trkpt lat="48.85923" lon="2.37772">
        <ele>46.599998474121</ele>
        <time>2016-05-23T18:41:20.000Z</time>
      </trkpt>
      <trkpt lat="48.85907" lon="2.37796">
        <ele>46.200000762939</ele>
        <time>2016-05-23T18:41:24.000Z</time>
      </trkpt>
      <trkpt lat="48.85893" lon="2.3782">
        <ele>46.400001525879</ele>
        <time>2016-05-23T18:41:28.000Z</time>
      </trkpt>
      <trkpt lat="48.85881" lon="2.37843">
        <ele>46.400001525879</ele>
        <time>2016-05-23T18:41:32.000Z</time>
      </trkpt>
      <trkpt lat="48.85867" lon="2.37868">
        <ele>46.200000762939</ele>
        <time>2016-05-23T18:41:36.000Z</time>
      </trkpt>
      <trkpt lat="48.85854" lon="2.37888">
        <ele>46</ele>
        <time>2016-05-23T18:41:39.000Z</time>
      </trkpt>
      <trkpt lat="48.85837" lon="2.37912">
        <ele>45.400001525879</ele>
        <time>2016-05-23T18:41:43.000Z</time>
      </trkpt>
      <trkpt lat="48.85822" lon="2.37936">
        <ele>44.200000762939</ele>
        <time>2016-05-23T18:41:47.000Z</time>
      </trkpt>
      <trkpt lat="48.85808" lon="2.3796">
        <ele>43.599998474121</ele>
        <time>2016-05-23T18:41:51.000Z</time>
      </trkpt>
      <trkpt lat="48.85797" lon="2.37981">
        <ele>43.799999237061</ele>
        <time>2016-05-23T18:41:56.000Z</time>
      </trkpt>
      <trkpt lat="48.8579" lon="2.37994">
        <ele>44</ele>
        <time>2016-05-23T18:42:01.000Z</time>
      </trkpt>
      <trkpt lat="48.85777" lon="2.38012">
        <ele>44.599998474121</ele>
        <time>2016-05-23T18:42:16.000Z</time>
      </trkpt>
      <trkpt lat="48.85775" lon="2.38016">
        <ele>44.599998474121</ele>
        <time>2016-05-23T18:42:19.000Z</time>
      </trkpt>
      <trkpt lat="48.85765" lon="2.38039">
        <ele>45.599998474121</ele>
        <time>2016-05-23T18:42:37.000Z</time>
      </trkpt>
      <trkpt lat="48.85753" lon="2.3806">
        <ele>46.400001525879</ele>
        <time>2016-05-23T18:42:42.000Z</time>
      </trkpt>
      <trkpt lat="48.85737" lon="2.38085">
        <ele>46.599998474121</ele>
        <time>2016-05-23T18:42:47.000Z</time>
      </trkpt>
      <trkpt lat="48.85723" lon="2.38108">
        <ele>46.799999237061</ele>
        <time>2016-05-23T18:42:51.000Z</time>
      </trkpt>
      <trkpt lat="48.85707" lon="2.38126">
        <ele>47</ele>
        <time>2016-05-23T18:42:55.000Z</time>
      </trkpt>
      <trkpt lat="48.85692" lon="2.38146">
        <ele>47.599998474121</ele>
        <time>2016-05-23T18:42:59.000Z</time>
      </trkpt>
      <trkpt lat="48.85678" lon="2.38171">
        <ele>48</ele>
        <time>2016-05-23T18:43:04.000Z</time>
      </trkpt>
      <trkpt lat="48.85665" lon="2.38191">
        <ele>48</ele>
        <time>2016-05-23T18:43:08.000Z</time>
      </trkpt>
      <trkpt lat="48.8565" lon="2.38215">
        <ele>47.799999237061</ele>
        <time>2016-05-23T18:43:13.000Z</time>
      </trkpt>
      <trkpt lat="48.85638" lon="2.38238">
        <ele>47</ele>
        <time>2016-05-23T18:43:17.000Z</time>
      </trkpt>
      <trkpt lat="48.85626" lon="2.38263">
        <ele>46.400001525879</ele>
        <time>2016-05-23T18:43:21.000Z</time>
      </trkpt>
      <trkpt lat="48.85614" lon="2.38285">
        <ele>45.400001525879</ele>
        <time>2016-05-23T18:43:25.000Z</time>
      </trkpt>
      <trkpt lat="48.856" lon="2.3831">
        <ele>44.400001525879</ele>
        <time>2016-05-23T18:43:29.000Z</time>
      </trkpt>
      <trkpt lat="48.85586" lon="2.38329">
        <ele>44.799999237061</ele>
        <time>2016-05-23T18:43:33.000Z</time>
      </trkpt>
      <trkpt lat="48.8557" lon="2.38347">
        <ele>45.799999237061</ele>
        <time>2016-05-23T18:43:37.000Z</time>
      </trkpt>
      <trkpt lat="48.85555" lon="2.38369">
        <ele>46.400001525879</ele>
        <time>2016-05-23T18:43:41.000Z</time>
      </trkpt>
      <trkpt lat="48.85545" lon="2.38392">
        <ele>47</ele>
        <time>2016-05-23T18:43:45.000Z</time>
      </trkpt>
      <trkpt lat="48.85539" lon="2.38402">
        <ele>47.200000762939</ele>
        <time>2016-05-23T18:43:47.000Z</time>
      </trkpt>
      <trkpt lat="48.85527" lon="2.38423">
        <ele>48</ele>
        <time>2016-05-23T18:43:51.000Z</time>
      </trkpt>
      <trkpt lat="48.85514" lon="2.38445">
        <ele>48.200000762939</ele>
        <time>2016-05-23T18:43:55.000Z</time>
      </trkpt>
      <trkpt lat="48.85502" lon="2.38465">
        <ele>48.200000762939</ele>
        <time>2016-05-23T18:43:59.000Z</time>
      </trkpt>
      <trkpt lat="48.85487" lon="2.38492">
        <ele>47.799999237061</ele>
        <time>2016-05-23T18:44:04.000Z</time>
      </trkpt>
      <trkpt lat="48.85474" lon="2.38515">
        <ele>47.200000762939</ele>
        <time>2016-05-23T18:44:08.000Z</time>
      </trkpt>
      <trkpt lat="48.85461" lon="2.38538">
        <ele>47</ele>
        <time>2016-05-23T18:44:12.000Z</time>
      </trkpt>
      <trkpt lat="48.85447" lon="2.38563">
        <ele>47</ele>
        <time>2016-05-23T18:44:16.000Z</time>
      </trkpt>
      <trkpt lat="48.85434" lon="2.38587">
        <ele>47</ele>
        <time>2016-05-23T18:44:20.000Z</time>
      </trkpt>
      <trkpt lat="48.85419" lon="2.38609">
        <ele>47</ele>
        <time>2016-05-23T18:44:24.000Z</time>
      </trkpt>
      <trkpt lat="48.85405" lon="2.3863">
        <ele>47</ele>
        <time>2016-05-23T18:44:28.000Z</time>
      </trkpt>
      <trkpt lat="48.85391" lon="2.38649">
        <ele>49</ele>
        <time>2016-05-23T18:44:32.000Z</time>
      </trkpt>
      <trkpt lat="48.85377" lon="2.38668">
        <ele>50.599998474121</ele>
        <time>2016-05-23T18:44:36.000Z</time>
      </trkpt>
      <trkpt lat="48.85362" lon="2.3869">
        <ele>51</ele>
        <time>2016-05-23T18:44:41.000Z</time>
      </trkpt>
      <trkpt lat="48.85349" lon="2.38711">
        <ele>50.599998474121</ele>
        <time>2016-05-23T18:44:45.000Z</time>
      </trkpt>
      <trkpt lat="48.85336" lon="2.38733">
        <ele>49.400001525879</ele>
        <time>2016-05-23T18:44:49.000Z</time>
      </trkpt>
      <trkpt lat="48.85323" lon="2.38759">
        <ele>47.599998474121</ele>
        <time>2016-05-23T18:44:54.000Z</time>
      </trkpt>
      <trkpt lat="48.8532" lon="2.38766">
        <ele>47.200000762939</ele>
        <time>2016-05-23T18:44:55.000Z</time>
      </trkpt>
      <trkpt lat="48.85309" lon="2.38784">
        <ele>45.799999237061</ele>
        <time>2016-05-23T18:44:59.000Z</time>
      </trkpt>
      <trkpt lat="48.85297" lon="2.38806">
        <ele>47.599998474121</ele>
        <time>2016-05-23T18:45:04.000Z</time>
      </trkpt>
      <trkpt lat="48.85294" lon="2.38816">
        <ele>48.400001525879</ele>
        <time>2016-05-23T18:45:06.000Z</time>
      </trkpt>
      <trkpt lat="48.85291" lon="2.38825">
        <ele>49</ele>
        <time>2016-05-23T18:45:08.000Z</time>
      </trkpt>
      <trkpt lat="48.8528" lon="2.38851">
        <ele>50.400001525879</ele>
        <time>2016-05-23T18:45:16.000Z</time>
      </trkpt>
      <trkpt lat="48.8528" lon="2.38864">
        <ele>51</ele>
        <time>2016-05-23T18:45:19.000Z</time>
      </trkpt>
      <trkpt lat="48.8528" lon="2.38867">
        <ele>51</ele>
        <time>2016-05-23T18:45:20.000Z</time>
      </trkpt>
      <trkpt lat="48.85283" lon="2.38882">
        <ele>51.400001525879</ele>
        <time>2016-05-23T18:45:24.000Z</time>
      </trkpt>
      <trkpt lat="48.85288" lon="2.38911">
        <ele>52.400001525879</ele>
        <time>2016-05-23T18:45:30.000Z</time>
      </trkpt>
      <trkpt lat="48.85295" lon="2.38941">
        <ele>53</ele>
        <time>2016-05-23T18:45:36.000Z</time>
      </trkpt>
      <trkpt lat="48.85299" lon="2.3897">
        <ele>53.400001525879</ele>
        <time>2016-05-23T18:45:42.000Z</time>
      </trkpt>
      <trkpt lat="48.85302" lon="2.39001">
        <ele>53.599998474121</ele>
        <time>2016-05-23T18:45:48.000Z</time>
      </trkpt>
      <trkpt lat="48.85308" lon="2.39032">
        <ele>53.599998474121</ele>
        <time>2016-05-23T18:45:53.000Z</time>
      </trkpt>
      <trkpt lat="48.8532" lon="2.39057">
        <ele>53.599998474121</ele>
        <time>2016-05-23T18:45:58.000Z</time>
      </trkpt>
      <trkpt lat="48.85323" lon="2.39091">
        <ele>54.200000762939</ele>
        <time>2016-05-23T18:46:02.000Z</time>
      </trkpt>
      <trkpt lat="48.85331" lon="2.39116">
        <ele>55.200000762939</ele>
        <time>2016-05-23T18:46:05.000Z</time>
      </trkpt>
      <trkpt lat="48.85338" lon="2.39143">
        <ele>56.400001525879</ele>
        <time>2016-05-23T18:46:08.000Z</time>
      </trkpt>
      <trkpt lat="48.85341" lon="2.39172">
        <ele>56.599998474121</ele>
        <time>2016-05-23T18:46:11.000Z</time>
      </trkpt>
      <trkpt lat="48.85345" lon="2.39199">
        <ele>57</ele>
        <time>2016-05-23T18:46:14.000Z</time>
      </trkpt>
      <trkpt lat="48.85348" lon="2.39229">
        <ele>57.400001525879</ele>
        <time>2016-05-23T18:46:18.000Z</time>
      </trkpt>
      <trkpt lat="48.85347" lon="2.39239">
        <ele>57.599998474121</ele>
        <time>2016-05-23T18:46:19.000Z</time>
      </trkpt>
      <trkpt lat="48.85353" lon="2.39267">
        <ele>57.200000762939</ele>
        <time>2016-05-23T18:46:35.000Z</time>
      </trkpt>
      <trkpt lat="48.85357" lon="2.3929">
        <ele>56.599998474121</ele>
        <time>2016-05-23T18:47:10.000Z</time>
      </trkpt>
      <trkpt lat="48.85365" lon="2.39316">
        <ele>56.200000762939</ele>
        <time>2016-05-23T18:47:17.000Z</time>
      </trkpt>
      <trkpt lat="48.85373" lon="2.39344">
        <ele>56.599998474121</ele>
        <time>2016-05-23T18:47:22.000Z</time>
      </trkpt>
      <trkpt lat="48.85381" lon="2.39373">
        <ele>58</ele>
        <time>2016-05-23T18:47:26.000Z</time>
      </trkpt>
      <trkpt lat="48.85389" lon="2.39403">
        <ele>59.599998474121</ele>
        <time>2016-05-23T18:47:30.000Z</time>
      </trkpt>
      <trkpt lat="48.85398" lon="2.39433">
        <ele>60.799999237061</ele>
        <time>2016-05-23T18:47:34.000Z</time>
      </trkpt>
      <trkpt lat="48.85406" lon="2.39464">
        <ele>61.599998474121</ele>
        <time>2016-05-23T18:47:38.000Z</time>
      </trkpt>
      <trkpt lat="48.85413" lon="2.39499">
        <ele>62.799999237061</ele>
        <time>2016-05-23T18:47:42.000Z</time>
      </trkpt>
      <trkpt lat="48.85422" lon="2.39529">
        <ele>63.599998474121</ele>
        <time>2016-05-23T18:47:45.000Z</time>
      </trkpt>
      <trkpt lat="48.8543" lon="2.39556">
        <ele>64.199996948242</ele>
        <time>2016-05-23T18:47:48.000Z</time>
      </trkpt>
      <trkpt lat="48.85436" lon="2.39582">
        <ele>65</ele>
        <time>2016-05-23T18:47:52.000Z</time>
      </trkpt>
      <trkpt lat="48.85438" lon="2.3961">
        <ele>65.400001525879</ele>
        <time>2016-05-23T18:48:00.000Z</time>
      </trkpt>
      <trkpt lat="48.8544" lon="2.39618">
        <ele>65.400001525879</ele>
        <time>2016-05-23T18:48:04.000Z</time>
      </trkpt>
      <trkpt lat="48.85444" lon="2.39647">
        <ele>65.800003051758</ele>
        <time>2016-05-23T18:48:25.000Z</time>
      </trkpt>
      <trkpt lat="48.85451" lon="2.39676">
        <ele>66.199996948242</ele>
        <time>2016-05-23T18:48:32.000Z</time>
      </trkpt>
      <trkpt lat="48.85461" lon="2.39702">
        <ele>66.599998474121</ele>
        <time>2016-05-23T18:48:38.000Z</time>
      </trkpt>
      <trkpt lat="48.85473" lon="2.39725">
        <ele>67</ele>
        <time>2016-05-23T18:48:43.000Z</time>
      </trkpt>
      <trkpt lat="48.85484" lon="2.39748">
        <ele>67.400001525879</ele>
        <time>2016-05-23T18:48:48.000Z</time>
      </trkpt>
      <trkpt lat="48.85494" lon="2.39778">
        <ele>67.800003051758</ele>
        <time>2016-05-23T18:48:54.000Z</time>
      </trkpt>
      <trkpt lat="48.85502" lon="2.39803">
        <ele>68</ele>
        <time>2016-05-23T18:48:59.000Z</time>
      </trkpt>
      <trkpt lat="48.85511" lon="2.3983">
        <ele>67.599998474121</ele>
        <time>2016-05-23T18:49:04.000Z</time>
      </trkpt>
      <trkpt lat="48.85517" lon="2.39862">
        <ele>67.800003051758</ele>
        <time>2016-05-23T18:49:09.000Z</time>
      </trkpt>
      <trkpt lat="48.85521" lon="2.39889">
        <ele>68</ele>
        <time>2016-05-23T18:49:14.000Z</time>
      </trkpt>
      <trkpt lat="48.8553" lon="2.39916">
        <ele>68.199996948242</ele>
        <time>2016-05-23T18:49:20.000Z</time>
      </trkpt>
      <trkpt lat="48.85535" lon="2.39946">
        <ele>68.800003051758</ele>
        <time>2016-05-23T18:49:27.000Z</time>
      </trkpt>
      <trkpt lat="48.85543" lon="2.39971">
        <ele>69.400001525879</ele>
        <time>2016-05-23T18:49:32.000Z</time>
      </trkpt>
      <trkpt lat="48.85555" lon="2.39998">
        <ele>70</ele>
        <time>2016-05-23T18:49:38.000Z</time>
      </trkpt>
      <trkpt lat="48.85563" lon="2.40024">
        <ele>69</ele>
        <time>2016-05-23T18:49:44.000Z</time>
      </trkpt>
      <trkpt lat="48.85571" lon="2.4005">
        <ele>68.199996948242</ele>
        <time>2016-05-23T18:49:51.000Z</time>
      </trkpt>
      <trkpt lat="48.8557" lon="2.40066">
        <ele>68.199996948242</ele>
        <time>2016-05-23T18:49:57.000Z</time>
      </trkpt>
      <trkpt lat="48.85572" lon="2.40087">
        <ele>68.199996948242</ele>
        <time>2016-05-23T18:50:07.000Z</time>
      </trkpt>
      <trkpt lat="48.85567" lon="2.4009">
        <ele>68.599998474121</ele>
        <time>2016-05-23T18:50:11.000Z</time>
      </trkpt>
      <trkpt lat="48.85552" lon="2.40108">
        <ele>69.199996948242</ele>
        <time>2016-05-23T18:50:19.000Z</time>
      </trkpt>
      <trkpt lat="48.85537" lon="2.40131">
        <ele>68</ele>
        <time>2016-05-23T18:50:28.000Z</time>
      </trkpt>
      <trkpt lat="48.8552" lon="2.40149">
        <ele>66.599998474121</ele>
        <time>2016-05-23T18:50:34.000Z</time>
      </trkpt>
      <trkpt lat="48.85505" lon="2.40164">
        <ele>65.199996948242</ele>
        <time>2016-05-23T18:50:39.000Z</time>
      </trkpt>
      <trkpt lat="48.85487" lon="2.40178">
        <ele>64</ele>
        <time>2016-05-23T18:50:44.000Z</time>
      </trkpt>
      <trkpt lat="48.85468" lon="2.40193">
        <ele>62.599998474121</ele>
        <time>2016-05-23T18:50:48.000Z</time>
      </trkpt>
      <trkpt lat="48.85452" lon="2.40207">
        <ele>63.400001525879</ele>
        <time>2016-05-23T18:50:52.000Z</time>
      </trkpt>
      <trkpt lat="48.85438" lon="2.40229">
        <ele>64.400001525879</ele>
        <time>2016-05-23T18:50:58.000Z</time>
      </trkpt>
      <trkpt lat="48.85418" lon="2.40242">
        <ele>64.599998474121</ele>
        <time>2016-05-23T18:51:03.000Z</time>
      </trkpt>
      <trkpt lat="48.854" lon="2.40261">
        <ele>64.199996948242</ele>
        <time>2016-05-23T18:51:08.000Z</time>
      </trkpt>
      <trkpt lat="48.85384" lon="2.40275">
        <ele>63.599998474121</ele>
        <time>2016-05-23T18:51:12.000Z</time>
      </trkpt>
      <trkpt lat="48.85365" lon="2.40292">
        <ele>63.400001525879</ele>
        <time>2016-05-23T18:51:17.000Z</time>
      </trkpt>
      <trkpt lat="48.85347" lon="2.40309">
        <ele>63.200000762939</ele>
        <time>2016-05-23T18:51:22.000Z</time>
      </trkpt>
      <trkpt lat="48.85329" lon="2.40321">
        <ele>62.799999237061</ele>
        <time>2016-05-23T18:51:26.000Z</time>
      </trkpt>
      <trkpt lat="48.85312" lon="2.40337">
        <ele>62.200000762939</ele>
        <time>2016-05-23T18:51:31.000Z</time>
      </trkpt>
      <trkpt lat="48.85294" lon="2.40351">
        <ele>61.599998474121</ele>
        <time>2016-05-23T18:51:37.000Z</time>
      </trkpt>
      <trkpt lat="48.85277" lon="2.40364">
        <ele>61.200000762939</ele>
        <time>2016-05-23T18:51:43.000Z</time>
      </trkpt>
      <trkpt lat="48.85261" lon="2.4038">
        <ele>61.200000762939</ele>
        <time>2016-05-23T18:51:49.000Z</time>
      </trkpt>
      <trkpt lat="48.85251" lon="2.4039">
        <ele>61.200000762939</ele>
        <time>2016-05-23T18:51:56.000Z</time>
      </trkpt>
      <trkpt lat="48.85242" lon="2.40393">
        <ele>61.400001525879</ele>
        <time>2016-05-23T18:52:04.000Z</time>
      </trkpt>
      <trkpt lat="48.85224" lon="2.40394">
        <ele>62.400001525879</ele>
        <time>2016-05-23T18:52:11.000Z</time>
      </trkpt>
      <trkpt lat="48.85206" lon="2.404">
        <ele>63.200000762939</ele>
        <time>2016-05-23T18:52:17.000Z</time>
      </trkpt>
      <trkpt lat="48.85185" lon="2.40404">
        <ele>63.799999237061</ele>
        <time>2016-05-23T18:52:23.000Z</time>
      </trkpt>
      <trkpt lat="48.85166" lon="2.40412">
        <ele>62.799999237061</ele>
        <time>2016-05-23T18:52:28.000Z</time>
      </trkpt>
      <trkpt lat="48.85146" lon="2.40422">
        <ele>62.200000762939</ele>
        <time>2016-05-23T18:52:34.000Z</time>
      </trkpt>
      <trkpt lat="48.85129" lon="2.40424">
        <ele>61.400001525879</ele>
        <time>2016-05-23T18:52:40.000Z</time>
      </trkpt>
      <trkpt lat="48.8512" lon="2.40396">
        <ele>60.400001525879</ele>
        <time>2016-05-23T18:52:43.000Z</time>
      </trkpt>
      <trkpt lat="48.85119" lon="2.40389">
        <ele>60.400001525879</ele>
        <time>2016-05-23T18:52:44.000Z</time>
      </trkpt>
      <trkpt lat="48.85112" lon="2.40357">
        <ele>59.599998474121</ele>
        <time>2016-05-23T18:52:48.000Z</time>
      </trkpt>
      <trkpt lat="48.85103" lon="2.40328">
        <ele>59</ele>
        <time>2016-05-23T18:52:52.000Z</time>
      </trkpt>
      <trkpt lat="48.85098" lon="2.40301">
        <ele>59.400001525879</ele>
        <time>2016-05-23T18:52:56.000Z</time>
      </trkpt>
      <trkpt lat="48.85092" lon="2.40273">
        <ele>59.799999237061</ele>
        <time>2016-05-23T18:53:00.000Z</time>
      </trkpt>
      <trkpt lat="48.85088" lon="2.40243">
        <ele>59.799999237061</ele>
        <time>2016-05-23T18:53:04.000Z</time>
      </trkpt>
      <trkpt lat="48.85083" lon="2.40215">
        <ele>59.200000762939</ele>
        <time>2016-05-23T18:53:08.000Z</time>
      </trkpt>
      <trkpt lat="48.85088" lon="2.40191">
        <ele>59.400001525879</ele>
        <time>2016-05-23T18:53:12.000Z</time>
      </trkpt>
      <trkpt lat="48.8507" lon="2.40183">
        <ele>58.799999237061</ele>
        <time>2016-05-23T18:53:17.000Z</time>
      </trkpt>
      <trkpt lat="48.85062" lon="2.40183">
        <ele>58.400001525879</ele>
        <time>2016-05-23T18:53:19.000Z</time>
      </trkpt>
      <trkpt lat="48.85042" lon="2.40182">
        <ele>57.599998474121</ele>
        <time>2016-05-23T18:53:23.000Z</time>
      </trkpt>
      <trkpt lat="48.85029" lon="2.40188">
        <ele>57.799999237061</ele>
        <time>2016-05-23T18:53:26.000Z</time>
      </trkpt>
      <trkpt lat="48.85013" lon="2.40199">
        <ele>58.400001525879</ele>
        <time>2016-05-23T18:53:30.000Z</time>
      </trkpt>
      <trkpt lat="48.85005" lon="2.40206">
        <ele>58.799999237061</ele>
        <time>2016-05-23T18:53:32.000Z</time>
      </trkpt>
      <trkpt lat="48.84987" lon="2.40225">
        <ele>58.799999237061</ele>
        <time>2016-05-23T18:53:37.000Z</time>
      </trkpt>
      <trkpt lat="48.84983" lon="2.40227">
        <ele>58.400001525879</ele>
        <time>2016-05-23T18:53:38.000Z</time>
      </trkpt>
      <trkpt lat="48.84973" lon="2.40233">
        <ele>57.400001525879</ele>
        <time>2016-05-23T18:53:40.000Z</time>
      </trkpt>
      <trkpt lat="48.84957" lon="2.40239">
        <ele>55.799999237061</ele>
        <time>2016-05-23T18:53:43.000Z</time>
      </trkpt>
      <trkpt lat="48.84938" lon="2.40245">
        <ele>54.200000762939</ele>
        <time>2016-05-23T18:53:48.000Z</time>
      </trkpt>
      <trkpt lat="48.8492" lon="2.40255">
        <ele>54.200000762939</ele>
        <time>2016-05-23T18:53:53.000Z</time>
      </trkpt>
      <trkpt lat="48.84916" lon="2.40257">
        <ele>54.200000762939</ele>
        <time>2016-05-23T18:53:54.000Z</time>
      </trkpt>
      <trkpt lat="48.84901" lon="2.40243">
        <ele>54.599998474121</ele>
        <time>2016-05-23T18:53:59.000Z</time>
      </trkpt>
      <trkpt lat="48.84896" lon="2.40233">
        <ele>54.799999237061</ele>
        <time>2016-05-23T18:54:01.000Z</time>
      </trkpt>
      <trkpt lat="48.8489" lon="2.40215">
        <ele>55.400001525879</ele>
        <time>2016-05-23T18:54:04.000Z</time>
      </trkpt>
      <trkpt lat="48.84886" lon="2.40186">
        <ele>56.400001525879</ele>
        <time>2016-05-23T18:54:08.000Z</time>
      </trkpt>
      <trkpt lat="48.84883" lon="2.40159">
        <ele>57.599998474121</ele>
        <time>2016-05-23T18:54:12.000Z</time>
      </trkpt>
      <trkpt lat="48.84875" lon="2.40139">
        <ele>57.400001525879</ele>
        <time>2016-05-23T18:54:15.000Z</time>
      </trkpt>
      <trkpt lat="48.84869" lon="2.40117">
        <ele>57.400001525879</ele>
        <time>2016-05-23T18:54:18.000Z</time>
      </trkpt>
      <trkpt lat="48.8487" lon="2.40083">
        <ele>57.599998474121</ele>
        <time>2016-05-23T18:54:22.000Z</time>
      </trkpt>
      <trkpt lat="48.8487" lon="2.40054">
        <ele>57</ele>
        <time>2016-05-23T18:54:26.000Z</time>
      </trkpt>
      <trkpt lat="48.84876" lon="2.40022">
        <ele>56.599998474121</ele>
        <time>2016-05-23T18:54:31.000Z</time>
      </trkpt>
      <trkpt lat="48.84878" lon="2.39991">
        <ele>55.400001525879</ele>
        <time>2016-05-23T18:54:36.000Z</time>
      </trkpt>
      <trkpt lat="48.84882" lon="2.39969">
        <ele>55.200000762939</ele>
        <time>2016-05-23T18:54:40.000Z</time>
      </trkpt>
      <trkpt lat="48.84877" lon="2.39942">
        <ele>54.799999237061</ele>
        <time>2016-05-23T18:54:45.000Z</time>
      </trkpt>
      <trkpt lat="48.84865" lon="2.39932">
        <ele>54.400001525879</ele>
        <time>2016-05-23T18:54:50.000Z</time>
      </trkpt>
      <trkpt lat="48.84861" lon="2.39931">
        <ele>54.400001525879</ele>
        <time>2016-05-23T18:54:52.000Z</time>
      </trkpt>
      <trkpt lat="48.84856" lon="2.39929">
        <ele>54.200000762939</ele>
        <time>2016-05-23T18:54:54.000Z</time>
      </trkpt>
      <trkpt lat="48.84839" lon="2.39921">
        <ele>53.799999237061</ele>
        <time>2016-05-23T18:55:00.000Z</time>
      </trkpt>
      <trkpt lat="48.84822" lon="2.39907">
        <ele>54.200000762939</ele>
        <time>2016-05-23T18:55:09.000Z</time>
      </trkpt>
      <trkpt lat="48.84821" lon="2.39898">
        <ele>55</ele>
        <time>2016-05-23T18:55:12.000Z</time>
      </trkpt>
      <trkpt lat="48.84832" lon="2.39884">
        <ele>56</ele>
        <time>2016-05-23T18:55:49.000Z</time>
      </trkpt>
      <trkpt lat="48.84836" lon="2.39874">
        <ele>56.400001525879</ele>
        <time>2016-05-23T18:56:18.000Z</time>
      </trkpt>
      <trkpt lat="48.84833" lon="2.39875">
        <ele>56.400001525879</ele>
        <time>2016-05-23T18:56:40.000Z</time>
      </trkpt>
      <trkpt lat="48.84833" lon="2.39867">
        <ele>56.799999237061</ele>
        <time>2016-05-23T18:57:27.000Z</time>
      </trkpt>
      <trkpt lat="48.84837" lon="2.39877">
        <ele>56.400001525879</ele>
        <time>2016-05-23T18:57:50.000Z</time>
      </trkpt>
      <trkpt lat="48.84834" lon="2.39876">
        <ele>56.400001525879</ele>
        <time>2016-05-23T18:57:54.000Z</time>
      </trkpt>
      <trkpt lat="48.84835" lon="2.39869">
        <ele>56.799999237061</ele>
        <time>2016-05-23T18:58:31.000Z</time>
      </trkpt>
      <trkpt lat="48.84834" lon="2.3987">
        <ele>56.799999237061</ele>
        <time>2016-05-23T18:59:01.000Z</time>
      </trkpt>
      <trkpt lat="48.84829" lon="2.39871">
        <ele>56.799999237061</ele>
        <time>2016-05-23T19:00:02.000Z</time>
      </trkpt>
      <trkpt lat="48.84824" lon="2.39875">
        <ele>56.599998474121</ele>
        <time>2016-05-23T19:01:10.000Z</time>
      </trkpt>
      <trkpt lat="48.84823" lon="2.39876">
        <ele>56.599998474121</ele>
        <time>2016-05-23T19:01:13.000Z</time>
      </trkpt>
      <trkpt lat="48.84819" lon="2.39861">
        <ele>57.400001525879</ele>
        <time>2016-05-23T19:01:47.000Z</time>
      </trkpt>
      <trkpt lat="48.84805" lon="2.39858">
        <ele>58</ele>
        <time>2016-05-23T19:01:55.000Z</time>
      </trkpt>
      <trkpt lat="48.84802" lon="2.39882">
        <ele>56</ele>
        <time>2016-05-23T19:02:01.000Z</time>
      </trkpt>
      <trkpt lat="48.84793" lon="2.39897">
        <ele>54.799999237061</ele>
        <time>2016-05-23T19:02:08.000Z</time>
      </trkpt>
      <trkpt lat="48.84784" lon="2.39894">
        <ele>54.799999237061</ele>
        <time>2016-05-23T19:02:12.000Z</time>
      </trkpt>
      <trkpt lat="48.84765" lon="2.39887">
        <ele>55.400001525879</ele>
        <time>2016-05-23T19:02:20.000Z</time>
      </trkpt>
      <trkpt lat="48.84746" lon="2.39879">
        <ele>56.400001525879</ele>
        <time>2016-05-23T19:02:26.000Z</time>
      </trkpt>
      <trkpt lat="48.84726" lon="2.39875">
        <ele>57.200000762939</ele>
        <time>2016-05-23T19:02:31.000Z</time>
      </trkpt>
      <trkpt lat="48.8471" lon="2.39894">
        <ele>57</ele>
        <time>2016-05-23T19:02:36.000Z</time>
      </trkpt>
      <trkpt lat="48.84697" lon="2.39918">
        <ele>56.599998474121</ele>
        <time>2016-05-23T19:02:41.000Z</time>
      </trkpt>
      <trkpt lat="48.84685" lon="2.39942">
        <ele>57</ele>
        <time>2016-05-23T19:02:46.000Z</time>
      </trkpt>
      <trkpt lat="48.84672" lon="2.39971">
        <ele>56.599998474121</ele>
        <time>2016-05-23T19:02:51.000Z</time>
      </trkpt>
      <trkpt lat="48.84657" lon="2.39995">
        <ele>56.599998474121</ele>
        <time>2016-05-23T19:02:56.000Z</time>
      </trkpt>
      <trkpt lat="48.84642" lon="2.40019">
        <ele>56.200000762939</ele>
        <time>2016-05-23T19:03:01.000Z</time>
      </trkpt>
      <trkpt lat="48.84629" lon="2.4004">
        <ele>56</ele>
        <time>2016-05-23T19:03:05.000Z</time>
      </trkpt>
      <trkpt lat="48.84614" lon="2.40066">
        <ele>56</ele>
        <time>2016-05-23T19:03:08.000Z</time>
      </trkpt>
      <trkpt lat="48.84597" lon="2.4009">
        <ele>55.400001525879</ele>
        <time>2016-05-23T19:03:12.000Z</time>
      </trkpt>
      <trkpt lat="48.84582" lon="2.40107">
        <ele>54.400001525879</ele>
        <time>2016-05-23T19:03:15.000Z</time>
      </trkpt>
      <trkpt lat="48.84563" lon="2.40127">
        <ele>53.400001525879</ele>
        <time>2016-05-23T19:03:19.000Z</time>
      </trkpt>
      <trkpt lat="48.84547" lon="2.40145">
        <ele>53.599998474121</ele>
        <time>2016-05-23T19:03:23.000Z</time>
      </trkpt>
      <trkpt lat="48.84533" lon="2.40167">
        <ele>53.799999237061</ele>
        <time>2016-05-23T19:03:27.000Z</time>
      </trkpt>
      <trkpt lat="48.84526" lon="2.40177">
        <ele>54</ele>
        <time>2016-05-23T19:03:29.000Z</time>
      </trkpt>
      <trkpt lat="48.84509" lon="2.40187">
        <ele>53.400001525879</ele>
        <time>2016-05-23T19:03:33.000Z</time>
      </trkpt>
      <trkpt lat="48.84505" lon="2.40188">
        <ele>53.200000762939</ele>
        <time>2016-05-23T19:03:34.000Z</time>
      </trkpt>
      <trkpt lat="48.84499" lon="2.4019">
        <ele>52.799999237061</ele>
        <time>2016-05-23T19:03:35.000Z</time>
      </trkpt>
      <trkpt lat="48.84477" lon="2.40188">
        <ele>51.799999237061</ele>
        <time>2016-05-23T19:03:39.000Z</time>
      </trkpt>
      <trkpt lat="48.84458" lon="2.40183">
        <ele>50.799999237061</ele>
        <time>2016-05-23T19:03:42.000Z</time>
      </trkpt>
      <trkpt lat="48.8444" lon="2.40178">
        <ele>50.599998474121</ele>
        <time>2016-05-23T19:03:45.000Z</time>
      </trkpt>
      <trkpt lat="48.8442" lon="2.40174">
        <ele>50.799999237061</ele>
        <time>2016-05-23T19:03:48.000Z</time>
      </trkpt>
      <trkpt lat="48.84402" lon="2.40168">
        <ele>51</ele>
        <time>2016-05-23T19:03:51.000Z</time>
      </trkpt>
      <trkpt lat="48.84379" lon="2.40159">
        <ele>51.400001525879</ele>
        <time>2016-05-23T19:03:55.000Z</time>
      </trkpt>
      <trkpt lat="48.84356" lon="2.40152">
        <ele>51.599998474121</ele>
        <time>2016-05-23T19:03:59.000Z</time>
      </trkpt>
      <trkpt lat="48.84336" lon="2.40148">
        <ele>52.400001525879</ele>
        <time>2016-05-23T19:04:02.000Z</time>
      </trkpt>
      <trkpt lat="48.84314" lon="2.40144">
        <ele>53.400001525879</ele>
        <time>2016-05-23T19:04:05.000Z</time>
      </trkpt>
      <trkpt lat="48.84295" lon="2.40139">
        <ele>54.400001525879</ele>
        <time>2016-05-23T19:04:08.000Z</time>
      </trkpt>
      <trkpt lat="48.84278" lon="2.40135">
        <ele>55.200000762939</ele>
        <time>2016-05-23T19:04:11.000Z</time>
      </trkpt>
      <trkpt lat="48.84256" lon="2.40129">
        <ele>55.599998474121</ele>
        <time>2016-05-23T19:04:15.000Z</time>
      </trkpt>
      <trkpt lat="48.84236" lon="2.40117">
        <ele>55.599998474121</ele>
        <time>2016-05-23T19:04:19.000Z</time>
      </trkpt>
      <trkpt lat="48.84231" lon="2.40115">
        <ele>55.599998474121</ele>
        <time>2016-05-23T19:04:20.000Z</time>
      </trkpt>
      <trkpt lat="48.84211" lon="2.40106">
        <ele>55.599998474121</ele>
        <time>2016-05-23T19:04:24.000Z</time>
      </trkpt>
      <trkpt lat="48.84191" lon="2.40099">
        <ele>55</ele>
        <time>2016-05-23T19:04:28.000Z</time>
      </trkpt>
      <trkpt lat="48.84173" lon="2.40092">
        <ele>54.799999237061</ele>
        <time>2016-05-23T19:04:31.000Z</time>
      </trkpt>
      <trkpt lat="48.84155" lon="2.40084">
        <ele>54.599998474121</ele>
        <time>2016-05-23T19:04:34.000Z</time>
      </trkpt>
      <trkpt lat="48.84137" lon="2.40076">
        <ele>54.599998474121</ele>
        <time>2016-05-23T19:04:37.000Z</time>
      </trkpt>
      <trkpt lat="48.84114" lon="2.40065">
        <ele>54.799999237061</ele>
        <time>2016-05-23T19:04:41.000Z</time>
      </trkpt>
      <trkpt lat="48.84092" lon="2.40054">
        <ele>55.200000762939</ele>
        <time>2016-05-23T19:04:45.000Z</time>
      </trkpt>
      <trkpt lat="48.84074" lon="2.40045">
        <ele>55.799999237061</ele>
        <time>2016-05-23T19:04:48.000Z</time>
      </trkpt>
      <trkpt lat="48.84056" lon="2.40038">
        <ele>56.200000762939</ele>
        <time>2016-05-23T19:04:51.000Z</time>
      </trkpt>
      <trkpt lat="48.84036" lon="2.4003">
        <ele>56.599998474121</ele>
        <time>2016-05-23T19:04:55.000Z</time>
      </trkpt>
      <trkpt lat="48.84016" lon="2.40026">
        <ele>57</ele>
        <time>2016-05-23T19:04:59.000Z</time>
      </trkpt>
      <trkpt lat="48.83996" lon="2.40029">
        <ele>56.599998474121</ele>
        <time>2016-05-23T19:05:04.000Z</time>
      </trkpt>
      <trkpt lat="48.83991" lon="2.40028">
        <ele>56.599998474121</ele>
        <time>2016-05-23T19:05:06.000Z</time>
      </trkpt>
      <trkpt lat="48.83974" lon="2.40014">
        <ele>56.799999237061</ele>
        <time>2016-05-23T19:05:20.000Z</time>
      </trkpt>
      <trkpt lat="48.83969" lon="2.40007">
        <ele>57</ele>
        <time>2016-05-23T19:05:25.000Z</time>
      </trkpt>
      <trkpt lat="48.83965" lon="2.40031">
        <ele>56.200000762939</ele>
        <time>2016-05-23T19:05:33.000Z</time>
      </trkpt>
      <trkpt lat="48.83947" lon="2.40047">
        <ele>55.400001525879</ele>
        <time>2016-05-23T19:05:44.000Z</time>
      </trkpt>
      <trkpt lat="48.83929" lon="2.40057">
        <ele>54.799999237061</ele>
        <time>2016-05-23T19:05:50.000Z</time>
      </trkpt>
      <trkpt lat="48.83912" lon="2.40073">
        <ele>53.799999237061</ele>
        <time>2016-05-23T19:05:55.000Z</time>
      </trkpt>
      <trkpt lat="48.83895" lon="2.40091">
        <ele>52.599998474121</ele>
        <time>2016-05-23T19:05:59.000Z</time>
      </trkpt>
      <trkpt lat="48.83879" lon="2.40121">
        <ele>51.200000762939</ele>
        <time>2016-05-23T19:06:03.000Z</time>
      </trkpt>
      <trkpt lat="48.83867" lon="2.40144">
        <ele>50</ele>
        <time>2016-05-23T19:06:06.000Z</time>
      </trkpt>
      <trkpt lat="48.83849" lon="2.40159">
        <ele>49</ele>
        <time>2016-05-23T19:06:10.000Z</time>
      </trkpt>
      <trkpt lat="48.83837" lon="2.40158">
        <ele>48.599998474121</ele>
        <time>2016-05-23T19:06:12.000Z</time>
      </trkpt>
      <trkpt lat="48.83817" lon="2.40171">
        <ele>48</ele>
        <time>2016-05-23T19:06:16.000Z</time>
      </trkpt>
      <trkpt lat="48.83812" lon="2.40174">
        <ele>47.799999237061</ele>
        <time>2016-05-23T19:06:17.000Z</time>
      </trkpt>
      <trkpt lat="48.83792" lon="2.40186">
        <ele>47</ele>
        <time>2016-05-23T19:06:21.000Z</time>
      </trkpt>
      <trkpt lat="48.83776" lon="2.40199">
        <ele>46.200000762939</ele>
        <time>2016-05-23T19:06:25.000Z</time>
      </trkpt>
      <trkpt lat="48.83766" lon="2.40205">
        <ele>45.799999237061</ele>
        <time>2016-05-23T19:06:27.000Z</time>
      </trkpt>
      <trkpt lat="48.83747" lon="2.40205">
        <ele>45.400001525879</ele>
        <time>2016-05-23T19:06:31.000Z</time>
      </trkpt>
      <trkpt lat="48.83728" lon="2.40212">
        <ele>45</ele>
        <time>2016-05-23T19:06:59.000Z</time>
      </trkpt>
      <trkpt lat="48.83714" lon="2.40226">
        <ele>45.400001525879</ele>
        <time>2016-05-23T19:07:18.000Z</time>
      </trkpt>
      <trkpt lat="48.83699" lon="2.40241">
        <ele>45.799999237061</ele>
        <time>2016-05-23T19:07:24.000Z</time>
      </trkpt>
      <trkpt lat="48.8368" lon="2.4025">
        <ele>46</ele>
        <time>2016-05-23T19:07:29.000Z</time>
      </trkpt>
      <trkpt lat="48.83659" lon="2.40263">
        <ele>45.599998474121</ele>
        <time>2016-05-23T19:07:34.000Z</time>
      </trkpt>
      <trkpt lat="48.83642" lon="2.40279">
        <ele>45.200000762939</ele>
        <time>2016-05-23T19:07:39.000Z</time>
      </trkpt>
      <trkpt lat="48.83623" lon="2.40289">
        <ele>45</ele>
        <time>2016-05-23T19:07:45.000Z</time>
      </trkpt>
      <trkpt lat="48.83604" lon="2.40303">
        <ele>44.799999237061</ele>
        <time>2016-05-23T19:07:49.000Z</time>
      </trkpt>
      <trkpt lat="48.83584" lon="2.40318">
        <ele>44.799999237061</ele>
        <time>2016-05-23T19:07:53.000Z</time>
      </trkpt>
      <trkpt lat="48.83563" lon="2.40333">
        <ele>45.599998474121</ele>
        <time>2016-05-23T19:07:57.000Z</time>
      </trkpt>
      <trkpt lat="48.83558" lon="2.40339">
        <ele>45.799999237061</ele>
        <time>2016-05-23T19:07:58.000Z</time>
      </trkpt>
      <trkpt lat="48.8354" lon="2.40349">
        <ele>46.400001525879</ele>
        <time>2016-05-23T19:08:03.000Z</time>
      </trkpt>
      <trkpt lat="48.83536" lon="2.40351">
        <ele>46.400001525879</ele>
        <time>2016-05-23T19:08:04.000Z</time>
      </trkpt>
      <trkpt lat="48.83517" lon="2.40369">
        <ele>46.400001525879</ele>
        <time>2016-05-23T19:08:09.000Z</time>
      </trkpt>
      <trkpt lat="48.83508" lon="2.40383">
        <ele>45.799999237061</ele>
        <time>2016-05-23T19:08:12.000Z</time>
      </trkpt>
      <trkpt lat="48.83489" lon="2.40399">
        <ele>45.799999237061</ele>
        <time>2016-05-23T19:08:17.000Z</time>
      </trkpt>
      <trkpt lat="48.8347" lon="2.40413">
        <ele>46.599998474121</ele>
        <time>2016-05-23T19:08:22.000Z</time>
      </trkpt>
      <trkpt lat="48.83455" lon="2.40421">
        <ele>46.799999237061</ele>
        <time>2016-05-23T19:08:26.000Z</time>
      </trkpt>
      <trkpt lat="48.83444" lon="2.40423">
        <ele>47</ele>
        <time>2016-05-23T19:08:30.000Z</time>
      </trkpt>
      <trkpt lat="48.83441" lon="2.40426">
        <ele>47.400001525879</ele>
        <time>2016-05-23T19:08:32.000Z</time>
      </trkpt>
      <trkpt lat="48.83437" lon="2.40429">
        <ele>47.599998474121</ele>
        <time>2016-05-23T19:08:36.000Z</time>
      </trkpt>
      <trkpt lat="48.83437" lon="2.4043">
        <ele>47.599998474121</ele>
        <time>2016-05-23T19:08:37.000Z</time>
      </trkpt>
      <trkpt lat="48.83432" lon="2.40433">
        <ele>48.200000762939</ele>
        <time>2016-05-23T19:08:41.000Z</time>
      </trkpt>
      <trkpt lat="48.83418" lon="2.4043">
        <ele>49</ele>
        <time>2016-05-23T19:09:08.000Z</time>
      </trkpt>
      <trkpt lat="48.83403" lon="2.40407">
        <ele>48.599998474121</ele>
        <time>2016-05-23T19:09:14.000Z</time>
      </trkpt>
      <trkpt lat="48.8339" lon="2.40379">
        <ele>46.200000762939</ele>
        <time>2016-05-23T19:09:19.000Z</time>
      </trkpt>
      <trkpt lat="48.83388" lon="2.40373">
        <ele>45.599998474121</ele>
        <time>2016-05-23T19:09:20.000Z</time>
      </trkpt>
      <trkpt lat="48.83378" lon="2.40347">
        <ele>43.799999237061</ele>
        <time>2016-05-23T19:09:24.000Z</time>
      </trkpt>
      <trkpt lat="48.83369" lon="2.40319">
        <ele>43.400001525879</ele>
        <time>2016-05-23T19:09:28.000Z</time>
      </trkpt>
      <trkpt lat="48.83361" lon="2.40292">
        <ele>44</ele>
        <time>2016-05-23T19:09:32.000Z</time>
      </trkpt>
      <trkpt lat="48.83352" lon="2.40263">
        <ele>44.599998474121</ele>
        <time>2016-05-23T19:09:36.000Z</time>
      </trkpt>
      <trkpt lat="48.83343" lon="2.40234">
        <ele>45.400001525879</ele>
        <time>2016-05-23T19:09:40.000Z</time>
      </trkpt>
      <trkpt lat="48.83332" lon="2.40204">
        <ele>46.400001525879</ele>
        <time>2016-05-23T19:09:44.000Z</time>
      </trkpt>
      <trkpt lat="48.83321" lon="2.40174">
        <ele>47.200000762939</ele>
        <time>2016-05-23T19:09:48.000Z</time>
      </trkpt>
      <trkpt lat="48.83313" lon="2.4015">
        <ele>47.599998474121</ele>
        <time>2016-05-23T19:09:51.000Z</time>
      </trkpt>
      <trkpt lat="48.83304" lon="2.40125">
        <ele>47.799999237061</ele>
        <time>2016-05-23T19:09:54.000Z</time>
      </trkpt>
      <trkpt lat="48.83296" lon="2.40099">
        <ele>48</ele>
        <time>2016-05-23T19:09:57.000Z</time>
      </trkpt>
      <trkpt lat="48.83288" lon="2.40065">
        <ele>48.400001525879</ele>
        <time>2016-05-23T19:10:01.000Z</time>
      </trkpt>
      <trkpt lat="48.83279" lon="2.4004">
        <ele>48.599998474121</ele>
        <time>2016-05-23T19:10:04.000Z</time>
      </trkpt>
      <trkpt lat="48.83269" lon="2.4001">
        <ele>48.799999237061</ele>
        <time>2016-05-23T19:10:08.000Z</time>
      </trkpt>
      <trkpt lat="48.83264" lon="2.39984">
        <ele>49</ele>
        <time>2016-05-23T19:10:11.000Z</time>
      </trkpt>
      <trkpt lat="48.83254" lon="2.39954">
        <ele>49.400001525879</ele>
        <time>2016-05-23T19:10:15.000Z</time>
      </trkpt>
      <trkpt lat="48.83247" lon="2.39922">
        <ele>49.599998474121</ele>
        <time>2016-05-23T19:10:19.000Z</time>
      </trkpt>
      <trkpt lat="48.83236" lon="2.39891">
        <ele>49.200000762939</ele>
        <time>2016-05-23T19:10:23.000Z</time>
      </trkpt>
      <trkpt lat="48.83231" lon="2.39875">
        <ele>49</ele>
        <time>2016-05-23T19:10:25.000Z</time>
      </trkpt>
      <trkpt lat="48.83223" lon="2.3985">
        <ele>48</ele>
        <time>2016-05-23T19:10:28.000Z</time>
      </trkpt>
      <trkpt lat="48.83212" lon="2.39827">
        <ele>47.200000762939</ele>
        <time>2016-05-23T19:10:32.000Z</time>
      </trkpt>
      <trkpt lat="48.83202" lon="2.39802">
        <ele>46.599998474121</ele>
        <time>2016-05-23T19:10:37.000Z</time>
      </trkpt>
      <trkpt lat="48.83194" lon="2.3978">
        <ele>46</ele>
        <time>2016-05-23T19:10:43.000Z</time>
      </trkpt>
      <trkpt lat="48.83194" lon="2.39774">
        <ele>45.799999237061</ele>
        <time>2016-05-23T19:10:46.000Z</time>
      </trkpt>
      <trkpt lat="48.83186" lon="2.39753">
        <ele>44.799999237061</ele>
        <time>2016-05-23T19:11:23.000Z</time>
      </trkpt>
      <trkpt lat="48.83177" lon="2.39732">
        <ele>43.400001525879</ele>
        <time>2016-05-23T19:11:30.000Z</time>
      </trkpt>
      <trkpt lat="48.83166" lon="2.39709">
        <ele>41.799999237061</ele>
        <time>2016-05-23T19:11:36.000Z</time>
      </trkpt>
      <trkpt lat="48.83155" lon="2.39685">
        <ele>40.200000762939</ele>
        <time>2016-05-23T19:11:41.000Z</time>
      </trkpt>
      <trkpt lat="48.83148" lon="2.39668">
        <ele>39.200000762939</ele>
        <time>2016-05-23T19:11:44.000Z</time>
      </trkpt>
      <trkpt lat="48.83138" lon="2.39643">
        <ele>37.799999237061</ele>
        <time>2016-05-23T19:11:48.000Z</time>
      </trkpt>
      <trkpt lat="48.83127" lon="2.39616">
        <ele>36.599998474121</ele>
        <time>2016-05-23T19:11:52.000Z</time>
      </trkpt>
      <trkpt lat="48.83117" lon="2.39589">
        <ele>35</ele>
        <time>2016-05-23T19:11:56.000Z</time>
      </trkpt>
      <trkpt lat="48.83108" lon="2.3956">
        <ele>34.799999237061</ele>
        <time>2016-05-23T19:12:00.000Z</time>
      </trkpt>
      <trkpt lat="48.83098" lon="2.3953">
        <ele>35.599998474121</ele>
        <time>2016-05-23T19:12:04.000Z</time>
      </trkpt>
      <trkpt lat="48.83089" lon="2.395">
        <ele>36.400001525879</ele>
        <time>2016-05-23T19:12:08.000Z</time>
      </trkpt>
      <trkpt lat="48.8308" lon="2.3947">
        <ele>36.400001525879</ele>
        <time>2016-05-23T19:12:12.000Z</time>
      </trkpt>
      <trkpt lat="48.83072" lon="2.39441">
        <ele>36.200000762939</ele>
        <time>2016-05-23T19:12:16.000Z</time>
      </trkpt>
      <trkpt lat="48.8307" lon="2.39428">
        <ele>36.200000762939</ele>
        <time>2016-05-23T19:12:18.000Z</time>
      </trkpt>
      <trkpt lat="48.83064" lon="2.39399">
        <ele>36.400001525879</ele>
        <time>2016-05-23T19:12:22.000Z</time>
      </trkpt>
      <trkpt lat="48.83061" lon="2.39386">
        <ele>36.599998474121</ele>
        <time>2016-05-23T19:12:24.000Z</time>
      </trkpt>
      <trkpt lat="48.83054" lon="2.3936">
        <ele>37</ele>
        <time>2016-05-23T19:12:28.000Z</time>
      </trkpt>
      <trkpt lat="48.83047" lon="2.39326">
        <ele>37.599998474121</ele>
        <time>2016-05-23T19:12:32.000Z</time>
      </trkpt>
      <trkpt lat="48.83041" lon="2.39296">
        <ele>37.400001525879</ele>
        <time>2016-05-23T19:12:35.000Z</time>
      </trkpt>
      <trkpt lat="48.83035" lon="2.39269">
        <ele>37.200000762939</ele>
        <time>2016-05-23T19:12:38.000Z</time>
      </trkpt>
      <trkpt lat="48.83032" lon="2.39259">
        <ele>37.200000762939</ele>
        <time>2016-05-23T19:12:39.000Z</time>
      </trkpt>
      <trkpt lat="48.83023" lon="2.39235">
        <ele>36.599998474121</ele>
        <time>2016-05-23T19:12:42.000Z</time>
      </trkpt>
      <trkpt lat="48.8302" lon="2.39229">
        <ele>36.599998474121</ele>
        <time>2016-05-23T19:12:43.000Z</time>
      </trkpt>
      <trkpt lat="48.83006" lon="2.39203">
        <ele>36.200000762939</ele>
        <time>2016-05-23T19:12:47.000Z</time>
      </trkpt>
      <trkpt lat="48.83003" lon="2.39195">
        <ele>36</ele>
        <time>2016-05-23T19:12:48.000Z</time>
      </trkpt>
      <trkpt lat="48.82995" lon="2.39171">
        <ele>35.400001525879</ele>
        <time>2016-05-23T19:12:51.000Z</time>
      </trkpt>
      <trkpt lat="48.82985" lon="2.39145">
        <ele>36</ele>
        <time>2016-05-23T19:12:54.000Z</time>
      </trkpt>
      <trkpt lat="48.82976" lon="2.39119">
        <ele>36.599998474121</ele>
        <time>2016-05-23T19:12:57.000Z</time>
      </trkpt>
      <trkpt lat="48.82965" lon="2.39094">
        <ele>37</ele>
        <time>2016-05-23T19:13:00.000Z</time>
      </trkpt>
      <trkpt lat="48.82955" lon="2.39068">
        <ele>37.599998474121</ele>
        <time>2016-05-23T19:13:03.000Z</time>
      </trkpt>
      <trkpt lat="48.82944" lon="2.39041">
        <ele>38.400001525879</ele>
        <time>2016-05-23T19:13:06.000Z</time>
      </trkpt>
      <trkpt lat="48.82934" lon="2.39013">
        <ele>38.400001525879</ele>
        <time>2016-05-23T19:13:09.000Z</time>
      </trkpt>
      <trkpt lat="48.82923" lon="2.38987">
        <ele>37.400001525879</ele>
        <time>2016-05-23T19:13:12.000Z</time>
      </trkpt>
      <trkpt lat="48.82913" lon="2.38962">
        <ele>36</ele>
        <time>2016-05-23T19:13:15.000Z</time>
      </trkpt>
      <trkpt lat="48.82901" lon="2.38932">
        <ele>34.200000762939</ele>
        <time>2016-05-23T19:13:19.000Z</time>
      </trkpt>
      <trkpt lat="48.82891" lon="2.38907">
        <ele>33</ele>
        <time>2016-05-23T19:13:23.000Z</time>
      </trkpt>
      <trkpt lat="48.82886" lon="2.38895">
        <ele>32.599998474121</ele>
        <time>2016-05-23T19:13:25.000Z</time>
      </trkpt>
      <trkpt lat="48.82874" lon="2.38869">
        <ele>31.60000038147</ele>
        <time>2016-05-23T19:13:29.000Z</time>
      </trkpt>
      <trkpt lat="48.82862" lon="2.38842">
        <ele>30.60000038147</ele>
        <time>2016-05-23T19:13:33.000Z</time>
      </trkpt>
      <trkpt lat="48.82851" lon="2.38817">
        <ele>29.799999237061</ele>
        <time>2016-05-23T19:13:37.000Z</time>
      </trkpt>
      <trkpt lat="48.82837" lon="2.38789">
        <ele>29.799999237061</ele>
        <time>2016-05-23T19:13:41.000Z</time>
      </trkpt>
      <trkpt lat="48.82823" lon="2.38761">
        <ele>29.60000038147</ele>
        <time>2016-05-23T19:13:45.000Z</time>
      </trkpt>
      <trkpt lat="48.82812" lon="2.38737">
        <ele>29.60000038147</ele>
        <time>2016-05-23T19:13:48.000Z</time>
      </trkpt>
      <trkpt lat="48.828" lon="2.3871">
        <ele>30.200000762939</ele>
        <time>2016-05-23T19:13:51.000Z</time>
      </trkpt>
      <trkpt lat="48.82787" lon="2.38685">
        <ele>30.60000038147</ele>
        <time>2016-05-23T19:13:54.000Z</time>
      </trkpt>
      <trkpt lat="48.82774" lon="2.38659">
        <ele>30.799999237061</ele>
        <time>2016-05-23T19:13:57.000Z</time>
      </trkpt>
      <trkpt lat="48.82762" lon="2.38632">
        <ele>31.200000762939</ele>
        <time>2016-05-23T19:14:00.000Z</time>
      </trkpt>
      <trkpt lat="48.82749" lon="2.38605">
        <ele>31.200000762939</ele>
        <time>2016-05-23T19:14:03.000Z</time>
      </trkpt>
      <trkpt lat="48.82735" lon="2.38577">
        <ele>31.39999961853</ele>
        <time>2016-05-23T19:14:06.000Z</time>
      </trkpt>
      <trkpt lat="48.82722" lon="2.38551">
        <ele>31.200000762939</ele>
        <time>2016-05-23T19:14:09.000Z</time>
      </trkpt>
      <trkpt lat="48.82708" lon="2.38525">
        <ele>31</ele>
        <time>2016-05-23T19:14:12.000Z</time>
      </trkpt>
      <trkpt lat="48.82696" lon="2.38499">
        <ele>31</ele>
        <time>2016-05-23T19:14:15.000Z</time>
      </trkpt>
      <trkpt lat="48.82684" lon="2.38472">
        <ele>31.39999961853</ele>
        <time>2016-05-23T19:14:18.000Z</time>
      </trkpt>
      <trkpt lat="48.82673" lon="2.38447">
        <ele>32</ele>
        <time>2016-05-23T19:14:21.000Z</time>
      </trkpt>
      <trkpt lat="48.82661" lon="2.38425">
        <ele>32.599998474121</ele>
        <time>2016-05-23T19:14:24.000Z</time>
      </trkpt>
      <trkpt lat="48.82649" lon="2.384">
        <ele>33</ele>
        <time>2016-05-23T19:14:27.000Z</time>
      </trkpt>
      <trkpt lat="48.82638" lon="2.38377">
        <ele>33.200000762939</ele>
        <time>2016-05-23T19:14:30.000Z</time>
      </trkpt>
      <trkpt lat="48.8263" lon="2.38352">
        <ele>33.400001525879</ele>
        <time>2016-05-23T19:14:33.000Z</time>
      </trkpt>
      <trkpt lat="48.82619" lon="2.38324">
        <ele>33.799999237061</ele>
        <time>2016-05-23T19:14:37.000Z</time>
      </trkpt>
      <trkpt lat="48.8261" lon="2.38298">
        <ele>34</ele>
        <time>2016-05-23T19:14:41.000Z</time>
      </trkpt>
      <trkpt lat="48.82602" lon="2.38266">
        <ele>34</ele>
        <time>2016-05-23T19:14:45.000Z</time>
      </trkpt>
      <trkpt lat="48.82593" lon="2.38242">
        <ele>34.200000762939</ele>
        <time>2016-05-23T19:14:49.000Z</time>
      </trkpt>
      <trkpt lat="48.82583" lon="2.38215">
        <ele>34.200000762939</ele>
        <time>2016-05-23T19:14:54.000Z</time>
      </trkpt>
      <trkpt lat="48.82577" lon="2.38194">
        <ele>34</ele>
        <time>2016-05-23T19:14:58.000Z</time>
      </trkpt>
      <trkpt lat="48.82574" lon="2.3818">
        <ele>34</ele>
        <time>2016-05-23T19:15:02.000Z</time>
      </trkpt>
      <trkpt lat="48.82568" lon="2.3817">
        <ele>34</ele>
        <time>2016-05-23T19:15:34.000Z</time>
      </trkpt>
      <trkpt lat="48.82565" lon="2.38155">
        <ele>33.799999237061</ele>
        <time>2016-05-23T19:15:43.000Z</time>
      </trkpt>
      <trkpt lat="48.82566" lon="2.38154">
        <ele>33.799999237061</ele>
        <time>2016-05-23T19:16:46.000Z</time>
      </trkpt>
      <trkpt lat="48.82583" lon="2.38144">
        <ele>33.200000762939</ele>
        <time>2016-05-23T19:17:06.000Z</time>
      </trkpt>
      <trkpt lat="48.82584" lon="2.38139">
        <ele>33.400001525879</ele>
        <time>2016-05-23T19:17:08.000Z</time>
      </trkpt>
      <trkpt lat="48.82594" lon="2.38115">
        <ele>33.599998474121</ele>
        <time>2016-05-23T19:17:17.000Z</time>
      </trkpt>
      <trkpt lat="48.82603" lon="2.38088">
        <ele>34</ele>
        <time>2016-05-23T19:17:25.000Z</time>
      </trkpt>
      <trkpt lat="48.82609" lon="2.38063">
        <ele>33.799999237061</ele>
        <time>2016-05-23T19:17:32.000Z</time>
      </trkpt>
      <trkpt lat="48.82627" lon="2.3805">
        <ele>33.200000762939</ele>
        <time>2016-05-23T19:17:40.000Z</time>
      </trkpt>
      <trkpt lat="48.82644" lon="2.38033">
        <ele>32.599998474121</ele>
        <time>2016-05-23T19:17:49.000Z</time>
      </trkpt>
      <trkpt lat="48.82661" lon="2.3802">
        <ele>31.200000762939</ele>
        <time>2016-05-23T19:17:55.000Z</time>
      </trkpt>
      <trkpt lat="48.82676" lon="2.38004">
        <ele>30</ele>
        <time>2016-05-23T19:18:00.000Z</time>
      </trkpt>
      <trkpt lat="48.82692" lon="2.37991">
        <ele>29.200000762939</ele>
        <time>2016-05-23T19:18:05.000Z</time>
      </trkpt>
      <trkpt lat="48.82711" lon="2.37993">
        <ele>28.799999237061</ele>
        <time>2016-05-23T19:18:12.000Z</time>
      </trkpt>
      <trkpt lat="48.82718" lon="2.38001">
        <ele>28.799999237061</ele>
        <time>2016-05-23T19:18:16.000Z</time>
      </trkpt>
      <trkpt lat="48.82733" lon="2.3799">
        <ele>28.60000038147</ele>
        <time>2016-05-23T19:18:28.000Z</time>
      </trkpt>
      <trkpt lat="48.82747" lon="2.37973">
        <ele>28.799999237061</ele>
        <time>2016-05-23T19:18:34.000Z</time>
      </trkpt>
      <trkpt lat="48.82765" lon="2.37954">
        <ele>28.799999237061</ele>
        <time>2016-05-23T19:18:39.000Z</time>
      </trkpt>
      <trkpt lat="48.82782" lon="2.37942">
        <ele>29.39999961853</ele>
        <time>2016-05-23T19:18:43.000Z</time>
      </trkpt>
      <trkpt lat="48.828" lon="2.37924">
        <ele>30</ele>
        <time>2016-05-23T19:18:48.000Z</time>
      </trkpt>
      <trkpt lat="48.82819" lon="2.37908">
        <ele>30.39999961853</ele>
        <time>2016-05-23T19:18:53.000Z</time>
      </trkpt>
      <trkpt lat="48.82832" lon="2.37896">
        <ele>31.39999961853</ele>
        <time>2016-05-23T19:18:57.000Z</time>
      </trkpt>
      <trkpt lat="48.82838" lon="2.37892">
        <ele>31.60000038147</ele>
        <time>2016-05-23T19:18:59.000Z</time>
      </trkpt>
      <trkpt lat="48.82849" lon="2.37882">
        <ele>32.400001525879</ele>
        <time>2016-05-23T19:19:03.000Z</time>
      </trkpt>
      <trkpt lat="48.82841" lon="2.37856">
        <ele>33.400001525879</ele>
        <time>2016-05-23T19:19:09.000Z</time>
      </trkpt>
      <trkpt lat="48.82831" lon="2.37832">
        <ele>34.400001525879</ele>
        <time>2016-05-23T19:19:14.000Z</time>
      </trkpt>
      <trkpt lat="48.82821" lon="2.37809">
        <ele>34.200000762939</ele>
        <time>2016-05-23T19:19:20.000Z</time>
      </trkpt>
      <trkpt lat="48.82807" lon="2.37786">
        <ele>33.799999237061</ele>
        <time>2016-05-23T19:19:27.000Z</time>
      </trkpt>
      <trkpt lat="48.82795" lon="2.37756">
        <ele>34</ele>
        <time>2016-05-23T19:19:32.000Z</time>
      </trkpt>
      <trkpt lat="48.8278" lon="2.37728">
        <ele>34.200000762939</ele>
        <time>2016-05-23T19:19:36.000Z</time>
      </trkpt>
      <trkpt lat="48.8277" lon="2.37704">
        <ele>34.799999237061</ele>
        <time>2016-05-23T19:19:39.000Z</time>
      </trkpt>
      <trkpt lat="48.82761" lon="2.37671">
        <ele>36.400001525879</ele>
        <time>2016-05-23T19:19:43.000Z</time>
      </trkpt>
      <trkpt lat="48.82758" lon="2.37652">
        <ele>37.400001525879</ele>
        <time>2016-05-23T19:19:46.000Z</time>
      </trkpt>
      <trkpt lat="48.82755" lon="2.37631">
        <ele>39</ele>
        <time>2016-05-23T19:19:49.000Z</time>
      </trkpt>
      <trkpt lat="48.82748" lon="2.37602">
        <ele>41.400001525879</ele>
        <time>2016-05-23T19:19:53.000Z</time>
      </trkpt>
      <trkpt lat="48.82739" lon="2.37574">
        <ele>43</ele>
        <time>2016-05-23T19:19:57.000Z</time>
      </trkpt>
      <trkpt lat="48.82733" lon="2.37547">
        <ele>43</ele>
        <time>2016-05-23T19:20:01.000Z</time>
      </trkpt>
      <trkpt lat="48.82725" lon="2.3752">
        <ele>43.400001525879</ele>
        <time>2016-05-23T19:20:05.000Z</time>
      </trkpt>
      <trkpt lat="48.82718" lon="2.37498">
        <ele>44</ele>
        <time>2016-05-23T19:20:08.000Z</time>
      </trkpt>
      <trkpt lat="48.82713" lon="2.37477">
        <ele>45.599998474121</ele>
        <time>2016-05-23T19:20:11.000Z</time>
      </trkpt>
      <trkpt lat="48.82711" lon="2.37459">
        <ele>46.799999237061</ele>
        <time>2016-05-23T19:20:14.000Z</time>
      </trkpt>
      <trkpt lat="48.82709" lon="2.37444">
        <ele>47.799999237061</ele>
        <time>2016-05-23T19:20:17.000Z</time>
      </trkpt>
      <trkpt lat="48.82712" lon="2.37432">
        <ele>48.799999237061</ele>
        <time>2016-05-23T19:20:21.000Z</time>
      </trkpt>
      <trkpt lat="48.82714" lon="2.37429">
        <ele>49</ele>
        <time>2016-05-23T19:20:23.000Z</time>
      </trkpt>
      <trkpt lat="48.82719" lon="2.37422">
        <ele>49.799999237061</ele>
        <time>2016-05-23T19:20:27.000Z</time>
      </trkpt>
      <trkpt lat="48.82721" lon="2.37416">
        <ele>50.200000762939</ele>
        <time>2016-05-23T19:20:29.000Z</time>
      </trkpt>
      <trkpt lat="48.82726" lon="2.37389">
        <ele>51</ele>
        <time>2016-05-23T19:20:34.000Z</time>
      </trkpt>
      <trkpt lat="48.82731" lon="2.37357">
        <ele>51.799999237061</ele>
        <time>2016-05-23T19:20:39.000Z</time>
      </trkpt>
      <trkpt lat="48.8274" lon="2.37325">
        <ele>52.799999237061</ele>
        <time>2016-05-23T19:20:44.000Z</time>
      </trkpt>
      <trkpt lat="48.82744" lon="2.3729">
        <ele>54.400001525879</ele>
        <time>2016-05-23T19:20:48.000Z</time>
      </trkpt>
      <trkpt lat="48.8275" lon="2.3726">
        <ele>56</ele>
        <time>2016-05-23T19:20:52.000Z</time>
      </trkpt>
      <trkpt lat="48.82754" lon="2.3723">
        <ele>56.799999237061</ele>
        <time>2016-05-23T19:20:55.000Z</time>
      </trkpt>
      <trkpt lat="48.82758" lon="2.37195">
        <ele>56.799999237061</ele>
        <time>2016-05-23T19:20:59.000Z</time>
      </trkpt>
      <trkpt lat="48.82758" lon="2.37177">
        <ele>56.799999237061</ele>
        <time>2016-05-23T19:21:02.000Z</time>
      </trkpt>
      <trkpt lat="48.82759" lon="2.37164">
        <ele>56.799999237061</ele>
        <time>2016-05-23T19:21:06.000Z</time>
      </trkpt>
      <trkpt lat="48.82761" lon="2.37159">
        <ele>57.200000762939</ele>
        <time>2016-05-23T19:21:11.000Z</time>
      </trkpt>
      <trkpt lat="48.82757" lon="2.37152">
        <ele>57.400001525879</ele>
        <time>2016-05-23T19:21:31.000Z</time>
      </trkpt>
      <trkpt lat="48.82763" lon="2.37132">
        <ele>57.400001525879</ele>
        <time>2016-05-23T19:22:03.000Z</time>
      </trkpt>
      <trkpt lat="48.82761" lon="2.37102">
        <ele>57.400001525879</ele>
        <time>2016-05-23T19:22:12.000Z</time>
      </trkpt>
      <trkpt lat="48.82763" lon="2.37094">
        <ele>57.400001525879</ele>
        <time>2016-05-23T19:22:15.000Z</time>
      </trkpt>
      <trkpt lat="48.82775" lon="2.3707">
        <ele>57.200000762939</ele>
        <time>2016-05-23T19:22:23.000Z</time>
      </trkpt>
      <trkpt lat="48.82787" lon="2.37049">
        <ele>57.400001525879</ele>
        <time>2016-05-23T19:22:28.000Z</time>
      </trkpt>
      <trkpt lat="48.82803" lon="2.37035">
        <ele>57.599998474121</ele>
        <time>2016-05-23T19:22:32.000Z</time>
      </trkpt>
      <trkpt lat="48.82821" lon="2.37019">
        <ele>56.799999237061</ele>
        <time>2016-05-23T19:22:36.000Z</time>
      </trkpt>
      <trkpt lat="48.82841" lon="2.37009">
        <ele>55.799999237061</ele>
        <time>2016-05-23T19:22:40.000Z</time>
      </trkpt>
      <trkpt lat="48.8282" lon="2.3697">
        <ele>56.200000762939</ele>
        <time>2016-05-23T19:22:45.000Z</time>
      </trkpt>
      <trkpt lat="48.82814" lon="2.36939">
        <ele>56.400001525879</ele>
        <time>2016-05-23T19:22:50.000Z</time>
      </trkpt>
      <trkpt lat="48.82817" lon="2.36913">
        <ele>55.799999237061</ele>
        <time>2016-05-23T19:22:54.000Z</time>
      </trkpt>
      <trkpt lat="48.82819" lon="2.36891">
        <ele>55</ele>
        <time>2016-05-23T19:22:57.000Z</time>
      </trkpt>
      <trkpt lat="48.82826" lon="2.36864">
        <ele>54.799999237061</ele>
        <time>2016-05-23T19:23:02.000Z</time>
      </trkpt>
      <trkpt lat="48.82829" lon="2.3686">
        <ele>55</ele>
        <time>2016-05-23T19:23:03.000Z</time>
      </trkpt>
      <trkpt lat="48.8284" lon="2.36839">
        <ele>55.599998474121</ele>
        <time>2016-05-23T19:23:06.000Z</time>
      </trkpt>
      <trkpt lat="48.82847" lon="2.36806">
        <ele>54.599998474121</ele>
        <time>2016-05-23T19:23:11.000Z</time>
      </trkpt>
      <trkpt lat="48.82853" lon="2.36782">
        <ele>53.599998474121</ele>
        <time>2016-05-23T19:23:15.000Z</time>
      </trkpt>
      <trkpt lat="48.82854" lon="2.36774">
        <ele>53.200000762939</ele>
        <time>2016-05-23T19:23:17.000Z</time>
      </trkpt>
      <trkpt lat="48.82846" lon="2.36746">
        <ele>51.799999237061</ele>
        <time>2016-05-23T19:23:22.000Z</time>
      </trkpt>
      <trkpt lat="48.82841" lon="2.3673">
        <ele>52.200000762939</ele>
        <time>2016-05-23T19:23:28.000Z</time>
      </trkpt>
      <trkpt lat="48.82828" lon="2.36708">
        <ele>52.400001525879</ele>
        <time>2016-05-23T19:23:36.000Z</time>
      </trkpt>
      <trkpt lat="48.82815" lon="2.36682">
        <ele>53</ele>
        <time>2016-05-23T19:23:43.000Z</time>
      </trkpt>
      <trkpt lat="48.828" lon="2.36664">
        <ele>53</ele>
        <time>2016-05-23T19:23:49.000Z</time>
      </trkpt>
      <trkpt lat="48.82785" lon="2.36644">
        <ele>52.799999237061</ele>
        <time>2016-05-23T19:23:56.000Z</time>
      </trkpt>
      <trkpt lat="48.82771" lon="2.36623">
        <ele>52.599998474121</ele>
        <time>2016-05-23T19:24:04.000Z</time>
      </trkpt>
      <trkpt lat="48.82753" lon="2.36612">
        <ele>54.599998474121</ele>
        <time>2016-05-23T19:24:14.000Z</time>
      </trkpt>
      <trkpt lat="48.82743" lon="2.36612">
        <ele>55.400001525879</ele>
        <time>2016-05-23T19:24:19.000Z</time>
      </trkpt>
      <trkpt lat="48.82724" lon="2.36616">
        <ele>57.200000762939</ele>
        <time>2016-05-23T19:24:26.000Z</time>
      </trkpt>
      <trkpt lat="48.82706" lon="2.36622">
        <ele>58</ele>
        <time>2016-05-23T19:24:33.000Z</time>
      </trkpt>
      <trkpt lat="48.82703" lon="2.36623">
        <ele>58.200000762939</ele>
        <time>2016-05-23T19:24:35.000Z</time>
      </trkpt>
      <trkpt lat="48.82687" lon="2.36639">
        <ele>58.200000762939</ele>
        <time>2016-05-23T19:24:48.000Z</time>
      </trkpt>
      <trkpt lat="48.82669" lon="2.36649">
        <ele>58.200000762939</ele>
        <time>2016-05-23T19:24:54.000Z</time>
      </trkpt>
      <trkpt lat="48.82652" lon="2.3666">
        <ele>58.200000762939</ele>
        <time>2016-05-23T19:24:59.000Z</time>
      </trkpt>
      <trkpt lat="48.82631" lon="2.36675">
        <ele>58.799999237061</ele>
        <time>2016-05-23T19:25:04.000Z</time>
      </trkpt>
      <trkpt lat="48.82612" lon="2.36688">
        <ele>60.400001525879</ele>
        <time>2016-05-23T19:25:09.000Z</time>
      </trkpt>
      <trkpt lat="48.82591" lon="2.36699">
        <ele>61.599998474121</ele>
        <time>2016-05-23T19:25:14.000Z</time>
      </trkpt>
      <trkpt lat="48.82573" lon="2.3671">
        <ele>62.599998474121</ele>
        <time>2016-05-23T19:25:18.000Z</time>
      </trkpt>
      <trkpt lat="48.82553" lon="2.36723">
        <ele>61.200000762939</ele>
        <time>2016-05-23T19:25:22.000Z</time>
      </trkpt>
      <trkpt lat="48.82533" lon="2.36739">
        <ele>59</ele>
        <time>2016-05-23T19:25:26.000Z</time>
      </trkpt>
      <trkpt lat="48.82514" lon="2.36755">
        <ele>57.799999237061</ele>
        <time>2016-05-23T19:25:30.000Z</time>
      </trkpt>
      <trkpt lat="48.825" lon="2.36762">
        <ele>57.599998474121</ele>
        <time>2016-05-23T19:25:33.000Z</time>
      </trkpt>
      <trkpt lat="48.82479" lon="2.36772">
        <ele>57.200000762939</ele>
        <time>2016-05-23T19:25:37.000Z</time>
      </trkpt>
      <trkpt lat="48.82457" lon="2.36783">
        <ele>57.799999237061</ele>
        <time>2016-05-23T19:25:41.000Z</time>
      </trkpt>
      <trkpt lat="48.82438" lon="2.36795">
        <ele>59.400001525879</ele>
        <time>2016-05-23T19:25:45.000Z</time>
      </trkpt>
      <trkpt lat="48.8242" lon="2.36802">
        <ele>61.200000762939</ele>
        <time>2016-05-23T19:25:50.000Z</time>
      </trkpt>
      <trkpt lat="48.82401" lon="2.36814">
        <ele>61.799999237061</ele>
        <time>2016-05-23T19:25:56.000Z</time>
      </trkpt>
      <trkpt lat="48.82383" lon="2.36824">
        <ele>61.400001525879</ele>
        <time>2016-05-23T19:26:00.000Z</time>
      </trkpt>
      <trkpt lat="48.8237" lon="2.36834">
        <ele>61.200000762939</ele>
        <time>2016-05-23T19:26:03.000Z</time>
      </trkpt>
      <trkpt lat="48.82361" lon="2.36838">
        <ele>61.400001525879</ele>
        <time>2016-05-23T19:26:05.000Z</time>
      </trkpt>
      <trkpt lat="48.82344" lon="2.36847">
        <ele>61.200000762939</ele>
        <time>2016-05-23T19:26:09.000Z</time>
      </trkpt>
      <trkpt lat="48.82323" lon="2.36855">
        <ele>60.599998474121</ele>
        <time>2016-05-23T19:26:14.000Z</time>
      </trkpt>
      <trkpt lat="48.82317" lon="2.36858">
        <ele>60.599998474121</ele>
        <time>2016-05-23T19:26:16.000Z</time>
      </trkpt>
      <trkpt lat="48.82308" lon="2.36863">
        <ele>60.400001525879</ele>
        <time>2016-05-23T19:26:19.000Z</time>
      </trkpt>
      <trkpt lat="48.82295" lon="2.36866">
        <ele>59.599998474121</ele>
        <time>2016-05-23T19:26:25.000Z</time>
      </trkpt>
      <trkpt lat="48.82286" lon="2.36857">
        <ele>59</ele>
        <time>2016-05-23T19:26:58.000Z</time>
      </trkpt>
      <trkpt lat="48.82282" lon="2.36829">
        <ele>58.400001525879</ele>
        <time>2016-05-23T19:27:05.000Z</time>
      </trkpt>
      <trkpt lat="48.82277" lon="2.36801">
        <ele>58.599998474121</ele>
        <time>2016-05-23T19:27:11.000Z</time>
      </trkpt>
      <trkpt lat="48.82271" lon="2.36776">
        <ele>58.599998474121</ele>
        <time>2016-05-23T19:27:16.000Z</time>
      </trkpt>
      <trkpt lat="48.82266" lon="2.36745">
        <ele>59.200000762939</ele>
        <time>2016-05-23T19:27:22.000Z</time>
      </trkpt>
      <trkpt lat="48.82262" lon="2.36723">
        <ele>59.200000762939</ele>
        <time>2016-05-23T19:27:30.000Z</time>
      </trkpt>
      <trkpt lat="48.82269" lon="2.36698">
        <ele>59</ele>
        <time>2016-05-23T19:28:01.000Z</time>
      </trkpt>
      <trkpt lat="48.82281" lon="2.36676">
        <ele>59.400001525879</ele>
        <time>2016-05-23T19:28:09.000Z</time>
      </trkpt>
      <trkpt lat="48.82283" lon="2.36645">
        <ele>58.799999237061</ele>
        <time>2016-05-23T19:28:19.000Z</time>
      </trkpt>
      <trkpt lat="48.82282" lon="2.36636">
        <ele>58.599998474121</ele>
        <time>2016-05-23T19:28:23.000Z</time>
      </trkpt>
      <trkpt lat="48.82304" lon="2.36662">
        <ele>59</ele>
        <time>2016-05-23T19:28:31.000Z</time>
      </trkpt>
      <trkpt lat="48.82318" lon="2.36684">
        <ele>59.799999237061</ele>
        <time>2016-05-23T19:28:35.000Z</time>
      </trkpt>
      <trkpt lat="48.8232" lon="2.36688">
        <ele>59.799999237061</ele>
        <time>2016-05-23T19:28:36.000Z</time>
      </trkpt>
      <trkpt lat="48.82335" lon="2.36714">
        <ele>60.799999237061</ele>
        <time>2016-05-23T19:28:43.000Z</time>
      </trkpt>
      <trkpt lat="48.82608" lon="2.36336">
        <ele>49.200000762939</ele>
        <time>2016-05-23T19:30:36.000Z</time>
      </trkpt>
      <trkpt lat="48.82623" lon="2.36341">
        <ele>50</ele>
        <time>2016-05-23T19:30:57.000Z</time>
      </trkpt>
      <trkpt lat="48.82641" lon="2.36356">
        <ele>51</ele>
        <time>2016-05-23T19:31:02.000Z</time>
      </trkpt>
      <trkpt lat="48.82655" lon="2.36365">
        <ele>51.799999237061</ele>
        <time>2016-05-23T19:31:07.000Z</time>
      </trkpt>
      <trkpt lat="48.82657" lon="2.36366">
        <ele>51.799999237061</ele>
        <time>2016-05-23T19:31:10.000Z</time>
      </trkpt>
      <trkpt lat="48.82675" lon="2.36352">
        <ele>53.400001525879</ele>
        <time>2016-05-23T19:31:22.000Z</time>
      </trkpt>
      <trkpt lat="48.82692" lon="2.36336">
        <ele>54.799999237061</ele>
        <time>2016-05-23T19:31:28.000Z</time>
      </trkpt>
      <trkpt lat="48.8271" lon="2.36315">
        <ele>54</ele>
        <time>2016-05-23T19:31:33.000Z</time>
      </trkpt>
      <trkpt lat="48.82724" lon="2.36295">
        <ele>53.200000762939</ele>
        <time>2016-05-23T19:31:36.000Z</time>
      </trkpt>
      <trkpt lat="48.82738" lon="2.36274">
        <ele>52.799999237061</ele>
        <time>2016-05-23T19:31:39.000Z</time>
      </trkpt>
      <trkpt lat="48.82754" lon="2.3625">
        <ele>52.400001525879</ele>
        <time>2016-05-23T19:31:43.000Z</time>
      </trkpt>
      <trkpt lat="48.82771" lon="2.36226">
        <ele>52.799999237061</ele>
        <time>2016-05-23T19:31:47.000Z</time>
      </trkpt>
      <trkpt lat="48.82779" lon="2.36213">
        <ele>53.599998474121</ele>
        <time>2016-05-23T19:31:49.000Z</time>
      </trkpt>
      <trkpt lat="48.82791" lon="2.36192">
        <ele>54.599998474121</ele>
        <time>2016-05-23T19:31:52.000Z</time>
      </trkpt>
      <trkpt lat="48.82802" lon="2.36178">
        <ele>55.599998474121</ele>
        <time>2016-05-23T19:31:55.000Z</time>
      </trkpt>
      <trkpt lat="48.82808" lon="2.36169">
        <ele>56.200000762939</ele>
        <time>2016-05-23T19:31:57.000Z</time>
      </trkpt>
      <trkpt lat="48.82825" lon="2.36152">
        <ele>57</ele>
        <time>2016-05-23T19:32:01.000Z</time>
      </trkpt>
      <trkpt lat="48.82843" lon="2.36129">
        <ele>57.200000762939</ele>
        <time>2016-05-23T19:32:05.000Z</time>
      </trkpt>
      <trkpt lat="48.82852" lon="2.36118">
        <ele>57.400001525879</ele>
        <time>2016-05-23T19:32:07.000Z</time>
      </trkpt>
      <trkpt lat="48.82872" lon="2.36098">
        <ele>55.799999237061</ele>
        <time>2016-05-23T19:32:11.000Z</time>
      </trkpt>
      <trkpt lat="48.82881" lon="2.36089">
        <ele>55.799999237061</ele>
        <time>2016-05-23T19:32:13.000Z</time>
      </trkpt>
      <trkpt lat="48.82899" lon="2.36074">
        <ele>55.599998474121</ele>
        <time>2016-05-23T19:32:17.000Z</time>
      </trkpt>
      <trkpt lat="48.82902" lon="2.36069">
        <ele>55.799999237061</ele>
        <time>2016-05-23T19:32:18.000Z</time>
      </trkpt>
      <trkpt lat="48.8292" lon="2.36055">
        <ele>56</ele>
        <time>2016-05-23T19:32:23.000Z</time>
      </trkpt>
      <trkpt lat="48.82923" lon="2.36054">
        <ele>56</ele>
        <time>2016-05-23T19:32:24.000Z</time>
      </trkpt>
      <trkpt lat="48.82928" lon="2.36051">
        <ele>56.400001525879</ele>
        <time>2016-05-23T19:32:26.000Z</time>
      </trkpt>
      <trkpt lat="48.8294" lon="2.36036">
        <ele>57.799999237061</ele>
        <time>2016-05-23T19:32:31.000Z</time>
      </trkpt>
      <trkpt lat="48.82948" lon="2.36024">
        <ele>58.799999237061</ele>
        <time>2016-05-23T19:32:35.000Z</time>
      </trkpt>
      <trkpt lat="48.82952" lon="2.36014">
        <ele>59.799999237061</ele>
        <time>2016-05-23T19:32:38.000Z</time>
      </trkpt>
      <trkpt lat="48.82958" lon="2.36001">
        <ele>61</ele>
        <time>2016-05-23T19:32:42.000Z</time>
      </trkpt>
      <trkpt lat="48.82973" lon="2.3598">
        <ele>61.599998474121</ele>
        <time>2016-05-23T19:32:49.000Z</time>
      </trkpt>
      <trkpt lat="48.82983" lon="2.35951">
        <ele>62.200000762939</ele>
        <time>2016-05-23T19:32:57.000Z</time>
      </trkpt>
      <trkpt lat="48.82996" lon="2.3593">
        <ele>63</ele>
        <time>2016-05-23T19:33:03.000Z</time>
      </trkpt>
      <trkpt lat="48.83008" lon="2.35912">
        <ele>63.599998474121</ele>
        <time>2016-05-23T19:33:08.000Z</time>
      </trkpt>
      <trkpt lat="48.83024" lon="2.35892">
        <ele>64.800003051758</ele>
        <time>2016-05-23T19:33:13.000Z</time>
      </trkpt>
      <trkpt lat="48.83038" lon="2.35871">
        <ele>66</ele>
        <time>2016-05-23T19:33:18.000Z</time>
      </trkpt>
      <trkpt lat="48.83054" lon="2.35853">
        <ele>66.400001525879</ele>
        <time>2016-05-23T19:33:25.000Z</time>
      </trkpt>
      <trkpt lat="48.8307" lon="2.35838">
        <ele>65.400001525879</ele>
        <time>2016-05-23T19:33:29.000Z</time>
      </trkpt>
      <trkpt lat="48.83089" lon="2.35822">
        <ele>65.199996948242</ele>
        <time>2016-05-23T19:33:34.000Z</time>
      </trkpt>
      <trkpt lat="48.83108" lon="2.35821">
        <ele>64.400001525879</ele>
        <time>2016-05-23T19:33:38.000Z</time>
      </trkpt>
      <trkpt lat="48.83138" lon="2.3582">
        <ele>63.599998474121</ele>
        <time>2016-05-23T19:33:43.000Z</time>
      </trkpt>
      <trkpt lat="48.83145" lon="2.35816">
        <ele>63.599998474121</ele>
        <time>2016-05-23T19:33:48.000Z</time>
      </trkpt>
      <trkpt lat="48.83163" lon="2.35812">
        <ele>63.400001525879</ele>
        <time>2016-05-23T19:34:14.000Z</time>
      </trkpt>
      <trkpt lat="48.8318" lon="2.3581">
        <ele>62.799999237061</ele>
        <time>2016-05-23T19:34:19.000Z</time>
      </trkpt>
      <trkpt lat="48.83181" lon="2.35795">
        <ele>63.200000762939</ele>
        <time>2016-05-23T19:34:23.000Z</time>
      </trkpt>
      <trkpt lat="48.83166" lon="2.3577">
        <ele>64.400001525879</ele>
        <time>2016-05-23T19:34:27.000Z</time>
      </trkpt>
      <trkpt lat="48.83155" lon="2.35745">
        <ele>65.199996948242</ele>
        <time>2016-05-23T19:34:31.000Z</time>
      </trkpt>
      <trkpt lat="48.83143" lon="2.35723">
        <ele>64.800003051758</ele>
        <time>2016-05-23T19:34:36.000Z</time>
      </trkpt>
      <trkpt lat="48.8314" lon="2.35694">
        <ele>64</ele>
        <time>2016-05-23T19:34:41.000Z</time>
      </trkpt>
      <trkpt lat="48.83143" lon="2.35681">
        <ele>63.799999237061</ele>
        <time>2016-05-23T19:34:43.000Z</time>
      </trkpt>
      <trkpt lat="48.83161" lon="2.35667">
        <ele>63.400001525879</ele>
        <time>2016-05-23T19:34:49.000Z</time>
      </trkpt>
      <trkpt lat="48.83181" lon="2.35656">
        <ele>63</ele>
        <time>2016-05-23T19:34:55.000Z</time>
      </trkpt>
      <trkpt lat="48.832" lon="2.35647">
        <ele>62.400001525879</ele>
        <time>2016-05-23T19:35:00.000Z</time>
      </trkpt>
      <trkpt lat="48.83217" lon="2.35635">
        <ele>62</ele>
        <time>2016-05-23T19:35:06.000Z</time>
      </trkpt>
      <trkpt lat="48.83221" lon="2.35625">
        <ele>61.599998474121</ele>
        <time>2016-05-23T19:35:09.000Z</time>
      </trkpt>
      <trkpt lat="48.83224" lon="2.35595">
        <ele>61.200000762939</ele>
        <time>2016-05-23T19:35:15.000Z</time>
      </trkpt>
      <trkpt lat="48.83222" lon="2.35566">
        <ele>61.400001525879</ele>
        <time>2016-05-23T19:35:21.000Z</time>
      </trkpt>
      <trkpt lat="48.83222" lon="2.35539">
        <ele>61.599998474121</ele>
        <time>2016-05-23T19:35:27.000Z</time>
      </trkpt>
      <trkpt lat="48.83223" lon="2.35533">
        <ele>61.799999237061</ele>
        <time>2016-05-23T19:35:29.000Z</time>
      </trkpt>
      <trkpt lat="48.83234" lon="2.35506">
        <ele>62</ele>
        <time>2016-05-23T19:35:40.000Z</time>
      </trkpt>
      <trkpt lat="48.83251" lon="2.35492">
        <ele>62.599998474121</ele>
        <time>2016-05-23T19:35:45.000Z</time>
      </trkpt>
      <trkpt lat="48.83271" lon="2.35479">
        <ele>62.799999237061</ele>
        <time>2016-05-23T19:35:50.000Z</time>
      </trkpt>
      <trkpt lat="48.8329" lon="2.35467">
        <ele>62.200000762939</ele>
        <time>2016-05-23T19:35:54.000Z</time>
      </trkpt>
      <trkpt lat="48.83309" lon="2.35449">
        <ele>61.599998474121</ele>
        <time>2016-05-23T19:35:59.000Z</time>
      </trkpt>
      <trkpt lat="48.83321" lon="2.35435">
        <ele>61</ele>
        <time>2016-05-23T19:36:04.000Z</time>
      </trkpt>
      <trkpt lat="48.83313" lon="2.35411">
        <ele>60.799999237061</ele>
        <time>2016-05-23T19:36:11.000Z</time>
      </trkpt>
      <trkpt lat="48.833" lon="2.35392">
        <ele>60</ele>
        <time>2016-05-23T19:36:16.000Z</time>
      </trkpt>
      <trkpt lat="48.83286" lon="2.35367">
        <ele>58.799999237061</ele>
        <time>2016-05-23T19:36:21.000Z</time>
      </trkpt>
      <trkpt lat="48.8327" lon="2.35346">
        <ele>58</ele>
        <time>2016-05-23T19:36:27.000Z</time>
      </trkpt>
      <trkpt lat="48.83254" lon="2.35325">
        <ele>58</ele>
        <time>2016-05-23T19:36:33.000Z</time>
      </trkpt>
      <trkpt lat="48.83238" lon="2.35314">
        <ele>58.599998474121</ele>
        <time>2016-05-23T19:36:38.000Z</time>
      </trkpt>
      <trkpt lat="48.83223" lon="2.35295">
        <ele>59</ele>
        <time>2016-05-23T19:36:43.000Z</time>
      </trkpt>
      <trkpt lat="48.83204" lon="2.35281">
        <ele>60</ele>
        <time>2016-05-23T19:36:49.000Z</time>
      </trkpt>
      <trkpt lat="48.83195" lon="2.35281">
        <ele>60.400001525879</ele>
        <time>2016-05-23T19:36:53.000Z</time>
      </trkpt>
      <trkpt lat="48.83179" lon="2.35273">
        <ele>60.599998474121</ele>
        <time>2016-05-23T19:37:09.000Z</time>
      </trkpt>
      <trkpt lat="48.83175" lon="2.35266">
        <ele>60.400001525879</ele>
        <time>2016-05-23T19:37:14.000Z</time>
      </trkpt>
      <trkpt lat="48.83174" lon="2.35265">
        <ele>60.400001525879</ele>
        <time>2016-05-23T19:37:15.000Z</time>
      </trkpt>
      <trkpt lat="48.83169" lon="2.35255">
        <ele>60.200000762939</ele>
        <time>2016-05-23T19:37:25.000Z</time>
      </trkpt>
      <trkpt lat="48.8319" lon="2.35242">
        <ele>59.599998474121</ele>
        <time>2016-05-23T19:37:36.000Z</time>
      </trkpt>
      <trkpt lat="48.83206" lon="2.35225">
        <ele>57</ele>
        <time>2016-05-23T19:37:42.000Z</time>
      </trkpt>
      <trkpt lat="48.83217" lon="2.35198">
        <ele>54.400001525879</ele>
        <time>2016-05-23T19:37:54.000Z</time>
      </trkpt>
      <trkpt lat="48.83214" lon="2.3517">
        <ele>53.400001525879</ele>
        <time>2016-05-23T19:38:02.000Z</time>
      </trkpt>
      <trkpt lat="48.832" lon="2.35147">
        <ele>53</ele>
        <time>2016-05-23T19:38:10.000Z</time>
      </trkpt>
      <trkpt lat="48.83186" lon="2.35128">
        <ele>52.599998474121</ele>
        <time>2016-05-23T19:38:18.000Z</time>
      </trkpt>
      <trkpt lat="48.83171" lon="2.35097">
        <ele>51.400001525879</ele>
        <time>2016-05-23T19:38:25.000Z</time>
      </trkpt>
      <trkpt lat="48.83165" lon="2.35075">
        <ele>50.400001525879</ele>
        <time>2016-05-23T19:38:31.000Z</time>
      </trkpt>
      <trkpt lat="48.8318" lon="2.35062">
        <ele>48.400001525879</ele>
        <time>2016-05-23T19:38:52.000Z</time>
      </trkpt>
      <trkpt lat="48.8319" lon="2.35038">
        <ele>45.799999237061</ele>
        <time>2016-05-23T19:39:01.000Z</time>
      </trkpt>
      <trkpt lat="48.83197" lon="2.3501">
        <ele>43.200000762939</ele>
        <time>2016-05-23T19:39:09.000Z</time>
      </trkpt>
      <trkpt lat="48.83196" lon="2.34988">
        <ele>42.200000762939</ele>
        <time>2016-05-23T19:39:17.000Z</time>
      </trkpt>
      <trkpt lat="48.83206" lon="2.34994">
        <ele>41.799999237061</ele>
        <time>2016-05-23T19:39:30.000Z</time>
      </trkpt>
      <trkpt lat="48.83205" lon="2.34983">
        <ele>41.599998474121</ele>
        <time>2016-05-23T19:40:11.000Z</time>
      </trkpt>
      <trkpt lat="48.8321" lon="2.34984">
        <ele>41.200000762939</ele>
        <time>2016-05-23T19:40:27.000Z</time>
      </trkpt>
      <trkpt lat="48.83225" lon="2.34979">
        <ele>40.200000762939</ele>
        <time>2016-05-23T19:40:36.000Z</time>
      </trkpt>
      <trkpt lat="48.83221" lon="2.34977">
        <ele>40.400001525879</ele>
        <time>2016-05-23T19:40:40.000Z</time>
      </trkpt>
      <trkpt lat="48.83208" lon="2.34956">
        <ele>40.400001525879</ele>
        <time>2016-05-23T19:40:47.000Z</time>
      </trkpt>
      <trkpt lat="48.83195" lon="2.34936">
        <ele>40.400001525879</ele>
        <time>2016-05-23T19:40:53.000Z</time>
      </trkpt>
      <trkpt lat="48.83178" lon="2.34915">
        <ele>40.599998474121</ele>
        <time>2016-05-23T19:40:59.000Z</time>
      </trkpt>
      <trkpt lat="48.83163" lon="2.349">
        <ele>41.200000762939</ele>
        <time>2016-05-23T19:41:03.000Z</time>
      </trkpt>
      <trkpt lat="48.83144" lon="2.34876">
        <ele>42.200000762939</ele>
        <time>2016-05-23T19:41:09.000Z</time>
      </trkpt>
      <trkpt lat="48.8313" lon="2.34856">
        <ele>42.799999237061</ele>
        <time>2016-05-23T19:41:12.000Z</time>
      </trkpt>
      <trkpt lat="48.83121" lon="2.34841">
        <ele>43.200000762939</ele>
        <time>2016-05-23T19:41:19.000Z</time>
      </trkpt>
      <trkpt lat="48.83122" lon="2.34836">
        <ele>43.200000762939</ele>
        <time>2016-05-23T19:41:27.000Z</time>
      </trkpt>
      <trkpt lat="48.83136" lon="2.3485">
        <ele>42.599998474121</ele>
        <time>2016-05-23T19:41:51.000Z</time>
      </trkpt>
      <trkpt lat="48.83136" lon="2.34851">
        <ele>42.599998474121</ele>
        <time>2016-05-23T19:41:52.000Z</time>
      </trkpt>
      <trkpt lat="48.83122" lon="2.34846">
        <ele>43.200000762939</ele>
        <time>2016-05-23T19:41:59.000Z</time>
      </trkpt>
      <trkpt lat="48.83106" lon="2.34827">
        <ele>44.200000762939</ele>
        <time>2016-05-23T19:42:05.000Z</time>
      </trkpt>
      <trkpt lat="48.83096" lon="2.3482">
        <ele>44.599998474121</ele>
        <time>2016-05-23T19:42:12.000Z</time>
      </trkpt>
      <trkpt lat="48.83089" lon="2.34829">
        <ele>45</ele>
        <time>2016-05-23T19:42:19.000Z</time>
      </trkpt>
      <trkpt lat="48.83088" lon="2.34831">
        <ele>45</ele>
        <time>2016-05-23T19:42:22.000Z</time>
      </trkpt>
      <trkpt lat="48.83088" lon="2.34841">
        <ele>45</ele>
        <time>2016-05-23T19:42:32.000Z</time>
      </trkpt>
      <trkpt lat="48.83107" lon="2.34838">
        <ele>44</ele>
        <time>2016-05-23T19:42:40.000Z</time>
      </trkpt>
      <trkpt lat="48.83129" lon="2.34808">
        <ele>43.599998474121</ele>
        <time>2016-05-23T19:42:44.000Z</time>
      </trkpt>
      <trkpt lat="48.83148" lon="2.34802">
        <ele>43</ele>
        <time>2016-05-23T19:42:50.000Z</time>
      </trkpt>
      <trkpt lat="48.83153" lon="2.34798">
        <ele>42.799999237061</ele>
        <time>2016-05-23T19:42:52.000Z</time>
      </trkpt>
      <trkpt lat="48.8317" lon="2.34785">
        <ele>43.799999237061</ele>
        <time>2016-05-23T19:42:58.000Z</time>
      </trkpt>
      <trkpt lat="48.83176" lon="2.34778">
        <ele>44.400001525879</ele>
        <time>2016-05-23T19:43:00.000Z</time>
      </trkpt>
      <trkpt lat="48.83175" lon="2.3474">
        <ele>47</ele>
        <time>2016-05-23T19:43:08.000Z</time>
      </trkpt>
      <trkpt lat="48.83203" lon="2.34716">
        <ele>47.200000762939</ele>
        <time>2016-05-23T19:43:13.000Z</time>
      </trkpt>
      <trkpt lat="48.83216" lon="2.34711">
        <ele>47</ele>
        <time>2016-05-23T19:43:15.000Z</time>
      </trkpt>
      <trkpt lat="48.83236" lon="2.34708">
        <ele>46.400001525879</ele>
        <time>2016-05-23T19:43:18.000Z</time>
      </trkpt>
      <trkpt lat="48.83242" lon="2.34705">
        <ele>46.599998474121</ele>
        <time>2016-05-23T19:43:19.000Z</time>
      </trkpt>
      <trkpt lat="48.83257" lon="2.34704">
        <ele>46.599998474121</ele>
        <time>2016-05-23T19:43:22.000Z</time>
      </trkpt>
      <trkpt lat="48.83262" lon="2.34699">
        <ele>47</ele>
        <time>2016-05-23T19:43:27.000Z</time>
      </trkpt>
      <trkpt lat="48.83277" lon="2.34693">
        <ele>47.200000762939</ele>
        <time>2016-05-23T19:43:46.000Z</time>
      </trkpt>
      <trkpt lat="48.83286" lon="2.34689">
        <ele>47.200000762939</ele>
        <time>2016-05-23T19:43:52.000Z</time>
      </trkpt>
      <trkpt lat="48.83284" lon="2.34682">
        <ele>47.599998474121</ele>
        <time>2016-05-23T19:43:56.000Z</time>
      </trkpt>
      <trkpt lat="48.8328" lon="2.34653">
        <ele>48.400001525879</ele>
        <time>2016-05-23T19:44:10.000Z</time>
      </trkpt>
      <trkpt lat="48.83295" lon="2.34645">
        <ele>47.400001525879</ele>
        <time>2016-05-23T19:44:17.000Z</time>
      </trkpt>
      <trkpt lat="48.83312" lon="2.34637">
        <ele>46.200000762939</ele>
        <time>2016-05-23T19:44:22.000Z</time>
      </trkpt>
      <trkpt lat="48.83326" lon="2.34614">
        <ele>46.400001525879</ele>
        <time>2016-05-23T19:44:24.000Z</time>
      </trkpt>
      <trkpt lat="48.83345" lon="2.34605">
        <ele>46.799999237061</ele>
        <time>2016-05-23T19:44:28.000Z</time>
      </trkpt>
      <trkpt lat="48.83359" lon="2.34593">
        <ele>47.400001525879</ele>
        <time>2016-05-23T19:44:37.000Z</time>
      </trkpt>
      <trkpt lat="48.8338" lon="2.34597">
        <ele>47.200000762939</ele>
        <time>2016-05-23T19:44:41.000Z</time>
      </trkpt>
      <trkpt lat="48.83387" lon="2.34599">
        <ele>47</ele>
        <time>2016-05-23T19:44:42.000Z</time>
      </trkpt>
      <trkpt lat="48.83406" lon="2.34601">
        <ele>46.599998474121</ele>
        <time>2016-05-23T19:44:45.000Z</time>
      </trkpt>
      <trkpt lat="48.8343" lon="2.34606">
        <ele>46.200000762939</ele>
        <time>2016-05-23T19:44:48.000Z</time>
      </trkpt>
      <trkpt lat="48.83451" lon="2.3461">
        <ele>46.400001525879</ele>
        <time>2016-05-23T19:44:50.000Z</time>
      </trkpt>
      <trkpt lat="48.83471" lon="2.34615">
        <ele>47</ele>
        <time>2016-05-23T19:44:53.000Z</time>
      </trkpt>
      <trkpt lat="48.83477" lon="2.34616">
        <ele>47.200000762939</ele>
        <time>2016-05-23T19:44:55.000Z</time>
      </trkpt>
      <trkpt lat="48.83481" lon="2.34617">
        <ele>47.200000762939</ele>
        <time>2016-05-23T19:44:57.000Z</time>
      </trkpt>
      <trkpt lat="48.83489" lon="2.34619">
        <ele>47.599998474121</ele>
        <time>2016-05-23T19:45:02.000Z</time>
      </trkpt>
      <trkpt lat="48.83492" lon="2.3462">
        <ele>47.599998474121</ele>
        <time>2016-05-23T19:45:03.000Z</time>
      </trkpt>
      <trkpt lat="48.83499" lon="2.34624">
        <ele>47.799999237061</ele>
        <time>2016-05-23T19:45:07.000Z</time>
      </trkpt>
      <trkpt lat="48.83516" lon="2.3464">
        <ele>47.799999237061</ele>
        <time>2016-05-23T19:45:15.000Z</time>
      </trkpt>
      <trkpt lat="48.83536" lon="2.34649">
        <ele>47.799999237061</ele>
        <time>2016-05-23T19:45:22.000Z</time>
      </trkpt>
      <trkpt lat="48.83554" lon="2.34654">
        <ele>47.400001525879</ele>
        <time>2016-05-23T19:45:27.000Z</time>
      </trkpt>
      <trkpt lat="48.83577" lon="2.34655">
        <ele>47.400001525879</ele>
        <time>2016-05-23T19:45:33.000Z</time>
      </trkpt>
      <trkpt lat="48.83598" lon="2.34653">
        <ele>47.400001525879</ele>
        <time>2016-05-23T19:45:38.000Z</time>
      </trkpt>
      <trkpt lat="48.83615" lon="2.3464">
        <ele>47.599998474121</ele>
        <time>2016-05-23T19:45:42.000Z</time>
      </trkpt>
      <trkpt lat="48.83627" lon="2.34611">
        <ele>48.200000762939</ele>
        <time>2016-05-23T19:45:47.000Z</time>
      </trkpt>
      <trkpt lat="48.83632" lon="2.34582">
        <ele>47.799999237061</ele>
        <time>2016-05-23T19:45:51.000Z</time>
      </trkpt>
      <trkpt lat="48.83643" lon="2.34559">
        <ele>47.400001525879</ele>
        <time>2016-05-23T19:45:55.000Z</time>
      </trkpt>
      <trkpt lat="48.83648" lon="2.34549">
        <ele>47.400001525879</ele>
        <time>2016-05-23T19:45:58.000Z</time>
      </trkpt>
      <trkpt lat="48.83653" lon="2.34539">
        <ele>47.599998474121</ele>
        <time>2016-05-23T19:46:01.000Z</time>
      </trkpt>
      <trkpt lat="48.83663" lon="2.34533">
        <ele>48.400001525879</ele>
        <time>2016-05-23T19:46:06.000Z</time>
      </trkpt>
      <trkpt lat="48.83682" lon="2.34535">
        <ele>48.599998474121</ele>
        <time>2016-05-23T19:46:15.000Z</time>
      </trkpt>
      <trkpt lat="48.83704" lon="2.34536">
        <ele>49.400001525879</ele>
        <time>2016-05-23T19:46:21.000Z</time>
      </trkpt>
      <trkpt lat="48.83724" lon="2.34539">
        <ele>50.200000762939</ele>
        <time>2016-05-23T19:46:26.000Z</time>
      </trkpt>
      <trkpt lat="48.83742" lon="2.34543">
        <ele>50.400001525879</ele>
        <time>2016-05-23T19:46:31.000Z</time>
      </trkpt>
      <trkpt lat="48.8376" lon="2.34546">
        <ele>50.599998474121</ele>
        <time>2016-05-23T19:46:40.000Z</time>
      </trkpt>
      <trkpt lat="48.83781" lon="2.34543">
        <ele>51.200000762939</ele>
        <time>2016-05-23T19:46:47.000Z</time>
      </trkpt>
      <trkpt lat="48.83803" lon="2.34551">
        <ele>52</ele>
        <time>2016-05-23T19:46:52.000Z</time>
      </trkpt>
      <trkpt lat="48.83824" lon="2.34559">
        <ele>52.599998474121</ele>
        <time>2016-05-23T19:46:56.000Z</time>
      </trkpt>
      <trkpt lat="48.83846" lon="2.34565">
        <ele>52.799999237061</ele>
        <time>2016-05-23T19:47:00.000Z</time>
      </trkpt>
      <trkpt lat="48.83868" lon="2.3457">
        <ele>52.799999237061</ele>
        <time>2016-05-23T19:47:04.000Z</time>
      </trkpt>
      <trkpt lat="48.83891" lon="2.34573">
        <ele>52.799999237061</ele>
        <time>2016-05-23T19:47:08.000Z</time>
      </trkpt>
      <trkpt lat="48.83911" lon="2.34578">
        <ele>53</ele>
        <time>2016-05-23T19:47:11.000Z</time>
      </trkpt>
      <trkpt lat="48.83932" lon="2.34583">
        <ele>52.799999237061</ele>
        <time>2016-05-23T19:47:14.000Z</time>
      </trkpt>
      <trkpt lat="48.83953" lon="2.34594">
        <ele>53.200000762939</ele>
        <time>2016-05-23T19:47:17.000Z</time>
      </trkpt>
      <trkpt lat="48.83975" lon="2.34598">
        <ele>53.799999237061</ele>
        <time>2016-05-23T19:47:20.000Z</time>
      </trkpt>
      <trkpt lat="48.8399" lon="2.34599">
        <ele>54.400001525879</ele>
        <time>2016-05-23T19:47:22.000Z</time>
      </trkpt>
      <trkpt lat="48.84013" lon="2.34595">
        <ele>55.400001525879</ele>
        <time>2016-05-23T19:47:26.000Z</time>
      </trkpt>
      <trkpt lat="48.84028" lon="2.34605">
        <ele>55.599998474121</ele>
        <time>2016-05-23T19:47:30.000Z</time>
      </trkpt>
      <trkpt lat="48.84031" lon="2.34606">
        <ele>55.599998474121</ele>
        <time>2016-05-23T19:47:32.000Z</time>
      </trkpt>
      <trkpt lat="48.8403" lon="2.34608">
        <ele>55.599998474121</ele>
        <time>2016-05-23T19:47:54.000Z</time>
      </trkpt>
      <trkpt lat="48.84033" lon="2.34616">
        <ele>55.599998474121</ele>
        <time>2016-05-23T19:47:59.000Z</time>
      </trkpt>
      <trkpt lat="48.84044" lon="2.34639">
        <ele>55.400001525879</ele>
        <time>2016-05-23T19:48:06.000Z</time>
      </trkpt>
      <trkpt lat="48.84049" lon="2.3467">
        <ele>55</ele>
        <time>2016-05-23T19:48:13.000Z</time>
      </trkpt>
      <trkpt lat="48.84046" lon="2.34704">
        <ele>54.799999237061</ele>
        <time>2016-05-23T19:48:22.000Z</time>
      </trkpt>
      <trkpt lat="48.84152" lon="2.34815">
        <ele>57</ele>
        <time>2016-05-23T19:48:43.000Z</time>
      </trkpt>
      <trkpt lat="48.84152" lon="2.34817">
        <ele>57</ele>
        <time>2016-05-23T19:48:44.000Z</time>
      </trkpt>
      <trkpt lat="48.84162" lon="2.34813">
        <ele>57.400001525879</ele>
        <time>2016-05-23T19:48:53.000Z</time>
      </trkpt>
      <trkpt lat="48.84164" lon="2.34813">
        <ele>57.599998474121</ele>
        <time>2016-05-23T19:48:54.000Z</time>
      </trkpt>
      <trkpt lat="48.84169" lon="2.34814">
        <ele>57.599998474121</ele>
        <time>2016-05-23T19:48:58.000Z</time>
      </trkpt>
      <trkpt lat="48.8418" lon="2.34814">
        <ele>57.799999237061</ele>
        <time>2016-05-23T19:49:06.000Z</time>
      </trkpt>
      <trkpt lat="48.84199" lon="2.34814">
        <ele>58.400001525879</ele>
        <time>2016-05-23T19:49:13.000Z</time>
      </trkpt>
      <trkpt lat="48.84217" lon="2.34813">
        <ele>59.400001525879</ele>
        <time>2016-05-23T19:49:20.000Z</time>
      </trkpt>
      <trkpt lat="48.84229" lon="2.34813">
        <ele>60</ele>
        <time>2016-05-23T19:49:26.000Z</time>
      </trkpt>
      <trkpt lat="48.84246" lon="2.34809">
        <ele>60.799999237061</ele>
        <time>2016-05-23T19:49:33.000Z</time>
      </trkpt>
      <trkpt lat="48.84259" lon="2.34815">
        <ele>61.400001525879</ele>
        <time>2016-05-23T19:49:44.000Z</time>
      </trkpt>
      <trkpt lat="48.84262" lon="2.34812">
        <ele>61.599998474121</ele>
        <time>2016-05-23T19:49:47.000Z</time>
      </trkpt>
      <trkpt lat="48.84275" lon="2.34802">
        <ele>62.400001525879</ele>
        <time>2016-05-23T19:50:03.000Z</time>
      </trkpt>
      <trkpt lat="48.84268" lon="2.34773">
        <ele>62.400001525879</ele>
        <time>2016-05-23T19:50:11.000Z</time>
      </trkpt>
      <trkpt lat="48.84263" lon="2.34743">
        <ele>62.200000762939</ele>
        <time>2016-05-23T19:50:19.000Z</time>
      </trkpt>
      <trkpt lat="48.84254" lon="2.34727">
        <ele>60.799999237061</ele>
        <time>2016-05-23T19:50:29.000Z</time>
      </trkpt>
      <trkpt lat="48.84256" lon="2.34726">
        <ele>61</ele>
        <time>2016-05-23T19:50:33.000Z</time>
      </trkpt>
      <trkpt lat="48.84246" lon="2.34708">
        <ele>59.400001525879</ele>
        <time>2016-05-23T19:50:39.000Z</time>
      </trkpt>
      <trkpt lat="48.84237" lon="2.34684">
        <ele>57.400001525879</ele>
        <time>2016-05-23T19:50:43.000Z</time>
      </trkpt>
      <trkpt lat="48.8423" lon="2.34656">
        <ele>56.200000762939</ele>
        <time>2016-05-23T19:50:49.000Z</time>
      </trkpt>
      <trkpt lat="48.84226" lon="2.34628">
        <ele>56.599998474121</ele>
        <time>2016-05-23T19:50:55.000Z</time>
      </trkpt>
      <trkpt lat="48.84213" lon="2.34603">
        <ele>56.599998474121</ele>
        <time>2016-05-23T19:51:04.000Z</time>
      </trkpt>
      <trkpt lat="48.84193" lon="2.34587">
        <ele>56</ele>
        <time>2016-05-23T19:51:10.000Z</time>
      </trkpt>
      <trkpt lat="48.84173" lon="2.34573">
        <ele>56.200000762939</ele>
        <time>2016-05-23T19:51:15.000Z</time>
      </trkpt>
      <trkpt lat="48.84155" lon="2.34572">
        <ele>56.799999237061</ele>
        <time>2016-05-23T19:51:19.000Z</time>
      </trkpt>
      <trkpt lat="48.84134" lon="2.34569">
        <ele>57.200000762939</ele>
        <time>2016-05-23T19:51:24.000Z</time>
      </trkpt>
      <trkpt lat="48.84115" lon="2.34558">
        <ele>57.599998474121</ele>
        <time>2016-05-23T19:51:29.000Z</time>
      </trkpt>
      <trkpt lat="48.84095" lon="2.34547">
        <ele>57.200000762939</ele>
        <time>2016-05-23T19:51:33.000Z</time>
      </trkpt>
      <trkpt lat="48.84079" lon="2.34534">
        <ele>56.200000762939</ele>
        <time>2016-05-23T19:51:38.000Z</time>
      </trkpt>
      <trkpt lat="48.84076" lon="2.3453">
        <ele>56</ele>
        <time>2016-05-23T19:51:40.000Z</time>
      </trkpt>
      <trkpt lat="48.84079" lon="2.3452">
        <ele>56</ele>
        <time>2016-05-23T19:51:44.000Z</time>
      </trkpt>
      <trkpt lat="48.8409" lon="2.34521">
        <ele>56.599998474121</ele>
        <time>2016-05-23T19:51:51.000Z</time>
      </trkpt>
      <trkpt lat="48.8409" lon="2.34496">
        <ele>56.200000762939</ele>
        <time>2016-05-23T19:52:16.000Z</time>
      </trkpt>
      <trkpt lat="48.841" lon="2.34467">
        <ele>57</ele>
        <time>2016-05-23T19:52:22.000Z</time>
      </trkpt>
      <trkpt lat="48.84106" lon="2.34439">
        <ele>57.599998474121</ele>
        <time>2016-05-23T19:52:27.000Z</time>
      </trkpt>
      <trkpt lat="48.84111" lon="2.34411">
        <ele>58.200000762939</ele>
        <time>2016-05-23T19:52:32.000Z</time>
      </trkpt>
      <trkpt lat="48.84122" lon="2.34386">
        <ele>58.799999237061</ele>
        <time>2016-05-23T19:52:37.000Z</time>
      </trkpt>
      <trkpt lat="48.84132" lon="2.34363">
        <ele>59.200000762939</ele>
        <time>2016-05-23T19:52:42.000Z</time>
      </trkpt>
      <trkpt lat="48.84146" lon="2.3434">
        <ele>59.799999237061</ele>
        <time>2016-05-23T19:52:48.000Z</time>
      </trkpt>
      <trkpt lat="48.84155" lon="2.34338">
        <ele>60.200000762939</ele>
        <time>2016-05-23T19:52:50.000Z</time>
      </trkpt>
      <trkpt lat="48.84174" lon="2.34328">
        <ele>60.799999237061</ele>
        <time>2016-05-23T19:52:55.000Z</time>
      </trkpt>
      <trkpt lat="48.84191" lon="2.3432">
        <ele>61.200000762939</ele>
        <time>2016-05-23T19:53:00.000Z</time>
      </trkpt>
      <trkpt lat="48.84209" lon="2.34314">
        <ele>61.400001525879</ele>
        <time>2016-05-23T19:53:05.000Z</time>
      </trkpt>
      <trkpt lat="48.84226" lon="2.34303">
        <ele>61.799999237061</ele>
        <time>2016-05-23T19:53:11.000Z</time>
      </trkpt>
      <trkpt lat="48.84244" lon="2.34293">
        <ele>62.200000762939</ele>
        <time>2016-05-23T19:53:20.000Z</time>
      </trkpt>
      <trkpt lat="48.84258" lon="2.34289">
        <ele>62.599998474121</ele>
        <time>2016-05-23T19:53:27.000Z</time>
      </trkpt>
      <trkpt lat="48.84268" lon="2.34265">
        <ele>63.400001525879</ele>
        <time>2016-05-23T19:53:41.000Z</time>
      </trkpt>
      <trkpt lat="48.84271" lon="2.34237">
        <ele>64</ele>
        <time>2016-05-23T19:53:46.000Z</time>
      </trkpt>
      <trkpt lat="48.84272" lon="2.34206">
        <ele>64.400001525879</ele>
        <time>2016-05-23T19:53:51.000Z</time>
      </trkpt>
      <trkpt lat="48.84271" lon="2.34176">
        <ele>64.800003051758</ele>
        <time>2016-05-23T19:53:56.000Z</time>
      </trkpt>
      <trkpt lat="48.8428" lon="2.34152">
        <ele>64.400001525879</ele>
        <time>2016-05-23T19:54:01.000Z</time>
      </trkpt>
      <trkpt lat="48.84283" lon="2.34147">
        <ele>64.199996948242</ele>
        <time>2016-05-23T19:54:05.000Z</time>
      </trkpt>
      <trkpt lat="48.84266" lon="2.34143">
        <ele>64.599998474121</ele>
        <time>2016-05-23T19:54:17.000Z</time>
      </trkpt>
      <trkpt lat="48.84245" lon="2.34139">
        <ele>64.599998474121</ele>
        <time>2016-05-23T19:54:22.000Z</time>
      </trkpt>
      <trkpt lat="48.84226" lon="2.34139">
        <ele>64</ele>
        <time>2016-05-23T19:54:28.000Z</time>
      </trkpt>
      <trkpt lat="48.8422" lon="2.34141">
        <ele>63.599998474121</ele>
        <time>2016-05-23T19:54:32.000Z</time>
      </trkpt>
      <trkpt lat="48.8423" lon="2.34113">
        <ele>64.199996948242</ele>
        <time>2016-05-23T19:54:44.000Z</time>
      </trkpt>
      <trkpt lat="48.84239" lon="2.34089">
        <ele>63.599998474121</ele>
        <time>2016-05-23T19:54:55.000Z</time>
      </trkpt>
      <trkpt lat="48.84235" lon="2.34079">
        <ele>63.400001525879</ele>
        <time>2016-05-23T19:55:01.000Z</time>
      </trkpt>
      <trkpt lat="48.84237" lon="2.34074">
        <ele>63.599998474121</ele>
        <time>2016-05-23T19:55:06.000Z</time>
      </trkpt>
      <trkpt lat="48.84237" lon="2.34075">
        <ele>63.400001525879</ele>
        <time>2016-05-23T19:55:07.000Z</time>
      </trkpt>
      <trkpt lat="48.84233" lon="2.34071">
        <ele>63.599998474121</ele>
        <time>2016-05-23T19:55:10.000Z</time>
      </trkpt>
      <trkpt lat="48.84209" lon="2.34058">
        <ele>64</ele>
        <time>2016-05-23T19:55:13.000Z</time>
      </trkpt>
      <trkpt lat="48.84192" lon="2.34049">
        <ele>64.400001525879</ele>
        <time>2016-05-23T19:55:16.000Z</time>
      </trkpt>
      <trkpt lat="48.84188" lon="2.34048">
        <ele>64.400001525879</ele>
        <time>2016-05-23T19:55:17.000Z</time>
      </trkpt>
      <trkpt lat="48.84169" lon="2.34037">
        <ele>64.199996948242</ele>
        <time>2016-05-23T19:55:22.000Z</time>
      </trkpt>
      <trkpt lat="48.84149" lon="2.34025">
        <ele>64.199996948242</ele>
        <time>2016-05-23T19:55:27.000Z</time>
      </trkpt>
      <trkpt lat="48.8413" lon="2.34013">
        <ele>64</ele>
        <time>2016-05-23T19:55:32.000Z</time>
      </trkpt>
      <trkpt lat="48.84129" lon="2.34008">
        <ele>64.199996948242</ele>
        <time>2016-05-23T19:55:36.000Z</time>
      </trkpt>
      <trkpt lat="48.84128" lon="2.33969">
        <ele>64.199996948242</ele>
        <time>2016-05-23T19:55:41.000Z</time>
      </trkpt>
      <trkpt lat="48.84128" lon="2.33963">
        <ele>64.199996948242</ele>
        <time>2016-05-23T19:55:42.000Z</time>
      </trkpt>
      <trkpt lat="48.8413" lon="2.33935">
        <ele>64.199996948242</ele>
        <time>2016-05-23T19:55:47.000Z</time>
      </trkpt>
      <trkpt lat="48.84136" lon="2.33913">
        <ele>64</ele>
        <time>2016-05-23T19:55:51.000Z</time>
      </trkpt>
      <trkpt lat="48.84138" lon="2.33886">
        <ele>64</ele>
        <time>2016-05-23T19:55:55.000Z</time>
      </trkpt>
      <trkpt lat="48.84139" lon="2.3388">
        <ele>64</ele>
        <time>2016-05-23T19:55:56.000Z</time>
      </trkpt>
      <trkpt lat="48.84144" lon="2.33858">
        <ele>64.199996948242</ele>
        <time>2016-05-23T19:56:00.000Z</time>
      </trkpt>
      <trkpt lat="48.84147" lon="2.33826">
        <ele>64.800003051758</ele>
        <time>2016-05-23T19:56:05.000Z</time>
      </trkpt>
      <trkpt lat="48.8415" lon="2.33799">
        <ele>64</ele>
        <time>2016-05-23T19:56:12.000Z</time>
      </trkpt>
      <trkpt lat="48.84168" lon="2.33787">
        <ele>64.199996948242</ele>
        <time>2016-05-23T19:56:20.000Z</time>
      </trkpt>
      <trkpt lat="48.84176" lon="2.33781">
        <ele>64.400001525879</ele>
        <time>2016-05-23T19:56:26.000Z</time>
      </trkpt>
      <trkpt lat="48.84175" lon="2.33778">
        <ele>64.199996948242</ele>
        <time>2016-05-23T19:56:27.000Z</time>
      </trkpt>
      <trkpt lat="48.8418" lon="2.33749">
        <ele>63.799999237061</ele>
        <time>2016-05-23T19:56:43.000Z</time>
      </trkpt>
      <trkpt lat="48.842" lon="2.33749">
        <ele>63.799999237061</ele>
        <time>2016-05-23T19:56:50.000Z</time>
      </trkpt>
      <trkpt lat="48.84218" lon="2.33754">
        <ele>63.200000762939</ele>
        <time>2016-05-23T19:56:55.000Z</time>
      </trkpt>
      <trkpt lat="48.8423" lon="2.33759">
        <ele>62.799999237061</ele>
        <time>2016-05-23T19:56:58.000Z</time>
      </trkpt>
      <trkpt lat="48.84251" lon="2.33759">
        <ele>62.400001525879</ele>
        <time>2016-05-23T19:57:04.000Z</time>
      </trkpt>
      <trkpt lat="48.84252" lon="2.33747">
        <ele>62.400001525879</ele>
        <time>2016-05-23T19:57:05.000Z</time>
      </trkpt>
      <trkpt lat="48.84254" lon="2.33715">
        <ele>61</ele>
        <time>2016-05-23T19:57:10.000Z</time>
      </trkpt>
      <trkpt lat="48.84252" lon="2.3369">
        <ele>60.200000762939</ele>
        <time>2016-05-23T19:57:13.000Z</time>
      </trkpt>
      <trkpt lat="48.84249" lon="2.33662">
        <ele>59.400001525879</ele>
        <time>2016-05-23T19:57:17.000Z</time>
      </trkpt>
      <trkpt lat="48.84248" lon="2.33632">
        <ele>60.599998474121</ele>
        <time>2016-05-23T19:57:22.000Z</time>
      </trkpt>
      <trkpt lat="48.84252" lon="2.33603">
        <ele>61.200000762939</ele>
        <time>2016-05-23T19:57:28.000Z</time>
      </trkpt>
      <trkpt lat="48.84261" lon="2.33574">
        <ele>61.400001525879</ele>
        <time>2016-05-23T19:57:35.000Z</time>
      </trkpt>
      <trkpt lat="48.84273" lon="2.33548">
        <ele>60.599998474121</ele>
        <time>2016-05-23T19:57:42.000Z</time>
      </trkpt>
      <trkpt lat="48.84286" lon="2.33525">
        <ele>59.200000762939</ele>
        <time>2016-05-23T19:57:48.000Z</time>
      </trkpt>
      <trkpt lat="48.8427" lon="2.33496">
        <ele>60</ele>
        <time>2016-05-23T19:57:52.000Z</time>
      </trkpt>
      <trkpt lat="48.84268" lon="2.33467">
        <ele>60</ele>
        <time>2016-05-23T19:57:59.000Z</time>
      </trkpt>
      <trkpt lat="48.84271" lon="2.33462">
        <ele>60</ele>
        <time>2016-05-23T19:58:00.000Z</time>
      </trkpt>
      <trkpt lat="48.84285" lon="2.33436">
        <ele>59.200000762939</ele>
        <time>2016-05-23T19:58:06.000Z</time>
      </trkpt>
      <trkpt lat="48.84297" lon="2.33414">
        <ele>58.200000762939</ele>
        <time>2016-05-23T19:58:12.000Z</time>
      </trkpt>
      <trkpt lat="48.84316" lon="2.33406">
        <ele>57</ele>
        <time>2016-05-23T19:58:16.000Z</time>
      </trkpt>
      <trkpt lat="48.84338" lon="2.33394">
        <ele>55.599998474121</ele>
        <time>2016-05-23T19:58:22.000Z</time>
      </trkpt>
      <trkpt lat="48.84355" lon="2.3337">
        <ele>54</ele>
        <time>2016-05-23T19:58:28.000Z</time>
      </trkpt>
      <trkpt lat="48.84374" lon="2.33347">
        <ele>53.799999237061</ele>
        <time>2016-05-23T19:58:33.000Z</time>
      </trkpt>
      <trkpt lat="48.84395" lon="2.33328">
        <ele>53.599998474121</ele>
        <time>2016-05-23T19:58:38.000Z</time>
      </trkpt>
      <trkpt lat="48.84414" lon="2.33318">
        <ele>53.400001525879</ele>
        <time>2016-05-23T19:58:41.000Z</time>
      </trkpt>
      <trkpt lat="48.84424" lon="2.33311">
        <ele>53.400001525879</ele>
        <time>2016-05-23T19:58:43.000Z</time>
      </trkpt>
      <trkpt lat="48.84442" lon="2.33299">
        <ele>53.799999237061</ele>
        <time>2016-05-23T19:58:46.000Z</time>
      </trkpt>
      <trkpt lat="48.8446" lon="2.33277">
        <ele>54</ele>
        <time>2016-05-23T19:58:51.000Z</time>
      </trkpt>
      <trkpt lat="48.84478" lon="2.33265">
        <ele>53.400001525879</ele>
        <time>2016-05-23T19:58:55.000Z</time>
      </trkpt>
      <trkpt lat="48.84497" lon="2.33249">
        <ele>52.200000762939</ele>
        <time>2016-05-23T19:59:01.000Z</time>
      </trkpt>
      <trkpt lat="48.8451" lon="2.3325">
        <ele>51.599998474121</ele>
        <time>2016-05-23T19:59:02.000Z</time>
      </trkpt>
      <trkpt lat="48.8453" lon="2.3325">
        <ele>51</ele>
        <time>2016-05-23T19:59:05.000Z</time>
      </trkpt>
      <trkpt lat="48.84535" lon="2.33249">
        <ele>51.400001525879</ele>
        <time>2016-05-23T19:59:06.000Z</time>
      </trkpt>
      <trkpt lat="48.84551" lon="2.33248">
        <ele>52</ele>
        <time>2016-05-23T19:59:09.000Z</time>
      </trkpt>
      <trkpt lat="48.8457" lon="2.33249">
        <ele>52.599998474121</ele>
        <time>2016-05-23T19:59:13.000Z</time>
      </trkpt>
      <trkpt lat="48.8459" lon="2.33247">
        <ele>53.400001525879</ele>
        <time>2016-05-23T19:59:17.000Z</time>
      </trkpt>
      <trkpt lat="48.84613" lon="2.33248">
        <ele>53.799999237061</ele>
        <time>2016-05-23T19:59:21.000Z</time>
      </trkpt>
      <trkpt lat="48.84636" lon="2.33252">
        <ele>53.599998474121</ele>
        <time>2016-05-23T19:59:25.000Z</time>
      </trkpt>
      <trkpt lat="48.84658" lon="2.33253">
        <ele>53.400001525879</ele>
        <time>2016-05-23T19:59:29.000Z</time>
      </trkpt>
      <trkpt lat="48.8468" lon="2.33255">
        <ele>53.400001525879</ele>
        <time>2016-05-23T19:59:33.000Z</time>
      </trkpt>
      <trkpt lat="48.84703" lon="2.33257">
        <ele>53.200000762939</ele>
        <time>2016-05-23T19:59:37.000Z</time>
      </trkpt>
      <trkpt lat="48.84727" lon="2.33259">
        <ele>52.400001525879</ele>
        <time>2016-05-23T19:59:41.000Z</time>
      </trkpt>
      <trkpt lat="48.84746" lon="2.33261">
        <ele>51.599998474121</ele>
        <time>2016-05-23T19:59:44.000Z</time>
      </trkpt>
      <trkpt lat="48.84764" lon="2.33261">
        <ele>51</ele>
        <time>2016-05-23T19:59:47.000Z</time>
      </trkpt>
      <trkpt lat="48.84783" lon="2.33263">
        <ele>50.799999237061</ele>
        <time>2016-05-23T19:59:50.000Z</time>
      </trkpt>
      <trkpt lat="48.84806" lon="2.33263">
        <ele>51.200000762939</ele>
        <time>2016-05-23T19:59:54.000Z</time>
      </trkpt>
      <trkpt lat="48.84827" lon="2.33264">
        <ele>51.400001525879</ele>
        <time>2016-05-23T19:59:58.000Z</time>
      </trkpt>
      <trkpt lat="48.84837" lon="2.33265">
        <ele>51.599998474121</ele>
        <time>2016-05-23T20:00:00.000Z</time>
      </trkpt>
      <trkpt lat="48.84852" lon="2.33268">
        <ele>51.799999237061</ele>
        <time>2016-05-23T20:00:04.000Z</time>
      </trkpt>
      <trkpt lat="48.84862" lon="2.33279">
        <ele>51.599998474121</ele>
        <time>2016-05-23T20:00:08.000Z</time>
      </trkpt>
      <trkpt lat="48.84866" lon="2.33283">
        <ele>51.599998474121</ele>
        <time>2016-05-23T20:00:10.000Z</time>
      </trkpt>
      <trkpt lat="48.84871" lon="2.33288">
        <ele>51.599998474121</ele>
        <time>2016-05-23T20:00:12.000Z</time>
      </trkpt>
      <trkpt lat="48.84876" lon="2.33291">
        <ele>51.799999237061</ele>
        <time>2016-05-23T20:00:16.000Z</time>
      </trkpt>
      <trkpt lat="48.84885" lon="2.33291">
        <ele>51.799999237061</ele>
        <time>2016-05-23T20:00:45.000Z</time>
      </trkpt>
      <trkpt lat="48.84897" lon="2.33284">
        <ele>52.200000762939</ele>
        <time>2016-05-23T20:01:12.000Z</time>
      </trkpt>
      <trkpt lat="48.8491" lon="2.33278">
        <ele>52.599998474121</ele>
        <time>2016-05-23T20:01:23.000Z</time>
      </trkpt>
      <trkpt lat="48.84926" lon="2.33285">
        <ele>52.799999237061</ele>
        <time>2016-05-23T20:01:43.000Z</time>
      </trkpt>
      <trkpt lat="48.84927" lon="2.33287">
        <ele>52.799999237061</ele>
        <time>2016-05-23T20:01:44.000Z</time>
      </trkpt>
      <trkpt lat="48.84928" lon="2.33288">
        <ele>52.799999237061</ele>
        <time>2016-05-23T20:01:49.000Z</time>
      </trkpt>
      <trkpt lat="48.84923" lon="2.33276">
        <ele>53</ele>
        <time>2016-05-23T20:02:05.000Z</time>
      </trkpt>
      <trkpt lat="48.84945" lon="2.33277">
        <ele>53</ele>
        <time>2016-05-23T20:02:12.000Z</time>
      </trkpt>
      <trkpt lat="48.84964" lon="2.33276">
        <ele>52</ele>
        <time>2016-05-23T20:02:17.000Z</time>
      </trkpt>
      <trkpt lat="48.84985" lon="2.3328">
        <ele>51.200000762939</ele>
        <time>2016-05-23T20:02:23.000Z</time>
      </trkpt>
      <trkpt lat="48.85005" lon="2.33283">
        <ele>50.400001525879</ele>
        <time>2016-05-23T20:02:28.000Z</time>
      </trkpt>
      <trkpt lat="48.85024" lon="2.33291">
        <ele>49.400001525879</ele>
        <time>2016-05-23T20:02:34.000Z</time>
      </trkpt>
      <trkpt lat="48.85041" lon="2.33303">
        <ele>49</ele>
        <time>2016-05-23T20:02:43.000Z</time>
      </trkpt>
      <trkpt lat="48.85041" lon="2.33333">
        <ele>48.200000762939</ele>
        <time>2016-05-23T20:02:51.000Z</time>
      </trkpt>
      <trkpt lat="48.85037" lon="2.33361">
        <ele>48.400001525879</ele>
        <time>2016-05-23T20:02:55.000Z</time>
      </trkpt>
      <trkpt lat="48.85032" lon="2.33391">
        <ele>47.799999237061</ele>
        <time>2016-05-23T20:03:00.000Z</time>
      </trkpt>
      <trkpt lat="48.85039" lon="2.33405">
        <ele>48</ele>
        <time>2016-05-23T20:03:03.000Z</time>
      </trkpt>
      <trkpt lat="48.8505" lon="2.33431">
        <ele>49.200000762939</ele>
        <time>2016-05-23T20:03:10.000Z</time>
      </trkpt>
      <trkpt lat="48.8505" lon="2.33445">
        <ele>49.799999237061</ele>
        <time>2016-05-23T20:03:13.000Z</time>
      </trkpt>
      <trkpt lat="48.85061" lon="2.33468">
        <ele>51.599998474121</ele>
        <time>2016-05-23T20:03:18.000Z</time>
      </trkpt>
      <trkpt lat="48.85064" lon="2.33495">
        <ele>53.400001525879</ele>
        <time>2016-05-23T20:03:23.000Z</time>
      </trkpt>
      <trkpt lat="48.85072" lon="2.33508">
        <ele>53</ele>
        <time>2016-05-23T20:03:26.000Z</time>
      </trkpt>
      <trkpt lat="48.85083" lon="2.33532">
        <ele>51.599998474121</ele>
        <time>2016-05-23T20:03:33.000Z</time>
      </trkpt>
      <trkpt lat="48.85085" lon="2.33566">
        <ele>49.599998474121</ele>
        <time>2016-05-23T20:03:41.000Z</time>
      </trkpt>
      <trkpt lat="48.85101" lon="2.33578">
        <ele>49.200000762939</ele>
        <time>2016-05-23T20:03:46.000Z</time>
      </trkpt>
      <trkpt lat="48.8512" lon="2.33584">
        <ele>48.799999237061</ele>
        <time>2016-05-23T20:03:52.000Z</time>
      </trkpt>
      <trkpt lat="48.85124" lon="2.33566">
        <ele>49.799999237061</ele>
        <time>2016-05-23T20:04:10.000Z</time>
      </trkpt>
      <trkpt lat="48.85128" lon="2.33538">
        <ele>51.799999237061</ele>
        <time>2016-05-23T20:04:17.000Z</time>
      </trkpt>
      <trkpt lat="48.85134" lon="2.33532">
        <ele>52.200000762939</ele>
        <time>2016-05-23T20:04:22.000Z</time>
      </trkpt>
      <trkpt lat="48.85153" lon="2.33529">
        <ele>51.400001525879</ele>
        <time>2016-05-23T20:04:28.000Z</time>
      </trkpt>
      <trkpt lat="48.85174" lon="2.33529">
        <ele>50.200000762939</ele>
        <time>2016-05-23T20:04:31.000Z</time>
      </trkpt>
      <trkpt lat="48.85182" lon="2.33513">
        <ele>50</ele>
        <time>2016-05-23T20:04:35.000Z</time>
      </trkpt>
      <trkpt lat="48.85186" lon="2.33482">
        <ele>50</ele>
        <time>2016-05-23T20:04:41.000Z</time>
      </trkpt>
      <trkpt lat="48.8519" lon="2.33454">
        <ele>49.400001525879</ele>
        <time>2016-05-23T20:04:46.000Z</time>
      </trkpt>
      <trkpt lat="48.85194" lon="2.33425">
        <ele>49</ele>
        <time>2016-05-23T20:04:52.000Z</time>
      </trkpt>
      <trkpt lat="48.85201" lon="2.334">
        <ele>48.599998474121</ele>
        <time>2016-05-23T20:04:58.000Z</time>
      </trkpt>
      <trkpt lat="48.85203" lon="2.33398">
        <ele>48.599998474121</ele>
        <time>2016-05-23T20:04:59.000Z</time>
      </trkpt>
      <trkpt lat="48.8519" lon="2.33382">
        <ele>48.200000762939</ele>
        <time>2016-05-23T20:05:05.000Z</time>
      </trkpt>
      <trkpt lat="48.85202" lon="2.33382">
        <ele>48.200000762939</ele>
        <time>2016-05-23T20:05:11.000Z</time>
      </trkpt>
      <trkpt lat="48.8522" lon="2.3337">
        <ele>48</ele>
        <time>2016-05-23T20:05:19.000Z</time>
      </trkpt>
      <trkpt lat="48.85239" lon="2.33361">
        <ele>48.200000762939</ele>
        <time>2016-05-23T20:05:30.000Z</time>
      </trkpt>
      <trkpt lat="48.85245" lon="2.33364">
        <ele>48.400001525879</ele>
        <time>2016-05-23T20:05:35.000Z</time>
      </trkpt>
      <trkpt lat="48.85253" lon="2.33381">
        <ele>48.599998474121</ele>
        <time>2016-05-23T20:05:43.000Z</time>
      </trkpt>
      <trkpt lat="48.85261" lon="2.33358">
        <ele>48.799999237061</ele>
        <time>2016-05-23T20:05:57.000Z</time>
      </trkpt>
      <trkpt lat="48.85262" lon="2.33329">
        <ele>48.799999237061</ele>
        <time>2016-05-23T20:06:04.000Z</time>
      </trkpt>
      <trkpt lat="48.85266" lon="2.3333">
        <ele>48.799999237061</ele>
        <time>2016-05-23T20:06:05.000Z</time>
      </trkpt>
      <trkpt lat="48.85278" lon="2.33333">
        <ele>48.799999237061</ele>
        <time>2016-05-23T20:06:09.000Z</time>
      </trkpt>
      <trkpt lat="48.853" lon="2.33336">
        <ele>48.599998474121</ele>
        <time>2016-05-23T20:06:15.000Z</time>
      </trkpt>
      <trkpt lat="48.85321" lon="2.33335">
        <ele>48.400001525879</ele>
        <time>2016-05-23T20:06:20.000Z</time>
      </trkpt>
      <trkpt lat="48.8534" lon="2.33338">
        <ele>48</ele>
        <time>2016-05-23T20:06:26.000Z</time>
      </trkpt>
      <trkpt lat="48.85359" lon="2.33339">
        <ele>47.799999237061</ele>
        <time>2016-05-23T20:06:34.000Z</time>
      </trkpt>
      <trkpt lat="48.8537" lon="2.33318">
        <ele>47.599998474121</ele>
        <time>2016-05-23T20:06:45.000Z</time>
      </trkpt>
      <trkpt lat="48.8536" lon="2.33291">
        <ele>48</ele>
        <time>2016-05-23T20:06:54.000Z</time>
      </trkpt>
      <trkpt lat="48.85345" lon="2.33272">
        <ele>48.200000762939</ele>
        <time>2016-05-23T20:06:59.000Z</time>
      </trkpt>
      <trkpt lat="48.85329" lon="2.33258">
        <ele>48.400001525879</ele>
        <time>2016-05-23T20:07:03.000Z</time>
      </trkpt>
      <trkpt lat="48.85313" lon="2.33244">
        <ele>48.400001525879</ele>
        <time>2016-05-23T20:07:08.000Z</time>
      </trkpt>
      <trkpt lat="48.85307" lon="2.33212">
        <ele>47.400001525879</ele>
        <time>2016-05-23T20:07:13.000Z</time>
      </trkpt>
      <trkpt lat="48.85303" lon="2.33185">
        <ele>46.799999237061</ele>
        <time>2016-05-23T20:07:17.000Z</time>
      </trkpt>
      <trkpt lat="48.85298" lon="2.33157">
        <ele>46.599998474121</ele>
        <time>2016-05-23T20:07:23.000Z</time>
      </trkpt>
      <trkpt lat="48.85301" lon="2.33152">
        <ele>46.799999237061</ele>
        <time>2016-05-23T20:07:25.000Z</time>
      </trkpt>
      <trkpt lat="48.85319" lon="2.33134">
        <ele>47.400001525879</ele>
        <time>2016-05-23T20:07:32.000Z</time>
      </trkpt>
      <trkpt lat="48.85326" lon="2.33112">
        <ele>48.200000762939</ele>
        <time>2016-05-23T20:07:38.000Z</time>
      </trkpt>
      <trkpt lat="48.85329" lon="2.33109">
        <ele>48.400001525879</ele>
        <time>2016-05-23T20:07:40.000Z</time>
      </trkpt>
      <trkpt lat="48.85326" lon="2.33104">
        <ele>48.400001525879</ele>
        <time>2016-05-23T20:07:44.000Z</time>
      </trkpt>
      <trkpt lat="48.85323" lon="2.33095">
        <ele>48.400001525879</ele>
        <time>2016-05-23T20:07:50.000Z</time>
      </trkpt>
      <trkpt lat="48.85304" lon="2.33084">
        <ele>48</ele>
        <time>2016-05-23T20:08:08.000Z</time>
      </trkpt>
      <trkpt lat="48.85285" lon="2.33066">
        <ele>47.400001525879</ele>
        <time>2016-05-23T20:08:14.000Z</time>
      </trkpt>
      <trkpt lat="48.85267" lon="2.33049">
        <ele>47.200000762939</ele>
        <time>2016-05-23T20:08:18.000Z</time>
      </trkpt>
      <trkpt lat="48.8525" lon="2.33024">
        <ele>47.599998474121</ele>
        <time>2016-05-23T20:08:22.000Z</time>
      </trkpt>
      <trkpt lat="48.85234" lon="2.33007">
        <ele>48</ele>
        <time>2016-05-23T20:08:26.000Z</time>
      </trkpt>
      <trkpt lat="48.85219" lon="2.32991">
        <ele>48.200000762939</ele>
        <time>2016-05-23T20:08:32.000Z</time>
      </trkpt>
      <trkpt lat="48.85207" lon="2.32973">
        <ele>48</ele>
        <time>2016-05-23T20:08:44.000Z</time>
      </trkpt>
      <trkpt lat="48.85189" lon="2.32959">
        <ele>48</ele>
        <time>2016-05-23T20:08:51.000Z</time>
      </trkpt>
      <trkpt lat="48.85172" lon="2.32942">
        <ele>47.799999237061</ele>
        <time>2016-05-23T20:08:56.000Z</time>
      </trkpt>
      <trkpt lat="48.85156" lon="2.32923">
        <ele>47.599998474121</ele>
        <time>2016-05-23T20:09:00.000Z</time>
      </trkpt>
      <trkpt lat="48.85142" lon="2.32907">
        <ele>47.400001525879</ele>
        <time>2016-05-23T20:09:03.000Z</time>
      </trkpt>
      <trkpt lat="48.85129" lon="2.32883">
        <ele>47.400001525879</ele>
        <time>2016-05-23T20:09:07.000Z</time>
      </trkpt>
      <trkpt lat="48.85115" lon="2.32861">
        <ele>47.200000762939</ele>
        <time>2016-05-23T20:09:10.000Z</time>
      </trkpt>
      <trkpt lat="48.85102" lon="2.32841">
        <ele>47.200000762939</ele>
        <time>2016-05-23T20:09:13.000Z</time>
      </trkpt>
      <trkpt lat="48.85086" lon="2.32822">
        <ele>47</ele>
        <time>2016-05-23T20:09:16.000Z</time>
      </trkpt>
      <trkpt lat="48.8507" lon="2.32801">
        <ele>46.400001525879</ele>
        <time>2016-05-23T20:09:20.000Z</time>
      </trkpt>
      <trkpt lat="48.85057" lon="2.3278">
        <ele>45.799999237061</ele>
        <time>2016-05-23T20:09:25.000Z</time>
      </trkpt>
      <trkpt lat="48.85051" lon="2.32768">
        <ele>45.799999237061</ele>
        <time>2016-05-23T20:09:28.000Z</time>
      </trkpt>
      <trkpt lat="48.85036" lon="2.32746">
        <ele>45.599998474121</ele>
        <time>2016-05-23T20:09:34.000Z</time>
      </trkpt>
      <trkpt lat="48.85018" lon="2.32735">
        <ele>45.400001525879</ele>
        <time>2016-05-23T20:09:38.000Z</time>
      </trkpt>
      <trkpt lat="48.85004" lon="2.32721">
        <ele>46.599998474121</ele>
        <time>2016-05-23T20:09:42.000Z</time>
      </trkpt>
      <trkpt lat="48.84993" lon="2.32704">
        <ele>47.599998474121</ele>
        <time>2016-05-23T20:09:47.000Z</time>
      </trkpt>
      <trkpt lat="48.84986" lon="2.3269">
        <ele>48.200000762939</ele>
        <time>2016-05-23T20:09:51.000Z</time>
      </trkpt>
      <trkpt lat="48.84971" lon="2.32668">
        <ele>49.599998474121</ele>
        <time>2016-05-23T20:09:57.000Z</time>
      </trkpt>
      <trkpt lat="48.84962" lon="2.32642">
        <ele>49.799999237061</ele>
        <time>2016-05-23T20:10:01.000Z</time>
      </trkpt>
      <trkpt lat="48.84948" lon="2.32616">
        <ele>50.200000762939</ele>
        <time>2016-05-23T20:10:05.000Z</time>
      </trkpt>
      <trkpt lat="48.84932" lon="2.32596">
        <ele>50.400001525879</ele>
        <time>2016-05-23T20:10:08.000Z</time>
      </trkpt>
      <trkpt lat="48.84919" lon="2.32569">
        <ele>50.200000762939</ele>
        <time>2016-05-23T20:10:13.000Z</time>
      </trkpt>
      <trkpt lat="48.84905" lon="2.32547">
        <ele>50.400001525879</ele>
        <time>2016-05-23T20:10:17.000Z</time>
      </trkpt>
      <trkpt lat="48.84896" lon="2.32524">
        <ele>50</ele>
        <time>2016-05-23T20:10:21.000Z</time>
      </trkpt>
      <trkpt lat="48.84892" lon="2.32518">
        <ele>50</ele>
        <time>2016-05-23T20:10:22.000Z</time>
      </trkpt>
      <trkpt lat="48.84878" lon="2.32494">
        <ele>49.799999237061</ele>
        <time>2016-05-23T20:10:26.000Z</time>
      </trkpt>
      <trkpt lat="48.84866" lon="2.32474">
        <ele>50.200000762939</ele>
        <time>2016-05-23T20:10:30.000Z</time>
      </trkpt>
      <trkpt lat="48.84852" lon="2.32452">
        <ele>50.400001525879</ele>
        <time>2016-05-23T20:10:35.000Z</time>
      </trkpt>
      <trkpt lat="48.84849" lon="2.3245">
        <ele>50.400001525879</ele>
        <time>2016-05-23T20:10:36.000Z</time>
      </trkpt>
      <trkpt lat="48.84837" lon="2.32422">
        <ele>49.799999237061</ele>
        <time>2016-05-23T20:10:42.000Z</time>
      </trkpt>
      <trkpt lat="48.84831" lon="2.32409">
        <ele>49.799999237061</ele>
        <time>2016-05-23T20:10:45.000Z</time>
      </trkpt>
      <trkpt lat="48.84818" lon="2.32389">
        <ele>49.599998474121</ele>
        <time>2016-05-23T20:10:49.000Z</time>
      </trkpt>
      <trkpt lat="48.84804" lon="2.32364">
        <ele>49.400001525879</ele>
        <time>2016-05-23T20:10:54.000Z</time>
      </trkpt>
      <trkpt lat="48.8479" lon="2.32343">
        <ele>49</ele>
        <time>2016-05-23T20:10:58.000Z</time>
      </trkpt>
      <trkpt lat="48.84776" lon="2.32321">
        <ele>49.200000762939</ele>
        <time>2016-05-23T20:11:02.000Z</time>
      </trkpt>
      <trkpt lat="48.84769" lon="2.32306">
        <ele>49.599998474121</ele>
        <time>2016-05-23T20:11:04.000Z</time>
      </trkpt>
      <trkpt lat="48.84757" lon="2.32281">
        <ele>49.799999237061</ele>
        <time>2016-05-23T20:11:08.000Z</time>
      </trkpt>
      <trkpt lat="48.84748" lon="2.32255">
        <ele>50.200000762939</ele>
        <time>2016-05-23T20:11:12.000Z</time>
      </trkpt>
      <trkpt lat="48.84742" lon="2.32244">
        <ele>50.200000762939</ele>
        <time>2016-05-23T20:11:14.000Z</time>
      </trkpt>
      <trkpt lat="48.84729" lon="2.32219">
        <ele>50</ele>
        <time>2016-05-23T20:11:18.000Z</time>
      </trkpt>
      <trkpt lat="48.84717" lon="2.32196">
        <ele>49.599998474121</ele>
        <time>2016-05-23T20:11:22.000Z</time>
      </trkpt>
      <trkpt lat="48.84705" lon="2.32176">
        <ele>49.400001525879</ele>
        <time>2016-05-23T20:11:26.000Z</time>
      </trkpt>
      <trkpt lat="48.84698" lon="2.32164">
        <ele>49.400001525879</ele>
        <time>2016-05-23T20:11:28.000Z</time>
      </trkpt>
      <trkpt lat="48.84687" lon="2.32137">
        <ele>49</ele>
        <time>2016-05-23T20:11:32.000Z</time>
      </trkpt>
      <trkpt lat="48.84676" lon="2.32113">
        <ele>49</ele>
        <time>2016-05-23T20:11:36.000Z</time>
      </trkpt>
      <trkpt lat="48.84666" lon="2.32089">
        <ele>49</ele>
        <time>2016-05-23T20:11:40.000Z</time>
      </trkpt>
      <trkpt lat="48.84651" lon="2.32063">
        <ele>49.200000762939</ele>
        <time>2016-05-23T20:11:44.000Z</time>
      </trkpt>
      <trkpt lat="48.84636" lon="2.32043">
        <ele>49.400001525879</ele>
        <time>2016-05-23T20:11:48.000Z</time>
      </trkpt>
      <trkpt lat="48.84631" lon="2.32038">
        <ele>49.599998474121</ele>
        <time>2016-05-23T20:11:49.000Z</time>
      </trkpt>
      <trkpt lat="48.84616" lon="2.32019">
        <ele>49.799999237061</ele>
        <time>2016-05-23T20:11:53.000Z</time>
      </trkpt>
      <trkpt lat="48.84599" lon="2.31996">
        <ele>50</ele>
        <time>2016-05-23T20:11:57.000Z</time>
      </trkpt>
      <trkpt lat="48.84585" lon="2.31974">
        <ele>50.599998474121</ele>
        <time>2016-05-23T20:12:01.000Z</time>
      </trkpt>
      <trkpt lat="48.84571" lon="2.3195">
        <ele>51</ele>
        <time>2016-05-23T20:12:06.000Z</time>
      </trkpt>
      <trkpt lat="48.84565" lon="2.3194">
        <ele>51.200000762939</ele>
        <time>2016-05-23T20:12:09.000Z</time>
      </trkpt>
      <trkpt lat="48.84562" lon="2.31935">
        <ele>51.200000762939</ele>
        <time>2016-05-23T20:12:11.000Z</time>
      </trkpt>
      <trkpt lat="48.84559" lon="2.31927">
        <ele>51.400001525879</ele>
        <time>2016-05-23T20:12:15.000Z</time>
      </trkpt>
      <trkpt lat="48.84562" lon="2.31935">
        <ele>51.200000762939</ele>
        <time>2016-05-23T20:12:34.000Z</time>
      </trkpt>
      <trkpt lat="48.84576" lon="2.3193">
        <ele>51.200000762939</ele>
        <time>2016-05-23T20:12:43.000Z</time>
      </trkpt>
      <trkpt lat="48.84582" lon="2.31905">
        <ele>51.200000762939</ele>
        <time>2016-05-23T20:12:52.000Z</time>
      </trkpt>
      <trkpt lat="48.84591" lon="2.31879">
        <ele>51.200000762939</ele>
        <time>2016-05-23T20:13:03.000Z</time>
      </trkpt>
      <trkpt lat="48.84606" lon="2.31857">
        <ele>51</ele>
        <time>2016-05-23T20:13:10.000Z</time>
      </trkpt>
      <trkpt lat="48.84615" lon="2.31829">
        <ele>50.599998474121</ele>
        <time>2016-05-23T20:13:16.000Z</time>
      </trkpt>
      <trkpt lat="48.84622" lon="2.31801">
        <ele>50.400001525879</ele>
        <time>2016-05-23T20:13:21.000Z</time>
      </trkpt>
      <trkpt lat="48.84627" lon="2.31772">
        <ele>50.200000762939</ele>
        <time>2016-05-23T20:13:26.000Z</time>
      </trkpt>
      <trkpt lat="48.84639" lon="2.31744">
        <ele>48.400001525879</ele>
        <time>2016-05-23T20:13:32.000Z</time>
      </trkpt>
      <trkpt lat="48.84653" lon="2.31721">
        <ele>46</ele>
        <time>2016-05-23T20:13:37.000Z</time>
      </trkpt>
      <trkpt lat="48.84668" lon="2.31701">
        <ele>44.599998474121</ele>
        <time>2016-05-23T20:13:41.000Z</time>
      </trkpt>
      <trkpt lat="48.84689" lon="2.31694">
        <ele>43.799999237061</ele>
        <time>2016-05-23T20:13:44.000Z</time>
      </trkpt>
      <trkpt lat="48.84694" lon="2.31687">
        <ele>43.799999237061</ele>
        <time>2016-05-23T20:13:46.000Z</time>
      </trkpt>
      <trkpt lat="48.847" lon="2.31675">
        <ele>44</ele>
        <time>2016-05-23T20:13:49.000Z</time>
      </trkpt>
      <trkpt lat="48.84706" lon="2.31666">
        <ele>44.400001525879</ele>
        <time>2016-05-23T20:13:51.000Z</time>
      </trkpt>
      <trkpt lat="48.84723" lon="2.31654">
        <ele>45.400001525879</ele>
        <time>2016-05-23T20:13:55.000Z</time>
      </trkpt>
      <trkpt lat="48.84745" lon="2.31645">
        <ele>47</ele>
        <time>2016-05-23T20:14:00.000Z</time>
      </trkpt>
      <trkpt lat="48.84764" lon="2.31632">
        <ele>48.200000762939</ele>
        <time>2016-05-23T20:14:04.000Z</time>
      </trkpt>
      <trkpt lat="48.84784" lon="2.31623">
        <ele>48.200000762939</ele>
        <time>2016-05-23T20:14:08.000Z</time>
      </trkpt>
      <trkpt lat="48.84804" lon="2.31614">
        <ele>47.400001525879</ele>
        <time>2016-05-23T20:14:12.000Z</time>
      </trkpt>
      <trkpt lat="48.84825" lon="2.31605">
        <ele>46.200000762939</ele>
        <time>2016-05-23T20:14:16.000Z</time>
      </trkpt>
      <trkpt lat="48.84847" lon="2.31592">
        <ele>44.799999237061</ele>
        <time>2016-05-23T20:14:20.000Z</time>
      </trkpt>
      <trkpt lat="48.84869" lon="2.31577">
        <ele>43.400001525879</ele>
        <time>2016-05-23T20:14:24.000Z</time>
      </trkpt>
      <trkpt lat="48.84889" lon="2.31568">
        <ele>42.200000762939</ele>
        <time>2016-05-23T20:14:27.000Z</time>
      </trkpt>
      <trkpt lat="48.84909" lon="2.31558">
        <ele>41</ele>
        <time>2016-05-23T20:14:30.000Z</time>
      </trkpt>
      <trkpt lat="48.8493" lon="2.31546">
        <ele>41.799999237061</ele>
        <time>2016-05-23T20:14:33.000Z</time>
      </trkpt>
      <trkpt lat="48.84952" lon="2.31537">
        <ele>42.799999237061</ele>
        <time>2016-05-23T20:14:36.000Z</time>
      </trkpt>
      <trkpt lat="48.8497" lon="2.3153">
        <ele>43.200000762939</ele>
        <time>2016-05-23T20:14:39.000Z</time>
      </trkpt>
      <trkpt lat="48.84989" lon="2.31519">
        <ele>43.200000762939</ele>
        <time>2016-05-23T20:14:42.000Z</time>
      </trkpt>
      <trkpt lat="48.85011" lon="2.31507">
        <ele>43</ele>
        <time>2016-05-23T20:14:46.000Z</time>
      </trkpt>
      <trkpt lat="48.8503" lon="2.31501">
        <ele>43</ele>
        <time>2016-05-23T20:14:49.000Z</time>
      </trkpt>
      <trkpt lat="48.85052" lon="2.31491">
        <ele>43</ele>
        <time>2016-05-23T20:14:53.000Z</time>
      </trkpt>
      <trkpt lat="48.8507" lon="2.31484">
        <ele>43.200000762939</ele>
        <time>2016-05-23T20:14:56.000Z</time>
      </trkpt>
      <trkpt lat="48.85093" lon="2.31477">
        <ele>43.200000762939</ele>
        <time>2016-05-23T20:15:00.000Z</time>
      </trkpt>
      <trkpt lat="48.85114" lon="2.31473">
        <ele>43.400001525879</ele>
        <time>2016-05-23T20:15:04.000Z</time>
      </trkpt>
      <trkpt lat="48.85133" lon="2.31472">
        <ele>44</ele>
        <time>2016-05-23T20:15:08.000Z</time>
      </trkpt>
      <trkpt lat="48.85151" lon="2.31474">
        <ele>44.400001525879</ele>
        <time>2016-05-23T20:15:12.000Z</time>
      </trkpt>
      <trkpt lat="48.85155" lon="2.31477">
        <ele>44.400001525879</ele>
        <time>2016-05-23T20:15:13.000Z</time>
      </trkpt>
      <trkpt lat="48.85174" lon="2.31482">
        <ele>44.799999237061</ele>
        <time>2016-05-23T20:15:17.000Z</time>
      </trkpt>
      <trkpt lat="48.85178" lon="2.3148">
        <ele>45</ele>
        <time>2016-05-23T20:15:18.000Z</time>
      </trkpt>
      <trkpt lat="48.85191" lon="2.31478">
        <ele>45.200000762939</ele>
        <time>2016-05-23T20:15:21.000Z</time>
      </trkpt>
      <trkpt lat="48.85211" lon="2.31474">
        <ele>44.799999237061</ele>
        <time>2016-05-23T20:15:25.000Z</time>
      </trkpt>
      <trkpt lat="48.85233" lon="2.31469">
        <ele>44.200000762939</ele>
        <time>2016-05-23T20:15:29.000Z</time>
      </trkpt>
      <trkpt lat="48.85256" lon="2.31467">
        <ele>44</ele>
        <time>2016-05-23T20:15:33.000Z</time>
      </trkpt>
      <trkpt lat="48.85274" lon="2.31464">
        <ele>43.799999237061</ele>
        <time>2016-05-23T20:15:36.000Z</time>
      </trkpt>
      <trkpt lat="48.85292" lon="2.31464">
        <ele>43.400001525879</ele>
        <time>2016-05-23T20:15:39.000Z</time>
      </trkpt>
      <trkpt lat="48.85316" lon="2.31466">
        <ele>42.799999237061</ele>
        <time>2016-05-23T20:15:43.000Z</time>
      </trkpt>
      <trkpt lat="48.85336" lon="2.31466">
        <ele>42.400001525879</ele>
        <time>2016-05-23T20:15:46.000Z</time>
      </trkpt>
      <trkpt lat="48.85357" lon="2.31467">
        <ele>42</ele>
        <time>2016-05-23T20:15:49.000Z</time>
      </trkpt>
      <trkpt lat="48.85376" lon="2.31468">
        <ele>41.599998474121</ele>
        <time>2016-05-23T20:15:52.000Z</time>
      </trkpt>
      <trkpt lat="48.85397" lon="2.31466">
        <ele>41.200000762939</ele>
        <time>2016-05-23T20:15:55.000Z</time>
      </trkpt>
      <trkpt lat="48.8542" lon="2.31467">
        <ele>40</ele>
        <time>2016-05-23T20:15:59.000Z</time>
      </trkpt>
      <trkpt lat="48.85443" lon="2.31469">
        <ele>38.400001525879</ele>
        <time>2016-05-23T20:16:03.000Z</time>
      </trkpt>
      <trkpt lat="48.85465" lon="2.31473">
        <ele>38.400001525879</ele>
        <time>2016-05-23T20:16:07.000Z</time>
      </trkpt>
      <trkpt lat="48.85483" lon="2.31475">
        <ele>38.400001525879</ele>
        <time>2016-05-23T20:16:10.000Z</time>
      </trkpt>
      <trkpt lat="48.85502" lon="2.31478">
        <ele>38.599998474121</ele>
        <time>2016-05-23T20:16:13.000Z</time>
      </trkpt>
      <trkpt lat="48.85524" lon="2.31481">
        <ele>39.200000762939</ele>
        <time>2016-05-23T20:16:17.000Z</time>
      </trkpt>
      <trkpt lat="48.85542" lon="2.31482">
        <ele>39.799999237061</ele>
        <time>2016-05-23T20:16:20.000Z</time>
      </trkpt>
      <trkpt lat="48.85565" lon="2.31491">
        <ele>40.599998474121</ele>
        <time>2016-05-23T20:16:24.000Z</time>
      </trkpt>
      <trkpt lat="48.85585" lon="2.31502">
        <ele>41.599998474121</ele>
        <time>2016-05-23T20:16:28.000Z</time>
      </trkpt>
      <trkpt lat="48.85605" lon="2.31505">
        <ele>42.599998474121</ele>
        <time>2016-05-23T20:16:32.000Z</time>
      </trkpt>
      <trkpt lat="48.85627" lon="2.31503">
        <ele>41.400001525879</ele>
        <time>2016-05-23T20:16:36.000Z</time>
      </trkpt>
      <trkpt lat="48.8564" lon="2.31505">
        <ele>41</ele>
        <time>2016-05-23T20:16:39.000Z</time>
      </trkpt>
      <trkpt lat="48.85663" lon="2.31509">
        <ele>40.200000762939</ele>
        <time>2016-05-23T20:16:43.000Z</time>
      </trkpt>
      <trkpt lat="48.85686" lon="2.31516">
        <ele>39.599998474121</ele>
        <time>2016-05-23T20:16:47.000Z</time>
      </trkpt>
      <trkpt lat="48.8569" lon="2.3152">
        <ele>39.599998474121</ele>
        <time>2016-05-23T20:16:48.000Z</time>
      </trkpt>
      <trkpt lat="48.8571" lon="2.3153">
        <ele>39.599998474121</ele>
        <time>2016-05-23T20:16:52.000Z</time>
      </trkpt>
      <trkpt lat="48.8573" lon="2.31542">
        <ele>39.599998474121</ele>
        <time>2016-05-23T20:16:56.000Z</time>
      </trkpt>
      <trkpt lat="48.8575" lon="2.31551">
        <ele>39.400001525879</ele>
        <time>2016-05-23T20:17:00.000Z</time>
      </trkpt>
      <trkpt lat="48.8577" lon="2.31555">
        <ele>38.799999237061</ele>
        <time>2016-05-23T20:17:04.000Z</time>
      </trkpt>
      <trkpt lat="48.85783" lon="2.31556">
        <ele>38.799999237061</ele>
        <time>2016-05-23T20:17:08.000Z</time>
      </trkpt>
      <trkpt lat="48.85789" lon="2.31556">
        <ele>38.599998474121</ele>
        <time>2016-05-23T20:17:11.000Z</time>
      </trkpt>
      <trkpt lat="48.85787" lon="2.31543">
        <ele>38</ele>
        <time>2016-05-23T20:17:22.000Z</time>
      </trkpt>
      <trkpt lat="48.85788" lon="2.31543">
        <ele>38</ele>
        <time>2016-05-23T20:17:23.000Z</time>
      </trkpt>
      <trkpt lat="48.85794" lon="2.31532">
        <ele>37.400001525879</ele>
        <time>2016-05-23T20:17:34.000Z</time>
      </trkpt>
      <trkpt lat="48.85803" lon="2.31505">
        <ele>36.799999237061</ele>
        <time>2016-05-23T20:17:40.000Z</time>
      </trkpt>
      <trkpt lat="48.85808" lon="2.31474">
        <ele>36.599998474121</ele>
        <time>2016-05-23T20:17:45.000Z</time>
      </trkpt>
      <trkpt lat="48.85816" lon="2.31461">
        <ele>36.599998474121</ele>
        <time>2016-05-23T20:17:49.000Z</time>
      </trkpt>
      <trkpt lat="48.85829" lon="2.31468">
        <ele>37</ele>
        <time>2016-05-23T20:17:55.000Z</time>
      </trkpt>
      <trkpt lat="48.85849" lon="2.31473">
        <ele>37.799999237061</ele>
        <time>2016-05-23T20:18:00.000Z</time>
      </trkpt>
      <trkpt lat="48.85869" lon="2.31474">
        <ele>37.599998474121</ele>
        <time>2016-05-23T20:18:05.000Z</time>
      </trkpt>
      <trkpt lat="48.85888" lon="2.31472">
        <ele>37.200000762939</ele>
        <time>2016-05-23T20:18:11.000Z</time>
      </trkpt>
      <trkpt lat="48.85906" lon="2.31473">
        <ele>36.799999237061</ele>
        <time>2016-05-23T20:18:17.000Z</time>
      </trkpt>
      <trkpt lat="48.85907" lon="2.31475">
        <ele>36.799999237061</ele>
        <time>2016-05-23T20:18:18.000Z</time>
      </trkpt>
      <trkpt lat="48.85921" lon="2.31477">
        <ele>36.400001525879</ele>
        <time>2016-05-23T20:18:24.000Z</time>
      </trkpt>
      <trkpt lat="48.8594" lon="2.31477">
        <ele>35.400001525879</ele>
        <time>2016-05-23T20:18:29.000Z</time>
      </trkpt>
      <trkpt lat="48.85961" lon="2.31479">
        <ele>36.400001525879</ele>
        <time>2016-05-23T20:18:34.000Z</time>
      </trkpt>
      <trkpt lat="48.85979" lon="2.31488">
        <ele>37.599998474121</ele>
        <time>2016-05-23T20:18:39.000Z</time>
      </trkpt>
      <trkpt lat="48.85987" lon="2.31493">
        <ele>38.200000762939</ele>
        <time>2016-05-23T20:18:43.000Z</time>
      </trkpt>
      <trkpt lat="48.86005" lon="2.31491">
        <ele>39</ele>
        <time>2016-05-23T20:18:49.000Z</time>
      </trkpt>
      <trkpt lat="48.86024" lon="2.31493">
        <ele>39.400001525879</ele>
        <time>2016-05-23T20:18:54.000Z</time>
      </trkpt>
      <trkpt lat="48.86045" lon="2.31491">
        <ele>38.799999237061</ele>
        <time>2016-05-23T20:19:00.000Z</time>
      </trkpt>
      <trkpt lat="48.86065" lon="2.31487">
        <ele>38.200000762939</ele>
        <time>2016-05-23T20:19:06.000Z</time>
      </trkpt>
      <trkpt lat="48.86084" lon="2.31491">
        <ele>38.400001525879</ele>
        <time>2016-05-23T20:19:12.000Z</time>
      </trkpt>
      <trkpt lat="48.86103" lon="2.31493">
        <ele>38.599998474121</ele>
        <time>2016-05-23T20:19:19.000Z</time>
      </trkpt>
      <trkpt lat="48.86123" lon="2.31497">
        <ele>38.200000762939</ele>
        <time>2016-05-23T20:19:25.000Z</time>
      </trkpt>
      <trkpt lat="48.86145" lon="2.315">
        <ele>37.400001525879</ele>
        <time>2016-05-23T20:19:31.000Z</time>
      </trkpt>
      <trkpt lat="48.86164" lon="2.31499">
        <ele>36.200000762939</ele>
        <time>2016-05-23T20:19:37.000Z</time>
      </trkpt>
      <trkpt lat="48.86186" lon="2.31496">
        <ele>35</ele>
        <time>2016-05-23T20:19:44.000Z</time>
      </trkpt>
      <trkpt lat="48.86207" lon="2.31495">
        <ele>35</ele>
        <time>2016-05-23T20:19:50.000Z</time>
      </trkpt>
      <trkpt lat="48.86226" lon="2.31501">
        <ele>35.200000762939</ele>
        <time>2016-05-23T20:19:55.000Z</time>
      </trkpt>
      <trkpt lat="48.86246" lon="2.31506">
        <ele>35.599998474121</ele>
        <time>2016-05-23T20:20:01.000Z</time>
      </trkpt>
      <trkpt lat="48.86264" lon="2.31511">
        <ele>35.799999237061</ele>
        <time>2016-05-23T20:20:14.000Z</time>
      </trkpt>
      <trkpt lat="48.8627" lon="2.31523">
        <ele>36.599998474121</ele>
        <time>2016-05-23T20:20:16.000Z</time>
      </trkpt>
      <trkpt lat="48.86272" lon="2.31545">
        <ele>37.799999237061</ele>
        <time>2016-05-23T20:20:20.000Z</time>
      </trkpt>
      <trkpt lat="48.86272" lon="2.31579">
        <ele>39.799999237061</ele>
        <time>2016-05-23T20:20:25.000Z</time>
      </trkpt>
      <trkpt lat="48.86271" lon="2.31607">
        <ele>38.400001525879</ele>
        <time>2016-05-23T20:20:29.000Z</time>
      </trkpt>
      <trkpt lat="48.86269" lon="2.31635">
        <ele>36.599998474121</ele>
        <time>2016-05-23T20:20:33.000Z</time>
      </trkpt>
      <trkpt lat="48.86267" lon="2.31664">
        <ele>35.200000762939</ele>
        <time>2016-05-23T20:20:37.000Z</time>
      </trkpt>
      <trkpt lat="48.86266" lon="2.31671">
        <ele>35.599998474121</ele>
        <time>2016-05-23T20:20:38.000Z</time>
      </trkpt>
      <trkpt lat="48.86265" lon="2.31701">
        <ele>36.599998474121</ele>
        <time>2016-05-23T20:20:42.000Z</time>
      </trkpt>
      <trkpt lat="48.86265" lon="2.3173">
        <ele>37.599998474121</ele>
        <time>2016-05-23T20:20:46.000Z</time>
      </trkpt>
      <trkpt lat="48.86261" lon="2.31737">
        <ele>38</ele>
        <time>2016-05-23T20:20:47.000Z</time>
      </trkpt>
      <trkpt lat="48.86257" lon="2.31766">
        <ele>36.400001525879</ele>
        <time>2016-05-23T20:20:51.000Z</time>
      </trkpt>
      <trkpt lat="48.86254" lon="2.31794">
        <ele>34.400001525879</ele>
        <time>2016-05-23T20:20:55.000Z</time>
      </trkpt>
      <trkpt lat="48.86251" lon="2.31814">
        <ele>33.200000762939</ele>
        <time>2016-05-23T20:20:58.000Z</time>
      </trkpt>
      <trkpt lat="48.86245" lon="2.31843">
        <ele>33.200000762939</ele>
        <time>2016-05-23T20:21:03.000Z</time>
      </trkpt>
      <trkpt lat="48.86236" lon="2.31867">
        <ele>33.799999237061</ele>
        <time>2016-05-23T20:21:09.000Z</time>
      </trkpt>
      <trkpt lat="48.86237" lon="2.31866">
        <ele>33.799999237061</ele>
        <time>2016-05-23T20:21:11.000Z</time>
      </trkpt>
      <trkpt lat="48.86237" lon="2.31886">
        <ele>34.200000762939</ele>
        <time>2016-05-23T20:21:25.000Z</time>
      </trkpt>
      <trkpt lat="48.86229" lon="2.31912">
        <ele>36</ele>
        <time>2016-05-23T20:21:31.000Z</time>
      </trkpt>
      <trkpt lat="48.86217" lon="2.31936">
        <ele>36.400001525879</ele>
        <time>2016-05-23T20:21:39.000Z</time>
      </trkpt>
      <trkpt lat="48.862" lon="2.31948">
        <ele>39.200000762939</ele>
        <time>2016-05-23T20:21:44.000Z</time>
      </trkpt>
      <trkpt lat="48.86183" lon="2.31968">
        <ele>41.799999237061</ele>
        <time>2016-05-23T20:21:49.000Z</time>
      </trkpt>
      <trkpt lat="48.86168" lon="2.31987">
        <ele>42.599998474121</ele>
        <time>2016-05-23T20:21:53.000Z</time>
      </trkpt>
      <trkpt lat="48.8615" lon="2.32006">
        <ele>42.799999237061</ele>
        <time>2016-05-23T20:21:57.000Z</time>
      </trkpt>
      <trkpt lat="48.86134" lon="2.32023">
        <ele>43</ele>
        <time>2016-05-23T20:22:01.000Z</time>
      </trkpt>
      <trkpt lat="48.86118" lon="2.32043">
        <ele>42.799999237061</ele>
        <time>2016-05-23T20:22:06.000Z</time>
      </trkpt>
      <trkpt lat="48.86113" lon="2.32047">
        <ele>42.799999237061</ele>
        <time>2016-05-23T20:22:09.000Z</time>
      </trkpt>
      <trkpt lat="48.86111" lon="2.32058">
        <ele>42.799999237061</ele>
        <time>2016-05-23T20:22:30.000Z</time>
      </trkpt>
      <trkpt lat="48.86102" lon="2.32082">
        <ele>42.799999237061</ele>
        <time>2016-05-23T20:22:38.000Z</time>
      </trkpt>
      <trkpt lat="48.86092" lon="2.32107">
        <ele>42.599998474121</ele>
        <time>2016-05-23T20:22:43.000Z</time>
      </trkpt>
      <trkpt lat="48.86089" lon="2.32136">
        <ele>42.599998474121</ele>
        <time>2016-05-23T20:22:48.000Z</time>
      </trkpt>
      <trkpt lat="48.86086" lon="2.32167">
        <ele>42</ele>
        <time>2016-05-23T20:22:53.000Z</time>
      </trkpt>
      <trkpt lat="48.86081" lon="2.32194">
        <ele>41</ele>
        <time>2016-05-23T20:22:57.000Z</time>
      </trkpt>
      <trkpt lat="48.86074" lon="2.32224">
        <ele>40.400001525879</ele>
        <time>2016-05-23T20:23:02.000Z</time>
      </trkpt>
      <trkpt lat="48.86066" lon="2.32251">
        <ele>41.200000762939</ele>
        <time>2016-05-23T20:23:07.000Z</time>
      </trkpt>
      <trkpt lat="48.86057" lon="2.3228">
        <ele>42.200000762939</ele>
        <time>2016-05-23T20:23:12.000Z</time>
      </trkpt>
      <trkpt lat="48.86053" lon="2.3231">
        <ele>43.599998474121</ele>
        <time>2016-05-23T20:23:18.000Z</time>
      </trkpt>
      <trkpt lat="48.86053" lon="2.32318">
        <ele>44</ele>
        <time>2016-05-23T20:23:20.000Z</time>
      </trkpt>
      <trkpt lat="48.8605" lon="2.32339">
        <ele>44</ele>
        <time>2016-05-23T20:23:26.000Z</time>
      </trkpt>
      <trkpt lat="48.86042" lon="2.32367">
        <ele>43.200000762939</ele>
        <time>2016-05-23T20:23:31.000Z</time>
      </trkpt>
      <trkpt lat="48.86033" lon="2.32392">
        <ele>43.400001525879</ele>
        <time>2016-05-23T20:23:35.000Z</time>
      </trkpt>
      <trkpt lat="48.86027" lon="2.32421">
        <ele>43.400001525879</ele>
        <time>2016-05-23T20:23:40.000Z</time>
      </trkpt>
      <trkpt lat="48.86016" lon="2.3245">
        <ele>42</ele>
        <time>2016-05-23T20:23:45.000Z</time>
      </trkpt>
      <trkpt lat="48.86003" lon="2.32479">
        <ele>40.400001525879</ele>
        <time>2016-05-23T20:23:49.000Z</time>
      </trkpt>
      <trkpt lat="48.85994" lon="2.32503">
        <ele>41.200000762939</ele>
        <time>2016-05-23T20:23:53.000Z</time>
      </trkpt>
      <trkpt lat="48.85981" lon="2.32528">
        <ele>43.599998474121</ele>
        <time>2016-05-23T20:23:57.000Z</time>
      </trkpt>
      <trkpt lat="48.85971" lon="2.32556">
        <ele>44.200000762939</ele>
        <time>2016-05-23T20:24:00.000Z</time>
      </trkpt>
      <trkpt lat="48.85963" lon="2.32582">
        <ele>44.200000762939</ele>
        <time>2016-05-23T20:24:03.000Z</time>
      </trkpt>
      <trkpt lat="48.85953" lon="2.32605">
        <ele>44.400001525879</ele>
        <time>2016-05-23T20:24:06.000Z</time>
      </trkpt>
      <trkpt lat="48.85943" lon="2.32636">
        <ele>45.799999237061</ele>
        <time>2016-05-23T20:24:10.000Z</time>
      </trkpt>
      <trkpt lat="48.85937" lon="2.32667">
        <ele>47</ele>
        <time>2016-05-23T20:24:14.000Z</time>
      </trkpt>
      <trkpt lat="48.8593" lon="2.32694">
        <ele>47.200000762939</ele>
        <time>2016-05-23T20:24:18.000Z</time>
      </trkpt>
      <trkpt lat="48.8592" lon="2.32721">
        <ele>47.200000762939</ele>
        <time>2016-05-23T20:24:22.000Z</time>
      </trkpt>
      <trkpt lat="48.85912" lon="2.3275">
        <ele>48</ele>
        <time>2016-05-23T20:24:26.000Z</time>
      </trkpt>
      <trkpt lat="48.85905" lon="2.32775">
        <ele>47.599998474121</ele>
        <time>2016-05-23T20:24:30.000Z</time>
      </trkpt>
      <trkpt lat="48.859" lon="2.32788">
        <ele>47.599998474121</ele>
        <time>2016-05-23T20:24:33.000Z</time>
      </trkpt>
      <trkpt lat="48.85883" lon="2.3281">
        <ele>46.400001525879</ele>
        <time>2016-05-23T20:24:38.000Z</time>
      </trkpt>
      <trkpt lat="48.85879" lon="2.32821">
        <ele>46</ele>
        <time>2016-05-23T20:24:40.000Z</time>
      </trkpt>
      <trkpt lat="48.85877" lon="2.32852">
        <ele>44.799999237061</ele>
        <time>2016-05-23T20:24:46.000Z</time>
      </trkpt>
      <trkpt lat="48.85873" lon="2.32862">
        <ele>45</ele>
        <time>2016-05-23T20:24:48.000Z</time>
      </trkpt>
      <trkpt lat="48.85861" lon="2.32887">
        <ele>45.599998474121</ele>
        <time>2016-05-23T20:24:53.000Z</time>
      </trkpt>
      <trkpt lat="48.85848" lon="2.32915">
        <ele>46</ele>
        <time>2016-05-23T20:24:58.000Z</time>
      </trkpt>
      <trkpt lat="48.85847" lon="2.32929">
        <ele>46.200000762939</ele>
        <time>2016-05-23T20:25:00.000Z</time>
      </trkpt>
      <trkpt lat="48.85836" lon="2.32953">
        <ele>46.599998474121</ele>
        <time>2016-05-23T20:25:05.000Z</time>
      </trkpt>
      <trkpt lat="48.85831" lon="2.32968">
        <ele>47</ele>
        <time>2016-05-23T20:25:08.000Z</time>
      </trkpt>
      <trkpt lat="48.85817" lon="2.32996">
        <ele>47</ele>
        <time>2016-05-23T20:25:12.000Z</time>
      </trkpt>
      <trkpt lat="48.85806" lon="2.33019">
        <ele>46.799999237061</ele>
        <time>2016-05-23T20:25:16.000Z</time>
      </trkpt>
      <trkpt lat="48.85794" lon="2.33047">
        <ele>46.200000762939</ele>
        <time>2016-05-23T20:25:21.000Z</time>
      </trkpt>
      <trkpt lat="48.85793" lon="2.33071">
        <ele>45.799999237061</ele>
        <time>2016-05-23T20:25:24.000Z</time>
      </trkpt>
      <trkpt lat="48.85788" lon="2.3311">
        <ele>45</ele>
        <time>2016-05-23T20:25:28.000Z</time>
      </trkpt>
      <trkpt lat="48.85786" lon="2.33141">
        <ele>45.400001525879</ele>
        <time>2016-05-23T20:25:31.000Z</time>
      </trkpt>
      <trkpt lat="48.8578" lon="2.33175">
        <ele>45.599998474121</ele>
        <time>2016-05-23T20:25:35.000Z</time>
      </trkpt>
      <trkpt lat="48.85776" lon="2.3321">
        <ele>46.400001525879</ele>
        <time>2016-05-23T20:25:39.000Z</time>
      </trkpt>
      <trkpt lat="48.85772" lon="2.33241">
        <ele>47</ele>
        <time>2016-05-23T20:25:43.000Z</time>
      </trkpt>
      <trkpt lat="48.85776" lon="2.3325">
        <ele>46.799999237061</ele>
        <time>2016-05-23T20:25:44.000Z</time>
      </trkpt>
      <trkpt lat="48.85774" lon="2.33263">
        <ele>46.599998474121</ele>
        <time>2016-05-23T20:25:48.000Z</time>
      </trkpt>
      <trkpt lat="48.8578" lon="2.33279">
        <ele>46</ele>
        <time>2016-05-23T20:26:09.000Z</time>
      </trkpt>
      <trkpt lat="48.85798" lon="2.33295">
        <ele>45.200000762939</ele>
        <time>2016-05-23T20:26:15.000Z</time>
      </trkpt>
      <trkpt lat="48.85787" lon="2.33319">
        <ele>45</ele>
        <time>2016-05-23T20:26:28.000Z</time>
      </trkpt>
      <trkpt lat="48.8578" lon="2.33324">
        <ele>45</ele>
        <time>2016-05-23T20:27:08.000Z</time>
      </trkpt>
      <trkpt lat="48.85791" lon="2.33299">
        <ele>45.400001525879</ele>
        <time>2016-05-23T20:27:16.000Z</time>
      </trkpt>
      <trkpt lat="48.85803" lon="2.33277">
        <ele>45.599998474121</ele>
        <time>2016-05-23T20:27:24.000Z</time>
      </trkpt>
      <trkpt lat="48.85816" lon="2.33267">
        <ele>44.599998474121</ele>
        <time>2016-05-23T20:27:29.000Z</time>
      </trkpt>
      <trkpt lat="48.85834" lon="2.33262">
        <ele>43.599998474121</ele>
        <time>2016-05-23T20:27:35.000Z</time>
      </trkpt>
      <trkpt lat="48.85854" lon="2.33269">
        <ele>42.400001525879</ele>
        <time>2016-05-23T20:27:40.000Z</time>
      </trkpt>
      <trkpt lat="48.85873" lon="2.33277">
        <ele>42.599998474121</ele>
        <time>2016-05-23T20:27:44.000Z</time>
      </trkpt>
      <trkpt lat="48.85893" lon="2.33287">
        <ele>43</ele>
        <time>2016-05-23T20:27:49.000Z</time>
      </trkpt>
      <trkpt lat="48.85912" lon="2.33296">
        <ele>42.599998474121</ele>
        <time>2016-05-23T20:27:54.000Z</time>
      </trkpt>
      <trkpt lat="48.8593" lon="2.33306">
        <ele>42</ele>
        <time>2016-05-23T20:27:58.000Z</time>
      </trkpt>
      <trkpt lat="48.85947" lon="2.33318">
        <ele>43</ele>
        <time>2016-05-23T20:28:02.000Z</time>
      </trkpt>
      <trkpt lat="48.8596" lon="2.33328">
        <ele>44.599998474121</ele>
        <time>2016-05-23T20:28:06.000Z</time>
      </trkpt>
      <trkpt lat="48.85968" lon="2.33341">
        <ele>45.599998474121</ele>
        <time>2016-05-23T20:28:11.000Z</time>
      </trkpt>
      <trkpt lat="48.85969" lon="2.33345">
        <ele>45.799999237061</ele>
        <time>2016-05-23T20:28:12.000Z</time>
      </trkpt>
      <trkpt lat="48.85978" lon="2.33357">
        <ele>46.400001525879</ele>
        <time>2016-05-23T20:28:20.000Z</time>
      </trkpt>
      <trkpt lat="48.85979" lon="2.33357">
        <ele>46.599998474121</ele>
        <time>2016-05-23T20:28:21.000Z</time>
      </trkpt>
      <trkpt lat="48.85996" lon="2.33363">
        <ele>47.599998474121</ele>
        <time>2016-05-23T20:28:43.000Z</time>
      </trkpt>
      <trkpt lat="48.86015" lon="2.33369">
        <ele>48.599998474121</ele>
        <time>2016-05-23T20:28:54.000Z</time>
      </trkpt>
      <trkpt lat="48.86033" lon="2.33382">
        <ele>48</ele>
        <time>2016-05-23T20:29:00.000Z</time>
      </trkpt>
      <trkpt lat="48.8605" lon="2.33395">
        <ele>46.200000762939</ele>
        <time>2016-05-23T20:29:05.000Z</time>
      </trkpt>
      <trkpt lat="48.86066" lon="2.33409">
        <ele>44.599998474121</ele>
        <time>2016-05-23T20:29:10.000Z</time>
      </trkpt>
      <trkpt lat="48.86079" lon="2.3343">
        <ele>43.400001525879</ele>
        <time>2016-05-23T20:29:16.000Z</time>
      </trkpt>
      <trkpt lat="48.86093" lon="2.33446">
        <ele>41.599998474121</ele>
        <time>2016-05-23T20:29:20.000Z</time>
      </trkpt>
      <trkpt lat="48.86103" lon="2.33472">
        <ele>40.400001525879</ele>
        <time>2016-05-23T20:29:25.000Z</time>
      </trkpt>
      <trkpt lat="48.86111" lon="2.33499">
        <ele>40.400001525879</ele>
        <time>2016-05-23T20:29:31.000Z</time>
      </trkpt>
      <trkpt lat="48.86124" lon="2.33524">
        <ele>42.599998474121</ele>
        <time>2016-05-23T20:29:36.000Z</time>
      </trkpt>
      <trkpt lat="48.86134" lon="2.33548">
        <ele>44.400001525879</ele>
        <time>2016-05-23T20:29:40.000Z</time>
      </trkpt>
      <trkpt lat="48.8614" lon="2.33578">
        <ele>46.200000762939</ele>
        <time>2016-05-23T20:29:45.000Z</time>
      </trkpt>
      <trkpt lat="48.86146" lon="2.33607">
        <ele>47.200000762939</ele>
        <time>2016-05-23T20:29:49.000Z</time>
      </trkpt>
      <trkpt lat="48.86147" lon="2.33613">
        <ele>47.200000762939</ele>
        <time>2016-05-23T20:29:50.000Z</time>
      </trkpt>
      <trkpt lat="48.86155" lon="2.33619">
        <ele>48</ele>
        <time>2016-05-23T20:29:52.000Z</time>
      </trkpt>
      <trkpt lat="48.86173" lon="2.3363">
        <ele>49.400001525879</ele>
        <time>2016-05-23T20:29:58.000Z</time>
      </trkpt>
      <trkpt lat="48.86187" lon="2.33645">
        <ele>50.599998474121</ele>
        <time>2016-05-23T20:30:04.000Z</time>
      </trkpt>
      <trkpt lat="48.86205" lon="2.33682">
        <ele>50</ele>
        <time>2016-05-23T20:30:41.000Z</time>
      </trkpt>
      <trkpt lat="48.8621" lon="2.33681">
        <ele>49.799999237061</ele>
        <time>2016-05-23T20:30:45.000Z</time>
      </trkpt>
      <trkpt lat="48.86234" lon="2.33683">
        <ele>48.599998474121</ele>
        <time>2016-05-23T20:31:12.000Z</time>
      </trkpt>
      <trkpt lat="48.86258" lon="2.33693">
        <ele>47.400001525879</ele>
        <time>2016-05-23T20:31:19.000Z</time>
      </trkpt>
      <trkpt lat="48.86269" lon="2.33697">
        <ele>46.799999237061</ele>
        <time>2016-05-23T20:31:21.000Z</time>
      </trkpt>
      <trkpt lat="48.86285" lon="2.33712">
        <ele>46</ele>
        <time>2016-05-23T20:31:25.000Z</time>
      </trkpt>
      <trkpt lat="48.86282" lon="2.33743">
        <ele>45.799999237061</ele>
        <time>2016-05-23T20:31:30.000Z</time>
      </trkpt>
      <trkpt lat="48.86268" lon="2.33765">
        <ele>45.799999237061</ele>
        <time>2016-05-23T20:31:33.000Z</time>
      </trkpt>
      <trkpt lat="48.86255" lon="2.33785">
        <ele>45.799999237061</ele>
        <time>2016-05-23T20:31:36.000Z</time>
      </trkpt>
      <trkpt lat="48.86245" lon="2.33811">
        <ele>45.200000762939</ele>
        <time>2016-05-23T20:31:40.000Z</time>
      </trkpt>
      <trkpt lat="48.86241" lon="2.33825">
        <ele>44.599998474121</ele>
        <time>2016-05-23T20:31:42.000Z</time>
      </trkpt>
      <trkpt lat="48.86233" lon="2.33851">
        <ele>44.799999237061</ele>
        <time>2016-05-23T20:31:46.000Z</time>
      </trkpt>
      <trkpt lat="48.86227" lon="2.33872">
        <ele>45.400001525879</ele>
        <time>2016-05-23T20:31:49.000Z</time>
      </trkpt>
      <trkpt lat="48.86222" lon="2.339">
        <ele>45.799999237061</ele>
        <time>2016-05-23T20:31:53.000Z</time>
      </trkpt>
      <trkpt lat="48.86214" lon="2.3393">
        <ele>46.200000762939</ele>
        <time>2016-05-23T20:31:57.000Z</time>
      </trkpt>
      <trkpt lat="48.86207" lon="2.33959">
        <ele>47.400001525879</ele>
        <time>2016-05-23T20:32:01.000Z</time>
      </trkpt>
      <trkpt lat="48.86198" lon="2.33992">
        <ele>48.799999237061</ele>
        <time>2016-05-23T20:32:05.000Z</time>
      </trkpt>
      <trkpt lat="48.86187" lon="2.34021">
        <ele>49</ele>
        <time>2016-05-23T20:32:09.000Z</time>
      </trkpt>
      <trkpt lat="48.8618" lon="2.34051">
        <ele>48.799999237061</ele>
        <time>2016-05-23T20:32:13.000Z</time>
      </trkpt>
      <trkpt lat="48.86174" lon="2.34082">
        <ele>48.400001525879</ele>
        <time>2016-05-23T20:32:18.000Z</time>
      </trkpt>
      <trkpt lat="48.86172" lon="2.34106">
        <ele>48.599998474121</ele>
        <time>2016-05-23T20:32:23.000Z</time>
      </trkpt>
      <trkpt lat="48.86169" lon="2.34115">
        <ele>48.599998474121</ele>
        <time>2016-05-23T20:32:25.000Z</time>
      </trkpt>
      <trkpt lat="48.86161" lon="2.34147">
        <ele>49</ele>
        <time>2016-05-23T20:32:30.000Z</time>
      </trkpt>
      <trkpt lat="48.86151" lon="2.34171">
        <ele>49</ele>
        <time>2016-05-23T20:32:34.000Z</time>
      </trkpt>
      <trkpt lat="48.8614" lon="2.34198">
        <ele>48.799999237061</ele>
        <time>2016-05-23T20:32:38.000Z</time>
      </trkpt>
      <trkpt lat="48.86132" lon="2.34226">
        <ele>49</ele>
        <time>2016-05-23T20:32:42.000Z</time>
      </trkpt>
      <trkpt lat="48.8613" lon="2.34238">
        <ele>49.200000762939</ele>
        <time>2016-05-23T20:32:44.000Z</time>
      </trkpt>
      <trkpt lat="48.86125" lon="2.34265">
        <ele>49</ele>
        <time>2016-05-23T20:32:49.000Z</time>
      </trkpt>
      <trkpt lat="48.86126" lon="2.34296">
        <ele>49.599998474121</ele>
        <time>2016-05-23T20:32:54.000Z</time>
      </trkpt>
      <trkpt lat="48.86121" lon="2.34312">
        <ele>50.200000762939</ele>
        <time>2016-05-23T20:32:57.000Z</time>
      </trkpt>
      <trkpt lat="48.86113" lon="2.34338">
        <ele>50.599998474121</ele>
        <time>2016-05-23T20:33:01.000Z</time>
      </trkpt>
      <trkpt lat="48.86109" lon="2.34367">
        <ele>50.400001525879</ele>
        <time>2016-05-23T20:33:05.000Z</time>
      </trkpt>
      <trkpt lat="48.86108" lon="2.34395">
        <ele>50.200000762939</ele>
        <time>2016-05-23T20:33:09.000Z</time>
      </trkpt>
      <trkpt lat="48.86106" lon="2.34401">
        <ele>50.200000762939</ele>
        <time>2016-05-23T20:33:10.000Z</time>
      </trkpt>
      <trkpt lat="48.86098" lon="2.34432">
        <ele>50.599998474121</ele>
        <time>2016-05-23T20:33:14.000Z</time>
      </trkpt>
      <trkpt lat="48.86101" lon="2.34467">
        <ele>50.799999237061</ele>
        <time>2016-05-23T20:33:18.000Z</time>
      </trkpt>
      <trkpt lat="48.86102" lon="2.34473">
        <ele>51</ele>
        <time>2016-05-23T20:33:19.000Z</time>
      </trkpt>
      <trkpt lat="48.861" lon="2.34482">
        <ele>51.200000762939</ele>
        <time>2016-05-23T20:33:21.000Z</time>
      </trkpt>
      <trkpt lat="48.86091" lon="2.34503">
        <ele>51.200000762939</ele>
        <time>2016-05-23T20:33:37.000Z</time>
      </trkpt>
      <trkpt lat="48.8607" lon="2.34519">
        <ele>51.599998474121</ele>
        <time>2016-05-23T20:33:41.000Z</time>
      </trkpt>
      <trkpt lat="48.86057" lon="2.34541">
        <ele>51.400001525879</ele>
        <time>2016-05-23T20:33:46.000Z</time>
      </trkpt>
      <trkpt lat="48.86054" lon="2.34551">
        <ele>50.799999237061</ele>
        <time>2016-05-23T20:33:48.000Z</time>
      </trkpt>
      <trkpt lat="48.86048" lon="2.3458">
        <ele>49.400001525879</ele>
        <time>2016-05-23T20:33:53.000Z</time>
      </trkpt>
      <trkpt lat="48.86046" lon="2.34585">
        <ele>49</ele>
        <time>2016-05-23T20:33:54.000Z</time>
      </trkpt>
      <trkpt lat="48.86033" lon="2.34606">
        <ele>47.799999237061</ele>
        <time>2016-05-23T20:33:58.000Z</time>
      </trkpt>
      <trkpt lat="48.86022" lon="2.34618">
        <ele>47.599998474121</ele>
        <time>2016-05-23T20:34:01.000Z</time>
      </trkpt>
      <trkpt lat="48.86008" lon="2.34636">
        <ele>47.400001525879</ele>
        <time>2016-05-23T20:34:06.000Z</time>
      </trkpt>
      <trkpt lat="48.85992" lon="2.34651">
        <ele>47</ele>
        <time>2016-05-23T20:34:11.000Z</time>
      </trkpt>
      <trkpt lat="48.85974" lon="2.3466">
        <ele>46.799999237061</ele>
        <time>2016-05-23T20:34:16.000Z</time>
      </trkpt>
      <trkpt lat="48.85961" lon="2.34666">
        <ele>46.799999237061</ele>
        <time>2016-05-23T20:34:21.000Z</time>
      </trkpt>
      <trkpt lat="48.85959" lon="2.34684">
        <ele>46.599998474121</ele>
        <time>2016-05-23T20:34:25.000Z</time>
      </trkpt>
      <trkpt lat="48.85948" lon="2.34706">
        <ele>45.599998474121</ele>
        <time>2016-05-23T20:34:33.000Z</time>
      </trkpt>
      <trkpt lat="48.8595" lon="2.3471">
        <ele>45.400001525879</ele>
        <time>2016-05-23T20:34:36.000Z</time>
      </trkpt>
      <trkpt lat="48.85955" lon="2.34717">
        <ele>45.200000762939</ele>
        <time>2016-05-23T20:34:51.000Z</time>
      </trkpt>
    </trkseg>
  </trk>
</gpx>